<?xml version="1.0" encoding="utf-8"?>
<gpx xmlns:xsi="http://www.w3.org/2001/XMLSchema-instance" xmlns:xsd="http://www.w3.org/2001/XMLSchema" version="1.1" creator="Shapelink.com" xmlns="http://www.topografix.com/GPX/1/1" xmlns:gpxtpx="http://www.garmin.com/xmlschemas/TrackPointExtension/v1">
  <metadata>
    <name>Löpning 22.82 km, 2018-04-01</name>
    <desc></desc>
    <author><name>Bengt-Åke Forslund</name></author> 
    <time>2018-04-01T11:42:06Z</time>
  </metadata>
  <trk>
    <name>Löpning 22.82 km, 2018-04-01</name>
    <trkseg>
      <trkpt lat="62.638004497915" lon="17.917046007354">
        <ele>54.2</ele>
        <time>2018-04-01T11:42:06Z</time>
      </trkpt>
      <trkpt lat="62.638167944965" lon="17.916948693495">
        <ele>54.4</ele>
        <time>2018-04-01T11:42:19Z</time>
      </trkpt>
      <trkpt lat="62.638199712366" lon="17.916926565279">
        <ele>54.4</ele>
        <time>2018-04-01T11:42:20Z</time>
      </trkpt>
      <trkpt lat="62.638232150319" lon="17.916901587217">
        <ele>54.6</ele>
        <time>2018-04-01T11:42:21Z</time>
      </trkpt>
      <trkpt lat="62.638260732598" lon="17.916874681318">
        <ele>54.6</ele>
        <time>2018-04-01T11:42:22Z</time>
      </trkpt>
      <trkpt lat="62.638293086732" lon="17.916848362152">
        <ele>54.8</ele>
        <time>2018-04-01T11:42:23Z</time>
      </trkpt>
      <trkpt lat="62.638332565481" lon="17.916825395746">
        <ele>54.8</ele>
        <time>2018-04-01T11:42:24Z</time>
      </trkpt>
      <trkpt lat="62.638373385334" lon="17.916808631946">
        <ele>54.8</ele>
        <time>2018-04-01T11:42:25Z</time>
      </trkpt>
      <trkpt lat="62.638413450816" lon="17.916793628345">
        <ele>54.8</ele>
        <time>2018-04-01T11:42:26Z</time>
      </trkpt>
      <trkpt lat="62.638449660624" lon="17.91677560726">
        <ele>54.8</ele>
        <time>2018-04-01T11:42:27Z</time>
      </trkpt>
      <trkpt lat="62.638491151029" lon="17.916752557035">
        <ele>54.8</ele>
        <time>2018-04-01T11:42:28Z</time>
      </trkpt>
      <trkpt lat="62.638529372493" lon="17.916730512638">
        <ele>55</ele>
        <time>2018-04-01T11:42:29Z</time>
      </trkpt>
      <trkpt lat="62.638573042192" lon="17.916705953671">
        <ele>55</ele>
        <time>2018-04-01T11:42:30Z</time>
      </trkpt>
      <trkpt lat="62.638615203149" lon="17.91668675912">
        <ele>55</ele>
        <time>2018-04-01T11:42:31Z</time>
      </trkpt>
      <trkpt lat="62.638657699382" lon="17.916669827682">
        <ele>55.2</ele>
        <time>2018-04-01T11:42:32Z</time>
      </trkpt>
      <trkpt lat="62.638700279434" lon="17.91663982048">
        <ele>55.2</ele>
        <time>2018-04-01T11:42:33Z</time>
      </trkpt>
      <trkpt lat="62.638743781495" lon="17.916613082219">
        <ele>55.2</ele>
        <time>2018-04-01T11:42:34Z</time>
      </trkpt>
      <trkpt lat="62.63878778647" lon="17.916588271795">
        <ele>55.4</ele>
        <time>2018-04-01T11:42:35Z</time>
      </trkpt>
      <trkpt lat="62.638799437311" lon="17.916581901551">
        <ele>55.4</ele>
        <time>2018-04-01T11:42:36Z</time>
      </trkpt>
      <trkpt lat="62.638870180547" lon="17.916547368123">
        <ele>55.4</ele>
        <time>2018-04-01T11:42:37Z</time>
      </trkpt>
      <trkpt lat="62.63891770592" lon="17.916524234079">
        <ele>55.6</ele>
        <time>2018-04-01T11:42:38Z</time>
      </trkpt>
      <trkpt lat="62.638959866877" lon="17.916499758931">
        <ele>55.6</ele>
        <time>2018-04-01T11:42:39Z</time>
      </trkpt>
      <trkpt lat="62.639001273463" lon="17.916474026498">
        <ele>55.8</ele>
        <time>2018-04-01T11:42:40Z</time>
      </trkpt>
      <trkpt lat="62.639042093316" lon="17.916447958789">
        <ele>55.8</ele>
        <time>2018-04-01T11:42:41Z</time>
      </trkpt>
      <trkpt lat="62.639086098291" lon="17.916421555804">
        <ele>55.8</ele>
        <time>2018-04-01T11:42:42Z</time>
      </trkpt>
      <trkpt lat="62.639134294216" lon="17.916391883878">
        <ele>55.8</ele>
        <time>2018-04-01T11:42:43Z</time>
      </trkpt>
      <trkpt lat="62.639177796277" lon="17.916364307427">
        <ele>55.8</ele>
        <time>2018-04-01T11:42:44Z</time>
      </trkpt>
      <trkpt lat="62.639220879243" lon="17.916336060424">
        <ele>56</ele>
        <time>2018-04-01T11:42:45Z</time>
      </trkpt>
      <trkpt lat="62.639263626933" lon="17.916305215032">
        <ele>56</ele>
        <time>2018-04-01T11:42:46Z</time>
      </trkpt>
      <trkpt lat="62.639306123166" lon="17.916274034364">
        <ele>56</ele>
        <time>2018-04-01T11:42:47Z</time>
      </trkpt>
      <trkpt lat="62.639346356286" lon="17.91623916566">
        <ele>56</ele>
        <time>2018-04-01T11:42:48Z</time>
      </trkpt>
      <trkpt lat="62.639388601062" lon="17.916205386603">
        <ele>56</ele>
        <time>2018-04-01T11:42:49Z</time>
      </trkpt>
      <trkpt lat="62.639430426743" lon="17.91617127227">
        <ele>56</ele>
        <time>2018-04-01T11:42:50Z</time>
      </trkpt>
      <trkpt lat="62.63947007313" lon="17.916138918136">
        <ele>56.2</ele>
        <time>2018-04-01T11:42:51Z</time>
      </trkpt>
      <trkpt lat="62.639505360929" lon="17.916112431332">
        <ele>56.2</ele>
        <time>2018-04-01T11:42:52Z</time>
      </trkpt>
      <trkpt lat="62.639544588221" lon="17.916096589541">
        <ele>56.2</ele>
        <time>2018-04-01T11:42:53Z</time>
      </trkpt>
      <trkpt lat="62.639586413902" lon="17.916109413848">
        <ele>56.2</ele>
        <time>2018-04-01T11:42:54Z</time>
      </trkpt>
      <trkpt lat="62.639623797176" lon="17.916145036923">
        <ele>56.2</ele>
        <time>2018-04-01T11:42:55Z</time>
      </trkpt>
      <trkpt lat="62.639657073319" lon="17.916198010531">
        <ele>56.2</ele>
        <time>2018-04-01T11:42:56Z</time>
      </trkpt>
      <trkpt lat="62.639685236503" lon="17.916254923632">
        <ele>56.2</ele>
        <time>2018-04-01T11:42:57Z</time>
      </trkpt>
      <trkpt lat="62.639717758275" lon="17.916322733203">
        <ele>56.4</ele>
        <time>2018-04-01T11:42:58Z</time>
      </trkpt>
      <trkpt lat="62.639746759649" lon="17.916379478666">
        <ele>56.4</ele>
        <time>2018-04-01T11:42:59Z</time>
      </trkpt>
      <trkpt lat="62.639782215086" lon="17.916446282409">
        <ele>56.4</ele>
        <time>2018-04-01T11:43:00Z</time>
      </trkpt>
      <trkpt lat="62.639816580876" lon="17.916506380632">
        <ele>56.6</ele>
        <time>2018-04-01T11:43:01Z</time>
      </trkpt>
      <trkpt lat="62.63985144958" lon="17.916563209914">
        <ele>56.6</ele>
        <time>2018-04-01T11:43:02Z</time>
      </trkpt>
      <trkpt lat="62.639883468438" lon="17.916623643413">
        <ele>56.8</ele>
        <time>2018-04-01T11:43:03Z</time>
      </trkpt>
      <trkpt lat="62.639913643278" lon="17.916679550686">
        <ele>56.8</ele>
        <time>2018-04-01T11:43:04Z</time>
      </trkpt>
      <trkpt lat="62.639939375711" lon="17.916732272837">
        <ele>56.8</ele>
        <time>2018-04-01T11:43:05Z</time>
      </trkpt>
      <trkpt lat="62.639968293266" lon="17.916794131259">
        <ele>57</ele>
        <time>2018-04-01T11:43:06Z</time>
      </trkpt>
      <trkpt lat="62.639993858061" lon="17.916844841754">
        <ele>57</ele>
        <time>2018-04-01T11:43:07Z</time>
      </trkpt>
      <trkpt lat="62.640025960738" lon="17.916891445118">
        <ele>57</ele>
        <time>2018-04-01T11:43:08Z</time>
      </trkpt>
      <trkpt lat="62.640059069243" lon="17.916938551396">
        <ele>56.8</ele>
        <time>2018-04-01T11:43:09Z</time>
      </trkpt>
      <trkpt lat="62.640096787793" lon="17.916995632135">
        <ele>56.8</ele>
        <time>2018-04-01T11:43:10Z</time>
      </trkpt>
      <trkpt lat="62.640135176895" lon="17.917062100602">
        <ele>57</ele>
        <time>2018-04-01T11:43:11Z</time>
      </trkpt>
      <trkpt lat="62.640178092223" lon="17.917138292073">
        <ele>57</ele>
        <time>2018-04-01T11:43:12Z</time>
      </trkpt>
      <trkpt lat="62.640222935388" lon="17.917214232087">
        <ele>57</ele>
        <time>2018-04-01T11:43:13Z</time>
      </trkpt>
      <trkpt lat="62.64026635363" lon="17.917287489893">
        <ele>56.8</ele>
        <time>2018-04-01T11:43:14Z</time>
      </trkpt>
      <trkpt lat="62.640310526243" lon="17.917364351916">
        <ele>56.6</ele>
        <time>2018-04-01T11:43:15Z</time>
      </trkpt>
      <trkpt lat="62.640353776847" lon="17.917443728509">
        <ele>56</ele>
        <time>2018-04-01T11:43:16Z</time>
      </trkpt>
      <trkpt lat="62.640398117098" lon="17.917524613844">
        <ele>55.8</ele>
        <time>2018-04-01T11:43:17Z</time>
      </trkpt>
      <trkpt lat="62.640446313023" lon="17.917553196123">
        <ele>55.4</ele>
        <time>2018-04-01T11:43:18Z</time>
      </trkpt>
      <trkpt lat="62.640498783717" lon="17.917558560539">
        <ele>55</ele>
        <time>2018-04-01T11:43:19Z</time>
      </trkpt>
      <trkpt lat="62.640550332402" lon="17.917530062079">
        <ele>54.6</ele>
        <time>2018-04-01T11:43:20Z</time>
      </trkpt>
      <trkpt lat="62.640597103404" lon="17.917471724055">
        <ele>54.4</ele>
        <time>2018-04-01T11:43:21Z</time>
      </trkpt>
      <trkpt lat="62.640632894117" lon="17.917396119317">
        <ele>54.2</ele>
        <time>2018-04-01T11:43:22Z</time>
      </trkpt>
      <trkpt lat="62.640665667346" lon="17.917299308372">
        <ele>54</ele>
        <time>2018-04-01T11:43:23Z</time>
      </trkpt>
      <trkpt lat="62.640699111127" lon="17.91719302588">
        <ele>53.8</ele>
        <time>2018-04-01T11:43:24Z</time>
      </trkpt>
      <trkpt lat="62.640730878528" lon="17.917099483876">
        <ele>53.6</ele>
        <time>2018-04-01T11:43:25Z</time>
      </trkpt>
      <trkpt lat="62.640760215178" lon="17.917017341256">
        <ele>53.4</ele>
        <time>2018-04-01T11:43:26Z</time>
      </trkpt>
      <trkpt lat="62.640788797457" lon="17.916943077622">
        <ele>53.2</ele>
        <time>2018-04-01T11:43:27Z</time>
      </trkpt>
      <trkpt lat="62.640822325057" lon="17.91686110264">
        <ele>53.2</ele>
        <time>2018-04-01T11:43:28Z</time>
      </trkpt>
      <trkpt lat="62.640851242612" lon="17.916791616689">
        <ele>53.2</ele>
        <time>2018-04-01T11:43:29Z</time>
      </trkpt>
      <trkpt lat="62.640882507099" lon="17.916712826829">
        <ele>53.4</ele>
        <time>2018-04-01T11:43:30Z</time>
      </trkpt>
      <trkpt lat="62.640909496817" lon="17.916641413041">
        <ele>53.4</ele>
        <time>2018-04-01T11:43:31Z</time>
      </trkpt>
      <trkpt lat="62.640936318897" lon="17.916571675633">
        <ele>53.6</ele>
        <time>2018-04-01T11:43:32Z</time>
      </trkpt>
      <trkpt lat="62.64096624228" lon="17.916501100035">
        <ele>53.6</ele>
        <time>2018-04-01T11:43:33Z</time>
      </trkpt>
      <trkpt lat="62.640995998025" lon="17.91643111117">
        <ele>53.8</ele>
        <time>2018-04-01T11:43:34Z</time>
      </trkpt>
      <trkpt lat="62.641021814277" lon="17.916364307427">
        <ele>54.2</ele>
        <time>2018-04-01T11:43:35Z</time>
      </trkpt>
      <trkpt lat="62.641051234746" lon="17.916285433748">
        <ele>54.4</ele>
        <time>2018-04-01T11:43:36Z</time>
      </trkpt>
      <trkpt lat="62.641076799541" lon="17.916216366892">
        <ele>54.4</ele>
        <time>2018-04-01T11:43:37Z</time>
      </trkpt>
      <trkpt lat="62.641105884734" lon="17.916137577032">
        <ele>54.6</ele>
        <time>2018-04-01T11:43:38Z</time>
      </trkpt>
      <trkpt lat="62.641133712642" lon="17.916066247063">
        <ele>54.8</ele>
        <time>2018-04-01T11:43:39Z</time>
      </trkpt>
      <trkpt lat="62.641162546378" lon="17.915994749456">
        <ele>55</ele>
        <time>2018-04-01T11:43:40Z</time>
      </trkpt>
      <trkpt lat="62.641190625743" lon="17.915925095867">
        <ele>55</ele>
        <time>2018-04-01T11:43:41Z</time>
      </trkpt>
      <trkpt lat="62.641217866918" lon="17.915853933536">
        <ele>55.2</ele>
        <time>2018-04-01T11:43:42Z</time>
      </trkpt>
      <trkpt lat="62.641250137233" lon="17.915777742065">
        <ele>55.2</ele>
        <time>2018-04-01T11:43:43Z</time>
      </trkpt>
      <trkpt lat="62.641280312073" lon="17.915708256114">
        <ele>55.4</ele>
        <time>2018-04-01T11:43:44Z</time>
      </trkpt>
      <trkpt lat="62.641310822189" lon="17.915638434887">
        <ele>55.6</ele>
        <time>2018-04-01T11:43:45Z</time>
      </trkpt>
      <trkpt lat="62.641340158839" lon="17.915570206221">
        <ele>55.8</ele>
        <time>2018-04-01T11:43:46Z</time>
      </trkpt>
      <trkpt lat="62.64136941167" lon="17.915502899564">
        <ele>56</ele>
        <time>2018-04-01T11:43:47Z</time>
      </trkpt>
      <trkpt lat="62.641400676157" lon="17.91543366507">
        <ele>56.2</ele>
        <time>2018-04-01T11:43:48Z</time>
      </trkpt>
      <trkpt lat="62.641431102454" lon="17.915367615698">
        <ele>56.6</ele>
        <time>2018-04-01T11:43:49Z</time>
      </trkpt>
      <trkpt lat="62.641460439104" lon="17.915301733964">
        <ele>56.8</ele>
        <time>2018-04-01T11:43:50Z</time>
      </trkpt>
      <trkpt lat="62.641489105202" lon="17.915236355144">
        <ele>57</ele>
        <time>2018-04-01T11:43:51Z</time>
      </trkpt>
      <trkpt lat="62.641515005273" lon="17.915178436215">
        <ele>57</ele>
        <time>2018-04-01T11:43:52Z</time>
      </trkpt>
      <trkpt lat="62.641545347751" lon="17.915118757087">
        <ele>57.2</ele>
        <time>2018-04-01T11:43:53Z</time>
      </trkpt>
      <trkpt lat="62.641577953342" lon="17.915054467914">
        <ele>57.4</ele>
        <time>2018-04-01T11:43:54Z</time>
      </trkpt>
      <trkpt lat="62.641606703259" lon="17.914994621148">
        <ele>57.6</ele>
        <time>2018-04-01T11:43:55Z</time>
      </trkpt>
      <trkpt lat="62.641637716289" lon="17.914938127142">
        <ele>57.6</ele>
        <time>2018-04-01T11:43:56Z</time>
      </trkpt>
      <trkpt lat="62.641667555853" lon="17.914885069715">
        <ele>57.8</ele>
        <time>2018-04-01T11:43:57Z</time>
      </trkpt>
      <trkpt lat="62.641701167272" lon="17.914824468578">
        <ele>58</ele>
        <time>2018-04-01T11:43:58Z</time>
      </trkpt>
      <trkpt lat="62.641730336284" lon="17.914774512454">
        <ele>58</ele>
        <time>2018-04-01T11:43:59Z</time>
      </trkpt>
      <trkpt lat="62.641764702074" lon="17.91471701262">
        <ele>58.2</ele>
        <time>2018-04-01T11:44:00Z</time>
      </trkpt>
      <trkpt lat="62.641796553294" lon="17.914662781727">
        <ele>58.2</ele>
        <time>2018-04-01T11:44:01Z</time>
      </trkpt>
      <trkpt lat="62.641828320695" lon="17.91460888611">
        <ele>58.4</ele>
        <time>2018-04-01T11:44:02Z</time>
      </trkpt>
      <trkpt lat="62.641862518847" lon="17.91455272738">
        <ele>58.4</ele>
        <time>2018-04-01T11:44:03Z</time>
      </trkpt>
      <trkpt lat="62.641895124438" lon="17.914502268342">
        <ele>58.6</ele>
        <time>2018-04-01T11:44:04Z</time>
      </trkpt>
      <trkpt lat="62.641927562391" lon="17.91445214458">
        <ele>58.8</ele>
        <time>2018-04-01T11:44:05Z</time>
      </trkpt>
      <trkpt lat="62.641964442751" lon="17.914394058013">
        <ele>59</ele>
        <time>2018-04-01T11:44:06Z</time>
      </trkpt>
      <trkpt lat="62.641997383618" lon="17.914342425509">
        <ele>59.2</ele>
        <time>2018-04-01T11:44:07Z</time>
      </trkpt>
      <trkpt lat="62.642033509607" lon="17.914285009494">
        <ele>59.2</ele>
        <time>2018-04-01T11:44:08Z</time>
      </trkpt>
      <trkpt lat="62.642067791578" lon="17.914231952067">
        <ele>59.6</ele>
        <time>2018-04-01T11:44:09Z</time>
      </trkpt>
      <trkpt lat="62.64210282792" lon="17.91418140921">
        <ele>59.6</ele>
        <time>2018-04-01T11:44:10Z</time>
      </trkpt>
      <trkpt lat="62.642139037728" lon="17.914138242425">
        <ele>59.8</ele>
        <time>2018-04-01T11:44:11Z</time>
      </trkpt>
      <trkpt lat="62.642176840097" lon="17.914097757848">
        <ele>59.8</ele>
        <time>2018-04-01T11:44:12Z</time>
      </trkpt>
      <trkpt lat="62.642215899751" lon="17.914051657398">
        <ele>60.2</ele>
        <time>2018-04-01T11:44:13Z</time>
      </trkpt>
      <trkpt lat="62.642249594989" lon="17.914001282179">
        <ele>60.2</ele>
        <time>2018-04-01T11:44:14Z</time>
      </trkpt>
      <trkpt lat="62.642282787313" lon="17.913946799829">
        <ele>60.4</ele>
        <time>2018-04-01T11:44:15Z</time>
      </trkpt>
      <trkpt lat="62.642315560542" lon="17.913894999687">
        <ele>60.6</ele>
        <time>2018-04-01T11:44:16Z</time>
      </trkpt>
      <trkpt lat="62.642348752866" lon="17.913844959744">
        <ele>60.6</ele>
        <time>2018-04-01T11:44:17Z</time>
      </trkpt>
      <trkpt lat="62.642379346801" lon="17.913790309756">
        <ele>60.8</ele>
        <time>2018-04-01T11:44:18Z</time>
      </trkpt>
      <trkpt lat="62.642410695107" lon="17.913739180166">
        <ele>61</ele>
        <time>2018-04-01T11:44:19Z</time>
      </trkpt>
      <trkpt lat="62.642444557983" lon="17.913690397508">
        <ele>61</ele>
        <time>2018-04-01T11:44:20Z</time>
      </trkpt>
      <trkpt lat="62.642475654832" lon="17.913640860479">
        <ele>61</ele>
        <time>2018-04-01T11:44:21Z</time>
      </trkpt>
      <trkpt lat="62.642504572387" lon="17.913592329278">
        <ele>61</ele>
        <time>2018-04-01T11:44:22Z</time>
      </trkpt>
      <trkpt lat="62.642535082503" lon="17.913540864412">
        <ele>61.4</ele>
        <time>2018-04-01T11:44:23Z</time>
      </trkpt>
      <trkpt lat="62.642567855732" lon="17.9134865497">
        <ele>61.4</ele>
        <time>2018-04-01T11:44:24Z</time>
      </trkpt>
      <trkpt lat="62.642599120219" lon="17.913436928852">
        <ele>61.6</ele>
        <time>2018-04-01T11:44:25Z</time>
      </trkpt>
      <trkpt lat="62.642629714154" lon="17.913391918049">
        <ele>61.8</ele>
        <time>2018-04-01T11:44:26Z</time>
      </trkpt>
      <trkpt lat="62.642657961157" lon="17.913349254178">
        <ele>62</ele>
        <time>2018-04-01T11:44:27Z</time>
      </trkpt>
      <trkpt lat="62.642690063834" lon="17.913296867303">
        <ele>62.2</ele>
        <time>2018-04-01T11:44:28Z</time>
      </trkpt>
      <trkpt lat="62.642718227018" lon="17.913251437405">
        <ele>62.4</ele>
        <time>2018-04-01T11:44:29Z</time>
      </trkpt>
      <trkpt lat="62.642750078238" lon="17.913199301987">
        <ele>62.4</ele>
        <time>2018-04-01T11:44:30Z</time>
      </trkpt>
      <trkpt lat="62.642779163431" lon="17.913151776614">
        <ele>62.6</ele>
        <time>2018-04-01T11:44:31Z</time>
      </trkpt>
      <trkpt lat="62.642807410434" lon="17.913105843802">
        <ele>62.6</ele>
        <time>2018-04-01T11:44:32Z</time>
      </trkpt>
      <trkpt lat="62.642836495627" lon="17.91305488185">
        <ele>63</ele>
        <time>2018-04-01T11:44:33Z</time>
      </trkpt>
      <trkpt lat="62.642865748458" lon="17.913007859391">
        <ele>63</ele>
        <time>2018-04-01T11:44:34Z</time>
      </trkpt>
      <trkpt lat="62.642894330737" lon="17.912963686778">
        <ele>63.4</ele>
        <time>2018-04-01T11:44:35Z</time>
      </trkpt>
      <trkpt lat="62.642925595224" lon="17.91291574231">
        <ele>63.4</ele>
        <time>2018-04-01T11:44:36Z</time>
      </trkpt>
      <trkpt lat="62.642955350969" lon="17.912870228593">
        <ele>63.6</ele>
        <time>2018-04-01T11:44:37Z</time>
      </trkpt>
      <trkpt lat="62.642987286008" lon="17.912817254985">
        <ele>63.8</ele>
        <time>2018-04-01T11:44:38Z</time>
      </trkpt>
      <trkpt lat="62.643017628486" lon="17.912765873938">
        <ele>63.8</ele>
        <time>2018-04-01T11:44:39Z</time>
      </trkpt>
      <trkpt lat="62.643047887145" lon="17.912718516203">
        <ele>64</ele>
        <time>2018-04-01T11:44:40Z</time>
      </trkpt>
      <trkpt lat="62.643077978166" lon="17.912674846504">
        <ele>64</ele>
        <time>2018-04-01T11:44:41Z</time>
      </trkpt>
      <trkpt lat="62.643109075015" lon="17.912627740226">
        <ele>64.2</ele>
        <time>2018-04-01T11:44:42Z</time>
      </trkpt>
      <trkpt lat="62.643142686434" lon="17.912574850437">
        <ele>64.4</ele>
        <time>2018-04-01T11:44:43Z</time>
      </trkpt>
      <trkpt lat="62.643173867102" lon="17.912522882657">
        <ele>64.6</ele>
        <time>2018-04-01T11:44:44Z</time>
      </trkpt>
      <trkpt lat="62.643202952295" lon="17.912477955673">
        <ele>64.6</ele>
        <time>2018-04-01T11:44:45Z</time>
      </trkpt>
      <trkpt lat="62.643234216782" lon="17.912429508291">
        <ele>65</ele>
        <time>2018-04-01T11:44:46Z</time>
      </trkpt>
      <trkpt lat="62.643264978355" lon="17.912380557995">
        <ele>65</ele>
        <time>2018-04-01T11:44:47Z</time>
      </trkpt>
      <trkpt lat="62.643293392996" lon="17.912329093129">
        <ele>65.2</ele>
        <time>2018-04-01T11:44:48Z</time>
      </trkpt>
      <trkpt lat="62.643322310551" lon="17.912281064842">
        <ele>65.2</ele>
        <time>2018-04-01T11:44:49Z</time>
      </trkpt>
      <trkpt lat="62.643350557554" lon="17.912233539469">
        <ele>65.4</ele>
        <time>2018-04-01T11:44:50Z</time>
      </trkpt>
      <trkpt lat="62.643379810385" lon="17.912183248069">
        <ele>65.4</ele>
        <time>2018-04-01T11:44:51Z</time>
      </trkpt>
      <trkpt lat="62.643408308845" lon="17.912137231438">
        <ele>65.6</ele>
        <time>2018-04-01T11:44:52Z</time>
      </trkpt>
      <trkpt lat="62.643439321875" lon="17.91208928697">
        <ele>65.6</ele>
        <time>2018-04-01T11:44:53Z</time>
      </trkpt>
      <trkpt lat="62.643471759828" lon="17.912034050249">
        <ele>65.6</ele>
        <time>2018-04-01T11:44:54Z</time>
      </trkpt>
      <trkpt lat="62.643503024315" lon="17.911980238451">
        <ele>65.8</ele>
        <time>2018-04-01T11:44:55Z</time>
      </trkpt>
      <trkpt lat="62.643535210811" lon="17.911926845748">
        <ele>65.8</ele>
        <time>2018-04-01T11:44:56Z</time>
      </trkpt>
      <trkpt lat="62.643565888565" lon="17.911876302891">
        <ele>66</ele>
        <time>2018-04-01T11:44:57Z</time>
      </trkpt>
      <trkpt lat="62.643597991242" lon="17.911817210496">
        <ele>66.2</ele>
        <time>2018-04-01T11:44:58Z</time>
      </trkpt>
      <trkpt lat="62.643626070607" lon="17.91176574563">
        <ele>66.2</ele>
        <time>2018-04-01T11:44:59Z</time>
      </trkpt>
      <trkpt lat="62.643657586551" lon="17.911714699859">
        <ele>66.4</ele>
        <time>2018-04-01T11:45:00Z</time>
      </trkpt>
      <trkpt lat="62.643692287617" lon="17.911665833382">
        <ele>66.6</ele>
        <time>2018-04-01T11:45:01Z</time>
      </trkpt>
      <trkpt lat="62.643726904864" lon="17.91162073876">
        <ele>66.6</ele>
        <time>2018-04-01T11:45:02Z</time>
      </trkpt>
      <trkpt lat="62.64375825317" lon="17.911567346057">
        <ele>66.8</ele>
        <time>2018-04-01T11:45:03Z</time>
      </trkpt>
      <trkpt lat="62.643788176553" lon="17.911520323598">
        <ele>67</ele>
        <time>2018-04-01T11:45:04Z</time>
      </trkpt>
      <trkpt lat="62.643815501547" lon="17.911470870388">
        <ele>67.2</ele>
        <time>2018-04-01T11:45:05Z</time>
      </trkpt>
      <trkpt lat="62.643845676387" lon="17.911413035278">
        <ele>67.4</ele>
        <time>2018-04-01T11:45:06Z</time>
      </trkpt>
      <trkpt lat="62.643872163191" lon="17.911361067498">
        <ele>67.4</ele>
        <time>2018-04-01T11:45:07Z</time>
      </trkpt>
      <trkpt lat="62.643902002755" lon="17.91129719742">
        <ele>67.6</ele>
        <time>2018-04-01T11:45:08Z</time>
      </trkpt>
      <trkpt lat="62.643927651369" lon="17.911234752265">
        <ele>67.8</ele>
        <time>2018-04-01T11:45:09Z</time>
      </trkpt>
      <trkpt lat="62.643952461793" lon="17.911173564395">
        <ele>68</ele>
        <time>2018-04-01T11:45:10Z</time>
      </trkpt>
      <trkpt lat="62.643976014932" lon="17.911114555819">
        <ele>68</ele>
        <time>2018-04-01T11:45:11Z</time>
      </trkpt>
      <trkpt lat="62.644002753193" lon="17.911049009361">
        <ele>68</ele>
        <time>2018-04-01T11:45:12Z</time>
      </trkpt>
      <trkpt lat="62.644031922205" lon="17.910988911138">
        <ele>68.2</ele>
        <time>2018-04-01T11:45:13Z</time>
      </trkpt>
      <trkpt lat="62.644057906095" lon="17.910934596426">
        <ele>68.2</ele>
        <time>2018-04-01T11:45:14Z</time>
      </trkpt>
      <trkpt lat="62.644082213605" lon="17.910879862619">
        <ele>68.4</ele>
        <time>2018-04-01T11:45:15Z</time>
      </trkpt>
      <trkpt lat="62.644106269658" lon="17.910825967002">
        <ele>68.4</ele>
        <time>2018-04-01T11:45:16Z</time>
      </trkpt>
      <trkpt lat="62.644131080082" lon="17.910773161032">
        <ele>68.4</ele>
        <time>2018-04-01T11:45:17Z</time>
      </trkpt>
      <trkpt lat="62.644154297945" lon="17.910714823008">
        <ele>68.6</ele>
        <time>2018-04-01T11:45:18Z</time>
      </trkpt>
      <trkpt lat="62.644179192188" lon="17.910658831916">
        <ele>68.6</ele>
        <time>2018-04-01T11:45:19Z</time>
      </trkpt>
      <trkpt lat="62.64420417025" lon="17.910600074797">
        <ele>68.8</ele>
        <time>2018-04-01T11:45:20Z</time>
      </trkpt>
      <trkpt lat="62.64422847776" lon="17.910544418981">
        <ele>68.8</ele>
        <time>2018-04-01T11:45:21Z</time>
      </trkpt>
      <trkpt lat="62.64424775613" lon="17.910491529192">
        <ele>68.8</ele>
        <time>2018-04-01T11:45:22Z</time>
      </trkpt>
      <trkpt lat="62.644266363948" lon="17.910429503132">
        <ele>69</ele>
        <time>2018-04-01T11:45:23Z</time>
      </trkpt>
      <trkpt lat="62.644287318698" lon="17.910364627226">
        <ele>69</ele>
        <time>2018-04-01T11:45:24Z</time>
      </trkpt>
      <trkpt lat="62.644309027819" lon="17.910299332225">
        <ele>69</ele>
        <time>2018-04-01T11:45:25Z</time>
      </trkpt>
      <trkpt lat="62.644333083872" lon="17.91022934336">
        <ele>69</ele>
        <time>2018-04-01T11:45:26Z</time>
      </trkpt>
      <trkpt lat="62.644356888468" lon="17.910157175201">
        <ele>69</ele>
        <time>2018-04-01T11:45:27Z</time>
      </trkpt>
      <trkpt lat="62.64438270472" lon="17.910070506355">
        <ele>69</ele>
        <time>2018-04-01T11:45:28Z</time>
      </trkpt>
      <trkpt lat="62.644404749117" lon="17.909984508061">
        <ele>69</ele>
        <time>2018-04-01T11:45:29Z</time>
      </trkpt>
      <trkpt lat="62.644427631704" lon="17.909881829786">
        <ele>69</ele>
        <time>2018-04-01T11:45:30Z</time>
      </trkpt>
      <trkpt lat="62.644447496807" lon="17.909779486787">
        <ele>69</ele>
        <time>2018-04-01T11:45:31Z</time>
      </trkpt>
      <trkpt lat="62.644467613367" lon="17.909677562883">
        <ele>69</ele>
        <time>2018-04-01T11:45:32Z</time>
      </trkpt>
      <trkpt lat="62.644484712443" lon="17.909558204627">
        <ele>69</ele>
        <time>2018-04-01T11:45:33Z</time>
      </trkpt>
      <trkpt lat="62.64450005132" lon="17.909436667077">
        <ele>69</ele>
        <time>2018-04-01T11:45:34Z</time>
      </trkpt>
      <trkpt lat="62.644515054921" lon="17.909315548622">
        <ele>69</ele>
        <time>2018-04-01T11:45:35Z</time>
      </trkpt>
      <trkpt lat="62.644511618342" lon="17.909276656606">
        <ele>69</ele>
        <time>2018-04-01T11:45:36Z</time>
      </trkpt>
      <trkpt lat="62.644517988586" lon="17.909039532655">
        <ele>68.8</ele>
        <time>2018-04-01T11:45:37Z</time>
      </trkpt>
      <trkpt lat="62.644516228387" lon="17.908893771414">
        <ele>68.8</ele>
        <time>2018-04-01T11:45:38Z</time>
      </trkpt>
      <trkpt lat="62.644511199247" lon="17.908758403729">
        <ele>68.6</ele>
        <time>2018-04-01T11:45:39Z</time>
      </trkpt>
      <trkpt lat="62.644503739356" lon="17.90861247485">
        <ele>68.4</ele>
        <time>2018-04-01T11:45:40Z</time>
      </trkpt>
      <trkpt lat="62.644492926705" lon="17.908477107165">
        <ele>68</ele>
        <time>2018-04-01T11:45:41Z</time>
      </trkpt>
      <trkpt lat="62.644476414362" lon="17.908335620693">
        <ele>67.8</ele>
        <time>2018-04-01T11:45:42Z</time>
      </trkpt>
      <trkpt lat="62.644450765748" lon="17.908174688213">
        <ele>67.4</ele>
        <time>2018-04-01T11:45:43Z</time>
      </trkpt>
      <trkpt lat="62.644422351107" lon="17.908036805958">
        <ele>67.2</ele>
        <time>2018-04-01T11:45:44Z</time>
      </trkpt>
      <trkpt lat="62.644391840991" lon="17.907919878453">
        <ele>66.8</ele>
        <time>2018-04-01T11:45:45Z</time>
      </trkpt>
      <trkpt lat="62.644353032794" lon="17.907788114985">
        <ele>66.6</ele>
        <time>2018-04-01T11:45:46Z</time>
      </trkpt>
      <trkpt lat="62.644316236253" lon="17.907667583263">
        <ele>66.4</ele>
        <time>2018-04-01T11:45:47Z</time>
      </trkpt>
      <trkpt lat="62.644286731965" lon="17.907555936355">
        <ele>66</ele>
        <time>2018-04-01T11:45:48Z</time>
      </trkpt>
      <trkpt lat="62.644250522157" lon="17.907439260307">
        <ele>65.8</ele>
        <time>2018-04-01T11:45:49Z</time>
      </trkpt>
      <trkpt lat="62.644214312349" lon="17.90733339691">
        <ele>65.8</ele>
        <time>2018-04-01T11:45:50Z</time>
      </trkpt>
      <trkpt lat="62.644178018722" lon="17.90723113773">
        <ele>65.8</ele>
        <time>2018-04-01T11:45:51Z</time>
      </trkpt>
      <trkpt lat="62.644141306" lon="17.907138182459">
        <ele>65.8</ele>
        <time>2018-04-01T11:45:52Z</time>
      </trkpt>
      <trkpt lat="62.644104928554" lon="17.907041455333">
        <ele>65.8</ele>
        <time>2018-04-01T11:45:53Z</time>
      </trkpt>
      <trkpt lat="62.644069054022" lon="17.906938106506">
        <ele>66</ele>
        <time>2018-04-01T11:45:54Z</time>
      </trkpt>
      <trkpt lat="62.644037789535" lon="17.906844061588">
        <ele>66</ele>
        <time>2018-04-01T11:45:55Z</time>
      </trkpt>
      <trkpt lat="62.644003088469" lon="17.906752615059">
        <ele>66</ele>
        <time>2018-04-01T11:45:56Z</time>
      </trkpt>
      <trkpt lat="62.643971237249" lon="17.906669718068">
        <ele>66.2</ele>
        <time>2018-04-01T11:45:57Z</time>
      </trkpt>
      <trkpt lat="62.643936117088" lon="17.906577852444">
        <ele>66.4</ele>
        <time>2018-04-01T11:45:58Z</time>
      </trkpt>
      <trkpt lat="62.643904517325" lon="17.906498056756">
        <ele>66.4</ele>
        <time>2018-04-01T11:45:59Z</time>
      </trkpt>
      <trkpt lat="62.643869983897" lon="17.906407699874">
        <ele>66.6</ele>
        <time>2018-04-01T11:46:00Z</time>
      </trkpt>
      <trkpt lat="62.643838467953" lon="17.906322958865">
        <ele>66.8</ele>
        <time>2018-04-01T11:46:01Z</time>
      </trkpt>
      <trkpt lat="62.643809550398" lon="17.906238301675">
        <ele>66.8</ele>
        <time>2018-04-01T11:46:02Z</time>
      </trkpt>
      <trkpt lat="62.643774514056" lon="17.906154398856">
        <ele>67</ele>
        <time>2018-04-01T11:46:03Z</time>
      </trkpt>
      <trkpt lat="62.643744255397" lon="17.906063790517">
        <ele>67.2</ele>
        <time>2018-04-01T11:46:04Z</time>
      </trkpt>
      <trkpt lat="62.643717433317" lon="17.905984497743">
        <ele>67.2</ele>
        <time>2018-04-01T11:46:05Z</time>
      </trkpt>
      <trkpt lat="62.643684743907" lon="17.905890620463">
        <ele>67.2</ele>
        <time>2018-04-01T11:46:06Z</time>
      </trkpt>
      <trkpt lat="62.643655239619" lon="17.905805125083">
        <ele>67.4</ele>
        <time>2018-04-01T11:46:07Z</time>
      </trkpt>
      <trkpt lat="62.643623639856" lon="17.905712588907">
        <ele>67.4</ele>
        <time>2018-04-01T11:46:08Z</time>
      </trkpt>
      <trkpt lat="62.643593213559" lon="17.905619885093">
        <ele>67.4</ele>
        <time>2018-04-01T11:46:09Z</time>
      </trkpt>
      <trkpt lat="62.643561446158" lon="17.905526510727">
        <ele>67.6</ele>
        <time>2018-04-01T11:46:10Z</time>
      </trkpt>
      <trkpt lat="62.643529846395" lon="17.90543824932">
        <ele>67.6</ele>
        <time>2018-04-01T11:46:11Z</time>
      </trkpt>
      <trkpt lat="62.643496570252" lon="17.905344623497">
        <ele>67.6</ele>
        <time>2018-04-01T11:46:12Z</time>
      </trkpt>
      <trkpt lat="62.643460276625" lon="17.905235072064">
        <ele>67.6</ele>
        <time>2018-04-01T11:46:13Z</time>
      </trkpt>
      <trkpt lat="62.643427671034" lon="17.905130046857">
        <ele>67.6</ele>
        <time>2018-04-01T11:46:14Z</time>
      </trkpt>
      <trkpt lat="62.643393389063" lon="17.905022590899">
        <ele>67.6</ele>
        <time>2018-04-01T11:46:15Z</time>
      </trkpt>
      <trkpt lat="62.643360364377" lon="17.904914967303">
        <ele>67.6</ele>
        <time>2018-04-01T11:46:16Z</time>
      </trkpt>
      <trkpt lat="62.643329267528" lon="17.904807846621">
        <ele>67.6</ele>
        <time>2018-04-01T11:46:17Z</time>
      </trkpt>
      <trkpt lat="62.643295237014" lon="17.904697121722">
        <ele>67.6</ele>
        <time>2018-04-01T11:46:18Z</time>
      </trkpt>
      <trkpt lat="62.643264726898" lon="17.904584888081">
        <ele>67.6</ele>
        <time>2018-04-01T11:46:19Z</time>
      </trkpt>
      <trkpt lat="62.643237150447" lon="17.904472151526">
        <ele>67.8</ele>
        <time>2018-04-01T11:46:20Z</time>
      </trkpt>
      <trkpt lat="62.643211501833" lon="17.90435698422">
        <ele>67.8</ele>
        <time>2018-04-01T11:46:21Z</time>
      </trkpt>
      <trkpt lat="62.64318996035" lon="17.904249947357">
        <ele>67.8</ele>
        <time>2018-04-01T11:46:22Z</time>
      </trkpt>
      <trkpt lat="62.643170849618" lon="17.90413318749">
        <ele>67.8</ele>
        <time>2018-04-01T11:46:23Z</time>
      </trkpt>
      <trkpt lat="62.643152744714" lon="17.904008716275">
        <ele>67.6</ele>
        <time>2018-04-01T11:46:24Z</time>
      </trkpt>
      <trkpt lat="62.643137908751" lon="17.903887514001">
        <ele>67.4</ele>
        <time>2018-04-01T11:46:25Z</time>
      </trkpt>
      <trkpt lat="62.64312541972" lon="17.903766311727">
        <ele>67.4</ele>
        <time>2018-04-01T11:46:26Z</time>
      </trkpt>
      <trkpt lat="62.643114774707" lon="17.903652653163">
        <ele>67.2</ele>
        <time>2018-04-01T11:46:27Z</time>
      </trkpt>
      <trkpt lat="62.643103962056" lon="17.903523907179">
        <ele>67.2</ele>
        <time>2018-04-01T11:46:28Z</time>
      </trkpt>
      <trkpt lat="62.643095328699" lon="17.903411589719">
        <ele>67.2</ele>
        <time>2018-04-01T11:46:29Z</time>
      </trkpt>
      <trkpt lat="62.643089042274" lon="17.903287621418">
        <ele>67.4</ele>
        <time>2018-04-01T11:46:30Z</time>
      </trkpt>
      <trkpt lat="62.643084516048" lon="17.903171280646">
        <ele>67.4</ele>
        <time>2018-04-01T11:46:31Z</time>
      </trkpt>
      <trkpt lat="62.643080325098" lon="17.903055861883">
        <ele>67.4</ele>
        <time>2018-04-01T11:46:32Z</time>
      </trkpt>
      <trkpt lat="62.643081414745" lon="17.902930301021">
        <ele>67.4</ele>
        <time>2018-04-01T11:46:33Z</time>
      </trkpt>
      <trkpt lat="62.64308099565" lon="17.902808092919">
        <ele>67.6</ele>
        <time>2018-04-01T11:46:34Z</time>
      </trkpt>
      <trkpt lat="62.643081414745" lon="17.902692757975">
        <ele>67.6</ele>
        <time>2018-04-01T11:46:35Z</time>
      </trkpt>
      <trkpt lat="62.643082001478" lon="17.902564011991">
        <ele>67.6</ele>
        <time>2018-04-01T11:46:36Z</time>
      </trkpt>
      <trkpt lat="62.64308351022" lon="17.902446916848">
        <ele>67.6</ele>
        <time>2018-04-01T11:46:37Z</time>
      </trkpt>
      <trkpt lat="62.643086192428" lon="17.902316494484">
        <ele>67.6</ele>
        <time>2018-04-01T11:46:38Z</time>
      </trkpt>
      <trkpt lat="62.643089629007" lon="17.902197136228">
        <ele>67.6</ele>
        <time>2018-04-01T11:46:39Z</time>
      </trkpt>
      <trkpt lat="62.643092897948" lon="17.902068222606">
        <ele>67.6</ele>
        <time>2018-04-01T11:46:40Z</time>
      </trkpt>
      <trkpt lat="62.643095663975" lon="17.901955737508">
        <ele>67.6</ele>
        <time>2018-04-01T11:46:41Z</time>
      </trkpt>
      <trkpt lat="62.643099016735" lon="17.901832188302">
        <ele>67.6</ele>
        <time>2018-04-01T11:46:42Z</time>
      </trkpt>
      <trkpt lat="62.643102537133" lon="17.901699754282">
        <ele>67.4</ele>
        <time>2018-04-01T11:46:43Z</time>
      </trkpt>
      <trkpt lat="62.643103962056" lon="17.901575785981">
        <ele>67.4</ele>
        <time>2018-04-01T11:46:44Z</time>
      </trkpt>
      <trkpt lat="62.643107985368" lon="17.9014501413">
        <ele>67.6</ele>
        <time>2018-04-01T11:46:45Z</time>
      </trkpt>
      <trkpt lat="62.643112511594" lon="17.901323239334">
        <ele>67.6</ele>
        <time>2018-04-01T11:46:46Z</time>
      </trkpt>
      <trkpt lat="62.643116954001" lon="17.901197091739">
        <ele>67.6</ele>
        <time>2018-04-01T11:46:47Z</time>
      </trkpt>
      <trkpt lat="62.643118127467" lon="17.901070022135">
        <ele>67.6</ele>
        <time>2018-04-01T11:46:48Z</time>
      </trkpt>
      <trkpt lat="62.643120558218" lon="17.900936247011">
        <ele>67.6</ele>
        <time>2018-04-01T11:46:49Z</time>
      </trkpt>
      <trkpt lat="62.643123072788" lon="17.900810686149">
        <ele>67.6</ele>
        <time>2018-04-01T11:46:50Z</time>
      </trkpt>
      <trkpt lat="62.643124162435" lon="17.900688394228">
        <ele>67.8</ele>
        <time>2018-04-01T11:46:51Z</time>
      </trkpt>
      <trkpt lat="62.643125503539" lon="17.90057255637">
        <ele>67.8</ele>
        <time>2018-04-01T11:46:52Z</time>
      </trkpt>
      <trkpt lat="62.643126425548" lon="17.900448001336">
        <ele>68</ele>
        <time>2018-04-01T11:46:53Z</time>
      </trkpt>
      <trkpt lat="62.643129275394" lon="17.900313890936">
        <ele>68</ele>
        <time>2018-04-01T11:46:54Z</time>
      </trkpt>
      <trkpt lat="62.643131035593" lon="17.90018782716">
        <ele>68</ele>
        <time>2018-04-01T11:46:55Z</time>
      </trkpt>
      <trkpt lat="62.643133717801" lon="17.900061847203">
        <ele>67.8</ele>
        <time>2018-04-01T11:46:56Z</time>
      </trkpt>
      <trkpt lat="62.643136819104" lon="17.899945422612">
        <ele>68</ele>
        <time>2018-04-01T11:46:57Z</time>
      </trkpt>
      <trkpt lat="62.643141429149" lon="17.899810893117">
        <ele>68</ele>
        <time>2018-04-01T11:46:58Z</time>
      </trkpt>
      <trkpt lat="62.643147296479" lon="17.899685248436">
        <ele>67.8</ele>
        <time>2018-04-01T11:46:59Z</time>
      </trkpt>
      <trkpt lat="62.643146290651" lon="17.899651637017">
        <ele>67.8</ele>
        <time>2018-04-01T11:47:00Z</time>
      </trkpt>
      <trkpt lat="62.643149978687" lon="17.899426163907">
        <ele>68</ele>
        <time>2018-04-01T11:47:01Z</time>
      </trkpt>
      <trkpt lat="62.643152157981" lon="17.899314600818">
        <ele>68</ele>
        <time>2018-04-01T11:47:02Z</time>
      </trkpt>
      <trkpt lat="62.643154421094" lon="17.899176550925">
        <ele>68</ele>
        <time>2018-04-01T11:47:03Z</time>
      </trkpt>
      <trkpt lat="62.643156768026" lon="17.899044536">
        <ele>67.8</ele>
        <time>2018-04-01T11:47:04Z</time>
      </trkpt>
      <trkpt lat="62.643159617872" lon="17.898923249907">
        <ele>67.8</ele>
        <time>2018-04-01T11:47:05Z</time>
      </trkpt>
      <trkpt lat="62.64316397646" lon="17.898785954385">
        <ele>67.8</ele>
        <time>2018-04-01T11:47:06Z</time>
      </trkpt>
      <trkpt lat="62.643166910125" lon="17.898667601957">
        <ele>67.8</ele>
        <time>2018-04-01T11:47:07Z</time>
      </trkpt>
      <trkpt lat="62.643170095247" lon="17.898530306435">
        <ele>67.8</ele>
        <time>2018-04-01T11:47:08Z</time>
      </trkpt>
      <trkpt lat="62.643173699464" lon="17.898400722261">
        <ele>67.8</ele>
        <time>2018-04-01T11:47:09Z</time>
      </trkpt>
      <trkpt lat="62.643177136043" lon="17.898271305725">
        <ele>67.8</ele>
        <time>2018-04-01T11:47:10Z</time>
      </trkpt>
      <trkpt lat="62.643180153527" lon="17.898148259433">
        <ele>67.8</ele>
        <time>2018-04-01T11:47:11Z</time>
      </trkpt>
      <trkpt lat="62.643183338649" lon="17.898017837069">
        <ele>67.8</ele>
        <time>2018-04-01T11:47:12Z</time>
      </trkpt>
      <trkpt lat="62.643186356133" lon="17.897877859339">
        <ele>67.8</ele>
        <time>2018-04-01T11:47:13Z</time>
      </trkpt>
      <trkpt lat="62.643189457436" lon="17.897748526622">
        <ele>67.8</ele>
        <time>2018-04-01T11:47:14Z</time>
      </trkpt>
      <trkpt lat="62.643192223463" lon="17.897617852801">
        <ele>67.8</ele>
        <time>2018-04-01T11:47:15Z</time>
      </trkpt>
      <trkpt lat="62.643195073309" lon="17.897488939179">
        <ele>67.8</ele>
        <time>2018-04-01T11:47:16Z</time>
      </trkpt>
      <trkpt lat="62.643199264259" lon="17.897360360833">
        <ele>67.8</ele>
        <time>2018-04-01T11:47:17Z</time>
      </trkpt>
      <trkpt lat="62.643200605363" lon="17.897230525202">
        <ele>67.8</ele>
        <time>2018-04-01T11:47:18Z</time>
      </trkpt>
      <trkpt lat="62.643202030286" lon="17.897102785046">
        <ele>67.8</ele>
        <time>2018-04-01T11:47:19Z</time>
      </trkpt>
      <trkpt lat="62.64320337139" lon="17.896972781777">
        <ele>67.8</ele>
        <time>2018-04-01T11:47:20Z</time>
      </trkpt>
      <trkpt lat="62.64320504777" lon="17.896842946146">
        <ele>67.8</ele>
        <time>2018-04-01T11:47:21Z</time>
      </trkpt>
      <trkpt lat="62.643206640331" lon="17.896721743872">
        <ele>67.8</ele>
        <time>2018-04-01T11:47:22Z</time>
      </trkpt>
      <trkpt lat="62.64320672415" lon="17.896589812766">
        <ele>67.8</ele>
        <time>2018-04-01T11:47:23Z</time>
      </trkpt>
      <trkpt lat="62.643204544856" lon="17.896449248303">
        <ele>68</ele>
        <time>2018-04-01T11:47:24Z</time>
      </trkpt>
      <trkpt lat="62.643202197924" lon="17.89631874212">
        <ele>68</ele>
        <time>2018-04-01T11:47:25Z</time>
      </trkpt>
      <trkpt lat="62.643199934811" lon="17.896186978652">
        <ele>68</ele>
        <time>2018-04-01T11:47:26Z</time>
      </trkpt>
      <trkpt lat="62.643197001146" lon="17.896067536577">
        <ele>68</ele>
        <time>2018-04-01T11:47:27Z</time>
      </trkpt>
      <trkpt lat="62.643192977834" lon="17.895927894123">
        <ele>68</ele>
        <time>2018-04-01T11:47:28Z</time>
      </trkpt>
      <trkpt lat="62.643188116332" lon="17.895807613858">
        <ele>68</ele>
        <time>2018-04-01T11:47:29Z</time>
      </trkpt>
      <trkpt lat="62.643181913726" lon="17.895670234517">
        <ele>68</ele>
        <time>2018-04-01T11:47:30Z</time>
      </trkpt>
      <trkpt lat="62.643176884586" lon="17.895541320895">
        <ele>68</ele>
        <time>2018-04-01T11:47:31Z</time>
      </trkpt>
      <trkpt lat="62.64317235836" lon="17.895412826368">
        <ele>68</ele>
        <time>2018-04-01T11:47:32Z</time>
      </trkpt>
      <trkpt lat="62.643163557365" lon="17.895284248022">
        <ele>68</ele>
        <time>2018-04-01T11:47:33Z</time>
      </trkpt>
      <trkpt lat="62.643156013655" lon="17.895154999124">
        <ele>68.2</ele>
        <time>2018-04-01T11:47:34Z</time>
      </trkpt>
      <trkpt lat="62.643148134669" lon="17.895039077447">
        <ele>68.2</ele>
        <time>2018-04-01T11:47:35Z</time>
      </trkpt>
      <trkpt lat="62.64313799257" lon="17.894907062522">
        <ele>68.4</ele>
        <time>2018-04-01T11:47:36Z</time>
      </trkpt>
      <trkpt lat="62.643128688661" lon="17.894791392302">
        <ele>68.4</ele>
        <time>2018-04-01T11:47:37Z</time>
      </trkpt>
      <trkpt lat="62.643118378924" lon="17.894657700997">
        <ele>68.4</ele>
        <time>2018-04-01T11:47:38Z</time>
      </trkpt>
      <trkpt lat="62.643109075015" lon="17.894535744352">
        <ele>68.4</ele>
        <time>2018-04-01T11:47:39Z</time>
      </trkpt>
      <trkpt lat="62.643099687287" lon="17.894409261481">
        <ele>68.6</ele>
        <time>2018-04-01T11:47:40Z</time>
      </trkpt>
      <trkpt lat="62.64309021574" lon="17.894296524926">
        <ele>68.6</ele>
        <time>2018-04-01T11:47:41Z</time>
      </trkpt>
      <trkpt lat="62.643079570727" lon="17.894175909385">
        <ele>68.8</ele>
        <time>2018-04-01T11:47:42Z</time>
      </trkpt>
      <trkpt lat="62.643069093352" lon="17.894047414858">
        <ele>68.8</ele>
        <time>2018-04-01T11:47:43Z</time>
      </trkpt>
      <trkpt lat="62.643058113063" lon="17.893927218412">
        <ele>69</ele>
        <time>2018-04-01T11:47:44Z</time>
      </trkpt>
      <trkpt lat="62.643047719507" lon="17.893804675034">
        <ele>69</ele>
        <time>2018-04-01T11:47:45Z</time>
      </trkpt>
      <trkpt lat="62.643037577408" lon="17.893682550751">
        <ele>69.2</ele>
        <time>2018-04-01T11:47:46Z</time>
      </trkpt>
      <trkpt lat="62.643027267671" lon="17.893560594106">
        <ele>69.2</ele>
        <time>2018-04-01T11:47:47Z</time>
      </trkpt>
      <trkpt lat="62.643015449192" lon="17.893435871434">
        <ele>69.2</ele>
        <time>2018-04-01T11:47:48Z</time>
      </trkpt>
      <trkpt lat="62.643003127799" lon="17.893314082427">
        <ele>69.2</ele>
        <time>2018-04-01T11:47:49Z</time>
      </trkpt>
      <trkpt lat="62.642991393139" lon="17.893193466886">
        <ele>69.4</ele>
        <time>2018-04-01T11:47:50Z</time>
      </trkpt>
      <trkpt lat="62.642978401194" lon="17.893074024811">
        <ele>69.4</ele>
        <time>2018-04-01T11:47:51Z</time>
      </trkpt>
      <trkpt lat="62.642967253267" lon="17.892961539713">
        <ele>69.4</ele>
        <time>2018-04-01T11:47:52Z</time>
      </trkpt>
      <trkpt lat="62.642957446444" lon="17.892840085982">
        <ele>69.6</ele>
        <time>2018-04-01T11:47:53Z</time>
      </trkpt>
      <trkpt lat="62.64294856163" lon="17.892714022206">
        <ele>69.6</ele>
        <time>2018-04-01T11:47:54Z</time>
      </trkpt>
      <trkpt lat="62.642938251893" lon="17.892597094701">
        <ele>69.8</ele>
        <time>2018-04-01T11:47:55Z</time>
      </trkpt>
      <trkpt lat="62.642925511405" lon="17.892474299866">
        <ele>69.8</ele>
        <time>2018-04-01T11:47:56Z</time>
      </trkpt>
      <trkpt lat="62.642913609107" lon="17.892361228035">
        <ele>70</ele>
        <time>2018-04-01T11:47:57Z</time>
      </trkpt>
      <trkpt lat="62.642898689325" lon="17.892226614721">
        <ele>70</ele>
        <time>2018-04-01T11:47:58Z</time>
      </trkpt>
      <trkpt lat="62.642885194466" lon="17.892118320573">
        <ele>70</ele>
        <time>2018-04-01T11:47:59Z</time>
      </trkpt>
      <trkpt lat="62.642870945236" lon="17.891987060019">
        <ele>70.2</ele>
        <time>2018-04-01T11:48:00Z</time>
      </trkpt>
      <trkpt lat="62.642856528368" lon="17.891863510813">
        <ele>70.2</ele>
        <time>2018-04-01T11:48:01Z</time>
      </trkpt>
      <trkpt lat="62.642842698233" lon="17.891740799797">
        <ele>70.4</ele>
        <time>2018-04-01T11:48:02Z</time>
      </trkpt>
      <trkpt lat="62.642828197546" lon="17.891614652202">
        <ele>70.4</ele>
        <time>2018-04-01T11:48:03Z</time>
      </trkpt>
      <trkpt lat="62.642815121782" lon="17.891487666417">
        <ele>70.4</ele>
        <time>2018-04-01T11:48:04Z</time>
      </trkpt>
      <trkpt lat="62.642802297475" lon="17.891370738912">
        <ele>70.4</ele>
        <time>2018-04-01T11:48:05Z</time>
      </trkpt>
      <trkpt lat="62.642786371865" lon="17.891234868313">
        <ele>70.4</ele>
        <time>2018-04-01T11:48:06Z</time>
      </trkpt>
      <trkpt lat="62.642772290273" lon="17.891112157297">
        <ele>70.4</ele>
        <time>2018-04-01T11:48:07Z</time>
      </trkpt>
      <trkpt lat="62.642755861749" lon="17.890979388001">
        <ele>70.4</ele>
        <time>2018-04-01T11:48:08Z</time>
      </trkpt>
      <trkpt lat="62.64273985232" lon="17.890847205438">
        <ele>70.4</ele>
        <time>2018-04-01T11:48:09Z</time>
      </trkpt>
      <trkpt lat="62.64272392671" lon="17.890719884377">
        <ele>70.4</ele>
        <time>2018-04-01T11:48:10Z</time>
      </trkpt>
      <trkpt lat="62.642707414367" lon="17.890597340999">
        <ele>70.4</ele>
        <time>2018-04-01T11:48:11Z</time>
      </trkpt>
      <trkpt lat="62.642688890368" lon="17.890464487884">
        <ele>70.4</ele>
        <time>2018-04-01T11:48:12Z</time>
      </trkpt>
      <trkpt lat="62.642667432704" lon="17.890321744127">
        <ele>70.4</ele>
        <time>2018-04-01T11:48:13Z</time>
      </trkpt>
      <trkpt lat="62.642645639764" lon="17.890188639555">
        <ele>70.2</ele>
        <time>2018-04-01T11:48:14Z</time>
      </trkpt>
      <trkpt lat="62.642623679186" lon="17.890053439508">
        <ele>70</ele>
        <time>2018-04-01T11:48:15Z</time>
      </trkpt>
      <trkpt lat="62.642602892074" lon="17.889918490918">
        <ele>70</ele>
        <time>2018-04-01T11:48:16Z</time>
      </trkpt>
      <trkpt lat="62.642584703351" lon="17.889787900916">
        <ele>70</ele>
        <time>2018-04-01T11:48:17Z</time>
      </trkpt>
      <trkpt lat="62.642561904583" lon="17.889662591511">
        <ele>69.8</ele>
        <time>2018-04-01T11:48:18Z</time>
      </trkpt>
      <trkpt lat="62.642539357272" lon="17.889534683717">
        <ele>69.6</ele>
        <time>2018-04-01T11:48:19Z</time>
      </trkpt>
      <trkpt lat="62.642517061418" lon="17.889405434819">
        <ele>69.4</ele>
        <time>2018-04-01T11:48:20Z</time>
      </trkpt>
      <trkpt lat="62.642494597926" lon="17.889273922808">
        <ele>69.4</ele>
        <time>2018-04-01T11:48:21Z</time>
      </trkpt>
      <trkpt lat="62.642472553529" lon="17.889149367774">
        <ele>69.2</ele>
        <time>2018-04-01T11:48:22Z</time>
      </trkpt>
      <trkpt lat="62.642450341494" lon="17.889010312053">
        <ele>69.2</ele>
        <time>2018-04-01T11:48:23Z</time>
      </trkpt>
      <trkpt lat="62.642426788355" lon="17.888860024586">
        <ele>69.2</ele>
        <time>2018-04-01T11:48:24Z</time>
      </trkpt>
      <trkpt lat="62.642402732302" lon="17.888719292485">
        <ele>69.2</ele>
        <time>2018-04-01T11:48:25Z</time>
      </trkpt>
      <trkpt lat="62.642376580774" lon="17.888576967823">
        <ele>69</ele>
        <time>2018-04-01T11:48:26Z</time>
      </trkpt>
      <trkpt lat="62.642350764522" lon="17.888445958726">
        <ele>69</ele>
        <time>2018-04-01T11:48:27Z</time>
      </trkpt>
      <trkpt lat="62.642320924958" lon="17.888295335983">
        <ele>68.8</ele>
        <time>2018-04-01T11:48:28Z</time>
      </trkpt>
      <trkpt lat="62.642293683783" lon="17.888165081257">
        <ele>68.6</ele>
        <time>2018-04-01T11:48:29Z</time>
      </trkpt>
      <trkpt lat="62.64226124583" lon="17.888020577301">
        <ele>68.4</ele>
        <time>2018-04-01T11:48:30Z</time>
      </trkpt>
      <trkpt lat="62.642229226972" lon="17.887886215444">
        <ele>68.2</ele>
        <time>2018-04-01T11:48:31Z</time>
      </trkpt>
      <trkpt lat="62.642197711028" lon="17.887753110872">
        <ele>68</ele>
        <time>2018-04-01T11:48:32Z</time>
      </trkpt>
      <trkpt lat="62.642162674686" lon="17.887624448707">
        <ele>67.8</ele>
        <time>2018-04-01T11:48:33Z</time>
      </trkpt>
      <trkpt lat="62.642128476534" lon="17.887500731863">
        <ele>67.8</ele>
        <time>2018-04-01T11:48:34Z</time>
      </trkpt>
      <trkpt lat="62.642094865115" lon="17.887388079127">
        <ele>67.6</ele>
        <time>2018-04-01T11:48:35Z</time>
      </trkpt>
      <trkpt lat="62.64205756566" lon="17.887261847713">
        <ele>67.6</ele>
        <time>2018-04-01T11:48:36Z</time>
      </trkpt>
      <trkpt lat="62.642023367508" lon="17.887153637384">
        <ele>67.6</ele>
        <time>2018-04-01T11:48:37Z</time>
      </trkpt>
      <trkpt lat="62.641983302026" lon="17.887033189481">
        <ele>67.6</ele>
        <time>2018-04-01T11:48:38Z</time>
      </trkpt>
      <trkpt lat="62.641946002571" lon="17.886922213125">
        <ele>67.6</ele>
        <time>2018-04-01T11:48:39Z</time>
      </trkpt>
      <trkpt lat="62.641908032564" lon="17.886816852642">
        <ele>67.6</ele>
        <time>2018-04-01T11:48:40Z</time>
      </trkpt>
      <trkpt lat="62.641874588783" lon="17.886728088321">
        <ele>67.6</ele>
        <time>2018-04-01T11:48:41Z</time>
      </trkpt>
      <trkpt lat="62.641839217165" lon="17.88663597124">
        <ele>67.8</ele>
        <time>2018-04-01T11:48:42Z</time>
      </trkpt>
      <trkpt lat="62.641798313493" lon="17.886535807535">
        <ele>67.8</ele>
        <time>2018-04-01T11:48:43Z</time>
      </trkpt>
      <trkpt lat="62.641759505296" lon="17.886448132861">
        <ele>68</ele>
        <time>2018-04-01T11:48:44Z</time>
      </trkpt>
      <trkpt lat="62.641719355995" lon="17.886364649137">
        <ele>68</ele>
        <time>2018-04-01T11:48:45Z</time>
      </trkpt>
      <trkpt lat="62.64167786559" lon="17.886281081594">
        <ele>68</ele>
        <time>2018-04-01T11:48:46Z</time>
      </trkpt>
      <trkpt lat="62.641638638298" lon="17.88620011244">
        <ele>68</ele>
        <time>2018-04-01T11:48:47Z</time>
      </trkpt>
      <trkpt lat="62.641595974427" lon="17.886132302869">
        <ele>68.2</ele>
        <time>2018-04-01T11:48:48Z</time>
      </trkpt>
      <trkpt lat="62.641555406031" lon="17.886058290692">
        <ele>68.4</ele>
        <time>2018-04-01T11:48:49Z</time>
      </trkpt>
      <trkpt lat="62.641518777128" lon="17.885985284343">
        <ele>68.6</ele>
        <time>2018-04-01T11:48:50Z</time>
      </trkpt>
      <trkpt lat="62.641503689708" lon="17.885968604362">
        <ele>68.6</ele>
        <time>2018-04-01T11:48:51Z</time>
      </trkpt>
      <trkpt lat="62.641440322544" lon="17.885863914431">
        <ele>68.8</ele>
        <time>2018-04-01T11:48:52Z</time>
      </trkpt>
      <trkpt lat="62.641400759976" lon="17.885799541439">
        <ele>69.2</ele>
        <time>2018-04-01T11:48:53Z</time>
      </trkpt>
      <trkpt lat="62.641360275399" lon="17.885731312773">
        <ele>69.4</ele>
        <time>2018-04-01T11:48:54Z</time>
      </trkpt>
      <trkpt lat="62.641322975944" lon="17.885668616161">
        <ele>69.6</ele>
        <time>2018-04-01T11:48:55Z</time>
      </trkpt>
      <trkpt lat="62.641284922118" lon="17.885610948689">
        <ele>69.8</ele>
        <time>2018-04-01T11:48:56Z</time>
      </trkpt>
      <trkpt lat="62.641249801957" lon="17.885559567642">
        <ele>70</ele>
        <time>2018-04-01T11:48:57Z</time>
      </trkpt>
      <trkpt lat="62.641209820294" lon="17.885503828007">
        <ele>70.2</ele>
        <time>2018-04-01T11:48:58Z</time>
      </trkpt>
      <trkpt lat="62.641173861943" lon="17.885457895195">
        <ele>70.4</ele>
        <time>2018-04-01T11:48:59Z</time>
      </trkpt>
      <trkpt lat="62.64113304209" lon="17.885408106709">
        <ele>70.6</ele>
        <time>2018-04-01T11:49:00Z</time>
      </trkpt>
      <trkpt lat="62.641094317712" lon="17.885362173897">
        <ele>70.6</ele>
        <time>2018-04-01T11:49:01Z</time>
      </trkpt>
      <trkpt lat="62.641057018257" lon="17.885316073447">
        <ele>70.8</ele>
        <time>2018-04-01T11:49:02Z</time>
      </trkpt>
      <trkpt lat="62.641020640811" lon="17.885266452599">
        <ele>70.8</ele>
        <time>2018-04-01T11:49:03Z</time>
      </trkpt>
      <trkpt lat="62.640984095727" lon="17.885217837579">
        <ele>71</ele>
        <time>2018-04-01T11:49:04Z</time>
      </trkpt>
      <trkpt lat="62.640950651946" lon="17.885174335518">
        <ele>71.2</ele>
        <time>2018-04-01T11:49:05Z</time>
      </trkpt>
      <trkpt lat="62.640911424654" lon="17.88512471467">
        <ele>71.2</ele>
        <time>2018-04-01T11:49:06Z</time>
      </trkpt>
      <trkpt lat="62.640876472131" lon="17.885083224265">
        <ele>71.4</ele>
        <time>2018-04-01T11:49:07Z</time>
      </trkpt>
      <trkpt lat="62.640836825744" lon="17.885032765227">
        <ele>71.6</ele>
        <time>2018-04-01T11:49:08Z</time>
      </trkpt>
      <trkpt lat="62.640800951212" lon="17.884984150207">
        <ele>71.6</ele>
        <time>2018-04-01T11:49:09Z</time>
      </trkpt>
      <trkpt lat="62.640763065024" lon="17.884932433884">
        <ele>71.8</ele>
        <time>2018-04-01T11:49:10Z</time>
      </trkpt>
      <trkpt lat="62.64073071089" lon="17.884888261271">
        <ele>72</ele>
        <time>2018-04-01T11:49:11Z</time>
      </trkpt>
      <trkpt lat="62.640693746711" lon="17.884839981527">
        <ele>72.2</ele>
        <time>2018-04-01T11:49:12Z</time>
      </trkpt>
      <trkpt lat="62.640654184143" lon="17.884790193041">
        <ele>72.2</ele>
        <time>2018-04-01T11:49:13Z</time>
      </trkpt>
      <trkpt lat="62.640618644887" lon="17.884739817822">
        <ele>72.4</ele>
        <time>2018-04-01T11:49:14Z</time>
      </trkpt>
      <trkpt lat="62.640583692364" lon="17.884687263309">
        <ele>72.6</ele>
        <time>2018-04-01T11:49:15Z</time>
      </trkpt>
      <trkpt lat="62.640547817832" lon="17.884633619149">
        <ele>72.8</ele>
        <time>2018-04-01T11:49:16Z</time>
      </trkpt>
      <trkpt lat="62.640513452042" lon="17.884581232274">
        <ele>72.8</ele>
        <time>2018-04-01T11:49:17Z</time>
      </trkpt>
      <trkpt lat="62.64047925389" lon="17.884526833743">
        <ele>73</ele>
        <time>2018-04-01T11:49:18Z</time>
      </trkpt>
      <trkpt lat="62.640444552824" lon="17.884470255918">
        <ele>73.2</ele>
        <time>2018-04-01T11:49:19Z</time>
      </trkpt>
      <trkpt lat="62.640409767939" lon="17.884414516283">
        <ele>73.4</ele>
        <time>2018-04-01T11:49:20Z</time>
      </trkpt>
      <trkpt lat="62.640376324158" lon="17.884359111924">
        <ele>73.4</ele>
        <time>2018-04-01T11:49:21Z</time>
      </trkpt>
      <trkpt lat="62.640345311128" lon="17.884307144144">
        <ele>73.4</ele>
        <time>2018-04-01T11:49:22Z</time>
      </trkpt>
      <trkpt lat="62.64031161589" lon="17.884251823604">
        <ele>73.6</ele>
        <time>2018-04-01T11:49:23Z</time>
      </trkpt>
      <trkpt lat="62.640276160453" lon="17.884192395933">
        <ele>73.6</ele>
        <time>2018-04-01T11:49:24Z</time>
      </trkpt>
      <trkpt lat="62.64023953155" lon="17.884135315194">
        <ele>73.6</ele>
        <time>2018-04-01T11:49:25Z</time>
      </trkpt>
      <trkpt lat="62.640203908475" lon="17.884074211143">
        <ele>73.6</ele>
        <time>2018-04-01T11:49:26Z</time>
      </trkpt>
      <trkpt lat="62.640173901273" lon="17.884009167599">
        <ele>73.6</ele>
        <time>2018-04-01T11:49:27Z</time>
      </trkpt>
      <trkpt lat="62.640141211863" lon="17.883928952816">
        <ele>73.8</ele>
        <time>2018-04-01T11:49:28Z</time>
      </trkpt>
      <trkpt lat="62.640112210489" lon="17.883862316711">
        <ele>74</ele>
        <time>2018-04-01T11:49:29Z</time>
      </trkpt>
      <trkpt lat="62.64007776088" lon="17.883785706145">
        <ele>74.2</ele>
        <time>2018-04-01T11:49:30Z</time>
      </trkpt>
      <trkpt lat="62.64004590966" lon="17.883711191054">
        <ele>74.4</ele>
        <time>2018-04-01T11:49:31Z</time>
      </trkpt>
      <trkpt lat="62.640019339037" lon="17.883646231329">
        <ele>74.4</ele>
        <time>2018-04-01T11:49:32Z</time>
      </trkpt>
      <trkpt lat="62.639984805609" lon="17.883560903587">
        <ele>74.4</ele>
        <time>2018-04-01T11:49:33Z</time>
      </trkpt>
      <trkpt lat="62.639956977701" lon="17.883483957745">
        <ele>74.4</ele>
        <time>2018-04-01T11:49:34Z</time>
      </trkpt>
      <trkpt lat="62.63993023944" lon="17.883408604464">
        <ele>74.4</ele>
        <time>2018-04-01T11:49:35Z</time>
      </trkpt>
      <trkpt lat="62.639898723496" lon="17.883319672505">
        <ele>74.6</ele>
        <time>2018-04-01T11:49:36Z</time>
      </trkpt>
      <trkpt lat="62.639870895588" lon="17.883238954808">
        <ele>74.6</ele>
        <time>2018-04-01T11:49:37Z</time>
      </trkpt>
      <trkpt lat="62.639838206178" lon="17.883145077528">
        <ele>74.6</ele>
        <time>2018-04-01T11:49:38Z</time>
      </trkpt>
      <trkpt lat="62.639808366614" lon="17.883053798637">
        <ele>74.6</ele>
        <time>2018-04-01T11:49:39Z</time>
      </trkpt>
      <trkpt lat="62.639780790163" lon="17.88295715533">
        <ele>74.6</ele>
        <time>2018-04-01T11:49:40Z</time>
      </trkpt>
      <trkpt lat="62.639754135721" lon="17.882861266394">
        <ele>74.6</ele>
        <time>2018-04-01T11:49:41Z</time>
      </trkpt>
      <trkpt lat="62.639730079668" lon="17.88276856258">
        <ele>74.6</ele>
        <time>2018-04-01T11:49:42Z</time>
      </trkpt>
      <trkpt lat="62.639700994475" lon="17.882662866821">
        <ele>74.6</ele>
        <time>2018-04-01T11:49:43Z</time>
      </trkpt>
      <trkpt lat="62.639674926766" lon="17.882561278193">
        <ele>74.6</ele>
        <time>2018-04-01T11:49:44Z</time>
      </trkpt>
      <trkpt lat="62.639648859057" lon="17.882456839719">
        <ele>74.6</ele>
        <time>2018-04-01T11:49:45Z</time>
      </trkpt>
      <trkpt lat="62.639624635366" lon="17.882352233607">
        <ele>74.4</ele>
        <time>2018-04-01T11:49:46Z</time>
      </trkpt>
      <trkpt lat="62.639600076399" lon="17.882245364382">
        <ele>74.4</ele>
        <time>2018-04-01T11:49:47Z</time>
      </trkpt>
      <trkpt lat="62.639579121649" lon="17.88213153818">
        <ele>74.4</ele>
        <time>2018-04-01T11:49:48Z</time>
      </trkpt>
      <trkpt lat="62.639557328709" lon="17.882014107761">
        <ele>74.2</ele>
        <time>2018-04-01T11:49:49Z</time>
      </trkpt>
      <trkpt lat="62.639535703407" lon="17.881894498048">
        <ele>74.2</ele>
        <time>2018-04-01T11:49:50Z</time>
      </trkpt>
      <trkpt lat="62.639515419209" lon="17.881773547231">
        <ele>74</ele>
        <time>2018-04-01T11:49:51Z</time>
      </trkpt>
      <trkpt lat="62.639496392296" lon="17.881652009681">
        <ele>74</ele>
        <time>2018-04-01T11:49:52Z</time>
      </trkpt>
      <trkpt lat="62.639478874125" lon="17.88153055595">
        <ele>74</ele>
        <time>2018-04-01T11:49:53Z</time>
      </trkpt>
      <trkpt lat="62.639462780877" lon="17.881404408355">
        <ele>74</ele>
        <time>2018-04-01T11:49:54Z</time>
      </trkpt>
      <trkpt lat="62.639449453656" lon="17.881269795041">
        <ele>73.8</ele>
        <time>2018-04-01T11:49:55Z</time>
      </trkpt>
      <trkpt lat="62.639438808643" lon="17.881145407645">
        <ele>73.6</ele>
        <time>2018-04-01T11:49:56Z</time>
      </trkpt>
      <trkpt lat="62.639428918001" lon="17.881037113497">
        <ele>73.4</ele>
        <time>2018-04-01T11:49:57Z</time>
      </trkpt>
      <trkpt lat="62.639417434798" lon="17.88090358983">
        <ele>73.2</ele>
        <time>2018-04-01T11:49:58Z</time>
      </trkpt>
      <trkpt lat="62.639407376518" lon="17.880783812479">
        <ele>73.2</ele>
        <time>2018-04-01T11:49:59Z</time>
      </trkpt>
      <trkpt lat="62.63939379784" lon="17.880640314351">
        <ele>73</ele>
        <time>2018-04-01T11:50:00Z</time>
      </trkpt>
      <trkpt lat="62.639383320465" lon="17.880503354105">
        <ele>72.8</ele>
        <time>2018-04-01T11:50:01Z</time>
      </trkpt>
      <trkpt lat="62.639375860574" lon="17.880386007505">
        <ele>72.8</ele>
        <time>2018-04-01T11:50:02Z</time>
      </trkpt>
      <trkpt lat="62.63936613757" lon="17.880235468581">
        <ele>72.6</ele>
        <time>2018-04-01T11:50:03Z</time>
      </trkpt>
      <trkpt lat="62.639359683507" lon="17.880098340697">
        <ele>72.6</ele>
        <time>2018-04-01T11:50:04Z</time>
      </trkpt>
      <trkpt lat="62.639353648539" lon="17.87997990445">
        <ele>72.4</ele>
        <time>2018-04-01T11:50:05Z</time>
      </trkpt>
      <trkpt lat="62.639344009354" lon="17.8798332212">
        <ele>72.4</ele>
        <time>2018-04-01T11:50:06Z</time>
      </trkpt>
      <trkpt lat="62.639335543635" lon="17.879704559035">
        <ele>72.2</ele>
        <time>2018-04-01T11:50:07Z</time>
      </trkpt>
      <trkpt lat="62.63932506626" lon="17.879556786138">
        <ele>72.2</ele>
        <time>2018-04-01T11:50:08Z</time>
      </trkpt>
      <trkpt lat="62.639313499238" lon="17.879426447593">
        <ele>72</ele>
        <time>2018-04-01T11:50:09Z</time>
      </trkpt>
      <trkpt lat="62.639297657447" lon="17.879272639728">
        <ele>71.8</ele>
        <time>2018-04-01T11:50:10Z</time>
      </trkpt>
      <trkpt lat="62.639283827312" lon="17.879139870432">
        <ele>71.6</ele>
        <time>2018-04-01T11:50:11Z</time>
      </trkpt>
      <trkpt lat="62.639268572254" lon="17.87900173672">
        <ele>71.6</ele>
        <time>2018-04-01T11:50:12Z</time>
      </trkpt>
      <trkpt lat="62.63925382011" lon="17.878862178085">
        <ele>71.4</ele>
        <time>2018-04-01T11:50:13Z</time>
      </trkpt>
      <trkpt lat="62.639238816509" lon="17.878718177043">
        <ele>71.2</ele>
        <time>2018-04-01T11:50:14Z</time>
      </trkpt>
      <trkpt lat="62.639223393813" lon="17.878576439114">
        <ele>71</ele>
        <time>2018-04-01T11:50:15Z</time>
      </trkpt>
      <trkpt lat="62.639207384384" lon="17.878434701185">
        <ele>71</ele>
        <time>2018-04-01T11:50:16Z</time>
      </trkpt>
      <trkpt lat="62.639191961688" lon="17.878293214713">
        <ele>70.8</ele>
        <time>2018-04-01T11:50:17Z</time>
      </trkpt>
      <trkpt lat="62.639171845128" lon="17.878148543119">
        <ele>70.6</ele>
        <time>2018-04-01T11:50:18Z</time>
      </trkpt>
      <trkpt lat="62.639152231482" lon="17.878005799362">
        <ele>70.6</ele>
        <time>2018-04-01T11:50:19Z</time>
      </trkpt>
      <trkpt lat="62.639132450198" lon="17.877863893795">
        <ele>70.4</ele>
        <time>2018-04-01T11:50:20Z</time>
      </trkpt>
      <trkpt lat="62.639112082181" lon="17.877721485314">
        <ele>70.2</ele>
        <time>2018-04-01T11:50:21Z</time>
      </trkpt>
      <trkpt lat="62.639092133259" lon="17.877590392398">
        <ele>70.2</ele>
        <time>2018-04-01T11:50:22Z</time>
      </trkpt>
      <trkpt lat="62.63906941831" lon="17.877447816279">
        <ele>70</ele>
        <time>2018-04-01T11:50:23Z</time>
      </trkpt>
      <trkpt lat="62.639043937334" lon="17.877305575436">
        <ele>69.8</ele>
        <time>2018-04-01T11:50:24Z</time>
      </trkpt>
      <trkpt lat="62.639016528521" lon="17.877153779227">
        <ele>69.6</ele>
        <time>2018-04-01T11:50:25Z</time>
      </trkpt>
      <trkpt lat="62.638989454984" lon="17.877008604719">
        <ele>69.4</ele>
        <time>2018-04-01T11:50:26Z</time>
      </trkpt>
      <trkpt lat="62.638963387275" lon="17.876865106591">
        <ele>69.2</ele>
        <time>2018-04-01T11:50:27Z</time>
      </trkpt>
      <trkpt lat="62.638933882987" lon="17.87671012526">
        <ele>69</ele>
        <time>2018-04-01T11:50:28Z</time>
      </trkpt>
      <trkpt lat="62.638905216889" lon="17.876571153358">
        <ele>68.8</ele>
        <time>2018-04-01T11:50:29Z</time>
      </trkpt>
      <trkpt lat="62.638873617126" lon="17.876417429312">
        <ele>68.6</ele>
        <time>2018-04-01T11:50:30Z</time>
      </trkpt>
      <trkpt lat="62.638842771734" lon="17.876274015003">
        <ele>68.4</ele>
        <time>2018-04-01T11:50:31Z</time>
      </trkpt>
      <trkpt lat="62.638812010161" lon="17.876134875463">
        <ele>68.2</ele>
        <time>2018-04-01T11:50:32Z</time>
      </trkpt>
      <trkpt lat="62.63877772819" lon="17.875977798657">
        <ele>68</ele>
        <time>2018-04-01T11:50:33Z</time>
      </trkpt>
      <trkpt lat="62.638745625513" lon="17.875833294701">
        <ele>67.8</ele>
        <time>2018-04-01T11:50:34Z</time>
      </trkpt>
      <trkpt lat="62.638714277207" lon="17.875698849025">
        <ele>67.6</ele>
        <time>2018-04-01T11:50:35Z</time>
      </trkpt>
      <trkpt lat="62.638678654132" lon="17.875547639549">
        <ele>67.4</ele>
        <time>2018-04-01T11:50:36Z</time>
      </trkpt>
      <trkpt lat="62.638645629446" lon="17.875406991267">
        <ele>67.2</ele>
        <time>2018-04-01T11:50:37Z</time>
      </trkpt>
      <trkpt lat="62.638617801538" lon="17.875281262767">
        <ele>66.8</ele>
        <time>2018-04-01T11:50:38Z</time>
      </trkpt>
      <trkpt lat="62.638583771024" lon="17.875140446847">
        <ele>66.6</ele>
        <time>2018-04-01T11:50:39Z</time>
      </trkpt>
      <trkpt lat="62.63855309327" lon="17.875004827705">
        <ele>66.4</ele>
        <time>2018-04-01T11:50:40Z</time>
      </trkpt>
      <trkpt lat="62.63852459481" lon="17.87487784192">
        <ele>66.2</ele>
        <time>2018-04-01T11:50:41Z</time>
      </trkpt>
      <trkpt lat="62.638493330323" lon="17.874741049312">
        <ele>66</ele>
        <time>2018-04-01T11:50:42Z</time>
      </trkpt>
      <trkpt lat="62.638460640913" lon="17.874595120433">
        <ele>66</ele>
        <time>2018-04-01T11:50:43Z</time>
      </trkpt>
      <trkpt lat="62.638429627883" lon="17.874454891246">
        <ele>65.8</ele>
        <time>2018-04-01T11:50:44Z</time>
      </trkpt>
      <trkpt lat="62.638400710328" lon="17.87432044557">
        <ele>65.6</ele>
        <time>2018-04-01T11:50:45Z</time>
      </trkpt>
      <trkpt lat="62.638371289859" lon="17.874181641306">
        <ele>65.6</ele>
        <time>2018-04-01T11:50:46Z</time>
      </trkpt>
      <trkpt lat="62.638341198838" lon="17.874042334128">
        <ele>65.4</ele>
        <time>2018-04-01T11:50:47Z</time>
      </trkpt>
      <trkpt lat="62.638306581591" lon="17.873890286462">
        <ele>65.2</ele>
        <time>2018-04-01T11:50:48Z</time>
      </trkpt>
      <trkpt lat="62.638275400923" lon="17.873743687031">
        <ele>65</ele>
        <time>2018-04-01T11:50:49Z</time>
      </trkpt>
      <trkpt lat="62.638246986282" lon="17.873596752324">
        <ele>64.8</ele>
        <time>2018-04-01T11:50:50Z</time>
      </trkpt>
      <trkpt lat="62.638219074555" lon="17.873441268079">
        <ele>64.6</ele>
        <time>2018-04-01T11:50:51Z</time>
      </trkpt>
      <trkpt lat="62.63819434795" lon="17.873291064431">
        <ele>64.2</ele>
        <time>2018-04-01T11:50:52Z</time>
      </trkpt>
      <trkpt lat="62.638168196422" lon="17.873138346213">
        <ele>63.8</ele>
        <time>2018-04-01T11:50:53Z</time>
      </trkpt>
      <trkpt lat="62.638140787609" lon="17.872969618566">
        <ele>63.6</ele>
        <time>2018-04-01T11:50:54Z</time>
      </trkpt>
      <trkpt lat="62.638113797891" lon="17.872810111009">
        <ele>63.2</ele>
        <time>2018-04-01T11:50:55Z</time>
      </trkpt>
      <trkpt lat="62.638087646363" lon="17.872658398619">
        <ele>63</ele>
        <time>2018-04-01T11:50:56Z</time>
      </trkpt>
      <trkpt lat="62.638061746292" lon="17.87250576422">
        <ele>62.8</ele>
        <time>2018-04-01T11:50:57Z</time>
      </trkpt>
      <trkpt lat="62.638035175669" lon="17.872327900302">
        <ele>62.6</ele>
        <time>2018-04-01T11:50:58Z</time>
      </trkpt>
      <trkpt lat="62.638014472376" lon="17.872167806012">
        <ele>62.4</ele>
        <time>2018-04-01T11:50:59Z</time>
      </trkpt>
      <trkpt lat="62.637991841246" lon="17.871982314565">
        <ele>62</ele>
        <time>2018-04-01T11:51:00Z</time>
      </trkpt>
      <trkpt lat="62.637971640867" lon="17.871804283009">
        <ele>61.8</ele>
        <time>2018-04-01T11:51:01Z</time>
      </trkpt>
      <trkpt lat="62.637954038877" lon="17.871648547307">
        <ele>61.6</ele>
        <time>2018-04-01T11:51:02Z</time>
      </trkpt>
      <trkpt lat="62.637934676688" lon="17.871454254865">
        <ele>61</ele>
        <time>2018-04-01T11:51:03Z</time>
      </trkpt>
      <trkpt lat="62.637917996707" lon="17.87127111035">
        <ele>60.6</ele>
        <time>2018-04-01T11:51:04Z</time>
      </trkpt>
      <trkpt lat="62.63790265783" lon="17.871093581708">
        <ele>60.2</ele>
        <time>2018-04-01T11:51:05Z</time>
      </trkpt>
      <trkpt lat="62.637888240962" lon="17.870891829375">
        <ele>59.6</ele>
        <time>2018-04-01T11:51:06Z</time>
      </trkpt>
      <trkpt lat="62.637877847406" lon="17.870707595213">
        <ele>59.2</ele>
        <time>2018-04-01T11:51:07Z</time>
      </trkpt>
      <trkpt lat="62.637867034755" lon="17.870503831224">
        <ele>58.8</ele>
        <time>2018-04-01T11:51:08Z</time>
      </trkpt>
      <trkpt lat="62.637857730846" lon="17.870310293153">
        <ele>58.6</ele>
        <time>2018-04-01T11:51:09Z</time>
      </trkpt>
      <trkpt lat="62.637849348946" lon="17.870106110069">
        <ele>58.2</ele>
        <time>2018-04-01T11:51:10Z</time>
      </trkpt>
      <trkpt lat="62.637842559607" lon="17.869910141247">
        <ele>57.8</ele>
        <time>2018-04-01T11:51:11Z</time>
      </trkpt>
      <trkpt lat="62.637842475788" lon="17.869720626488">
        <ele>57.2</ele>
        <time>2018-04-01T11:51:12Z</time>
      </trkpt>
      <trkpt lat="62.637843230159" lon="17.86950588221">
        <ele>56.8</ele>
        <time>2018-04-01T11:51:13Z</time>
      </trkpt>
      <trkpt lat="62.637844738901" lon="17.869303962239">
        <ele>56.2</ele>
        <time>2018-04-01T11:51:14Z</time>
      </trkpt>
      <trkpt lat="62.637846415281" lon="17.869101120259">
        <ele>55.8</ele>
        <time>2018-04-01T11:51:15Z</time>
      </trkpt>
      <trkpt lat="62.637850187136" lon="17.868899200288">
        <ele>55.4</ele>
        <time>2018-04-01T11:51:16Z</time>
      </trkpt>
      <trkpt lat="62.637855383914" lon="17.868719073257">
        <ele>55</ele>
        <time>2018-04-01T11:51:17Z</time>
      </trkpt>
      <trkpt lat="62.637864268728" lon="17.868490917939">
        <ele>54.6</ele>
        <time>2018-04-01T11:51:18Z</time>
      </trkpt>
      <trkpt lat="62.637873488818" lon="17.868286651036">
        <ele>54.2</ele>
        <time>2018-04-01T11:51:19Z</time>
      </trkpt>
      <trkpt lat="62.63788254127" lon="17.868082048857">
        <ele>53.8</ele>
        <time>2018-04-01T11:51:20Z</time>
      </trkpt>
      <trkpt lat="62.637892096636" lon="17.867877949592">
        <ele>53.4</ele>
        <time>2018-04-01T11:51:21Z</time>
      </trkpt>
      <trkpt lat="62.637902490192" lon="17.8676878481">
        <ele>53.2</ele>
        <time>2018-04-01T11:51:22Z</time>
      </trkpt>
      <trkpt lat="62.637914476309" lon="17.867480982808">
        <ele>52.8</ele>
        <time>2018-04-01T11:51:23Z</time>
      </trkpt>
      <trkpt lat="62.637927132978" lon="17.86726372396">
        <ele>52.4</ele>
        <time>2018-04-01T11:51:24Z</time>
      </trkpt>
      <trkpt lat="62.637938280905" lon="17.867064821473">
        <ele>52</ele>
        <time>2018-04-01T11:51:25Z</time>
      </trkpt>
      <trkpt lat="62.637946998081" lon="17.866865164615">
        <ele>51.6</ele>
        <time>2018-04-01T11:51:26Z</time>
      </trkpt>
      <trkpt lat="62.637955379981" lon="17.866679673168">
        <ele>51.2</ele>
        <time>2018-04-01T11:51:27Z</time>
      </trkpt>
      <trkpt lat="62.637967617555" lon="17.866473059333">
        <ele>50.8</ele>
        <time>2018-04-01T11:51:28Z</time>
      </trkpt>
      <trkpt lat="62.637978597844" lon="17.866293016121">
        <ele>50.6</ele>
        <time>2018-04-01T11:51:29Z</time>
      </trkpt>
      <trkpt lat="62.63798731502" lon="17.86609193434">
        <ele>50</ele>
        <time>2018-04-01T11:51:30Z</time>
      </trkpt>
      <trkpt lat="62.637995194006" lon="17.865920189209">
        <ele>49.8</ele>
        <time>2018-04-01T11:51:31Z</time>
      </trkpt>
      <trkpt lat="62.638003995001" lon="17.865759005272">
        <ele>49.6</ele>
        <time>2018-04-01T11:51:32Z</time>
      </trkpt>
      <trkpt lat="62.63801246072" lon="17.865568233228">
        <ele>49.2</ele>
        <time>2018-04-01T11:51:33Z</time>
      </trkpt>
      <trkpt lat="62.638020926439" lon="17.865392213328">
        <ele>48.8</ele>
        <time>2018-04-01T11:51:34Z</time>
      </trkpt>
      <trkpt lat="62.638030314167" lon="17.865225329699">
        <ele>48.8</ele>
        <time>2018-04-01T11:51:35Z</time>
      </trkpt>
      <trkpt lat="62.638038696067" lon="17.865039838252">
        <ele>48.6</ele>
        <time>2018-04-01T11:51:36Z</time>
      </trkpt>
      <trkpt lat="62.638045653044" lon="17.86487488246">
        <ele>48.4</ele>
        <time>2018-04-01T11:51:37Z</time>
      </trkpt>
      <trkpt lat="62.638054789315" lon="17.864696096533">
        <ele>48.4</ele>
        <time>2018-04-01T11:51:38Z</time>
      </trkpt>
      <trkpt lat="62.638065015233" lon="17.864534158225">
        <ele>48.2</ele>
        <time>2018-04-01T11:51:39Z</time>
      </trkpt>
      <trkpt lat="62.638073397133" lon="17.864369286252">
        <ele>48.2</ele>
        <time>2018-04-01T11:51:40Z</time>
      </trkpt>
      <trkpt lat="62.638081276119" lon="17.864218244414">
        <ele>48</ele>
        <time>2018-04-01T11:51:41Z</time>
      </trkpt>
      <trkpt lat="62.638088819829" lon="17.864058401581">
        <ele>47.8</ele>
        <time>2018-04-01T11:51:42Z</time>
      </trkpt>
      <trkpt lat="62.638096363539" lon="17.863893194332">
        <ele>47.8</ele>
        <time>2018-04-01T11:51:43Z</time>
      </trkpt>
      <trkpt lat="62.638103404335" lon="17.863740224657">
        <ele>47.8</ele>
        <time>2018-04-01T11:51:44Z</time>
      </trkpt>
      <trkpt lat="62.638111199502" lon="17.86358658443">
        <ele>47.6</ele>
        <time>2018-04-01T11:51:45Z</time>
      </trkpt>
      <trkpt lat="62.638119581402" lon="17.86343738661">
        <ele>47.8</ele>
        <time>2018-04-01T11:51:46Z</time>
      </trkpt>
      <trkpt lat="62.638125784008" lon="17.863311071377">
        <ele>47.8</ele>
        <time>2018-04-01T11:51:47Z</time>
      </trkpt>
      <trkpt lat="62.638132824804" lon="17.863148965431">
        <ele>47.6</ele>
        <time>2018-04-01T11:51:48Z</time>
      </trkpt>
      <trkpt lat="62.638137853944" lon="17.863003539466">
        <ele>47.8</ele>
        <time>2018-04-01T11:51:49Z</time>
      </trkpt>
      <trkpt lat="62.638142715446" lon="17.862856604759">
        <ele>47.6</ele>
        <time>2018-04-01T11:51:50Z</time>
      </trkpt>
      <trkpt lat="62.638147996043" lon="17.862713441907">
        <ele>47.8</ele>
        <time>2018-04-01T11:51:51Z</time>
      </trkpt>
      <trkpt lat="62.638152103174" lon="17.862573631815">
        <ele>47.8</ele>
        <time>2018-04-01T11:51:52Z</time>
      </trkpt>
      <trkpt lat="62.638155204477" lon="17.862432564438">
        <ele>47.8</ele>
        <time>2018-04-01T11:51:53Z</time>
      </trkpt>
      <trkpt lat="62.638158892513" lon="17.862284120989">
        <ele>47.8</ele>
        <time>2018-04-01T11:51:54Z</time>
      </trkpt>
      <trkpt lat="62.638162329092" lon="17.862147663657">
        <ele>48</ele>
        <time>2018-04-01T11:51:55Z</time>
      </trkpt>
      <trkpt lat="62.638164256929" lon="17.862002992063">
        <ele>47.8</ele>
        <time>2018-04-01T11:51:56Z</time>
      </trkpt>
      <trkpt lat="62.638164424567" lon="17.861869300758">
        <ele>47.8</ele>
        <time>2018-04-01T11:51:57Z</time>
      </trkpt>
      <trkpt lat="62.638163083463" lon="17.861718091282">
        <ele>47.8</ele>
        <time>2018-04-01T11:51:58Z</time>
      </trkpt>
      <trkpt lat="62.638163251101" lon="17.861582304502">
        <ele>47.8</ele>
        <time>2018-04-01T11:51:59Z</time>
      </trkpt>
      <trkpt lat="62.638163418739" lon="17.861425311515">
        <ele>47.6</ele>
        <time>2018-04-01T11:52:00Z</time>
      </trkpt>
      <trkpt lat="62.638161574721" lon="17.861279717912">
        <ele>47.6</ele>
        <time>2018-04-01T11:52:01Z</time>
      </trkpt>
      <trkpt lat="62.638158473418" lon="17.861144434046">
        <ele>47.4</ele>
        <time>2018-04-01T11:52:02Z</time>
      </trkpt>
      <trkpt lat="62.638155036839" lon="17.860988865982">
        <ele>47.4</ele>
        <time>2018-04-01T11:52:03Z</time>
      </trkpt>
      <trkpt lat="62.638150426794" lon="17.860846876596">
        <ele>47.6</ele>
        <time>2018-04-01T11:52:04Z</time>
      </trkpt>
      <trkpt lat="62.638145062378" lon="17.860723662666">
        <ele>47.6</ele>
        <time>2018-04-01T11:52:05Z</time>
      </trkpt>
      <trkpt lat="62.638138356858" lon="17.860568765154">
        <ele>47.6</ele>
        <time>2018-04-01T11:52:06Z</time>
      </trkpt>
      <trkpt lat="62.638132405709" lon="17.860432307822">
        <ele>47.6</ele>
        <time>2018-04-01T11:52:07Z</time>
      </trkpt>
      <trkpt lat="62.638125113456" lon="17.860281098346">
        <ele>47.6</ele>
        <time>2018-04-01T11:52:08Z</time>
      </trkpt>
      <trkpt lat="62.638117905022" lon="17.860146820308">
        <ele>47.6</ele>
        <time>2018-04-01T11:52:09Z</time>
      </trkpt>
      <trkpt lat="62.63810969076" lon="17.859993682995">
        <ele>47.8</ele>
        <time>2018-04-01T11:52:10Z</time>
      </trkpt>
      <trkpt lat="62.638101727955" lon="17.859863260631">
        <ele>47.8</ele>
        <time>2018-04-01T11:52:11Z</time>
      </trkpt>
      <trkpt lat="62.638091921132" lon="17.859730407516">
        <ele>47.8</ele>
        <time>2018-04-01T11:52:12Z</time>
      </trkpt>
      <trkpt lat="62.638080186472" lon="17.859586406474">
        <ele>47.8</ele>
        <time>2018-04-01T11:52:13Z</time>
      </trkpt>
      <trkpt lat="62.638068954726" lon="17.859451206427">
        <ele>47.6</ele>
        <time>2018-04-01T11:52:14Z</time>
      </trkpt>
      <trkpt lat="62.638057639161" lon="17.859315587285">
        <ele>47.6</ele>
        <time>2018-04-01T11:52:15Z</time>
      </trkpt>
      <trkpt lat="62.638046575053" lon="17.859181812161">
        <ele>47.6</ele>
        <time>2018-04-01T11:52:16Z</time>
      </trkpt>
      <trkpt lat="62.638035510945" lon="17.859048539951">
        <ele>47.6</ele>
        <time>2018-04-01T11:52:17Z</time>
      </trkpt>
      <trkpt lat="62.638021094077" lon="17.858917195578">
        <ele>47.6</ele>
        <time>2018-04-01T11:52:18Z</time>
      </trkpt>
      <trkpt lat="62.638006677209" lon="17.85878543211">
        <ele>47.6</ele>
        <time>2018-04-01T11:52:19Z</time>
      </trkpt>
      <trkpt lat="62.637993517626" lon="17.858656267031">
        <ele>47.6</ele>
        <time>2018-04-01T11:52:20Z</time>
      </trkpt>
      <trkpt lat="62.637979938948" lon="17.858526682857">
        <ele>47.6</ele>
        <time>2018-04-01T11:52:21Z</time>
      </trkpt>
      <trkpt lat="62.637966863184" lon="17.858406151135">
        <ele>47.8</ele>
        <time>2018-04-01T11:52:22Z</time>
      </trkpt>
      <trkpt lat="62.637951943402" lon="17.858279416807">
        <ele>47.8</ele>
        <time>2018-04-01T11:52:23Z</time>
      </trkpt>
      <trkpt lat="62.637935514878" lon="17.858154358859">
        <ele>47.8</ele>
        <time>2018-04-01T11:52:24Z</time>
      </trkpt>
      <trkpt lat="62.637916739422" lon="17.858023098305">
        <ele>47.8</ele>
        <time>2018-04-01T11:52:25Z</time>
      </trkpt>
      <trkpt lat="62.637899724165" lon="17.857897034529">
        <ele>47.8</ele>
        <time>2018-04-01T11:52:26Z</time>
      </trkpt>
      <trkpt lat="62.637884636745" lon="17.857779436472">
        <ele>47.6</ele>
        <time>2018-04-01T11:52:27Z</time>
      </trkpt>
      <trkpt lat="62.637868711135" lon="17.857645409891">
        <ele>47.6</ele>
        <time>2018-04-01T11:52:28Z</time>
      </trkpt>
      <trkpt lat="62.637854545724" lon="17.857520100486">
        <ele>47.6</ele>
        <time>2018-04-01T11:52:29Z</time>
      </trkpt>
      <trkpt lat="62.637838368657" lon="17.8573948749">
        <ele>47.6</ele>
        <time>2018-04-01T11:52:30Z</time>
      </trkpt>
      <trkpt lat="62.637822610685" lon="17.857271074237">
        <ele>47.6</ele>
        <time>2018-04-01T11:52:31Z</time>
      </trkpt>
      <trkpt lat="62.637808529093" lon="17.857153811456">
        <ele>47.6</ele>
        <time>2018-04-01T11:52:32Z</time>
      </trkpt>
      <trkpt lat="62.637792435845" lon="17.857020790703">
        <ele>47.6</ele>
        <time>2018-04-01T11:52:33Z</time>
      </trkpt>
      <trkpt lat="62.637776761692" lon="17.856897660592">
        <ele>47.4</ele>
        <time>2018-04-01T11:52:34Z</time>
      </trkpt>
      <trkpt lat="62.637760836082" lon="17.856781655096">
        <ele>47.4</ele>
        <time>2018-04-01T11:52:35Z</time>
      </trkpt>
      <trkpt lat="62.63774256354" lon="17.856647712334">
        <ele>47.4</ele>
        <time>2018-04-01T11:52:36Z</time>
      </trkpt>
      <trkpt lat="62.637727895215" lon="17.85652818644">
        <ele>47.6</ele>
        <time>2018-04-01T11:52:37Z</time>
      </trkpt>
      <trkpt lat="62.637710963777" lon="17.856389549814">
        <ele>47.6</ele>
        <time>2018-04-01T11:52:38Z</time>
      </trkpt>
      <trkpt lat="62.637695289624" lon="17.856274717784">
        <ele>47.4</ele>
        <time>2018-04-01T11:52:39Z</time>
      </trkpt>
      <trkpt lat="62.637678106729" lon="17.85614010447">
        <ele>47.2</ele>
        <time>2018-04-01T11:52:40Z</time>
      </trkpt>
      <trkpt lat="62.637664360413" lon="17.856020410938">
        <ele>47</ele>
        <time>2018-04-01T11:52:41Z</time>
      </trkpt>
      <trkpt lat="62.637650111183" lon="17.855899460121">
        <ele>47</ele>
        <time>2018-04-01T11:52:42Z</time>
      </trkpt>
      <trkpt lat="62.637634772306" lon="17.855767529015">
        <ele>47</ele>
        <time>2018-04-01T11:52:43Z</time>
      </trkpt>
      <trkpt lat="62.63762186418" lon="17.8556430578">
        <ele>47</ele>
        <time>2018-04-01T11:52:44Z</time>
      </trkpt>
      <trkpt lat="62.637609123692" lon="17.855522526078">
        <ele>47.2</ele>
        <time>2018-04-01T11:52:45Z</time>
      </trkpt>
      <trkpt lat="62.637596886118" lon="17.855407694048">
        <ele>47.2</ele>
        <time>2018-04-01T11:52:46Z</time>
      </trkpt>
      <trkpt lat="62.637584313268" lon="17.855287916697">
        <ele>47.2</ele>
        <time>2018-04-01T11:52:47Z</time>
      </trkpt>
      <trkpt lat="62.637573919712" lon="17.855168055527">
        <ele>47</ele>
        <time>2018-04-01T11:52:48Z</time>
      </trkpt>
      <trkpt lat="62.637564699622" lon="17.855058671732">
        <ele>47.2</ele>
        <time>2018-04-01T11:52:49Z</time>
      </trkpt>
      <trkpt lat="62.637555311894" lon="17.854952892154">
        <ele>47.2</ele>
        <time>2018-04-01T11:52:50Z</time>
      </trkpt>
      <trkpt lat="62.637544331605" lon="17.85484426273">
        <ele>47.2</ele>
        <time>2018-04-01T11:52:51Z</time>
      </trkpt>
      <trkpt lat="62.637534273325" lon="17.854744015206">
        <ele>47.2</ele>
        <time>2018-04-01T11:52:52Z</time>
      </trkpt>
      <trkpt lat="62.637524550321" lon="17.854641169293">
        <ele>47.4</ele>
        <time>2018-04-01T11:52:53Z</time>
      </trkpt>
      <trkpt lat="62.637514994955" lon="17.854536647">
        <ele>47.6</ele>
        <time>2018-04-01T11:52:54Z</time>
      </trkpt>
      <trkpt lat="62.637506026322" lon="17.854427766119">
        <ele>47.6</ele>
        <time>2018-04-01T11:52:55Z</time>
      </trkpt>
      <trkpt lat="62.637498566431" lon="17.854325087844">
        <ele>47.6</ele>
        <time>2018-04-01T11:52:56Z</time>
      </trkpt>
      <trkpt lat="62.63749194473" lon="17.854229534184">
        <ele>47.6</ele>
        <time>2018-04-01T11:52:57Z</time>
      </trkpt>
      <trkpt lat="62.63748440102" lon="17.854122664959">
        <ele>47.8</ele>
        <time>2018-04-01T11:52:58Z</time>
      </trkpt>
      <trkpt lat="62.637478030776" lon="17.854030128783">
        <ele>48</ele>
        <time>2018-04-01T11:52:59Z</time>
      </trkpt>
      <trkpt lat="62.637471492894" lon="17.8539247683">
        <ele>48.2</ele>
        <time>2018-04-01T11:53:00Z</time>
      </trkpt>
      <trkpt lat="62.637466128478" lon="17.853828879364">
        <ele>48.4</ele>
        <time>2018-04-01T11:53:01Z</time>
      </trkpt>
      <trkpt lat="62.637461686071" lon="17.853740617957">
        <ele>48.4</ele>
        <time>2018-04-01T11:53:02Z</time>
      </trkpt>
      <trkpt lat="62.637456573112" lon="17.853640035157">
        <ele>48.6</ele>
        <time>2018-04-01T11:53:03Z</time>
      </trkpt>
      <trkpt lat="62.637452801257" lon="17.853546912248">
        <ele>48.8</ele>
        <time>2018-04-01T11:53:04Z</time>
      </trkpt>
      <trkpt lat="62.637448442669" lon="17.85345957285">
        <ele>48.8</ele>
        <time>2018-04-01T11:53:05Z</time>
      </trkpt>
      <trkpt lat="62.637442659158" lon="17.853362175172">
        <ele>49</ele>
        <time>2018-04-01T11:53:06Z</time>
      </trkpt>
      <trkpt lat="62.637438635846" lon="17.853278691448">
        <ele>49.2</ele>
        <time>2018-04-01T11:53:07Z</time>
      </trkpt>
      <trkpt lat="62.637434696353" lon="17.853185903815">
        <ele>49.2</ele>
        <time>2018-04-01T11:53:08Z</time>
      </trkpt>
      <trkpt lat="62.637431175955" lon="17.853104767023">
        <ele>49.4</ele>
        <time>2018-04-01T11:53:09Z</time>
      </trkpt>
      <trkpt lat="62.637427571738" lon="17.853014158684">
        <ele>49.8</ele>
        <time>2018-04-01T11:53:10Z</time>
      </trkpt>
      <trkpt lat="62.637425057168" lon="17.852932099883">
        <ele>49.8</ele>
        <time>2018-04-01T11:53:11Z</time>
      </trkpt>
      <trkpt lat="62.637421033856" lon="17.852867391615">
        <ele>49.8</ele>
        <time>2018-04-01T11:53:12Z</time>
      </trkpt>
      <trkpt lat="62.637418100191" lon="17.852777621466">
        <ele>50</ele>
        <time>2018-04-01T11:53:13Z</time>
      </trkpt>
      <trkpt lat="62.637415417983" lon="17.852698077235">
        <ele>50.2</ele>
        <time>2018-04-01T11:53:14Z</time>
      </trkpt>
      <trkpt lat="62.637411729947" lon="17.852617694814">
        <ele>50.4</ele>
        <time>2018-04-01T11:53:15Z</time>
      </trkpt>
      <trkpt lat="62.637407455178" lon="17.852536390384">
        <ele>50.6</ele>
        <time>2018-04-01T11:53:16Z</time>
      </trkpt>
      <trkpt lat="62.637403515685" lon="17.852465898605">
        <ele>50.8</ele>
        <time>2018-04-01T11:53:17Z</time>
      </trkpt>
      <trkpt lat="62.637399576192" lon="17.852375625542">
        <ele>51</ele>
        <time>2018-04-01T11:53:18Z</time>
      </trkpt>
      <trkpt lat="62.637396977803" lon="17.852294656388">
        <ele>51.2</ele>
        <time>2018-04-01T11:53:19Z</time>
      </trkpt>
      <trkpt lat="62.637394547052" lon="17.852214190148">
        <ele>51.2</ele>
        <time>2018-04-01T11:53:20Z</time>
      </trkpt>
      <trkpt lat="62.637391864844" lon="17.852131125519">
        <ele>51.2</ele>
        <time>2018-04-01T11:53:21Z</time>
      </trkpt>
      <trkpt lat="62.637389517912" lon="17.852056778066">
        <ele>51.4</ele>
        <time>2018-04-01T11:53:22Z</time>
      </trkpt>
      <trkpt lat="62.637387422437" lon="17.851973126704">
        <ele>51.4</ele>
        <time>2018-04-01T11:53:23Z</time>
      </trkpt>
      <trkpt lat="62.637385075505" lon="17.851890145894">
        <ele>51.6</ele>
        <time>2018-04-01T11:53:24Z</time>
      </trkpt>
      <trkpt lat="62.637381722745" lon="17.851802219763">
        <ele>51.8</ele>
        <time>2018-04-01T11:53:25Z</time>
      </trkpt>
      <trkpt lat="62.637378621442" lon="17.851718819858">
        <ele>52</ele>
        <time>2018-04-01T11:53:26Z</time>
      </trkpt>
      <trkpt lat="62.637376442148" lon="17.851641874016">
        <ele>52</ele>
        <time>2018-04-01T11:53:27Z</time>
      </trkpt>
      <trkpt lat="62.637374430492" lon="17.851553947885">
        <ele>52.2</ele>
        <time>2018-04-01T11:53:28Z</time>
      </trkpt>
      <trkpt lat="62.637372167379" lon="17.851476918224">
        <ele>52.4</ele>
        <time>2018-04-01T11:53:29Z</time>
      </trkpt>
      <trkpt lat="62.637368646981" lon="17.851388824455">
        <ele>52.8</ele>
        <time>2018-04-01T11:53:30Z</time>
      </trkpt>
      <trkpt lat="62.637363953117" lon="17.851307436206">
        <ele>53</ele>
        <time>2018-04-01T11:53:31Z</time>
      </trkpt>
      <trkpt lat="62.637358756339" lon="17.85123082564">
        <ele>53.2</ele>
        <time>2018-04-01T11:53:32Z</time>
      </trkpt>
      <trkpt lat="62.63735448157" lon="17.851144408251">
        <ele>53.4</ele>
        <time>2018-04-01T11:53:33Z</time>
      </trkpt>
      <trkpt lat="62.637351631724" lon="17.851061762717">
        <ele>53.4</ele>
        <time>2018-04-01T11:53:34Z</time>
      </trkpt>
      <trkpt lat="62.637349787706" lon="17.850984313961">
        <ele>53.6</ele>
        <time>2018-04-01T11:53:35Z</time>
      </trkpt>
      <trkpt lat="62.637347608412" lon="17.850900830237">
        <ele>53.6</ele>
        <time>2018-04-01T11:53:36Z</time>
      </trkpt>
      <trkpt lat="62.637344507109" lon="17.850826147508">
        <ele>53.8</ele>
        <time>2018-04-01T11:53:37Z</time>
      </trkpt>
      <trkpt lat="62.637339058874" lon="17.850743669612">
        <ele>54</ele>
        <time>2018-04-01T11:53:38Z</time>
      </trkpt>
      <trkpt lat="62.63733436501" lon="17.850672339643">
        <ele>54</ele>
        <time>2018-04-01T11:53:39Z</time>
      </trkpt>
      <trkpt lat="62.637330341698" lon="17.850585000245">
        <ele>54.2</ele>
        <time>2018-04-01T11:53:40Z</time>
      </trkpt>
      <trkpt lat="62.637329168232" lon="17.85050830586">
        <ele>54.2</ele>
        <time>2018-04-01T11:53:41Z</time>
      </trkpt>
      <trkpt lat="62.637327910947" lon="17.850426833792">
        <ele>54.4</ele>
        <time>2018-04-01T11:53:42Z</time>
      </trkpt>
      <trkpt lat="62.637325396377" lon="17.85033982967">
        <ele>54.6</ele>
        <time>2018-04-01T11:53:43Z</time>
      </trkpt>
      <trkpt lat="62.637323719997" lon="17.850258189964">
        <ele>54.8</ele>
        <time>2018-04-01T11:53:44Z</time>
      </trkpt>
      <trkpt lat="62.637323971454" lon="17.850175712068">
        <ele>55</ele>
        <time>2018-04-01T11:53:45Z</time>
      </trkpt>
      <trkpt lat="62.637324139092" lon="17.850093485629">
        <ele>55.2</ele>
        <time>2018-04-01T11:53:46Z</time>
      </trkpt>
      <trkpt lat="62.637323719997" lon="17.850010504819">
        <ele>55.4</ele>
        <time>2018-04-01T11:53:47Z</time>
      </trkpt>
      <trkpt lat="62.637319361409" lon="17.849927104914">
        <ele>55.6</ele>
        <time>2018-04-01T11:53:48Z</time>
      </trkpt>
      <trkpt lat="62.637316092468" lon="17.849843202095">
        <ele>55.8</ele>
        <time>2018-04-01T11:53:49Z</time>
      </trkpt>
      <trkpt lat="62.63731508664" lon="17.84975644943">
        <ele>56</ele>
        <time>2018-04-01T11:53:50Z</time>
      </trkpt>
      <trkpt lat="62.637312739708" lon="17.849670199679">
        <ele>56.2</ele>
        <time>2018-04-01T11:53:51Z</time>
      </trkpt>
      <trkpt lat="62.637309051672" lon="17.84958797324">
        <ele>56.4</ele>
        <time>2018-04-01T11:53:52Z</time>
      </trkpt>
      <trkpt lat="62.63730502836" lon="17.849500550023">
        <ele>56.4</ele>
        <time>2018-04-01T11:53:53Z</time>
      </trkpt>
      <trkpt lat="62.637302429971" lon="17.849412372435">
        <ele>56.6</ele>
        <time>2018-04-01T11:53:54Z</time>
      </trkpt>
      <trkpt lat="62.637298909573" lon="17.849318159879">
        <ele>56.8</ele>
        <time>2018-04-01T11:53:55Z</time>
      </trkpt>
      <trkpt lat="62.637294634804" lon="17.849229814653">
        <ele>56.8</ele>
        <time>2018-04-01T11:53:56Z</time>
      </trkpt>
      <trkpt lat="62.637291282044" lon="17.849146917662">
        <ele>57</ele>
        <time>2018-04-01T11:53:57Z</time>
      </trkpt>
      <trkpt lat="62.637289018931" lon="17.849050944907">
        <ele>57.2</ele>
        <time>2018-04-01T11:53:58Z</time>
      </trkpt>
      <trkpt lat="62.637286085266" lon="17.848967209726">
        <ele>57.4</ele>
        <time>2018-04-01T11:53:59Z</time>
      </trkpt>
      <trkpt lat="62.637282816325" lon="17.848871404609">
        <ele>57.4</ele>
        <time>2018-04-01T11:54:00Z</time>
      </trkpt>
      <trkpt lat="62.637279966479" lon="17.848779790442">
        <ele>57.6</ele>
        <time>2018-04-01T11:54:01Z</time>
      </trkpt>
      <trkpt lat="62.637276278443" lon="17.848694211243">
        <ele>57.8</ele>
        <time>2018-04-01T11:54:02Z</time>
      </trkpt>
      <trkpt lat="62.637271333122" lon="17.848598741402">
        <ele>58</ele>
        <time>2018-04-01T11:54:03Z</time>
      </trkpt>
      <trkpt lat="62.63726730981" lon="17.848507462511">
        <ele>58</ele>
        <time>2018-04-01T11:54:04Z</time>
      </trkpt>
      <trkpt lat="62.637264962878" lon="17.848419871656">
        <ele>58.2</ele>
        <time>2018-04-01T11:54:05Z</time>
      </trkpt>
      <trkpt lat="62.637262867403" lon="17.848319959408">
        <ele>58.4</ele>
        <time>2018-04-01T11:54:06Z</time>
      </trkpt>
      <trkpt lat="62.637260185195" lon="17.848229937802">
        <ele>58.6</ele>
        <time>2018-04-01T11:54:07Z</time>
      </trkpt>
      <trkpt lat="62.637257000073" lon="17.848129774097">
        <ele>58.6</ele>
        <time>2018-04-01T11:54:08Z</time>
      </trkpt>
      <trkpt lat="62.637254904598" lon="17.848038662844">
        <ele>58.6</ele>
        <time>2018-04-01T11:54:09Z</time>
      </trkpt>
      <trkpt lat="62.637251970933" lon="17.847936152207">
        <ele>58.8</ele>
        <time>2018-04-01T11:54:10Z</time>
      </trkpt>
      <trkpt lat="62.63724970782" lon="17.847845460049">
        <ele>58.8</ele>
        <time>2018-04-01T11:54:11Z</time>
      </trkpt>
      <trkpt lat="62.637246857974" lon="17.847747978552">
        <ele>58.8</ele>
        <time>2018-04-01T11:54:12Z</time>
      </trkpt>
      <trkpt lat="62.637241996472" lon="17.847640271137">
        <ele>58.8</ele>
        <time>2018-04-01T11:54:13Z</time>
      </trkpt>
      <trkpt lat="62.637235877685" lon="17.847540191251">
        <ele>59</ele>
        <time>2018-04-01T11:54:14Z</time>
      </trkpt>
      <trkpt lat="62.637230680907" lon="17.847439608451">
        <ele>59.2</ele>
        <time>2018-04-01T11:54:15Z</time>
      </trkpt>
      <trkpt lat="62.637226154681" lon="17.847341959316">
        <ele>59.2</ele>
        <time>2018-04-01T11:54:16Z</time>
      </trkpt>
      <trkpt lat="62.637222299007" lon="17.847252272986">
        <ele>59.2</ele>
        <time>2018-04-01T11:54:17Z</time>
      </trkpt>
      <trkpt lat="62.637218275695" lon="17.847137776232">
        <ele>59.4</ele>
        <time>2018-04-01T11:54:18Z</time>
      </trkpt>
      <trkpt lat="62.637214000926" lon="17.847036606699">
        <ele>59.4</ele>
        <time>2018-04-01T11:54:19Z</time>
      </trkpt>
      <trkpt lat="62.63721031289" lon="17.846934934252">
        <ele>59.6</ele>
        <time>2018-04-01T11:54:20Z</time>
      </trkpt>
      <trkpt lat="62.637206205759" lon="17.846833261805">
        <ele>59.6</ele>
        <time>2018-04-01T11:54:21Z</time>
      </trkpt>
      <trkpt lat="62.63720193099" lon="17.846736786136">
        <ele>59.8</ele>
        <time>2018-04-01T11:54:22Z</time>
      </trkpt>
      <trkpt lat="62.637198075316" lon="17.846637376802">
        <ele>60</ele>
        <time>2018-04-01T11:54:23Z</time>
      </trkpt>
      <trkpt lat="62.637194471099" lon="17.846536458726">
        <ele>60</ele>
        <time>2018-04-01T11:54:24Z</time>
      </trkpt>
      <trkpt lat="62.637189190502" lon="17.846430343872">
        <ele>60.2</ele>
        <time>2018-04-01T11:54:25Z</time>
      </trkpt>
      <trkpt lat="62.637184580457" lon="17.846329341977">
        <ele>60.2</ele>
        <time>2018-04-01T11:54:26Z</time>
      </trkpt>
      <trkpt lat="62.637180892421" lon="17.846238482181">
        <ele>60.2</ele>
        <time>2018-04-01T11:54:27Z</time>
      </trkpt>
      <trkpt lat="62.637177288204" lon="17.846134378983">
        <ele>60.4</ele>
        <time>2018-04-01T11:54:28Z</time>
      </trkpt>
      <trkpt lat="62.637173600168" lon="17.846042261902">
        <ele>60.6</ele>
        <time>2018-04-01T11:54:29Z</time>
      </trkpt>
      <trkpt lat="62.637170163589" lon="17.845938577799">
        <ele>60.6</ele>
        <time>2018-04-01T11:54:30Z</time>
      </trkpt>
      <trkpt lat="62.637166475553" lon="17.84584126394">
        <ele>60.8</ele>
        <time>2018-04-01T11:54:31Z</time>
      </trkpt>
      <trkpt lat="62.637162033146" lon="17.845750571782">
        <ele>61</ele>
        <time>2018-04-01T11:54:32Z</time>
      </trkpt>
      <trkpt lat="62.637158093653" lon="17.845646887679">
        <ele>61</ele>
        <time>2018-04-01T11:54:33Z</time>
      </trkpt>
      <trkpt lat="62.637154405617" lon="17.845550747286">
        <ele>61</ele>
        <time>2018-04-01T11:54:34Z</time>
      </trkpt>
      <trkpt lat="62.637149041201" lon="17.845459133119">
        <ele>61</ele>
        <time>2018-04-01T11:54:35Z</time>
      </trkpt>
      <trkpt lat="62.637143509147" lon="17.845355029921">
        <ele>61.2</ele>
        <time>2018-04-01T11:54:36Z</time>
      </trkpt>
      <trkpt lat="62.637138396188" lon="17.84526291284">
        <ele>61.2</ele>
        <time>2018-04-01T11:54:37Z</time>
      </trkpt>
      <trkpt lat="62.637133367048" lon="17.845158474366">
        <ele>61.2</ele>
        <time>2018-04-01T11:54:38Z</time>
      </trkpt>
      <trkpt lat="62.637128757003" lon="17.845066105828">
        <ele>61.2</ele>
        <time>2018-04-01T11:54:39Z</time>
      </trkpt>
      <trkpt lat="62.637123811682" lon="17.844960912983">
        <ele>61.4</ele>
        <time>2018-04-01T11:54:40Z</time>
      </trkpt>
      <trkpt lat="62.637119704551" lon="17.84486477259">
        <ele>61.4</ele>
        <time>2018-04-01T11:54:41Z</time>
      </trkpt>
      <trkpt lat="62.637117022343" lon="17.844761172306">
        <ele>61.6</ele>
        <time>2018-04-01T11:54:42Z</time>
      </trkpt>
      <trkpt lat="62.63711392104" lon="17.844648771027">
        <ele>61.6</ele>
        <time>2018-04-01T11:54:43Z</time>
      </trkpt>
      <trkpt lat="62.637110819737" lon="17.844541985621">
        <ele>61.8</ele>
        <time>2018-04-01T11:54:44Z</time>
      </trkpt>
      <trkpt lat="62.637107299339" lon="17.844438469156">
        <ele>61.8</ele>
        <time>2018-04-01T11:54:45Z</time>
      </trkpt>
      <trkpt lat="62.637103695122" lon="17.844333527768">
        <ele>62</ele>
        <time>2018-04-01T11:54:46Z</time>
      </trkpt>
      <trkpt lat="62.637100258543" lon="17.844236046271">
        <ele>61.8</ele>
        <time>2018-04-01T11:54:47Z</time>
      </trkpt>
      <trkpt lat="62.63709631905" lon="17.844120627508">
        <ele>62</ele>
        <time>2018-04-01T11:54:48Z</time>
      </trkpt>
      <trkpt lat="62.637093469204" lon="17.844013255369">
        <ele>62</ele>
        <time>2018-04-01T11:54:49Z</time>
      </trkpt>
      <trkpt lat="62.637090786996" lon="17.843901105547">
        <ele>62.2</ele>
        <time>2018-04-01T11:54:50Z</time>
      </trkpt>
      <trkpt lat="62.637087434236" lon="17.843797589082">
        <ele>62.4</ele>
        <time>2018-04-01T11:54:51Z</time>
      </trkpt>
      <trkpt lat="62.637085338761" lon="17.843692312418">
        <ele>62.6</ele>
        <time>2018-04-01T11:54:52Z</time>
      </trkpt>
      <trkpt lat="62.637083494743" lon="17.8435815037">
        <ele>62.6</ele>
        <time>2018-04-01T11:54:53Z</time>
      </trkpt>
      <trkpt lat="62.637080812535" lon="17.843470527344">
        <ele>62.8</ele>
        <time>2018-04-01T11:54:54Z</time>
      </trkpt>
      <trkpt lat="62.637076789223" lon="17.843350833812">
        <ele>62.8</ele>
        <time>2018-04-01T11:54:55Z</time>
      </trkpt>
      <trkpt lat="62.637074358472" lon="17.843235834144">
        <ele>62.8</ele>
        <time>2018-04-01T11:54:56Z</time>
      </trkpt>
      <trkpt lat="62.637072514454" lon="17.843126617987">
        <ele>62.8</ele>
        <time>2018-04-01T11:54:57Z</time>
      </trkpt>
      <trkpt lat="62.637071089531" lon="17.843008684654">
        <ele>62.8</ele>
        <time>2018-04-01T11:54:58Z</time>
      </trkpt>
      <trkpt lat="62.63706949697" lon="17.842907934216">
        <ele>62.8</ele>
        <time>2018-04-01T11:54:59Z</time>
      </trkpt>
      <trkpt lat="62.637068072047" lon="17.842799556249">
        <ele>62.8</ele>
        <time>2018-04-01T11:55:00Z</time>
      </trkpt>
      <trkpt lat="62.637067401495" lon="17.842702326209">
        <ele>62.8</ele>
        <time>2018-04-01T11:55:01Z</time>
      </trkpt>
      <trkpt lat="62.637067904409" lon="17.842614064802">
        <ele>62.8</ele>
        <time>2018-04-01T11:55:02Z</time>
      </trkpt>
      <trkpt lat="62.637069999884" lon="17.842518594961">
        <ele>62.8</ele>
        <time>2018-04-01T11:55:03Z</time>
      </trkpt>
      <trkpt lat="62.637073352644" lon="17.84243150702">
        <ele>63</ele>
        <time>2018-04-01T11:55:04Z</time>
      </trkpt>
      <trkpt lat="62.637077627413" lon="17.8423493644">
        <ele>63</ele>
        <time>2018-04-01T11:55:05Z</time>
      </trkpt>
      <trkpt lat="62.637084249114" lon="17.842254816568">
        <ele>63</ele>
        <time>2018-04-01T11:55:06Z</time>
      </trkpt>
      <trkpt lat="62.637091541367" lon="17.842168985912">
        <ele>63.2</ele>
        <time>2018-04-01T11:55:07Z</time>
      </trkpt>
      <trkpt lat="62.637096821964" lon="17.842068067836">
        <ele>63.2</ele>
        <time>2018-04-01T11:55:08Z</time>
      </trkpt>
      <trkpt lat="62.637099336534" lon="17.841974525832">
        <ele>63.2</ele>
        <time>2018-04-01T11:55:09Z</time>
      </trkpt>
      <trkpt lat="62.637101096733" lon="17.841865309675">
        <ele>63.2</ele>
        <time>2018-04-01T11:55:10Z</time>
      </trkpt>
      <trkpt lat="62.637103527484" lon="17.841766403255">
        <ele>63.2</ele>
        <time>2018-04-01T11:55:11Z</time>
      </trkpt>
      <trkpt lat="62.637105036226" lon="17.841667999749">
        <ele>63.4</ele>
        <time>2018-04-01T11:55:12Z</time>
      </trkpt>
      <trkpt lat="62.637108305167" lon="17.841553586814">
        <ele>63.2</ele>
        <time>2018-04-01T11:55:13Z</time>
      </trkpt>
      <trkpt lat="62.637111657927" lon="17.84144747196">
        <ele>63.4</ele>
        <time>2018-04-01T11:55:14Z</time>
      </trkpt>
      <trkpt lat="62.637114256316" lon="17.841341105649">
        <ele>63.4</ele>
        <time>2018-04-01T11:55:15Z</time>
      </trkpt>
      <trkpt lat="62.637117525257" lon="17.841233565872">
        <ele>63.6</ele>
        <time>2018-04-01T11:55:16Z</time>
      </trkpt>
      <trkpt lat="62.637121297112" lon="17.841138515126">
        <ele>63.6</ele>
        <time>2018-04-01T11:55:17Z</time>
      </trkpt>
      <trkpt lat="62.637126074795" lon="17.8410166423">
        <ele>63.8</ele>
        <time>2018-04-01T11:55:18Z</time>
      </trkpt>
      <trkpt lat="62.637130349564" lon="17.840910527446">
        <ele>63.8</ele>
        <time>2018-04-01T11:55:19Z</time>
      </trkpt>
      <trkpt lat="62.637133869962" lon="17.840802568574">
        <ele>63.8</ele>
        <time>2018-04-01T11:55:20Z</time>
      </trkpt>
      <trkpt lat="62.637138396188" lon="17.840695866987">
        <ele>63.8</ele>
        <time>2018-04-01T11:55:21Z</time>
      </trkpt>
      <trkpt lat="62.637142922414" lon="17.840595619463">
        <ele>64</ele>
        <time>2018-04-01T11:55:22Z</time>
      </trkpt>
      <trkpt lat="62.637148538287" lon="17.840489588428">
        <ele>64.2</ele>
        <time>2018-04-01T11:55:23Z</time>
      </trkpt>
      <trkpt lat="62.637153399789" lon="17.84037626514">
        <ele>64.4</ele>
        <time>2018-04-01T11:55:24Z</time>
      </trkpt>
      <trkpt lat="62.637157339282" lon="17.840273922141">
        <ele>64.4</ele>
        <time>2018-04-01T11:55:25Z</time>
      </trkpt>
      <trkpt lat="62.637164966811" lon="17.840170657133">
        <ele>64.6</ele>
        <time>2018-04-01T11:55:26Z</time>
      </trkpt>
      <trkpt lat="62.637171253236" lon="17.840073091817">
        <ele>64.8</ele>
        <time>2018-04-01T11:55:27Z</time>
      </trkpt>
      <trkpt lat="62.637177707299" lon="17.839963372746">
        <ele>64.8</ele>
        <time>2018-04-01T11:55:28Z</time>
      </trkpt>
      <trkpt lat="62.637184831914" lon="17.839869746923">
        <ele>65</ele>
        <time>2018-04-01T11:55:29Z</time>
      </trkpt>
      <trkpt lat="62.637189693416" lon="17.839781485516">
        <ele>65</ele>
        <time>2018-04-01T11:55:30Z</time>
      </trkpt>
      <trkpt lat="62.637198745868" lon="17.839660869975">
        <ele>65.2</ele>
        <time>2018-04-01T11:55:31Z</time>
      </trkpt>
      <trkpt lat="62.637206792492" lon="17.839567579428">
        <ele>65.2</ele>
        <time>2018-04-01T11:55:32Z</time>
      </trkpt>
      <trkpt lat="62.637213498012" lon="17.839459704375">
        <ele>65.4</ele>
        <time>2018-04-01T11:55:33Z</time>
      </trkpt>
      <trkpt lat="62.637220035894" lon="17.839360630317">
        <ele>65.6</ele>
        <time>2018-04-01T11:55:34Z</time>
      </trkpt>
      <trkpt lat="62.637225987043" lon="17.839268261779">
        <ele>65.6</ele>
        <time>2018-04-01T11:55:35Z</time>
      </trkpt>
      <trkpt lat="62.637233363115" lon="17.839166086418">
        <ele>65.8</ele>
        <time>2018-04-01T11:55:36Z</time>
      </trkpt>
      <trkpt lat="62.63724216411" lon="17.839077825011">
        <ele>65.8</ele>
        <time>2018-04-01T11:55:37Z</time>
      </trkpt>
      <trkpt lat="62.63725222239" lon="17.838981014066">
        <ele>66</ele>
        <time>2018-04-01T11:55:38Z</time>
      </trkpt>
      <trkpt lat="62.637262867403" lon="17.838893758487">
        <ele>66.2</ele>
        <time>2018-04-01T11:55:39Z</time>
      </trkpt>
      <trkpt lat="62.637273763873" lon="17.838796779904">
        <ele>66.4</ele>
        <time>2018-04-01T11:55:40Z</time>
      </trkpt>
      <trkpt lat="62.637284157429" lon="17.838712541809">
        <ele>66.4</ele>
        <time>2018-04-01T11:55:41Z</time>
      </trkpt>
      <trkpt lat="62.637293545157" lon="17.838622101108">
        <ele>66.6</ele>
        <time>2018-04-01T11:55:42Z</time>
      </trkpt>
      <trkpt lat="62.637301507962" lon="17.838526295991">
        <ele>66.8</ele>
        <time>2018-04-01T11:55:43Z</time>
      </trkpt>
      <trkpt lat="62.637311650061" lon="17.838437783127">
        <ele>67</ele>
        <time>2018-04-01T11:55:44Z</time>
      </trkpt>
      <trkpt lat="62.637325731653" lon="17.838351868652">
        <ele>67.2</ele>
        <time>2018-04-01T11:55:45Z</time>
      </trkpt>
      <trkpt lat="62.63733771777" lon="17.838265618901">
        <ele>67.2</ele>
        <time>2018-04-01T11:55:46Z</time>
      </trkpt>
      <trkpt lat="62.637347021679" lon="17.838188002507">
        <ele>67.4</ele>
        <time>2018-04-01T11:55:47Z</time>
      </trkpt>
      <trkpt lat="62.637356409407" lon="17.838090437191">
        <ele>67.6</ele>
        <time>2018-04-01T11:55:48Z</time>
      </trkpt>
      <trkpt lat="62.637363450203" lon="17.838003013974">
        <ele>67.8</ele>
        <time>2018-04-01T11:55:49Z</time>
      </trkpt>
      <trkpt lat="62.637370742456" lon="17.837917770051">
        <ele>68</ele>
        <time>2018-04-01T11:55:50Z</time>
      </trkpt>
      <trkpt lat="62.637377196519" lon="17.837830263015">
        <ele>68.2</ele>
        <time>2018-04-01T11:55:51Z</time>
      </trkpt>
      <trkpt lat="62.637383734401" lon="17.837755077372">
        <ele>68.4</ele>
        <time>2018-04-01T11:55:52Z</time>
      </trkpt>
      <trkpt lat="62.637393625043" lon="17.837673521485">
        <ele>68.4</ele>
        <time>2018-04-01T11:55:53Z</time>
      </trkpt>
      <trkpt lat="62.637402761314" lon="17.837589115752">
        <ele>68.6</ele>
        <time>2018-04-01T11:55:54Z</time>
      </trkpt>
      <trkpt lat="62.637412149042" lon="17.837500602888">
        <ele>68.8</ele>
        <time>2018-04-01T11:55:55Z</time>
      </trkpt>
      <trkpt lat="62.637419357476" lon="17.837417035345">
        <ele>68.8</ele>
        <time>2018-04-01T11:55:56Z</time>
      </trkpt>
      <trkpt lat="62.637426733548" lon="17.837339251313">
        <ele>69</ele>
        <time>2018-04-01T11:55:57Z</time>
      </trkpt>
      <trkpt lat="62.637433858163" lon="17.8372531692">
        <ele>69.2</ele>
        <time>2018-04-01T11:55:58Z</time>
      </trkpt>
      <trkpt lat="62.637441066597" lon="17.837176810091">
        <ele>69.4</ele>
        <time>2018-04-01T11:55:59Z</time>
      </trkpt>
      <trkpt lat="62.637450789601" lon="17.837091147073">
        <ele>69.6</ele>
        <time>2018-04-01T11:56:00Z</time>
      </trkpt>
      <trkpt lat="62.637460344967" lon="17.837010261738">
        <ele>69.6</ele>
        <time>2018-04-01T11:56:01Z</time>
      </trkpt>
      <trkpt lat="62.637468643048" lon="17.836936920113">
        <ele>69.8</ele>
        <time>2018-04-01T11:56:02Z</time>
      </trkpt>
      <trkpt lat="62.637478449871" lon="17.836851508552">
        <ele>70</ele>
        <time>2018-04-01T11:56:03Z</time>
      </trkpt>
      <trkpt lat="62.637488172875" lon="17.836773221606">
        <ele>70.2</ele>
        <time>2018-04-01T11:56:04Z</time>
      </trkpt>
      <trkpt lat="62.637497309146" lon="17.836699712343">
        <ele>70.4</ele>
        <time>2018-04-01T11:56:05Z</time>
      </trkpt>
      <trkpt lat="62.637506780693" lon="17.836617234447">
        <ele>70.6</ele>
        <time>2018-04-01T11:56:06Z</time>
      </trkpt>
      <trkpt lat="62.63751541405" lon="17.836545653021">
        <ele>70.8</ele>
        <time>2018-04-01T11:56:07Z</time>
      </trkpt>
      <trkpt lat="62.637525807606" lon="17.836465354419">
        <ele>70.8</ele>
        <time>2018-04-01T11:56:08Z</time>
      </trkpt>
      <trkpt lat="62.63753385423" lon="17.836395030278">
        <ele>71</ele>
        <time>2018-04-01T11:56:09Z</time>
      </trkpt>
      <trkpt lat="62.637542403768" lon="17.836315066952">
        <ele>71.2</ele>
        <time>2018-04-01T11:56:10Z</time>
      </trkpt>
      <trkpt lat="62.637550198935" lon="17.836245078087">
        <ele>71.2</ele>
        <time>2018-04-01T11:56:11Z</time>
      </trkpt>
      <trkpt lat="62.637557994102" lon="17.836171233548">
        <ele>71.4</ele>
        <time>2018-04-01T11:56:12Z</time>
      </trkpt>
      <trkpt lat="62.637564783441" lon="17.836093030421">
        <ele>71.4</ele>
        <time>2018-04-01T11:56:13Z</time>
      </trkpt>
      <trkpt lat="62.637574674083" lon="17.836016168398">
        <ele>71.6</ele>
        <time>2018-04-01T11:56:14Z</time>
      </trkpt>
      <trkpt lat="62.637583726535" lon="17.835939557832">
        <ele>71.6</ele>
        <time>2018-04-01T11:56:15Z</time>
      </trkpt>
      <trkpt lat="62.637592695168" lon="17.835863282542">
        <ele>71.8</ele>
        <time>2018-04-01T11:56:16Z</time>
      </trkpt>
      <trkpt lat="62.637601160887" lon="17.835798155179">
        <ele>72</ele>
        <time>2018-04-01T11:56:17Z</time>
      </trkpt>
      <trkpt lat="62.637612560271" lon="17.835711653971">
        <ele>72.4</ele>
        <time>2018-04-01T11:56:18Z</time>
      </trkpt>
      <trkpt lat="62.637622953827" lon="17.83563210974">
        <ele>72.6</ele>
        <time>2018-04-01T11:56:19Z</time>
      </trkpt>
      <trkpt lat="62.637630665175" lon="17.835552397871">
        <ele>72.8</ele>
        <time>2018-04-01T11:56:20Z</time>
      </trkpt>
      <trkpt lat="62.637638208885" lon="17.835473356554">
        <ele>73</ele>
        <time>2018-04-01T11:56:21Z</time>
      </trkpt>
      <trkpt lat="62.637646758423" lon="17.835396913626">
        <ele>73</ele>
        <time>2018-04-01T11:56:22Z</time>
      </trkpt>
      <trkpt lat="62.637656397608" lon="17.8353169503">
        <ele>73.2</ele>
        <time>2018-04-01T11:56:23Z</time>
      </trkpt>
      <trkpt lat="62.637665952974" lon="17.835236567879">
        <ele>73.2</ele>
        <time>2018-04-01T11:56:24Z</time>
      </trkpt>
      <trkpt lat="62.637675927435" lon="17.835153000336">
        <ele>73.4</ele>
        <time>2018-04-01T11:56:25Z</time>
      </trkpt>
      <trkpt lat="62.637686153353" lon="17.835073120829">
        <ele>73.6</ele>
        <time>2018-04-01T11:56:26Z</time>
      </trkpt>
      <trkpt lat="62.637693361787" lon="17.834999695385">
        <ele>73.8</ele>
        <time>2018-04-01T11:56:27Z</time>
      </trkpt>
      <trkpt lat="62.637701576049" lon="17.834916379299">
        <ele>74</ele>
        <time>2018-04-01T11:56:28Z</time>
      </trkpt>
      <trkpt lat="62.637710125587" lon="17.83484421114">
        <ele>74</ele>
        <time>2018-04-01T11:56:29Z</time>
      </trkpt>
      <trkpt lat="62.637719429496" lon="17.834763661081">
        <ele>74.2</ele>
        <time>2018-04-01T11:56:30Z</time>
      </trkpt>
      <trkpt lat="62.637726973206" lon="17.834688643076">
        <ele>74.4</ele>
        <time>2018-04-01T11:56:31Z</time>
      </trkpt>
      <trkpt lat="62.637734516916" lon="17.834618905668">
        <ele>74.4</ele>
        <time>2018-04-01T11:56:32Z</time>
      </trkpt>
      <trkpt lat="62.637744072282" lon="17.834540702541">
        <ele>74.6</ele>
        <time>2018-04-01T11:56:33Z</time>
      </trkpt>
      <trkpt lat="62.637752873277" lon="17.834467528554">
        <ele>74.8</ele>
        <time>2018-04-01T11:56:34Z</time>
      </trkpt>
      <trkpt lat="62.637759997892" lon="17.834398210241">
        <ele>74.8</ele>
        <time>2018-04-01T11:56:35Z</time>
      </trkpt>
      <trkpt lat="62.637769050344" lon="17.834318498372">
        <ele>75</ele>
        <time>2018-04-01T11:56:36Z</time>
      </trkpt>
      <trkpt lat="62.637776761692" lon="17.834241720168">
        <ele>75.2</ele>
        <time>2018-04-01T11:56:37Z</time>
      </trkpt>
      <trkpt lat="62.637787406705" lon="17.834153626399">
        <ele>75.4</ele>
        <time>2018-04-01T11:56:38Z</time>
      </trkpt>
      <trkpt lat="62.637796626795" lon="17.834077770204">
        <ele>75.4</ele>
        <time>2018-04-01T11:56:39Z</time>
      </trkpt>
      <trkpt lat="62.637806936532" lon="17.833990263168">
        <ele>75.6</ele>
        <time>2018-04-01T11:56:40Z</time>
      </trkpt>
      <trkpt lat="62.637815905165" lon="17.83391214386">
        <ele>76</ele>
        <time>2018-04-01T11:56:41Z</time>
      </trkpt>
      <trkpt lat="62.63782470616" lon="17.833828241041">
        <ele>76</ele>
        <time>2018-04-01T11:56:42Z</time>
      </trkpt>
      <trkpt lat="62.637834596802" lon="17.833739309082">
        <ele>76.2</ele>
        <time>2018-04-01T11:56:43Z</time>
      </trkpt>
      <trkpt lat="62.637843733073" lon="17.833656328272">
        <ele>76.2</ele>
        <time>2018-04-01T11:56:44Z</time>
      </trkpt>
      <trkpt lat="62.637854210448" lon="17.833570916711">
        <ele>76.4</ele>
        <time>2018-04-01T11:56:45Z</time>
      </trkpt>
      <trkpt lat="62.637864352547" lon="17.833483409675">
        <ele>76.4</ele>
        <time>2018-04-01T11:56:46Z</time>
      </trkpt>
      <trkpt lat="62.637873404999" lon="17.833401518512">
        <ele>76.6</ele>
        <time>2018-04-01T11:56:47Z</time>
      </trkpt>
      <trkpt lat="62.637884301469" lon="17.833305797214">
        <ele>76.6</ele>
        <time>2018-04-01T11:56:48Z</time>
      </trkpt>
      <trkpt lat="62.637894611206" lon="17.833216781436">
        <ele>76.8</ele>
        <time>2018-04-01T11:56:49Z</time>
      </trkpt>
      <trkpt lat="62.637904501848" lon="17.833127262744">
        <ele>76.8</ele>
        <time>2018-04-01T11:56:50Z</time>
      </trkpt>
      <trkpt lat="62.637914476309" lon="17.833040677717">
        <ele>77</ele>
        <time>2018-04-01T11:56:51Z</time>
      </trkpt>
      <trkpt lat="62.637924869865" lon="17.832956104346">
        <ele>77</ele>
        <time>2018-04-01T11:56:52Z</time>
      </trkpt>
      <trkpt lat="62.637935263421" lon="17.832868764948">
        <ele>77</ele>
        <time>2018-04-01T11:56:53Z</time>
      </trkpt>
      <trkpt lat="62.637945321701" lon="17.832779330075">
        <ele>77</ele>
        <time>2018-04-01T11:56:54Z</time>
      </trkpt>
      <trkpt lat="62.637954457972" lon="17.832683441139">
        <ele>77.2</ele>
        <time>2018-04-01T11:56:55Z</time>
      </trkpt>
      <trkpt lat="62.637962504596" lon="17.832593168076">
        <ele>77.4</ele>
        <time>2018-04-01T11:56:56Z</time>
      </trkpt>
      <trkpt lat="62.637969880668" lon="17.832506583049">
        <ele>77.6</ele>
        <time>2018-04-01T11:56:57Z</time>
      </trkpt>
      <trkpt lat="62.637978346387" lon="17.832409520647">
        <ele>77.8</ele>
        <time>2018-04-01T11:56:58Z</time>
      </trkpt>
      <trkpt lat="62.637986057735" lon="17.832323689991">
        <ele>78</ele>
        <time>2018-04-01T11:56:59Z</time>
      </trkpt>
      <trkpt lat="62.637994439635" lon="17.832224196838">
        <ele>78</ele>
        <time>2018-04-01T11:57:00Z</time>
      </trkpt>
      <trkpt lat="62.638002737716" lon="17.832133085585">
        <ele>78.2</ele>
        <time>2018-04-01T11:57:01Z</time>
      </trkpt>
      <trkpt lat="62.638010113788" lon="17.832045997644">
        <ele>78.2</ele>
        <time>2018-04-01T11:57:02Z</time>
      </trkpt>
      <trkpt lat="62.638017573679" lon="17.831947342681">
        <ele>78.2</ele>
        <time>2018-04-01T11:57:03Z</time>
      </trkpt>
      <trkpt lat="62.638023608647" lon="17.831854052134">
        <ele>78.2</ele>
        <time>2018-04-01T11:57:04Z</time>
      </trkpt>
      <trkpt lat="62.638030230348" lon="17.831767383288">
        <ele>78.2</ele>
        <time>2018-04-01T11:57:05Z</time>
      </trkpt>
      <trkpt lat="62.638037438782" lon="17.831670488524">
        <ele>78.4</ele>
        <time>2018-04-01T11:57:06Z</time>
      </trkpt>
      <trkpt lat="62.638042216465" lon="17.831585579877">
        <ele>78.4</ele>
        <time>2018-04-01T11:57:07Z</time>
      </trkpt>
      <trkpt lat="62.638048838166" lon="17.831483320697">
        <ele>78.4</ele>
        <time>2018-04-01T11:57:08Z</time>
      </trkpt>
      <trkpt lat="62.638055040772" lon="17.831394556376">
        <ele>78.6</ele>
        <time>2018-04-01T11:57:09Z</time>
      </trkpt>
      <trkpt lat="62.638060405188" lon="17.831289614988">
        <ele>78.6</ele>
        <time>2018-04-01T11:57:10Z</time>
      </trkpt>
      <trkpt lat="62.638065518147" lon="17.831196240622">
        <ele>78.8</ele>
        <time>2018-04-01T11:57:11Z</time>
      </trkpt>
      <trkpt lat="62.638072475124" lon="17.831094316718">
        <ele>78.8</ele>
        <time>2018-04-01T11:57:12Z</time>
      </trkpt>
      <trkpt lat="62.638078007178" lon="17.830990297339">
        <ele>78.8</ele>
        <time>2018-04-01T11:57:13Z</time>
      </trkpt>
      <trkpt lat="62.638084042146" lon="17.830888457254">
        <ele>79</ele>
        <time>2018-04-01T11:57:14Z</time>
      </trkpt>
      <trkpt lat="62.63808705963" lon="17.830785443703">
        <ele>78.8</ele>
        <time>2018-04-01T11:57:15Z</time>
      </trkpt>
      <trkpt lat="62.63808789782" lon="17.830681591962">
        <ele>79</ele>
        <time>2018-04-01T11:57:16Z</time>
      </trkpt>
      <trkpt lat="62.638089993295" lon="17.830579332782">
        <ele>78.8</ele>
        <time>2018-04-01T11:57:17Z</time>
      </trkpt>
      <trkpt lat="62.638095609168" lon="17.830472379738">
        <ele>79</ele>
        <time>2018-04-01T11:57:18Z</time>
      </trkpt>
      <trkpt lat="62.63809879429" lon="17.830366181065">
        <ele>79</ele>
        <time>2018-04-01T11:57:19Z</time>
      </trkpt>
      <trkpt lat="62.638099381023" lon="17.830259395659">
        <ele>79.2</ele>
        <time>2018-04-01T11:57:20Z</time>
      </trkpt>
      <trkpt lat="62.638102314688" lon="17.83015202352">
        <ele>79.2</ele>
        <time>2018-04-01T11:57:21Z</time>
      </trkpt>
      <trkpt lat="62.638105918905" lon="17.830049512883">
        <ele>79.4</ele>
        <time>2018-04-01T11:57:22Z</time>
      </trkpt>
      <trkpt lat="62.638108433475" lon="17.829942559839">
        <ele>79.4</ele>
        <time>2018-04-01T11:57:23Z</time>
      </trkpt>
      <trkpt lat="62.638112372968" lon="17.829830661474">
        <ele>79.4</ele>
        <time>2018-04-01T11:57:24Z</time>
      </trkpt>
      <trkpt lat="62.638116312461" lon="17.829709710657">
        <ele>79.4</ele>
        <time>2018-04-01T11:57:25Z</time>
      </trkpt>
      <trkpt lat="62.638120922506" lon="17.829598315206">
        <ele>79.4</ele>
        <time>2018-04-01T11:57:26Z</time>
      </trkpt>
      <trkpt lat="62.638121173963" lon="17.829492619447">
        <ele>79.4</ele>
        <time>2018-04-01T11:57:27Z</time>
      </trkpt>
      <trkpt lat="62.638122012153" lon="17.82937334501">
        <ele>79.6</ele>
        <time>2018-04-01T11:57:28Z</time>
      </trkpt>
      <trkpt lat="62.638122515067" lon="17.829266140509">
        <ele>79.6</ele>
        <time>2018-04-01T11:57:29Z</time>
      </trkpt>
      <trkpt lat="62.638122179791" lon="17.829144183864">
        <ele>79.6</ele>
        <time>2018-04-01T11:57:30Z</time>
      </trkpt>
      <trkpt lat="62.6381231018" lon="17.829029100377">
        <ele>79.6</ele>
        <time>2018-04-01T11:57:31Z</time>
      </trkpt>
      <trkpt lat="62.63812477818" lon="17.828921812057">
        <ele>79.6</ele>
        <time>2018-04-01T11:57:32Z</time>
      </trkpt>
      <trkpt lat="62.638125029637" lon="17.828796502652">
        <ele>79.6</ele>
        <time>2018-04-01T11:57:33Z</time>
      </trkpt>
      <trkpt lat="62.638124945818" lon="17.828681922079">
        <ele>79.6</ele>
        <time>2018-04-01T11:57:34Z</time>
      </trkpt>
      <trkpt lat="62.63812393999" lon="17.828574466121">
        <ele>79.6</ele>
        <time>2018-04-01T11:57:35Z</time>
      </trkpt>
      <trkpt lat="62.638120922506" lon="17.828453263847">
        <ele>79.8</ele>
        <time>2018-04-01T11:57:36Z</time>
      </trkpt>
      <trkpt lat="62.638120000497" lon="17.828345891708">
        <ele>79.8</ele>
        <time>2018-04-01T11:57:37Z</time>
      </trkpt>
      <trkpt lat="62.638120754868" lon="17.828221169036">
        <ele>80</ele>
        <time>2018-04-01T11:57:38Z</time>
      </trkpt>
      <trkpt lat="62.638120084316" lon="17.828109103033">
        <ele>80</ele>
        <time>2018-04-01T11:57:39Z</time>
      </trkpt>
      <trkpt lat="62.638118743212" lon="17.827996282659">
        <ele>80.2</ele>
        <time>2018-04-01T11:57:40Z</time>
      </trkpt>
      <trkpt lat="62.638118743212" lon="17.827888575244">
        <ele>80</ele>
        <time>2018-04-01T11:57:41Z</time>
      </trkpt>
      <trkpt lat="62.63811723447" lon="17.827777934164">
        <ele>80.2</ele>
        <time>2018-04-01T11:57:42Z</time>
      </trkpt>
      <trkpt lat="62.638114384624" lon="17.827656815709">
        <ele>80</ele>
        <time>2018-04-01T11:57:43Z</time>
      </trkpt>
      <trkpt lat="62.638112037692" lon="17.827543324783">
        <ele>80</ele>
        <time>2018-04-01T11:57:44Z</time>
      </trkpt>
      <trkpt lat="62.638110361312" lon="17.827429414762">
        <ele>80</ele>
        <time>2018-04-01T11:57:45Z</time>
      </trkpt>
      <trkpt lat="62.638107762923" lon="17.827312068162">
        <ele>80</ele>
        <time>2018-04-01T11:57:46Z</time>
      </trkpt>
      <trkpt lat="62.638104158706" lon="17.827207126774">
        <ele>80</ele>
        <time>2018-04-01T11:57:47Z</time>
      </trkpt>
      <trkpt lat="62.638099716299" lon="17.827075530944">
        <ele>80.2</ele>
        <time>2018-04-01T11:57:48Z</time>
      </trkpt>
      <trkpt lat="62.638096028263" lon="17.826956759421">
        <ele>80.2</ele>
        <time>2018-04-01T11:57:49Z</time>
      </trkpt>
      <trkpt lat="62.638092843141" lon="17.826835054233">
        <ele>80.2</ele>
        <time>2018-04-01T11:57:50Z</time>
      </trkpt>
      <trkpt lat="62.638087394906" lon="17.826718629642">
        <ele>80</ele>
        <time>2018-04-01T11:57:51Z</time>
      </trkpt>
      <trkpt lat="62.638082533404" lon="17.826608240019">
        <ele>80</ele>
        <time>2018-04-01T11:57:52Z</time>
      </trkpt>
      <trkpt lat="62.638077504264" lon="17.826492821256">
        <ele>80.2</ele>
        <time>2018-04-01T11:57:53Z</time>
      </trkpt>
      <trkpt lat="62.638072307486" lon="17.826373546819">
        <ele>80.2</ele>
        <time>2018-04-01T11:57:54Z</time>
      </trkpt>
      <trkpt lat="62.638066859251" lon="17.826263324834">
        <ele>80.2</ele>
        <time>2018-04-01T11:57:55Z</time>
      </trkpt>
      <trkpt lat="62.638060656645" lon="17.826151929383">
        <ele>80.2</ele>
        <time>2018-04-01T11:57:56Z</time>
      </trkpt>
      <trkpt lat="62.638056130419" lon="17.826047993823">
        <ele>80.4</ele>
        <time>2018-04-01T11:57:57Z</time>
      </trkpt>
      <trkpt lat="62.638051101279" lon="17.825930563404">
        <ele>80.2</ele>
        <time>2018-04-01T11:57:58Z</time>
      </trkpt>
      <trkpt lat="62.638044479578" lon="17.825824532369">
        <ele>80.2</ele>
        <time>2018-04-01T11:57:59Z</time>
      </trkpt>
      <trkpt lat="62.638036852049" lon="17.825707185769">
        <ele>80.4</ele>
        <time>2018-04-01T11:58:00Z</time>
      </trkpt>
      <trkpt lat="62.638028553968" lon="17.825594365395">
        <ele>80.4</ele>
        <time>2018-04-01T11:58:01Z</time>
      </trkpt>
      <trkpt lat="62.638019585335" lon="17.825486909437">
        <ele>80.4</ele>
        <time>2018-04-01T11:58:02Z</time>
      </trkpt>
      <trkpt lat="62.63800910796" lon="17.825366629172">
        <ele>80.4</ele>
        <time>2018-04-01T11:58:03Z</time>
      </trkpt>
      <trkpt lat="62.637999636413" lon="17.825252383875">
        <ele>80.4</ele>
        <time>2018-04-01T11:58:04Z</time>
      </trkpt>
      <trkpt lat="62.637989326676" lon="17.825142916261">
        <ele>80.6</ele>
        <time>2018-04-01T11:58:05Z</time>
      </trkpt>
      <trkpt lat="62.637979352215" lon="17.825022971272">
        <ele>80.6</ele>
        <time>2018-04-01T11:58:06Z</time>
      </trkpt>
      <trkpt lat="62.637969629211" lon="17.824915682952">
        <ele>80.6</ele>
        <time>2018-04-01T11:58:07Z</time>
      </trkpt>
      <trkpt lat="62.637956804904" lon="17.824792217565">
        <ele>80.6</ele>
        <time>2018-04-01T11:58:08Z</time>
      </trkpt>
      <trkpt lat="62.637946578986" lon="17.824684677788">
        <ele>80.6</ele>
        <time>2018-04-01T11:58:09Z</time>
      </trkpt>
      <trkpt lat="62.637934592869" lon="17.824562553505">
        <ele>80.6</ele>
        <time>2018-04-01T11:58:10Z</time>
      </trkpt>
      <trkpt lat="62.637924199313" lon="17.824452750615">
        <ele>80.6</ele>
        <time>2018-04-01T11:58:11Z</time>
      </trkpt>
      <trkpt lat="62.637913470481" lon="17.824336577481">
        <ele>80.6</ele>
        <time>2018-04-01T11:58:12Z</time>
      </trkpt>
      <trkpt lat="62.63790181964" lon="17.824212525361">
        <ele>80.8</ele>
        <time>2018-04-01T11:58:13Z</time>
      </trkpt>
      <trkpt lat="62.637888492419" lon="17.824094675847">
        <ele>80.8</ele>
        <time>2018-04-01T11:58:14Z</time>
      </trkpt>
      <trkpt lat="62.637879775243" lon="17.823983280396">
        <ele>80.8</ele>
        <time>2018-04-01T11:58:15Z</time>
      </trkpt>
      <trkpt lat="62.637869800782" lon="17.823866352891">
        <ele>80.8</ele>
        <time>2018-04-01T11:58:16Z</time>
      </trkpt>
      <trkpt lat="62.637860496873" lon="17.823759483666">
        <ele>80.8</ele>
        <time>2018-04-01T11:58:17Z</time>
      </trkpt>
      <trkpt lat="62.637846582919" lon="17.82362503799">
        <ele>80.8</ele>
        <time>2018-04-01T11:58:18Z</time>
      </trkpt>
      <trkpt lat="62.637831830775" lon="17.823507775209">
        <ele>80.8</ele>
        <time>2018-04-01T11:58:19Z</time>
      </trkpt>
      <trkpt lat="62.637817665364" lon="17.823390931523">
        <ele>80.8</ele>
        <time>2018-04-01T11:58:20Z</time>
      </trkpt>
      <trkpt lat="62.637801488297" lon="17.823271237991">
        <ele>80.8</ele>
        <time>2018-04-01T11:58:21Z</time>
      </trkpt>
      <trkpt lat="62.637786400877" lon="17.823164201128">
        <ele>80.6</ele>
        <time>2018-04-01T11:58:22Z</time>
      </trkpt>
      <trkpt lat="62.637771145819" lon="17.823047189804">
        <ele>80.8</ele>
        <time>2018-04-01T11:58:23Z</time>
      </trkpt>
      <trkpt lat="62.637755387847" lon="17.822932609231">
        <ele>81</ele>
        <time>2018-04-01T11:58:24Z</time>
      </trkpt>
      <trkpt lat="62.637737115305" lon="17.822812161328">
        <ele>81</ele>
        <time>2018-04-01T11:58:25Z</time>
      </trkpt>
      <trkpt lat="62.637720519143" lon="17.822696239651">
        <ele>81</ele>
        <time>2018-04-01T11:58:26Z</time>
      </trkpt>
      <trkpt lat="62.637707108103" lon="17.822591465901">
        <ele>81.2</ele>
        <time>2018-04-01T11:58:27Z</time>
      </trkpt>
      <trkpt lat="62.637690092846" lon="17.82247085036">
        <ele>81</ele>
        <time>2018-04-01T11:58:28Z</time>
      </trkpt>
      <trkpt lat="62.63767467015" lon="17.822362640031">
        <ele>81</ele>
        <time>2018-04-01T11:58:29Z</time>
      </trkpt>
      <trkpt lat="62.637659498911" lon="17.82224034811">
        <ele>81</ele>
        <time>2018-04-01T11:58:30Z</time>
      </trkpt>
      <trkpt lat="62.637642483654" lon="17.822130042306">
        <ele>81</ele>
        <time>2018-04-01T11:58:31Z</time>
      </trkpt>
      <trkpt lat="62.637625887492" lon="17.822026274384">
        <ele>81.2</ele>
        <time>2018-04-01T11:58:32Z</time>
      </trkpt>
      <trkpt lat="62.637606609122" lon="17.821904569196">
        <ele>81.2</ele>
        <time>2018-04-01T11:58:33Z</time>
      </trkpt>
      <trkpt lat="62.637590515874" lon="17.821789569528">
        <ele>81.4</ele>
        <time>2018-04-01T11:58:34Z</time>
      </trkpt>
      <trkpt lat="62.637573835893" lon="17.821681359199">
        <ele>81.4</ele>
        <time>2018-04-01T11:58:35Z</time>
      </trkpt>
      <trkpt lat="62.637553635514" lon="17.821557390898">
        <ele>81.4</ele>
        <time>2018-04-01T11:58:36Z</time>
      </trkpt>
      <trkpt lat="62.637536117343" lon="17.821452198053">
        <ele>81.4</ele>
        <time>2018-04-01T11:58:37Z</time>
      </trkpt>
      <trkpt lat="62.637517174249" lon="17.821328984123">
        <ele>81.6</ele>
        <time>2018-04-01T11:58:38Z</time>
      </trkpt>
      <trkpt lat="62.637499572259" lon="17.821220522337">
        <ele>81.6</ele>
        <time>2018-04-01T11:58:39Z</time>
      </trkpt>
      <trkpt lat="62.637479288061" lon="17.821098398054">
        <ele>81.6</ele>
        <time>2018-04-01T11:58:40Z</time>
      </trkpt>
      <trkpt lat="62.637461183157" lon="17.820986080594">
        <ele>81.6</ele>
        <time>2018-04-01T11:58:41Z</time>
      </trkpt>
      <trkpt lat="62.637445676642" lon="17.820868482537">
        <ele>81.6</ele>
        <time>2018-04-01T11:58:42Z</time>
      </trkpt>
      <trkpt lat="62.63742572772" lon="17.820743592227">
        <ele>81.4</ele>
        <time>2018-04-01T11:58:43Z</time>
      </trkpt>
      <trkpt lat="62.637408628644" lon="17.820627251455">
        <ele>81.4</ele>
        <time>2018-04-01T11:58:44Z</time>
      </trkpt>
      <trkpt lat="62.637391194292" lon="17.82051283852">
        <ele>81.6</ele>
        <time>2018-04-01T11:58:45Z</time>
      </trkpt>
      <trkpt lat="62.637374179035" lon="17.820398341766">
        <ele>81.6</ele>
        <time>2018-04-01T11:58:46Z</time>
      </trkpt>
      <trkpt lat="62.637359929805" lon="17.820298429518">
        <ele>81.6</ele>
        <time>2018-04-01T11:58:47Z</time>
      </trkpt>
      <trkpt lat="62.637342327815" lon="17.820171108457">
        <ele>81.8</ele>
        <time>2018-04-01T11:58:48Z</time>
      </trkpt>
      <trkpt lat="62.637325564015" lon="17.820059713006">
        <ele>81.8</ele>
        <time>2018-04-01T11:58:49Z</time>
      </trkpt>
      <trkpt lat="62.637308129663" lon="17.819950245392">
        <ele>81.8</ele>
        <time>2018-04-01T11:58:50Z</time>
      </trkpt>
      <trkpt lat="62.637288851293" lon="17.819840693959">
        <ele>81.8</ele>
        <time>2018-04-01T11:58:51Z</time>
      </trkpt>
      <trkpt lat="62.637271919855" lon="17.819739440607">
        <ele>81.6</ele>
        <time>2018-04-01T11:58:52Z</time>
      </trkpt>
      <trkpt lat="62.637254988417" lon="17.8196260335">
        <ele>81.8</ele>
        <time>2018-04-01T11:58:53Z</time>
      </trkpt>
      <trkpt lat="62.637237637884" lon="17.819514135135">
        <ele>81.8</ele>
        <time>2018-04-01T11:58:54Z</time>
      </trkpt>
      <trkpt lat="62.637220874084" lon="17.819397542906">
        <ele>81.8</ele>
        <time>2018-04-01T11:58:55Z</time>
      </trkpt>
      <trkpt lat="62.63720612194" lon="17.819285225446">
        <ele>81.8</ele>
        <time>2018-04-01T11:58:56Z</time>
      </trkpt>
      <trkpt lat="62.637191285977" lon="17.819178942954">
        <ele>81.8</ele>
        <time>2018-04-01T11:58:57Z</time>
      </trkpt>
      <trkpt lat="62.637174689815" lon="17.819059668517">
        <ele>81.8</ele>
        <time>2018-04-01T11:58:58Z</time>
      </trkpt>
      <trkpt lat="62.63715834511" lon="17.818953386025">
        <ele>81.8</ele>
        <time>2018-04-01T11:58:59Z</time>
      </trkpt>
      <trkpt lat="62.637139150559" lon="17.818834195407">
        <ele>81.8</ele>
        <time>2018-04-01T11:59:00Z</time>
      </trkpt>
      <trkpt lat="62.637121548569" lon="17.818721542671">
        <ele>82</ele>
        <time>2018-04-01T11:59:01Z</time>
      </trkpt>
      <trkpt lat="62.637103527484" lon="17.818615343998">
        <ele>82</ele>
        <time>2018-04-01T11:59:02Z</time>
      </trkpt>
      <trkpt lat="62.637082237458" lon="17.818491627154">
        <ele>82</ele>
        <time>2018-04-01T11:59:03Z</time>
      </trkpt>
      <trkpt lat="62.63706279145" lon="17.81837629221">
        <ele>82</ele>
        <time>2018-04-01T11:59:04Z</time>
      </trkpt>
      <trkpt lat="62.637047452573" lon="17.81826648932">
        <ele>82</ele>
        <time>2018-04-01T11:59:05Z</time>
      </trkpt>
      <trkpt lat="62.637028509479" lon="17.818143191571">
        <ele>82</ele>
        <time>2018-04-01T11:59:06Z</time>
      </trkpt>
      <trkpt lat="62.637011326584" lon="17.818034478328">
        <ele>82</ele>
        <time>2018-04-01T11:59:07Z</time>
      </trkpt>
      <trkpt lat="62.636990790929" lon="17.817911851131">
        <ele>82</ele>
        <time>2018-04-01T11:59:08Z</time>
      </trkpt>
      <trkpt lat="62.636972350749" lon="17.817800874775">
        <ele>82</ele>
        <time>2018-04-01T11:59:09Z</time>
      </trkpt>
      <trkpt lat="62.636950390171" lon="17.817675649189">
        <ele>82</ele>
        <time>2018-04-01T11:59:10Z</time>
      </trkpt>
      <trkpt lat="62.636931027982" lon="17.817564672833">
        <ele>82.2</ele>
        <time>2018-04-01T11:59:11Z</time>
      </trkpt>
      <trkpt lat="62.636909570318" lon="17.817448332061">
        <ele>82.2</ele>
        <time>2018-04-01T11:59:12Z</time>
      </trkpt>
      <trkpt lat="62.636885765722" lon="17.817324196122">
        <ele>82.2</ele>
        <time>2018-04-01T11:59:13Z</time>
      </trkpt>
      <trkpt lat="62.636863218411" lon="17.817203077667">
        <ele>82.2</ele>
        <time>2018-04-01T11:59:14Z</time>
      </trkpt>
      <trkpt lat="62.636843018032" lon="17.817086988352">
        <ele>82.2</ele>
        <time>2018-04-01T11:59:15Z</time>
      </trkpt>
      <trkpt lat="62.636822817653" lon="17.816975173806">
        <ele>82</ele>
        <time>2018-04-01T11:59:16Z</time>
      </trkpt>
      <trkpt lat="62.636804042197" lon="17.816868891314">
        <ele>82</ele>
        <time>2018-04-01T11:59:17Z</time>
      </trkpt>
      <trkpt lat="62.63678115961" lon="17.816734361819">
        <ele>82</ele>
        <time>2018-04-01T11:59:18Z</time>
      </trkpt>
      <trkpt lat="62.636760623955" lon="17.816614668287">
        <ele>81.8</ele>
        <time>2018-04-01T11:59:19Z</time>
      </trkpt>
      <trkpt lat="62.636738998653" lon="17.816492544004">
        <ele>81.8</ele>
        <time>2018-04-01T11:59:20Z</time>
      </trkpt>
      <trkpt lat="62.636716367523" lon="17.816369413893">
        <ele>81.8</ele>
        <time>2018-04-01T11:59:21Z</time>
      </trkpt>
      <trkpt lat="62.636694574583" lon="17.816254414225">
        <ele>82</ele>
        <time>2018-04-01T11:59:22Z</time>
      </trkpt>
      <trkpt lat="62.636671189082" lon="17.816130697381">
        <ele>81.8</ele>
        <time>2018-04-01T11:59:23Z</time>
      </trkpt>
      <trkpt lat="62.636647133029" lon="17.81600840546">
        <ele>81.8</ele>
        <time>2018-04-01T11:59:24Z</time>
      </trkpt>
      <trkpt lat="62.636625004813" lon="17.815878569829">
        <ele>81.6</ele>
        <time>2018-04-01T11:59:25Z</time>
      </trkpt>
      <trkpt lat="62.636603798606" lon="17.815758373383">
        <ele>81.6</ele>
        <time>2018-04-01T11:59:26Z</time>
      </trkpt>
      <trkpt lat="62.636583011494" lon="17.815648235217">
        <ele>81.4</ele>
        <time>2018-04-01T11:59:27Z</time>
      </trkpt>
      <trkpt lat="62.636559123079" lon="17.815523177269">
        <ele>81.4</ele>
        <time>2018-04-01T11:59:28Z</time>
      </trkpt>
      <trkpt lat="62.636543700383" lon="17.815414547845">
        <ele>81.4</ele>
        <time>2018-04-01T11:59:29Z</time>
      </trkpt>
      <trkpt lat="62.636521907443" lon="17.815290328087">
        <ele>81.4</ele>
        <time>2018-04-01T11:59:30Z</time>
      </trkpt>
      <trkpt lat="62.636498605761" lon="17.815171808021">
        <ele>81.4</ele>
        <time>2018-04-01T11:59:31Z</time>
      </trkpt>
      <trkpt lat="62.636475136441" lon="17.815065944624">
        <ele>81.2</ele>
        <time>2018-04-01T11:59:32Z</time>
      </trkpt>
      <trkpt lat="62.636446805619" lon="17.814941054314">
        <ele>81.4</ele>
        <time>2018-04-01T11:59:33Z</time>
      </trkpt>
      <trkpt lat="62.636420654091" lon="17.814823959171">
        <ele>81.4</ele>
        <time>2018-04-01T11:59:34Z</time>
      </trkpt>
      <trkpt lat="62.63639391583" lon="17.814713821005">
        <ele>81.2</ele>
        <time>2018-04-01T11:59:35Z</time>
      </trkpt>
      <trkpt lat="62.636363321895" lon="17.814590523256">
        <ele>81.2</ele>
        <time>2018-04-01T11:59:36Z</time>
      </trkpt>
      <trkpt lat="62.636334152883" lon="17.81448206147">
        <ele>81.2</ele>
        <time>2018-04-01T11:59:37Z</time>
      </trkpt>
      <trkpt lat="62.636300960559" lon="17.814357003522">
        <ele>81</ele>
        <time>2018-04-01T11:59:38Z</time>
      </trkpt>
      <trkpt lat="62.636271120995" lon="17.81424653008">
        <ele>81</ele>
        <time>2018-04-01T11:59:39Z</time>
      </trkpt>
      <trkpt lat="62.636236252291" lon="17.81412080158">
        <ele>80.8</ele>
        <time>2018-04-01T11:59:40Z</time>
      </trkpt>
      <trkpt lat="62.636205406899" lon="17.814008651758">
        <ele>80.6</ele>
        <time>2018-04-01T11:59:41Z</time>
      </trkpt>
      <trkpt lat="62.636170789652" lon="17.813892562443">
        <ele>80.6</ele>
        <time>2018-04-01T11:59:42Z</time>
      </trkpt>
      <trkpt lat="62.636132568188" lon="17.813769180875">
        <ele>80.4</ele>
        <time>2018-04-01T11:59:43Z</time>
      </trkpt>
      <trkpt lat="62.636097783303" lon="17.813649487343">
        <ele>80.2</ele>
        <time>2018-04-01T11:59:44Z</time>
      </trkpt>
      <trkpt lat="62.636061908771" lon="17.813533733304">
        <ele>80.2</ele>
        <time>2018-04-01T11:59:45Z</time>
      </trkpt>
      <trkpt lat="62.636023100574" lon="17.813418146903">
        <ele>80</ele>
        <time>2018-04-01T11:59:46Z</time>
      </trkpt>
      <trkpt lat="62.635989321517" lon="17.813319659578">
        <ele>80</ele>
        <time>2018-04-01T11:59:47Z</time>
      </trkpt>
      <trkpt lat="62.635944059257" lon="17.813192003241">
        <ele>79.6</ele>
        <time>2018-04-01T11:59:48Z</time>
      </trkpt>
      <trkpt lat="62.635904831965" lon="17.813082954722">
        <ele>79.6</ele>
        <time>2018-04-01T11:59:49Z</time>
      </trkpt>
      <trkpt lat="62.635864095931" lon="17.812974409117">
        <ele>79.4</ele>
        <time>2018-04-01T11:59:50Z</time>
      </trkpt>
      <trkpt lat="62.635823276078" lon="17.812866114969">
        <ele>79.4</ele>
        <time>2018-04-01T11:59:51Z</time>
      </trkpt>
      <trkpt lat="62.635785054614" lon="17.812766789454">
        <ele>79.2</ele>
        <time>2018-04-01T11:59:52Z</time>
      </trkpt>
      <trkpt lat="62.635744234761" lon="17.812665619921">
        <ele>79.2</ele>
        <time>2018-04-01T11:59:53Z</time>
      </trkpt>
      <trkpt lat="62.635701822347" lon="17.812560594714">
        <ele>79</ele>
        <time>2018-04-01T11:59:54Z</time>
      </trkpt>
      <trkpt lat="62.635660918675" lon="17.812461353018">
        <ele>79</ele>
        <time>2018-04-01T11:59:55Z</time>
      </trkpt>
      <trkpt lat="62.635616746062" lon="17.81236144077">
        <ele>78.8</ele>
        <time>2018-04-01T11:59:56Z</time>
      </trkpt>
      <trkpt lat="62.635574501286" lon="17.81227259263">
        <ele>78.8</ele>
        <time>2018-04-01T11:59:57Z</time>
      </trkpt>
      <trkpt lat="62.635525718628" lon="17.812176284599">
        <ele>78.8</ele>
        <time>2018-04-01T11:59:58Z</time>
      </trkpt>
      <trkpt lat="62.63548196511" lon="17.812091292133">
        <ele>78.8</ele>
        <time>2018-04-01T11:59:59Z</time>
      </trkpt>
      <trkpt lat="62.635433936823" lon="17.811996492844">
        <ele>78.6</ele>
        <time>2018-04-01T12:00:00Z</time>
      </trkpt>
      <trkpt lat="62.635390015667" lon="17.811912590025">
        <ele>78.6</ele>
        <time>2018-04-01T12:00:01Z</time>
      </trkpt>
      <trkpt lat="62.635349195814" lon="17.811837236744">
        <ele>78.4</ele>
        <time>2018-04-01T12:00:02Z</time>
      </trkpt>
      <trkpt lat="62.635299491147" lon="17.811746879862">
        <ele>78.6</ele>
        <time>2018-04-01T12:00:03Z</time>
      </trkpt>
      <trkpt lat="62.635254480344" lon="17.811662641767">
        <ele>78.4</ele>
        <time>2018-04-01T12:00:04Z</time>
      </trkpt>
      <trkpt lat="62.635213660491" lon="17.811584773916">
        <ele>78.4</ele>
        <time>2018-04-01T12:00:05Z</time>
      </trkpt>
      <trkpt lat="62.635168398231" lon="17.811499613812">
        <ele>78.4</ele>
        <time>2018-04-01T12:00:06Z</time>
      </trkpt>
      <trkpt lat="62.635128835663" lon="17.811427278015">
        <ele>78.4</ele>
        <time>2018-04-01T12:00:07Z</time>
      </trkpt>
      <trkpt lat="62.635082567575" lon="17.811342620825">
        <ele>78.6</ele>
        <time>2018-04-01T12:00:08Z</time>
      </trkpt>
      <trkpt lat="62.635039819885" lon="17.811269698295">
        <ele>78.4</ele>
        <time>2018-04-01T12:00:09Z</time>
      </trkpt>
      <trkpt lat="62.634992881245" lon="17.811190154064">
        <ele>78.4</ele>
        <time>2018-04-01T12:00:10Z</time>
      </trkpt>
      <trkpt lat="62.63495139084" lon="17.811121254846">
        <ele>78.2</ele>
        <time>2018-04-01T12:00:11Z</time>
      </trkpt>
      <trkpt lat="62.634907134408" lon="17.811048080859">
        <ele>78.2</ele>
        <time>2018-04-01T12:00:12Z</time>
      </trkpt>
      <trkpt lat="62.63486086632" lon="17.81097172175">
        <ele>78.4</ele>
        <time>2018-04-01T12:00:13Z</time>
      </trkpt>
      <trkpt lat="62.634817448078" lon="17.81089796103">
        <ele>78.4</ele>
        <time>2018-04-01T12:00:14Z</time>
      </trkpt>
      <trkpt lat="62.634775119483" lon="17.810821601921">
        <ele>78.6</ele>
        <time>2018-04-01T12:00:15Z</time>
      </trkpt>
      <trkpt lat="62.634734215811" lon="17.810749182305">
        <ele>78.6</ele>
        <time>2018-04-01T12:00:16Z</time>
      </trkpt>
      <trkpt lat="62.634696832537" lon="17.810685312227">
        <ele>78.8</ele>
        <time>2018-04-01T12:00:17Z</time>
      </trkpt>
      <trkpt lat="62.634654755399" lon="17.810613311706">
        <ele>78.8</ele>
        <time>2018-04-01T12:00:18Z</time>
      </trkpt>
      <trkpt lat="62.634608487311" lon="17.81052999562">
        <ele>78.8</ele>
        <time>2018-04-01T12:00:19Z</time>
      </trkpt>
      <trkpt lat="62.634571187856" lon="17.810463359515">
        <ele>78.8</ele>
        <time>2018-04-01T12:00:20Z</time>
      </trkpt>
      <trkpt lat="62.634530032727" lon="17.810390939899">
        <ele>78.8</ele>
        <time>2018-04-01T12:00:21Z</time>
      </trkpt>
      <trkpt lat="62.634491559806" lon="17.810324555251">
        <ele>78.8</ele>
        <time>2018-04-01T12:00:22Z</time>
      </trkpt>
      <trkpt lat="62.634451410505" lon="17.810251129807">
        <ele>78.8</ele>
        <time>2018-04-01T12:00:23Z</time>
      </trkpt>
      <trkpt lat="62.634412518489" lon="17.810180135114">
        <ele>79</ele>
        <time>2018-04-01T12:00:24Z</time>
      </trkpt>
      <trkpt lat="62.634371111903" lon="17.810106625851">
        <ele>79</ele>
        <time>2018-04-01T12:00:25Z</time>
      </trkpt>
      <trkpt lat="62.634328112756" lon="17.810032865131">
        <ele>79</ele>
        <time>2018-04-01T12:00:26Z</time>
      </trkpt>
      <trkpt lat="62.634293495509" lon="17.809969581786">
        <ele>79</ele>
        <time>2018-04-01T12:00:27Z</time>
      </trkpt>
      <trkpt lat="62.634254687312" lon="17.809892552125">
        <ele>79</ele>
        <time>2018-04-01T12:00:28Z</time>
      </trkpt>
      <trkpt lat="62.63422132735" lon="17.809825329287">
        <ele>79.2</ele>
        <time>2018-04-01T12:00:29Z</time>
      </trkpt>
      <trkpt lat="62.634181513325" lon="17.809744779228">
        <ele>79.2</ele>
        <time>2018-04-01T12:00:30Z</time>
      </trkpt>
      <trkpt lat="62.634144968241" lon="17.809671437603">
        <ele>79.4</ele>
        <time>2018-04-01T12:00:31Z</time>
      </trkpt>
      <trkpt lat="62.634111608279" lon="17.809603879489">
        <ele>79.4</ele>
        <time>2018-04-01T12:00:32Z</time>
      </trkpt>
      <trkpt lat="62.634073302996" lon="17.809524754353">
        <ele>79.4</ele>
        <time>2018-04-01T12:00:33Z</time>
      </trkpt>
      <trkpt lat="62.63403860193" lon="17.809448311425">
        <ele>79.4</ele>
        <time>2018-04-01T12:00:34Z</time>
      </trkpt>
      <trkpt lat="62.634004906692" lon="17.80937161704">
        <ele>79.4</ele>
        <time>2018-04-01T12:00:35Z</time>
      </trkpt>
      <trkpt lat="62.633971127635" lon="17.809294755017">
        <ele>79.4</ele>
        <time>2018-04-01T12:00:36Z</time>
      </trkpt>
      <trkpt lat="62.633986382693" lon="17.80932970754">
        <ele>79.4</ele>
        <time>2018-04-01T12:00:37Z</time>
      </trkpt>
      <trkpt lat="62.633935085465" lon="17.809218731184">
        <ele>79.4</ele>
        <time>2018-04-01T12:00:38Z</time>
      </trkpt>
      <trkpt lat="62.633892840689" lon="17.809122758429">
        <ele>79.4</ele>
        <time>2018-04-01T12:00:39Z</time>
      </trkpt>
      <trkpt lat="62.633835508493" lon="17.808987390744">
        <ele>79.4</ele>
        <time>2018-04-01T12:00:40Z</time>
      </trkpt>
      <trkpt lat="62.633803992549" lon="17.808912205101">
        <ele>79.4</ele>
        <time>2018-04-01T12:00:41Z</time>
      </trkpt>
      <trkpt lat="62.633771806053" lon="17.808829978662">
        <ele>79.6</ele>
        <time>2018-04-01T12:00:42Z</time>
      </trkpt>
      <trkpt lat="62.633739619557" lon="17.8087463273">
        <ele>79.6</ele>
        <time>2018-04-01T12:00:43Z</time>
      </trkpt>
      <trkpt lat="62.633710199088" lon="17.808667453621">
        <ele>79.6</ele>
        <time>2018-04-01T12:00:44Z</time>
      </trkpt>
      <trkpt lat="62.633680191886" lon="17.808583550802">
        <ele>79.6</ele>
        <time>2018-04-01T12:00:45Z</time>
      </trkpt>
      <trkpt lat="62.633648340666" lon="17.80849654668">
        <ele>79.8</ele>
        <time>2018-04-01T12:00:46Z</time>
      </trkpt>
      <trkpt lat="62.633620931853" lon="17.808417002449">
        <ele>79.8</ele>
        <time>2018-04-01T12:00:47Z</time>
      </trkpt>
      <trkpt lat="62.633587320434" lon="17.808316000554">
        <ele>79.8</ele>
        <time>2018-04-01T12:00:48Z</time>
      </trkpt>
      <trkpt lat="62.633556558861" lon="17.808222877645">
        <ele>79.8</ele>
        <time>2018-04-01T12:00:49Z</time>
      </trkpt>
      <trkpt lat="62.633524288546" lon="17.808119947913">
        <ele>79.8</ele>
        <time>2018-04-01T12:00:50Z</time>
      </trkpt>
      <trkpt lat="62.633492437326" lon="17.808013916878">
        <ele>79.8</ele>
        <time>2018-04-01T12:00:51Z</time>
      </trkpt>
      <trkpt lat="62.633463184495" lon="17.80791232825">
        <ele>79.8</ele>
        <time>2018-04-01T12:00:52Z</time>
      </trkpt>
      <trkpt lat="62.633431920008" lon="17.807802190084">
        <ele>79.6</ele>
        <time>2018-04-01T12:00:53Z</time>
      </trkpt>
      <trkpt lat="62.633399817331" lon="17.80768936971">
        <ele>79.6</ele>
        <time>2018-04-01T12:00:54Z</time>
      </trkpt>
      <trkpt lat="62.633367295559" lon="17.807569759997">
        <ele>79.4</ele>
        <time>2018-04-01T12:00:55Z</time>
      </trkpt>
      <trkpt lat="62.633337539814" lon="17.80745719108">
        <ele>79.2</ele>
        <time>2018-04-01T12:00:56Z</time>
      </trkpt>
      <trkpt lat="62.633308957535" lon="17.807350154217">
        <ele>79.2</ele>
        <time>2018-04-01T12:00:57Z</time>
      </trkpt>
      <trkpt lat="62.633275597573" lon="17.8072292034">
        <ele>79.2</ele>
        <time>2018-04-01T12:00:58Z</time>
      </trkpt>
      <trkpt lat="62.633243830172" lon="17.807115628655">
        <ele>79.2</ele>
        <time>2018-04-01T12:00:59Z</time>
      </trkpt>
      <trkpt lat="62.633213068599" lon="17.806988307594">
        <ele>79</ele>
        <time>2018-04-01T12:01:00Z</time>
      </trkpt>
      <trkpt lat="62.633179289542" lon="17.806863417284">
        <ele>78.8</ele>
        <time>2018-04-01T12:01:01Z</time>
      </trkpt>
      <trkpt lat="62.633146097218" lon="17.806737940241">
        <ele>78.6</ele>
        <time>2018-04-01T12:01:02Z</time>
      </trkpt>
      <trkpt lat="62.633111144695" lon="17.806598213968">
        <ele>78.4</ele>
        <time>2018-04-01T12:01:03Z</time>
      </trkpt>
      <trkpt lat="62.633082562416" lon="17.806477514608">
        <ele>78.4</ele>
        <time>2018-04-01T12:01:04Z</time>
      </trkpt>
      <trkpt lat="62.6330520523" lon="17.806346840787">
        <ele>78.2</ele>
        <time>2018-04-01T12:01:05Z</time>
      </trkpt>
      <trkpt lat="62.633021542184" lon="17.806216166966">
        <ele>78.2</ele>
        <time>2018-04-01T12:01:06Z</time>
      </trkpt>
      <trkpt lat="62.633019195252" lon="17.806219519726">
        <ele>78.2</ele>
        <time>2018-04-01T12:01:07Z</time>
      </trkpt>
      <trkpt lat="62.63296152778" lon="17.805982898689">
        <ele>78</ele>
        <time>2018-04-01T12:01:08Z</time>
      </trkpt>
      <trkpt lat="62.632927245809" lon="17.805842585683">
        <ele>77.8</ele>
        <time>2018-04-01T12:01:09Z</time>
      </trkpt>
      <trkpt lat="62.632894891675" lon="17.805710319301">
        <ele>77.6</ele>
        <time>2018-04-01T12:01:10Z</time>
      </trkpt>
      <trkpt lat="62.632866728491" lon="17.805592721244">
        <ele>77.6</ele>
        <time>2018-04-01T12:01:11Z</time>
      </trkpt>
      <trkpt lat="62.632837978574" lon="17.805470596961">
        <ele>77.4</ele>
        <time>2018-04-01T12:01:12Z</time>
      </trkpt>
      <trkpt lat="62.63280813901" lon="17.805341096606">
        <ele>77.4</ele>
        <time>2018-04-01T12:01:13Z</time>
      </trkpt>
      <trkpt lat="62.632779389093" lon="17.805219391418">
        <ele>77.4</ele>
        <time>2018-04-01T12:01:14Z</time>
      </trkpt>
      <trkpt lat="62.632753740479" lon="17.805099865524">
        <ele>77.4</ele>
        <time>2018-04-01T12:01:15Z</time>
      </trkpt>
      <trkpt lat="62.63272851096" lon="17.804982435105">
        <ele>77.2</ele>
        <time>2018-04-01T12:01:16Z</time>
      </trkpt>
      <trkpt lat="62.632706382744" lon="17.804879505373">
        <ele>77.2</ele>
        <time>2018-04-01T12:01:17Z</time>
      </trkpt>
      <trkpt lat="62.632679560664" lon="17.804755201796">
        <ele>77.4</ele>
        <time>2018-04-01T12:01:18Z</time>
      </trkpt>
      <trkpt lat="62.632656175163" lon="17.804647159105">
        <ele>77.4</ele>
        <time>2018-04-01T12:01:19Z</time>
      </trkpt>
      <trkpt lat="62.632633879309" lon="17.804539367871">
        <ele>77.6</ele>
        <time>2018-04-01T12:01:20Z</time>
      </trkpt>
      <trkpt lat="62.632613008378" lon="17.804434091207">
        <ele>77.8</ele>
        <time>2018-04-01T12:01:21Z</time>
      </trkpt>
      <trkpt lat="62.632594065284" lon="17.804341806488">
        <ele>77.8</ele>
        <time>2018-04-01T12:01:22Z</time>
      </trkpt>
      <trkpt lat="62.632574032543" lon="17.804245582276">
        <ele>78</ele>
        <time>2018-04-01T12:01:23Z</time>
      </trkpt>
      <trkpt lat="62.632554921811" lon="17.804150699168">
        <ele>78</ele>
        <time>2018-04-01T12:01:24Z</time>
      </trkpt>
      <trkpt lat="62.632535391984" lon="17.804057576259">
        <ele>78</ele>
        <time>2018-04-01T12:01:25Z</time>
      </trkpt>
      <trkpt lat="62.632517538537" lon="17.803968057567">
        <ele>78</ele>
        <time>2018-04-01T12:01:26Z</time>
      </trkpt>
      <trkpt lat="62.632502032022" lon="17.803883819472">
        <ele>78</ele>
        <time>2018-04-01T12:01:27Z</time>
      </trkpt>
      <trkpt lat="62.632485603498" lon="17.803790361287">
        <ele>78.2</ele>
        <time>2018-04-01T12:01:28Z</time>
      </trkpt>
      <trkpt lat="62.632471941001" lon="17.803709811228">
        <ele>78.4</ele>
        <time>2018-04-01T12:01:29Z</time>
      </trkpt>
      <trkpt lat="62.632456266848" lon="17.803623645296">
        <ele>78.6</ele>
        <time>2018-04-01T12:01:30Z</time>
      </trkpt>
      <trkpt lat="62.632441095609" lon="17.803542759961">
        <ele>78.8</ele>
        <time>2018-04-01T12:01:31Z</time>
      </trkpt>
      <trkpt lat="62.632428941854" lon="17.803466736128">
        <ele>79</ele>
        <time>2018-04-01T12:01:32Z</time>
      </trkpt>
      <trkpt lat="62.632416117547" lon="17.803380989291">
        <ele>79.4</ele>
        <time>2018-04-01T12:01:33Z</time>
      </trkpt>
      <trkpt lat="62.632404047611" lon="17.80330144506">
        <ele>79.4</ele>
        <time>2018-04-01T12:01:34Z</time>
      </trkpt>
      <trkpt lat="62.632394156969" lon="17.803232545842">
        <ele>79.6</ele>
        <time>2018-04-01T12:01:35Z</time>
      </trkpt>
      <trkpt lat="62.632381751757" lon="17.803149648851">
        <ele>79.8</ele>
        <time>2018-04-01T12:01:36Z</time>
      </trkpt>
      <trkpt lat="62.632370352373" lon="17.803080665814">
        <ele>80</ele>
        <time>2018-04-01T12:01:37Z</time>
      </trkpt>
      <trkpt lat="62.632358617713" lon="17.803000702488">
        <ele>80.2</ele>
        <time>2018-04-01T12:01:38Z</time>
      </trkpt>
      <trkpt lat="62.632350235813" lon="17.80293096508">
        <ele>80.2</ele>
        <time>2018-04-01T12:01:39Z</time>
      </trkpt>
      <trkpt lat="62.632341350999" lon="17.802852929591">
        <ele>80.4</ele>
        <time>2018-04-01T12:01:40Z</time>
      </trkpt>
      <trkpt lat="62.632333220556" lon="17.80278344364">
        <ele>80.6</ele>
        <time>2018-04-01T12:01:41Z</time>
      </trkpt>
      <trkpt lat="62.632322743181" lon="17.802707252169">
        <ele>80.6</ele>
        <time>2018-04-01T12:01:42Z</time>
      </trkpt>
      <trkpt lat="62.632313020177" lon="17.802626031558">
        <ele>80.8</ele>
        <time>2018-04-01T12:01:43Z</time>
      </trkpt>
      <trkpt lat="62.63230354863" lon="17.802548415164">
        <ele>81</ele>
        <time>2018-04-01T12:01:44Z</time>
      </trkpt>
      <trkpt lat="62.632295334368" lon="17.802471301684">
        <ele>81.2</ele>
        <time>2018-04-01T12:01:45Z</time>
      </trkpt>
      <trkpt lat="62.632288209753" lon="17.802388907607">
        <ele>81.4</ele>
        <time>2018-04-01T12:01:46Z</time>
      </trkpt>
      <trkpt lat="62.632281168957" lon="17.802317745276">
        <ele>81.8</ele>
        <time>2018-04-01T12:01:47Z</time>
      </trkpt>
      <trkpt lat="62.632271529772" lon="17.802227556032">
        <ele>82</ele>
        <time>2018-04-01T12:01:48Z</time>
      </trkpt>
      <trkpt lat="62.632263399329" lon="17.802145664869">
        <ele>82.2</ele>
        <time>2018-04-01T12:01:49Z</time>
      </trkpt>
      <trkpt lat="62.632254430696" lon="17.802064360439">
        <ele>82.4</ele>
        <time>2018-04-01T12:01:50Z</time>
      </trkpt>
      <trkpt lat="62.63224655171" lon="17.801980625258">
        <ele>82.6</ele>
        <time>2018-04-01T12:01:51Z</time>
      </trkpt>
      <trkpt lat="62.632240349104" lon="17.801901583941">
        <ele>82.8</ele>
        <time>2018-04-01T12:01:52Z</time>
      </trkpt>
      <trkpt lat="62.632234565593" lon="17.801816507656">
        <ele>82.8</ele>
        <time>2018-04-01T12:01:53Z</time>
      </trkpt>
      <trkpt lat="62.632229033539" lon="17.801727072783">
        <ele>83</ele>
        <time>2018-04-01T12:01:54Z</time>
      </trkpt>
      <trkpt lat="62.632222747114" lon="17.801631519123">
        <ele>83.2</ele>
        <time>2018-04-01T12:01:55Z</time>
      </trkpt>
      <trkpt lat="62.632216879784" lon="17.801542503345">
        <ele>83.2</ele>
        <time>2018-04-01T12:01:56Z</time>
      </trkpt>
      <trkpt lat="62.632211431549" lon="17.801457762336">
        <ele>83.4</ele>
        <time>2018-04-01T12:01:57Z</time>
      </trkpt>
      <trkpt lat="62.632205228943" lon="17.801358604459">
        <ele>83.4</ele>
        <time>2018-04-01T12:01:58Z</time>
      </trkpt>
      <trkpt lat="62.632199361613" lon="17.801272689984">
        <ele>83.4</ele>
        <time>2018-04-01T12:01:59Z</time>
      </trkpt>
      <trkpt lat="62.632192488455" lon="17.801171352813">
        <ele>83.6</ele>
        <time>2018-04-01T12:02:00Z</time>
      </trkpt>
      <trkpt lat="62.63218620203" lon="17.801073368402">
        <ele>83.6</ele>
        <time>2018-04-01T12:02:01Z</time>
      </trkpt>
      <trkpt lat="62.632181591985" lon="17.800984520262">
        <ele>83.8</ele>
        <time>2018-04-01T12:02:02Z</time>
      </trkpt>
      <trkpt lat="62.632176814302" lon="17.800880500883">
        <ele>83.8</ele>
        <time>2018-04-01T12:02:03Z</time>
      </trkpt>
      <trkpt lat="62.632171366067" lon="17.80078268411">
        <ele>84</ele>
        <time>2018-04-01T12:02:04Z</time>
      </trkpt>
      <trkpt lat="62.632166839841" lon="17.800687884821">
        <ele>84.2</ele>
        <time>2018-04-01T12:02:05Z</time>
      </trkpt>
      <trkpt lat="62.632162145977" lon="17.800581853786">
        <ele>84.2</ele>
        <time>2018-04-01T12:02:06Z</time>
      </trkpt>
      <trkpt lat="62.632157787389" lon="17.80048847942">
        <ele>84.2</ele>
        <time>2018-04-01T12:02:07Z</time>
      </trkpt>
      <trkpt lat="62.632152842068" lon="17.800381526376">
        <ele>84.4</ele>
        <time>2018-04-01T12:02:08Z</time>
      </trkpt>
      <trkpt lat="62.632148064385" lon="17.800286727087">
        <ele>84.4</ele>
        <time>2018-04-01T12:02:09Z</time>
      </trkpt>
      <trkpt lat="62.632142532331" lon="17.800175163998">
        <ele>84.4</ele>
        <time>2018-04-01T12:02:10Z</time>
      </trkpt>
      <trkpt lat="62.632138928114" lon="17.800075838483">
        <ele>84.6</ele>
        <time>2018-04-01T12:02:11Z</time>
      </trkpt>
      <trkpt lat="62.63213674882" lon="17.799965867955">
        <ele>84.8</ele>
        <time>2018-04-01T12:02:12Z</time>
      </trkpt>
      <trkpt lat="62.63213423425" lon="17.799848521355">
        <ele>84.8</ele>
        <time>2018-04-01T12:02:13Z</time>
      </trkpt>
      <trkpt lat="62.632131635861" lon="17.799736790628">
        <ele>84.8</ele>
        <time>2018-04-01T12:02:14Z</time>
      </trkpt>
      <trkpt lat="62.632128534558" lon="17.799618522019">
        <ele>84.8</ele>
        <time>2018-04-01T12:02:15Z</time>
      </trkpt>
      <trkpt lat="62.632124092151" lon="17.799505198731">
        <ele>85</ele>
        <time>2018-04-01T12:02:16Z</time>
      </trkpt>
      <trkpt lat="62.63211914683" lon="17.799401849904">
        <ele>85</ele>
        <time>2018-04-01T12:02:17Z</time>
      </trkpt>
      <trkpt lat="62.63211244131" lon="17.799269080608">
        <ele>85</ele>
        <time>2018-04-01T12:02:18Z</time>
      </trkpt>
      <trkpt lat="62.632106657799" lon="17.799151314913">
        <ele>85</ele>
        <time>2018-04-01T12:02:19Z</time>
      </trkpt>
      <trkpt lat="62.632101377202" lon="17.799033800675">
        <ele>85</ele>
        <time>2018-04-01T12:02:20Z</time>
      </trkpt>
      <trkpt lat="62.632095174596" lon="17.798915783523">
        <ele>85</ele>
        <time>2018-04-01T12:02:21Z</time>
      </trkpt>
      <trkpt lat="62.632088888171" lon="17.798808579022">
        <ele>85.2</ele>
        <time>2018-04-01T12:02:22Z</time>
      </trkpt>
      <trkpt lat="62.632081344461" lon="17.798687963481">
        <ele>85.2</ele>
        <time>2018-04-01T12:02:23Z</time>
      </trkpt>
      <trkpt lat="62.632073716932" lon="17.798562905533">
        <ele>85</ele>
        <time>2018-04-01T12:02:24Z</time>
      </trkpt>
      <trkpt lat="62.632064413023" lon="17.798426448201">
        <ele>85</ele>
        <time>2018-04-01T12:02:25Z</time>
      </trkpt>
      <trkpt lat="62.632055025295" lon="17.798297283122">
        <ele>84.8</ele>
        <time>2018-04-01T12:02:26Z</time>
      </trkpt>
      <trkpt lat="62.632044799377" lon="17.798173231002">
        <ele>84.6</ele>
        <time>2018-04-01T12:02:27Z</time>
      </trkpt>
      <trkpt lat="62.632031807432" lon="17.798034007643">
        <ele>84.4</ele>
        <time>2018-04-01T12:02:28Z</time>
      </trkpt>
      <trkpt lat="62.632018983125" lon="17.797910458437">
        <ele>84.2</ele>
        <time>2018-04-01T12:02:29Z</time>
      </trkpt>
      <trkpt lat="62.632003308972" lon="17.797767379404">
        <ele>84.2</ele>
        <time>2018-04-01T12:02:30Z</time>
      </trkpt>
      <trkpt lat="62.631988221552" lon="17.797633939556">
        <ele>84</ele>
        <time>2018-04-01T12:02:31Z</time>
      </trkpt>
      <trkpt lat="62.631973972322" lon="17.797511396178">
        <ele>84</ele>
        <time>2018-04-01T12:02:32Z</time>
      </trkpt>
      <trkpt lat="62.631955783599" lon="17.797371753724">
        <ele>83.8</ele>
        <time>2018-04-01T12:02:33Z</time>
      </trkpt>
      <trkpt lat="62.631937175781" lon="17.797236888953">
        <ele>83.8</ele>
        <time>2018-04-01T12:02:34Z</time>
      </trkpt>
      <trkpt lat="62.631918903239" lon="17.797112082462">
        <ele>83.6</ele>
        <time>2018-04-01T12:02:35Z</time>
      </trkpt>
      <trkpt lat="62.631898116127" lon="17.796968249058">
        <ele>83.6</ele>
        <time>2018-04-01T12:02:36Z</time>
      </trkpt>
      <trkpt lat="62.631879592128" lon="17.796844448395">
        <ele>83.4</ele>
        <time>2018-04-01T12:02:37Z</time>
      </trkpt>
      <trkpt lat="62.63185679336" lon="17.79670321338">
        <ele>83.4</ele>
        <time>2018-04-01T12:02:38Z</time>
      </trkpt>
      <trkpt lat="62.631833910773" lon="17.796571785188">
        <ele>83.4</ele>
        <time>2018-04-01T12:02:39Z</time>
      </trkpt>
      <trkpt lat="62.631807507788" lon="17.796427784146">
        <ele>83.2</ele>
        <time>2018-04-01T12:02:40Z</time>
      </trkpt>
      <trkpt lat="62.631782278269" lon="17.796301133637">
        <ele>83.2</ele>
        <time>2018-04-01T12:02:41Z</time>
      </trkpt>
      <trkpt lat="62.631756294379" lon="17.796173812576">
        <ele>83</ele>
        <time>2018-04-01T12:02:42Z</time>
      </trkpt>
      <trkpt lat="62.631729639937" lon="17.796047832619">
        <ele>83</ele>
        <time>2018-04-01T12:02:43Z</time>
      </trkpt>
      <trkpt lat="62.631702734038" lon="17.79592285849">
        <ele>83</ele>
        <time>2018-04-01T12:02:44Z</time>
      </trkpt>
      <trkpt lat="62.631677085424" lon="17.795805595709">
        <ele>83.2</ele>
        <time>2018-04-01T12:02:45Z</time>
      </trkpt>
      <trkpt lat="62.631649425154" lon="17.795679448114">
        <ele>83.2</ele>
        <time>2018-04-01T12:02:46Z</time>
      </trkpt>
      <trkpt lat="62.631625285282" lon="17.795579116771">
        <ele>83.2</ele>
        <time>2018-04-01T12:02:47Z</time>
      </trkpt>
      <trkpt lat="62.63159443989" lon="17.795450789882">
        <ele>83.2</ele>
        <time>2018-04-01T12:02:48Z</time>
      </trkpt>
      <trkpt lat="62.631568120724" lon="17.795336712223">
        <ele>83.2</ele>
        <time>2018-04-01T12:02:49Z</time>
      </trkpt>
      <trkpt lat="62.631541969196" lon="17.795226825514">
        <ele>83.2</ele>
        <time>2018-04-01T12:02:50Z</time>
      </trkpt>
      <trkpt lat="62.631515901487" lon="17.795120040108">
        <ele>83.4</ele>
        <time>2018-04-01T12:02:51Z</time>
      </trkpt>
      <trkpt lat="62.631491007244" lon="17.79501761329">
        <ele>83.4</ele>
        <time>2018-04-01T12:02:52Z</time>
      </trkpt>
      <trkpt lat="62.63146535863" lon="17.794912588083">
        <ele>83.4</ele>
        <time>2018-04-01T12:02:53Z</time>
      </trkpt>
      <trkpt lat="62.631438620369" lon="17.794809155437">
        <ele>83.6</ele>
        <time>2018-04-01T12:02:54Z</time>
      </trkpt>
      <trkpt lat="62.631413726126" lon="17.794706141886">
        <ele>83.6</ele>
        <time>2018-04-01T12:02:55Z</time>
      </trkpt>
      <trkpt lat="62.631390256806" lon="17.794603295973">
        <ele>83.6</ele>
        <time>2018-04-01T12:02:56Z</time>
      </trkpt>
      <trkpt lat="62.631368044771" lon="17.794514615471">
        <ele>83.8</ele>
        <time>2018-04-01T12:02:57Z</time>
      </trkpt>
      <trkpt lat="62.631341474148" lon="17.794414284128">
        <ele>83.8</ele>
        <time>2018-04-01T12:02:58Z</time>
      </trkpt>
      <trkpt lat="62.631319429751" lon="17.794327699101">
        <ele>83.8</ele>
        <time>2018-04-01T12:02:59Z</time>
      </trkpt>
      <trkpt lat="62.631294954603" lon="17.79422552374">
        <ele>83.8</ele>
        <time>2018-04-01T12:03:00Z</time>
      </trkpt>
      <trkpt lat="62.631274083672" lon="17.794131897917">
        <ele>84</ele>
        <time>2018-04-01T12:03:01Z</time>
      </trkpt>
      <trkpt lat="62.631254386207" lon="17.794044139424">
        <ele>84</ele>
        <time>2018-04-01T12:03:02Z</time>
      </trkpt>
      <trkpt lat="62.631232006534" lon="17.793948753402">
        <ele>84.2</ele>
        <time>2018-04-01T12:03:03Z</time>
      </trkpt>
      <trkpt lat="62.631210045956" lon="17.79385755833">
        <ele>84.2</ele>
        <time>2018-04-01T12:03:04Z</time>
      </trkpt>
      <trkpt lat="62.6311912705" lon="17.793776170081">
        <ele>84.4</ele>
        <time>2018-04-01T12:03:05Z</time>
      </trkpt>
      <trkpt lat="62.631169645198" lon="17.793683298629">
        <ele>84.6</ele>
        <time>2018-04-01T12:03:06Z</time>
      </trkpt>
      <trkpt lat="62.631149528638" lon="17.793603754398">
        <ele>84.8</ele>
        <time>2018-04-01T12:03:07Z</time>
      </trkpt>
      <trkpt lat="62.631128909164" lon="17.793517337009">
        <ele>84.8</ele>
        <time>2018-04-01T12:03:08Z</time>
      </trkpt>
      <trkpt lat="62.631110552803" lon="17.793438044235">
        <ele>85</ele>
        <time>2018-04-01T12:03:09Z</time>
      </trkpt>
      <trkpt lat="62.631091190614" lon="17.793348693181">
        <ele>85.2</ele>
        <time>2018-04-01T12:03:10Z</time>
      </trkpt>
      <trkpt lat="62.631073504805" lon="17.793269903321">
        <ele>85.4</ele>
        <time>2018-04-01T12:03:11Z</time>
      </trkpt>
      <trkpt lat="62.631054477892" lon="17.793186251959">
        <ele>85.6</ele>
        <time>2018-04-01T12:03:12Z</time>
      </trkpt>
      <trkpt lat="62.631034696608" lon="17.793097906733">
        <ele>85.8</ele>
        <time>2018-04-01T12:03:13Z</time>
      </trkpt>
      <trkpt lat="62.63101692698" lon="17.793012830448">
        <ele>85.8</ele>
        <time>2018-04-01T12:03:14Z</time>
      </trkpt>
      <trkpt lat="62.630999911723" lon="17.792926580697">
        <ele>85.8</ele>
        <time>2018-04-01T12:03:15Z</time>
      </trkpt>
      <trkpt lat="62.630983315561" lon="17.792844773353">
        <ele>86</ele>
        <time>2018-04-01T12:03:16Z</time>
      </trkpt>
      <trkpt lat="62.630969485426" lon="17.792772521375">
        <ele>86</ele>
        <time>2018-04-01T12:03:17Z</time>
      </trkpt>
      <trkpt lat="62.630952051074" lon="17.792678560276">
        <ele>86</ele>
        <time>2018-04-01T12:03:18Z</time>
      </trkpt>
      <trkpt lat="62.630937215111" lon="17.792596333837">
        <ele>86.2</ele>
        <time>2018-04-01T12:03:19Z</time>
      </trkpt>
      <trkpt lat="62.630921708596" lon="17.792508994439">
        <ele>86.2</ele>
        <time>2018-04-01T12:03:20Z</time>
      </trkpt>
      <trkpt lat="62.630907543185" lon="17.792425762172">
        <ele>86.4</ele>
        <time>2018-04-01T12:03:21Z</time>
      </trkpt>
      <trkpt lat="62.630894970335" lon="17.792348229597">
        <ele>86.6</ele>
        <time>2018-04-01T12:03:22Z</time>
      </trkpt>
      <trkpt lat="62.630882481304" lon="17.792261393113">
        <ele>86.8</ele>
        <time>2018-04-01T12:03:23Z</time>
      </trkpt>
      <trkpt lat="62.630868986445" lon="17.792174305172">
        <ele>87</ele>
        <time>2018-04-01T12:03:24Z</time>
      </trkpt>
      <trkpt lat="62.630853396111" lon="17.792079505883">
        <ele>87</ele>
        <time>2018-04-01T12:03:25Z</time>
      </trkpt>
      <trkpt lat="62.630838727786" lon="17.791989400458">
        <ele>87.2</ele>
        <time>2018-04-01T12:03:26Z</time>
      </trkpt>
      <trkpt lat="62.630826741669" lon="17.791902563974">
        <ele>87.4</ele>
        <time>2018-04-01T12:03:27Z</time>
      </trkpt>
      <trkpt lat="62.630815677561" lon="17.791801645898">
        <ele>87.4</ele>
        <time>2018-04-01T12:03:28Z</time>
      </trkpt>
      <trkpt lat="62.63080654129" lon="17.791715312328">
        <ele>87.4</ele>
        <time>2018-04-01T12:03:29Z</time>
      </trkpt>
      <trkpt lat="62.630794722811" lon="17.79161456189">
        <ele>87.4</ele>
        <time>2018-04-01T12:03:30Z</time>
      </trkpt>
      <trkpt lat="62.630782736694" lon="17.791521355162">
        <ele>87.6</ele>
        <time>2018-04-01T12:03:31Z</time>
      </trkpt>
      <trkpt lat="62.630772678414" lon="17.791431668832">
        <ele>87.6</ele>
        <time>2018-04-01T12:03:32Z</time>
      </trkpt>
      <trkpt lat="62.630763206867" lon="17.791329828747">
        <ele>87.8</ele>
        <time>2018-04-01T12:03:33Z</time>
      </trkpt>
      <trkpt lat="62.630753819139" lon="17.791231089965">
        <ele>87.8</ele>
        <time>2018-04-01T12:03:34Z</time>
      </trkpt>
      <trkpt lat="62.630745018144" lon="17.791139224341">
        <ele>88</ele>
        <time>2018-04-01T12:03:35Z</time>
      </trkpt>
      <trkpt lat="62.630734540769" lon="17.791029589089">
        <ele>88</ele>
        <time>2018-04-01T12:03:36Z</time>
      </trkpt>
      <trkpt lat="62.630725069222" lon="17.790932945782">
        <ele>88</ele>
        <time>2018-04-01T12:03:37Z</time>
      </trkpt>
      <trkpt lat="62.63071517858" lon="17.790821969426">
        <ele>88</ele>
        <time>2018-04-01T12:03:38Z</time>
      </trkpt>
      <trkpt lat="62.630707886327" lon="17.790722392454">
        <ele>87.8</ele>
        <time>2018-04-01T12:03:39Z</time>
      </trkpt>
      <trkpt lat="62.630700761712" lon="17.790608650071">
        <ele>87.8</ele>
        <time>2018-04-01T12:03:40Z</time>
      </trkpt>
      <trkpt lat="62.630694140011" lon="17.790503205769">
        <ele>87.8</ele>
        <time>2018-04-01T12:03:41Z</time>
      </trkpt>
      <trkpt lat="62.630686512482" lon="17.790393905793">
        <ele>87.8</ele>
        <time>2018-04-01T12:03:42Z</time>
      </trkpt>
      <trkpt lat="62.630678214401" lon="17.790281169238">
        <ele>87.8</ele>
        <time>2018-04-01T12:03:43Z</time>
      </trkpt>
      <trkpt lat="62.630671927976" lon="17.790176730764">
        <ele>87.8</ele>
        <time>2018-04-01T12:03:44Z</time>
      </trkpt>
      <trkpt lat="62.630666898836" lon="17.790070029177">
        <ele>87.8</ele>
        <time>2018-04-01T12:03:45Z</time>
      </trkpt>
      <trkpt lat="62.630661785877" lon="17.789960896839">
        <ele>87.6</ele>
        <time>2018-04-01T12:03:46Z</time>
      </trkpt>
      <trkpt lat="62.630658349298" lon="17.789863247704">
        <ele>87.6</ele>
        <time>2018-04-01T12:03:47Z</time>
      </trkpt>
      <trkpt lat="62.630653320158" lon="17.789733579711">
        <ele>87.4</ele>
        <time>2018-04-01T12:03:48Z</time>
      </trkpt>
      <trkpt lat="62.630649129208" lon="17.789616484568">
        <ele>87.4</ele>
        <time>2018-04-01T12:03:49Z</time>
      </trkpt>
      <trkpt lat="62.630644938258" lon="17.789495952846">
        <ele>87.4</ele>
        <time>2018-04-01T12:03:50Z</time>
      </trkpt>
      <trkpt lat="62.630639657661" lon="17.789372906554">
        <ele>87.2</ele>
        <time>2018-04-01T12:03:51Z</time>
      </trkpt>
      <trkpt lat="62.630635215254" lon="17.789257487791">
        <ele>87.2</ele>
        <time>2018-04-01T12:03:52Z</time>
      </trkpt>
      <trkpt lat="62.630631108123" lon="17.789133687128">
        <ele>87.2</ele>
        <time>2018-04-01T12:03:53Z</time>
      </trkpt>
      <trkpt lat="62.630625408431" lon="17.789014412691">
        <ele>87.2</ele>
        <time>2018-04-01T12:03:54Z</time>
      </trkpt>
      <trkpt lat="62.630622642404" lon="17.788863706129">
        <ele>86.8</ele>
        <time>2018-04-01T12:03:55Z</time>
      </trkpt>
      <trkpt lat="62.630619876377" lon="17.788730433919">
        <ele>86.8</ele>
        <time>2018-04-01T12:03:56Z</time>
      </trkpt>
      <trkpt lat="62.63061543397" lon="17.788602777582">
        <ele>86.6</ele>
        <time>2018-04-01T12:03:57Z</time>
      </trkpt>
      <trkpt lat="62.630610991563" lon="17.788458105988">
        <ele>86.6</ele>
        <time>2018-04-01T12:03:58Z</time>
      </trkpt>
      <trkpt lat="62.63060621388" lon="17.788327851262">
        <ele>86.4</ele>
        <time>2018-04-01T12:03:59Z</time>
      </trkpt>
      <trkpt lat="62.630601352378" lon="17.788179575451">
        <ele>86.4</ele>
        <time>2018-04-01T12:04:00Z</time>
      </trkpt>
      <trkpt lat="62.630596826152" lon="17.78803632878">
        <ele>86.4</ele>
        <time>2018-04-01T12:04:01Z</time>
      </trkpt>
      <trkpt lat="62.630592635202" lon="17.787903727122">
        <ele>86.2</ele>
        <time>2018-04-01T12:04:02Z</time>
      </trkpt>
      <trkpt lat="62.630589282442" lon="17.787749835438">
        <ele>86</ele>
        <time>2018-04-01T12:04:03Z</time>
      </trkpt>
      <trkpt lat="62.630586181139" lon="17.787608097509">
        <ele>86</ele>
        <time>2018-04-01T12:04:04Z</time>
      </trkpt>
      <trkpt lat="62.630582074008" lon="17.787473232738">
        <ele>85.8</ele>
        <time>2018-04-01T12:04:05Z</time>
      </trkpt>
      <trkpt lat="62.630577296325" lon="17.787320849796">
        <ele>85.6</ele>
        <time>2018-04-01T12:04:06Z</time>
      </trkpt>
      <trkpt lat="62.630571680452" lon="17.787187158491">
        <ele>85.6</ele>
        <time>2018-04-01T12:04:07Z</time>
      </trkpt>
      <trkpt lat="62.630565226389" lon="17.78702966259">
        <ele>85.4</ele>
        <time>2018-04-01T12:04:08Z</time>
      </trkpt>
      <trkpt lat="62.630560448706" lon="17.786891780335">
        <ele>85.2</ele>
        <time>2018-04-01T12:04:09Z</time>
      </trkpt>
      <trkpt lat="62.630555587204" lon="17.786737888651">
        <ele>85</ele>
        <time>2018-04-01T12:04:10Z</time>
      </trkpt>
      <trkpt lat="62.630551815349" lon="17.786605035536">
        <ele>85</ele>
        <time>2018-04-01T12:04:11Z</time>
      </trkpt>
      <trkpt lat="62.630545109829" lon="17.786464051978">
        <ele>84.8</ele>
        <time>2018-04-01T12:04:12Z</time>
      </trkpt>
      <trkpt lat="62.630537063205" lon="17.786315440891">
        <ele>84.6</ele>
        <time>2018-04-01T12:04:13Z</time>
      </trkpt>
      <trkpt lat="62.630530609142" lon="17.78617554698">
        <ele>84.6</ele>
        <time>2018-04-01T12:04:14Z</time>
      </trkpt>
      <trkpt lat="62.630520634681" lon="17.786036239802">
        <ele>84.6</ele>
        <time>2018-04-01T12:04:15Z</time>
      </trkpt>
      <trkpt lat="62.630512923333" lon="17.785905314524">
        <ele>84.4</ele>
        <time>2018-04-01T12:04:16Z</time>
      </trkpt>
      <trkpt lat="62.630500685759" lon="17.785782519689">
        <ele>84.4</ele>
        <time>2018-04-01T12:04:17Z</time>
      </trkpt>
      <trkpt lat="62.630485263063" lon="17.785624939969">
        <ele>84.4</ele>
        <time>2018-04-01T12:04:18Z</time>
      </trkpt>
      <trkpt lat="62.630473360765" lon="17.785488398818">
        <ele>84.2</ele>
        <time>2018-04-01T12:04:19Z</time>
      </trkpt>
      <trkpt lat="62.630462129019" lon="17.785360574843">
        <ele>84</ele>
        <time>2018-04-01T12:04:20Z</time>
      </trkpt>
      <trkpt lat="62.630449891445" lon="17.785224368968">
        <ele>84</ele>
        <time>2018-04-01T12:04:21Z</time>
      </trkpt>
      <trkpt lat="62.630439665527" lon="17.785104843074">
        <ele>84</ele>
        <time>2018-04-01T12:04:22Z</time>
      </trkpt>
      <trkpt lat="62.63042935579" lon="17.784975091262">
        <ele>84</ele>
        <time>2018-04-01T12:04:23Z</time>
      </trkpt>
      <trkpt lat="62.630420470976" lon="17.784852631703">
        <ele>84</ele>
        <time>2018-04-01T12:04:24Z</time>
      </trkpt>
      <trkpt lat="62.630410412696" lon="17.784715755276">
        <ele>84</ele>
        <time>2018-04-01T12:04:25Z</time>
      </trkpt>
      <trkpt lat="62.630401108787" lon="17.784593295717">
        <ele>84.2</ele>
        <time>2018-04-01T12:04:26Z</time>
      </trkpt>
      <trkpt lat="62.63039247543" lon="17.784477876954">
        <ele>84.2</ele>
        <time>2018-04-01T12:04:27Z</time>
      </trkpt>
      <trkpt lat="62.630381411322" lon="17.784347119314">
        <ele>84</ele>
        <time>2018-04-01T12:04:28Z</time>
      </trkpt>
      <trkpt lat="62.63037152068" lon="17.784231700551">
        <ele>84</ele>
        <time>2018-04-01T12:04:29Z</time>
      </trkpt>
      <trkpt lat="62.630362971142" lon="17.784103038386">
        <ele>83.8</ele>
        <time>2018-04-01T12:04:30Z</time>
      </trkpt>
      <trkpt lat="62.630355846527" lon="17.783984266863">
        <ele>83.8</ele>
        <time>2018-04-01T12:04:31Z</time>
      </trkpt>
      <trkpt lat="62.630347799903" lon="17.783874296335">
        <ele>84</ele>
        <time>2018-04-01T12:04:32Z</time>
      </trkpt>
      <trkpt lat="62.63033799308" lon="17.783753261699">
        <ele>84.2</ele>
        <time>2018-04-01T12:04:33Z</time>
      </trkpt>
      <trkpt lat="62.630329443542" lon="17.783641950067">
        <ele>84.4</ele>
        <time>2018-04-01T12:04:34Z</time>
      </trkpt>
      <trkpt lat="62.630322235108" lon="17.783538517421">
        <ele>84.4</ele>
        <time>2018-04-01T12:04:35Z</time>
      </trkpt>
      <trkpt lat="62.630314104665" lon="17.783422679563">
        <ele>84.6</ele>
        <time>2018-04-01T12:04:36Z</time>
      </trkpt>
      <trkpt lat="62.630304716937" lon="17.78332151003">
        <ele>84.6</ele>
        <time>2018-04-01T12:04:37Z</time>
      </trkpt>
      <trkpt lat="62.630293233734" lon="17.783209863122">
        <ele>84.6</ele>
        <time>2018-04-01T12:04:38Z</time>
      </trkpt>
      <trkpt lat="62.630283091635" lon="17.783110705245">
        <ele>84.6</ele>
        <time>2018-04-01T12:04:39Z</time>
      </trkpt>
      <trkpt lat="62.630273368631" lon="17.782996376129">
        <ele>84.6</ele>
        <time>2018-04-01T12:04:40Z</time>
      </trkpt>
      <trkpt lat="62.630265741102" lon="17.782895541872">
        <ele>84.8</ele>
        <time>2018-04-01T12:04:41Z</time>
      </trkpt>
      <trkpt lat="62.630255515184" lon="17.782788756466">
        <ele>84.8</ele>
        <time>2018-04-01T12:04:42Z</time>
      </trkpt>
      <trkpt lat="62.630245205447" lon="17.782674259712">
        <ele>85</ele>
        <time>2018-04-01T12:04:43Z</time>
      </trkpt>
      <trkpt lat="62.630236404452" lon="17.782566887573">
        <ele>85</ele>
        <time>2018-04-01T12:04:44Z</time>
      </trkpt>
      <trkpt lat="62.630228525466" lon="17.782458509606">
        <ele>85</ele>
        <time>2018-04-01T12:04:45Z</time>
      </trkpt>
      <trkpt lat="62.630220730299" lon="17.782349041992">
        <ele>85.2</ele>
        <time>2018-04-01T12:04:46Z</time>
      </trkpt>
      <trkpt lat="62.63021394096" lon="17.782251057581">
        <ele>85.2</ele>
        <time>2018-04-01T12:04:47Z</time>
      </trkpt>
      <trkpt lat="62.630205307603" lon="17.782125831995">
        <ele>85.2</ele>
        <time>2018-04-01T12:04:48Z</time>
      </trkpt>
      <trkpt lat="62.630196925703" lon="17.782012089612">
        <ele>85.2</ele>
        <time>2018-04-01T12:04:49Z</time>
      </trkpt>
      <trkpt lat="62.630189046717" lon="17.781898095772">
        <ele>85.2</ele>
        <time>2018-04-01T12:04:50Z</time>
      </trkpt>
      <trkpt lat="62.63018125155" lon="17.781783012285">
        <ele>85.2</ele>
        <time>2018-04-01T12:04:51Z</time>
      </trkpt>
      <trkpt lat="62.630174126935" lon="17.781672874119">
        <ele>85.2</ele>
        <time>2018-04-01T12:04:52Z</time>
      </trkpt>
      <trkpt lat="62.630167169958" lon="17.781553432044">
        <ele>85</ele>
        <time>2018-04-01T12:04:53Z</time>
      </trkpt>
      <trkpt lat="62.630160464438" lon="17.781434157607">
        <ele>85</ele>
        <time>2018-04-01T12:04:54Z</time>
      </trkpt>
      <trkpt lat="62.630151328167" lon="17.781302477958">
        <ele>85</ele>
        <time>2018-04-01T12:04:55Z</time>
      </trkpt>
      <trkpt lat="62.630141940439" lon="17.781176330363">
        <ele>85</ele>
        <time>2018-04-01T12:04:56Z</time>
      </trkpt>
      <trkpt lat="62.630132804168" lon="17.781057642659">
        <ele>84.8</ele>
        <time>2018-04-01T12:04:57Z</time>
      </trkpt>
      <trkpt lat="62.630122745888" lon="17.780919928042">
        <ele>84.8</ele>
        <time>2018-04-01T12:04:58Z</time>
      </trkpt>
      <trkpt lat="62.630114112531" lon="17.78079688175">
        <ele>84.6</ele>
        <time>2018-04-01T12:04:59Z</time>
      </trkpt>
      <trkpt lat="62.630102880785" lon="17.780656568744">
        <ele>84.4</ele>
        <time>2018-04-01T12:05:00Z</time>
      </trkpt>
      <trkpt lat="62.630091984315" lon="17.780522709801">
        <ele>84.4</ele>
        <time>2018-04-01T12:05:01Z</time>
      </trkpt>
      <trkpt lat="62.63008402151" lon="17.780397987129">
        <ele>84.2</ele>
        <time>2018-04-01T12:05:02Z</time>
      </trkpt>
      <trkpt lat="62.630073376497" lon="17.780252561164">
        <ele>84</ele>
        <time>2018-04-01T12:05:03Z</time>
      </trkpt>
      <trkpt lat="62.630062982941" lon="17.780113924538">
        <ele>83.8</ele>
        <time>2018-04-01T12:05:04Z</time>
      </trkpt>
      <trkpt lat="62.630052505566" lon="17.779982077251">
        <ele>83.6</ele>
        <time>2018-04-01T12:05:05Z</time>
      </trkpt>
      <trkpt lat="62.630039429802" lon="17.779832460336">
        <ele>83.4</ele>
        <time>2018-04-01T12:05:06Z</time>
      </trkpt>
      <trkpt lat="62.630029036246" lon="17.779697511746">
        <ele>83.2</ele>
        <time>2018-04-01T12:05:07Z</time>
      </trkpt>
      <trkpt lat="62.630018475052" lon="17.77954462589">
        <ele>83</ele>
        <time>2018-04-01T12:05:08Z</time>
      </trkpt>
      <trkpt lat="62.630009003505" lon="17.779404229065">
        <ele>83</ele>
        <time>2018-04-01T12:05:09Z</time>
      </trkpt>
      <trkpt lat="62.629998274673" lon="17.779258048729">
        <ele>83</ele>
        <time>2018-04-01T12:05:10Z</time>
      </trkpt>
      <trkpt lat="62.629988970764" lon="17.779116646076">
        <ele>82.8</ele>
        <time>2018-04-01T12:05:11Z</time>
      </trkpt>
      <trkpt lat="62.629979499217" lon="17.778972309758">
        <ele>82.8</ele>
        <time>2018-04-01T12:05:12Z</time>
      </trkpt>
      <trkpt lat="62.629968938023" lon="17.778810287631">
        <ele>82.8</ele>
        <time>2018-04-01T12:05:13Z</time>
      </trkpt>
      <trkpt lat="62.629960137028" lon="17.778663269105">
        <ele>82.6</ele>
        <time>2018-04-01T12:05:14Z</time>
      </trkpt>
      <trkpt lat="62.629951755128" lon="17.778522453185">
        <ele>82.6</ele>
        <time>2018-04-01T12:05:15Z</time>
      </trkpt>
      <trkpt lat="62.629943708504" lon="17.778381888722">
        <ele>82.6</ele>
        <time>2018-04-01T12:05:16Z</time>
      </trkpt>
      <trkpt lat="62.629939098459" lon="17.778260434991">
        <ele>82.4</ele>
        <time>2018-04-01T12:05:17Z</time>
      </trkpt>
      <trkpt lat="62.629936332432" lon="17.778117691234">
        <ele>82.4</ele>
        <time>2018-04-01T12:05:18Z</time>
      </trkpt>
      <trkpt lat="62.629933398767" lon="17.777978300237">
        <ele>82.4</ele>
        <time>2018-04-01T12:05:19Z</time>
      </trkpt>
      <trkpt lat="62.629934069319" lon="17.777843184009">
        <ele>82.4</ele>
        <time>2018-04-01T12:05:20Z</time>
      </trkpt>
      <trkpt lat="62.629934907509" lon="17.77770396065">
        <ele>82.4</ele>
        <time>2018-04-01T12:05:21Z</time>
      </trkpt>
      <trkpt lat="62.629935913337" lon="17.777578986521">
        <ele>82.4</ele>
        <time>2018-04-01T12:05:22Z</time>
      </trkpt>
      <trkpt lat="62.629937841174" lon="17.777438589696">
        <ele>82.2</ele>
        <time>2018-04-01T12:05:23Z</time>
      </trkpt>
      <trkpt lat="62.629939349916" lon="17.777298695785">
        <ele>82.2</ele>
        <time>2018-04-01T12:05:24Z</time>
      </trkpt>
      <trkpt lat="62.629942032124" lon="17.777166848498">
        <ele>82.2</ele>
        <time>2018-04-01T12:05:25Z</time>
      </trkpt>
      <trkpt lat="62.62994655835" lon="17.777029552976">
        <ele>82.2</ele>
        <time>2018-04-01T12:05:26Z</time>
      </trkpt>
      <trkpt lat="62.629951336033" lon="17.776904914123">
        <ele>82</ele>
        <time>2018-04-01T12:05:27Z</time>
      </trkpt>
      <trkpt lat="62.629957873915" lon="17.77676267328">
        <ele>82</ele>
        <time>2018-04-01T12:05:28Z</time>
      </trkpt>
      <trkpt lat="62.629964830892" lon="17.77663778297">
        <ele>82</ele>
        <time>2018-04-01T12:05:29Z</time>
      </trkpt>
      <trkpt lat="62.629971284955" lon="17.776498056697">
        <ele>81.8</ele>
        <time>2018-04-01T12:05:30Z</time>
      </trkpt>
      <trkpt lat="62.629977990475" lon="17.776366544686">
        <ele>81.8</ele>
        <time>2018-04-01T12:05:31Z</time>
      </trkpt>
      <trkpt lat="62.629984360719" lon="17.776241570557">
        <ele>81.8</ele>
        <time>2018-04-01T12:05:32Z</time>
      </trkpt>
      <trkpt lat="62.629993245533" lon="17.776100251723">
        <ele>82</ele>
        <time>2018-04-01T12:05:33Z</time>
      </trkpt>
      <trkpt lat="62.630004225822" lon="17.775970751368">
        <ele>81.8</ele>
        <time>2018-04-01T12:05:34Z</time>
      </trkpt>
      <trkpt lat="62.630015625206" lon="17.775848375628">
        <ele>81.8</ele>
        <time>2018-04-01T12:05:35Z</time>
      </trkpt>
      <trkpt lat="62.630029371522" lon="17.775710912468">
        <ele>81.8</ele>
        <time>2018-04-01T12:05:36Z</time>
      </trkpt>
      <trkpt lat="62.630042279648" lon="17.775584345778">
        <ele>82</ele>
        <time>2018-04-01T12:05:37Z</time>
      </trkpt>
      <trkpt lat="62.630057702344" lon="17.775448558998">
        <ele>81.8</ele>
        <time>2018-04-01T12:05:38Z</time>
      </trkpt>
      <trkpt lat="62.630072454488" lon="17.775332637321">
        <ele>81.8</ele>
        <time>2018-04-01T12:05:39Z</time>
      </trkpt>
      <trkpt lat="62.630089637383" lon="17.775202717871">
        <ele>81.8</ele>
        <time>2018-04-01T12:05:40Z</time>
      </trkpt>
      <trkpt lat="62.630105646812" lon="17.775079001027">
        <ele>81.8</ele>
        <time>2018-04-01T12:05:41Z</time>
      </trkpt>
      <trkpt lat="62.630122662069" lon="17.774946818464">
        <ele>81.6</ele>
        <time>2018-04-01T12:05:42Z</time>
      </trkpt>
      <trkpt lat="62.630141772801" lon="17.774814468263">
        <ele>81.6</ele>
        <time>2018-04-01T12:05:43Z</time>
      </trkpt>
      <trkpt lat="62.630162392275" lon="17.774688488306">
        <ele>81.6</ele>
        <time>2018-04-01T12:05:44Z</time>
      </trkpt>
      <trkpt lat="62.630183011749" lon="17.774563681815">
        <ele>81.6</ele>
        <time>2018-04-01T12:05:45Z</time>
      </trkpt>
      <trkpt lat="62.630205139965" lon="17.774439378238">
        <ele>81.6</ele>
        <time>2018-04-01T12:05:46Z</time>
      </trkpt>
      <trkpt lat="62.630225172706" lon="17.774328737158">
        <ele>81.6</ele>
        <time>2018-04-01T12:05:47Z</time>
      </trkpt>
      <trkpt lat="62.63025082132" lon="17.774188172695">
        <ele>81.6</ele>
        <time>2018-04-01T12:05:48Z</time>
      </trkpt>
      <trkpt lat="62.630273703907" lon="17.774060683996">
        <ele>81.6</ele>
        <time>2018-04-01T12:05:49Z</time>
      </trkpt>
      <trkpt lat="62.630297257046" lon="17.773934117306">
        <ele>81.6</ele>
        <time>2018-04-01T12:05:50Z</time>
      </trkpt>
      <trkpt lat="62.630322235108" lon="17.773807885892">
        <ele>81.6</ele>
        <time>2018-04-01T12:05:51Z</time>
      </trkpt>
      <trkpt lat="62.630346626437" lon="17.773688695274">
        <ele>81.6</ele>
        <time>2018-04-01T12:05:52Z</time>
      </trkpt>
      <trkpt lat="62.630373364698" lon="17.773562882955">
        <ele>81.6</ele>
        <time>2018-04-01T12:05:53Z</time>
      </trkpt>
      <trkpt lat="62.630402198434" lon="17.773438327921">
        <ele>81.4</ele>
        <time>2018-04-01T12:05:54Z</time>
      </trkpt>
      <trkpt lat="62.630434636387" lon="17.773309162842">
        <ele>81.4</ele>
        <time>2018-04-01T12:05:55Z</time>
      </trkpt>
      <trkpt lat="62.630465565598" lon="17.773187038559">
        <ele>81.4</ele>
        <time>2018-04-01T12:05:56Z</time>
      </trkpt>
      <trkpt lat="62.630494818429" lon="17.773073128538">
        <ele>81.4</ele>
        <time>2018-04-01T12:05:57Z</time>
      </trkpt>
      <trkpt lat="62.630528178391" lon="17.772943376726">
        <ele>81.2</ele>
        <time>2018-04-01T12:05:58Z</time>
      </trkpt>
      <trkpt lat="62.630558017955" lon="17.772829634343">
        <ele>81.2</ele>
        <time>2018-04-01T12:05:59Z</time>
      </trkpt>
      <trkpt lat="62.630593305754" lon="17.772702983834">
        <ele>81.2</ele>
        <time>2018-04-01T12:06:00Z</time>
      </trkpt>
      <trkpt lat="62.630628509734" lon="17.772587900347">
        <ele>81.2</ele>
        <time>2018-04-01T12:06:01Z</time>
      </trkpt>
      <trkpt lat="62.630662707886" lon="17.772480528208">
        <ele>81.2</ele>
        <time>2018-04-01T12:06:02Z</time>
      </trkpt>
      <trkpt lat="62.630700845531" lon="17.772358739201">
        <ele>81.2</ele>
        <time>2018-04-01T12:06:03Z</time>
      </trkpt>
      <trkpt lat="62.630736300968" lon="17.772244661542">
        <ele>81.4</ele>
        <time>2018-04-01T12:06:04Z</time>
      </trkpt>
      <trkpt lat="62.630770331482" lon="17.772139384878">
        <ele>81.4</ele>
        <time>2018-04-01T12:06:05Z</time>
      </trkpt>
      <trkpt lat="62.630809558774" lon="17.772022289735">
        <ele>81.2</ele>
        <time>2018-04-01T12:06:06Z</time>
      </trkpt>
      <trkpt lat="62.630845181849" lon="17.77191961146">
        <ele>81.2</ele>
        <time>2018-04-01T12:06:07Z</time>
      </trkpt>
      <trkpt lat="62.63088784572" lon="17.771804192697">
        <ele>81.2</ele>
        <time>2018-04-01T12:06:08Z</time>
      </trkpt>
      <trkpt lat="62.630926570098" lon="17.771702604069">
        <ele>81.2</ele>
        <time>2018-04-01T12:06:09Z</time>
      </trkpt>
      <trkpt lat="62.63096663558" lon="17.771599674337">
        <ele>81.2</ele>
        <time>2018-04-01T12:06:10Z</time>
      </trkpt>
      <trkpt lat="62.63100435413" lon="17.771501019374">
        <ele>81.2</ele>
        <time>2018-04-01T12:06:11Z</time>
      </trkpt>
      <trkpt lat="62.631043665241" lon="17.771400185117">
        <ele>81.2</ele>
        <time>2018-04-01T12:06:12Z</time>
      </trkpt>
      <trkpt lat="62.631086245293" lon="17.771295076091">
        <ele>81.2</ele>
        <time>2018-04-01T12:06:13Z</time>
      </trkpt>
      <trkpt lat="62.631127735698" lon="17.771197846051">
        <ele>81.2</ele>
        <time>2018-04-01T12:06:14Z</time>
      </trkpt>
      <trkpt lat="62.631166879171" lon="17.771103884952">
        <ele>81.2</ele>
        <time>2018-04-01T12:06:15Z</time>
      </trkpt>
      <trkpt lat="62.63120635792" lon="17.771016126459">
        <ele>81.4</ele>
        <time>2018-04-01T12:06:16Z</time>
      </trkpt>
      <trkpt lat="62.631240556072" lon="17.770943036291">
        <ele>81.4</ele>
        <time>2018-04-01T12:06:17Z</time>
      </trkpt>
      <trkpt lat="62.631284561047" lon="17.770847147355">
        <ele>81.6</ele>
        <time>2018-04-01T12:06:18Z</time>
      </trkpt>
      <trkpt lat="62.631323788339" lon="17.770762993079">
        <ele>81.6</ele>
        <time>2018-04-01T12:06:19Z</time>
      </trkpt>
      <trkpt lat="62.631361171613" lon="17.770680347545">
        <ele>81.8</ele>
        <time>2018-04-01T12:06:20Z</time>
      </trkpt>
      <trkpt lat="62.631398219611" lon="17.770599210753">
        <ele>81.8</ele>
        <time>2018-04-01T12:06:21Z</time>
      </trkpt>
      <trkpt lat="62.631432753039" lon="17.770526036766">
        <ele>81.8</ele>
        <time>2018-04-01T12:06:22Z</time>
      </trkpt>
      <trkpt lat="62.631469298123" lon="17.770451605494">
        <ele>82</ele>
        <time>2018-04-01T12:06:23Z</time>
      </trkpt>
      <trkpt lat="62.631506849035" lon="17.770373570005">
        <ele>82</ele>
        <time>2018-04-01T12:06:24Z</time>
      </trkpt>
      <trkpt lat="62.631545489594" lon="17.77029184648">
        <ele>82.2</ele>
        <time>2018-04-01T12:06:25Z</time>
      </trkpt>
      <trkpt lat="62.631581783221" lon="17.77021640938">
        <ele>82.2</ele>
        <time>2018-04-01T12:06:26Z</time>
      </trkpt>
      <trkpt lat="62.631616065192" lon="17.770144744135">
        <ele>82.4</ele>
        <time>2018-04-01T12:06:27Z</time>
      </trkpt>
      <trkpt lat="62.631654538113" lon="17.770063523524">
        <ele>82.4</ele>
        <time>2018-04-01T12:06:28Z</time>
      </trkpt>
      <trkpt lat="62.631688233351" lon="17.769993367021">
        <ele>82.4</ele>
        <time>2018-04-01T12:06:29Z</time>
      </trkpt>
      <trkpt lat="62.631726203358" lon="17.769912062591">
        <ele>82.4</ele>
        <time>2018-04-01T12:06:30Z</time>
      </trkpt>
      <trkpt lat="62.631760988243" lon="17.769835200568">
        <ele>82.6</ele>
        <time>2018-04-01T12:06:31Z</time>
      </trkpt>
      <trkpt lat="62.631794180567" lon="17.769764792608">
        <ele>82.8</ele>
        <time>2018-04-01T12:06:32Z</time>
      </trkpt>
      <trkpt lat="62.631832653488" lon="17.769685332196">
        <ele>82.8</ele>
        <time>2018-04-01T12:06:33Z</time>
      </trkpt>
      <trkpt lat="62.631868695658" lon="17.769611655295">
        <ele>83</ele>
        <time>2018-04-01T12:06:34Z</time>
      </trkpt>
      <trkpt lat="62.631902642353" lon="17.769542420801">
        <ele>83</ele>
        <time>2018-04-01T12:06:35Z</time>
      </trkpt>
      <trkpt lat="62.63194061236" lon="17.769461535466">
        <ele>83.2</ele>
        <time>2018-04-01T12:06:36Z</time>
      </trkpt>
      <trkpt lat="62.631974307598" lon="17.76938827766">
        <ele>83.4</ele>
        <time>2018-04-01T12:06:37Z</time>
      </trkpt>
      <trkpt lat="62.632009846854" lon="17.769308314334">
        <ele>83.4</ele>
        <time>2018-04-01T12:06:38Z</time>
      </trkpt>
      <trkpt lat="62.632041698074" lon="17.769237906374">
        <ele>83.6</ele>
        <time>2018-04-01T12:06:39Z</time>
      </trkpt>
      <trkpt lat="62.632079165167" lon="17.769159954704">
        <ele>83.6</ele>
        <time>2018-04-01T12:06:40Z</time>
      </trkpt>
      <trkpt lat="62.63211244131" lon="17.769092228952">
        <ele>83.6</ele>
        <time>2018-04-01T12:06:41Z</time>
      </trkpt>
      <trkpt lat="62.632147058557" lon="17.769019557879">
        <ele>83.8</ele>
        <time>2018-04-01T12:06:42Z</time>
      </trkpt>
      <trkpt lat="62.632182346356" lon="17.768942528218">
        <ele>83.8</ele>
        <time>2018-04-01T12:06:43Z</time>
      </trkpt>
      <trkpt lat="62.632214868128" lon="17.768868851317">
        <ele>84</ele>
        <time>2018-04-01T12:06:44Z</time>
      </trkpt>
      <trkpt lat="62.632247222262" lon="17.768796096425">
        <ele>84.2</ele>
        <time>2018-04-01T12:06:45Z</time>
      </trkpt>
      <trkpt lat="62.632279995491" lon="17.768725604646">
        <ele>84.2</ele>
        <time>2018-04-01T12:06:46Z</time>
      </trkpt>
      <trkpt lat="62.632308158675" lon="17.768666428432">
        <ele>84.2</ele>
        <time>2018-04-01T12:06:47Z</time>
      </trkpt>
      <trkpt lat="62.632344117026" lon="17.76858780621">
        <ele>84.2</ele>
        <time>2018-04-01T12:06:48Z</time>
      </trkpt>
      <trkpt lat="62.632376052065" lon="17.768518655535">
        <ele>84.4</ele>
        <time>2018-04-01T12:06:49Z</time>
      </trkpt>
      <trkpt lat="62.632408657656" lon="17.768450091593">
        <ele>84.4</ele>
        <time>2018-04-01T12:06:50Z</time>
      </trkpt>
      <trkpt lat="62.632440927971" lon="17.768380354185">
        <ele>84.6</ele>
        <time>2018-04-01T12:06:51Z</time>
      </trkpt>
      <trkpt lat="62.632473365924" lon="17.768309359492">
        <ele>84.8</ele>
        <time>2018-04-01T12:06:52Z</time>
      </trkpt>
      <trkpt lat="62.632504295135" lon="17.768242052835">
        <ele>85</ele>
        <time>2018-04-01T12:06:53Z</time>
      </trkpt>
      <trkpt lat="62.632536900726" lon="17.768170890504">
        <ele>85</ele>
        <time>2018-04-01T12:06:54Z</time>
      </trkpt>
      <trkpt lat="62.63256925486" lon="17.76809159773">
        <ele>85</ele>
        <time>2018-04-01T12:06:55Z</time>
      </trkpt>
      <trkpt lat="62.632600938442" lon="17.768018842838">
        <ele>85.2</ele>
        <time>2018-04-01T12:06:56Z</time>
      </trkpt>
      <trkpt lat="62.632631951472" lon="17.767948937792">
        <ele>85.2</ele>
        <time>2018-04-01T12:06:57Z</time>
      </trkpt>
      <trkpt lat="62.632667406909" lon="17.767867633362">
        <ele>85.4</ele>
        <time>2018-04-01T12:06:58Z</time>
      </trkpt>
      <trkpt lat="62.632698252301" lon="17.767794459375">
        <ele>85.4</ele>
        <time>2018-04-01T12:06:59Z</time>
      </trkpt>
      <trkpt lat="62.632734462109" lon="17.767709802185">
        <ele>85.6</ele>
        <time>2018-04-01T12:07:00Z</time>
      </trkpt>
      <trkpt lat="62.632768995537" lon="17.767629503583">
        <ele>85.6</ele>
        <time>2018-04-01T12:07:01Z</time>
      </trkpt>
      <trkpt lat="62.632800679119" lon="17.767551971008">
        <ele>85.8</ele>
        <time>2018-04-01T12:07:02Z</time>
      </trkpt>
      <trkpt lat="62.63283663747" lon="17.767463458144">
        <ele>85.8</ele>
        <time>2018-04-01T12:07:03Z</time>
      </trkpt>
      <trkpt lat="62.632870416527" lon="17.767378633316">
        <ele>85.8</ele>
        <time>2018-04-01T12:07:04Z</time>
      </trkpt>
      <trkpt lat="62.632904363222" lon="17.767293221755">
        <ele>85.8</ele>
        <time>2018-04-01T12:07:05Z</time>
      </trkpt>
      <trkpt lat="62.632937136451" lon="17.767216108275">
        <ele>86</ele>
        <time>2018-04-01T12:07:06Z</time>
      </trkpt>
      <trkpt lat="62.632973597716" lon="17.76712600285">
        <ele>86</ele>
        <time>2018-04-01T12:07:07Z</time>
      </trkpt>
      <trkpt lat="62.633009053153" lon="17.76703296376">
        <ele>86</ele>
        <time>2018-04-01T12:07:08Z</time>
      </trkpt>
      <trkpt lat="62.633040988192" lon="17.766947216923">
        <ele>86</ele>
        <time>2018-04-01T12:07:09Z</time>
      </trkpt>
      <trkpt lat="62.633076778905" lon="17.766851411806">
        <ele>86.2</ele>
        <time>2018-04-01T12:07:10Z</time>
      </trkpt>
      <trkpt lat="62.633108965401" lon="17.766766503159">
        <ele>86.2</ele>
        <time>2018-04-01T12:07:11Z</time>
      </trkpt>
      <trkpt lat="62.633144504657" lon="17.766674469897">
        <ele>86.2</ele>
        <time>2018-04-01T12:07:12Z</time>
      </trkpt>
      <trkpt lat="62.633181636474" lon="17.766576820762">
        <ele>86.2</ele>
        <time>2018-04-01T12:07:13Z</time>
      </trkpt>
      <trkpt lat="62.633216253721" lon="17.766480512731">
        <ele>86.2</ele>
        <time>2018-04-01T12:07:14Z</time>
      </trkpt>
      <trkpt lat="62.633249781321" lon="17.766384791433">
        <ele>86</ele>
        <time>2018-04-01T12:07:15Z</time>
      </trkpt>
      <trkpt lat="62.633283979473" lon="17.766287561393">
        <ele>86</ele>
        <time>2018-04-01T12:07:16Z</time>
      </trkpt>
      <trkpt lat="62.633314489589" lon="17.766201898375">
        <ele>86</ele>
        <time>2018-04-01T12:07:17Z</time>
      </trkpt>
      <trkpt lat="62.633354135976" lon="17.766091508752">
        <ele>86.2</ele>
        <time>2018-04-01T12:07:18Z</time>
      </trkpt>
      <trkpt lat="62.633389256137" lon="17.765992686151">
        <ele>86.2</ele>
        <time>2018-04-01T12:07:19Z</time>
      </trkpt>
      <trkpt lat="62.633425130669" lon="17.765892941541">
        <ele>86.4</ele>
        <time>2018-04-01T12:07:20Z</time>
      </trkpt>
      <trkpt lat="62.633460586106" lon="17.765791520551">
        <ele>86.4</ele>
        <time>2018-04-01T12:07:21Z</time>
      </trkpt>
      <trkpt lat="62.633493443154" lon="17.765694206692">
        <ele>86.4</ele>
        <time>2018-04-01T12:07:22Z</time>
      </trkpt>
      <trkpt lat="62.633527976582" lon="17.76558960058">
        <ele>86.2</ele>
        <time>2018-04-01T12:07:23Z</time>
      </trkpt>
      <trkpt lat="62.633562593829" lon="17.765482647536">
        <ele>86.2</ele>
        <time>2018-04-01T12:07:24Z</time>
      </trkpt>
      <trkpt lat="62.633599809465" lon="17.765368150782">
        <ele>86</ele>
        <time>2018-04-01T12:07:25Z</time>
      </trkpt>
      <trkpt lat="62.63363375616" lon="17.765262538842">
        <ele>86</ele>
        <time>2018-04-01T12:07:26Z</time>
      </trkpt>
      <trkpt lat="62.633666864665" lon="17.765159441472">
        <ele>86</ele>
        <time>2018-04-01T12:07:27Z</time>
      </trkpt>
      <trkpt lat="62.633701984826" lon="17.765049303306">
        <ele>86</ele>
        <time>2018-04-01T12:07:28Z</time>
      </trkpt>
      <trkpt lat="62.63373350077" lon="17.764946876488">
        <ele>86</ele>
        <time>2018-04-01T12:07:29Z</time>
      </trkpt>
      <trkpt lat="62.633770213492" lon="17.764827602051">
        <ele>85.8</ele>
        <time>2018-04-01T12:07:30Z</time>
      </trkpt>
      <trkpt lat="62.633805333653" lon="17.764714697858">
        <ele>85.8</ele>
        <time>2018-04-01T12:07:31Z</time>
      </trkpt>
      <trkpt lat="62.633838777434" lon="17.764605397882">
        <ele>85.6</ele>
        <time>2018-04-01T12:07:32Z</time>
      </trkpt>
      <trkpt lat="62.633875741613" lon="17.764479501744">
        <ele>85.4</ele>
        <time>2018-04-01T12:07:33Z</time>
      </trkpt>
      <trkpt lat="62.633910023584" lon="17.764356958366">
        <ele>85.2</ele>
        <time>2018-04-01T12:07:34Z</time>
      </trkpt>
      <trkpt lat="62.633942377718" lon="17.76423927649">
        <ele>85</ele>
        <time>2018-04-01T12:07:35Z</time>
      </trkpt>
      <trkpt lat="62.633979425716" lon="17.76410768066">
        <ele>84.8</ele>
        <time>2018-04-01T12:07:36Z</time>
      </trkpt>
      <trkpt lat="62.634012785678" lon="17.763991507526">
        <ele>84.6</ele>
        <time>2018-04-01T12:07:37Z</time>
      </trkpt>
      <trkpt lat="62.634049833676" lon="17.763860582248">
        <ele>84.4</ele>
        <time>2018-04-01T12:07:38Z</time>
      </trkpt>
      <trkpt lat="62.634082103991" lon="17.763742565096">
        <ele>84.2</ele>
        <time>2018-04-01T12:07:39Z</time>
      </trkpt>
      <trkpt lat="62.634117810885" lon="17.763608203239">
        <ele>84</ele>
        <time>2018-04-01T12:07:40Z</time>
      </trkpt>
      <trkpt lat="62.634148740096" lon="17.763488509707">
        <ele>84</ele>
        <time>2018-04-01T12:07:41Z</time>
      </trkpt>
      <trkpt lat="62.634182100058" lon="17.763360182818">
        <ele>83.8</ele>
        <time>2018-04-01T12:07:42Z</time>
      </trkpt>
      <trkpt lat="62.63421797459" lon="17.763223725486">
        <ele>83.6</ele>
        <time>2018-04-01T12:07:43Z</time>
      </trkpt>
      <trkpt lat="62.634251753647" lon="17.763093638398">
        <ele>83.6</ele>
        <time>2018-04-01T12:07:44Z</time>
      </trkpt>
      <trkpt lat="62.634285784161" lon="17.762961120559">
        <ele>83.4</ele>
        <time>2018-04-01T12:07:45Z</time>
      </trkpt>
      <trkpt lat="62.634320736684" lon="17.762824663227">
        <ele>83.2</ele>
        <time>2018-04-01T12:07:46Z</time>
      </trkpt>
      <trkpt lat="62.634351414438" lon="17.762704131505">
        <ele>82.8</ele>
        <time>2018-04-01T12:07:47Z</time>
      </trkpt>
      <trkpt lat="62.634390809368" lon="17.76255032364">
        <ele>82.6</ele>
        <time>2018-04-01T12:07:48Z</time>
      </trkpt>
      <trkpt lat="62.634427270633" lon="17.76240615496">
        <ele>82.4</ele>
        <time>2018-04-01T12:07:49Z</time>
      </trkpt>
      <trkpt lat="62.634460882052" lon="17.762272296017">
        <ele>82</ele>
        <time>2018-04-01T12:07:50Z</time>
      </trkpt>
      <trkpt lat="62.634497510955" lon="17.762128797889">
        <ele>81.6</ele>
        <time>2018-04-01T12:07:51Z</time>
      </trkpt>
      <trkpt lat="62.634532044383" lon="17.761996196231">
        <ele>81.2</ele>
        <time>2018-04-01T12:07:52Z</time>
      </trkpt>
      <trkpt lat="62.634569092381" lon="17.761854793578">
        <ele>80.8</ele>
        <time>2018-04-01T12:07:53Z</time>
      </trkpt>
      <trkpt lat="62.634606559474" lon="17.761710960174">
        <ele>80.4</ele>
        <time>2018-04-01T12:07:54Z</time>
      </trkpt>
      <trkpt lat="62.634646205861" lon="17.761555559748">
        <ele>80</ele>
        <time>2018-04-01T12:07:55Z</time>
      </trkpt>
      <trkpt lat="62.63468317004" lon="17.76140954705">
        <ele>79.6</ele>
        <time>2018-04-01T12:07:56Z</time>
      </trkpt>
      <trkpt lat="62.634717871106" lon="17.761271497157">
        <ele>79.4</ele>
        <time>2018-04-01T12:07:57Z</time>
      </trkpt>
      <trkpt lat="62.634756260208" lon="17.761117186378">
        <ele>79</ele>
        <time>2018-04-01T12:07:58Z</time>
      </trkpt>
      <trkpt lat="62.634790542179" lon="17.76098207015">
        <ele>78.6</ele>
        <time>2018-04-01T12:07:59Z</time>
      </trkpt>
      <trkpt lat="62.634830440023" lon="17.76083035776">
        <ele>78.4</ele>
        <time>2018-04-01T12:08:00Z</time>
      </trkpt>
      <trkpt lat="62.634867488021" lon="17.760690212392">
        <ele>78</ele>
        <time>2018-04-01T12:08:01Z</time>
      </trkpt>
      <trkpt lat="62.634902189087" lon="17.760558616562">
        <ele>77.8</ele>
        <time>2018-04-01T12:08:02Z</time>
      </trkpt>
      <trkpt lat="62.63494049437" lon="17.760407742362">
        <ele>77.4</ele>
        <time>2018-04-01T12:08:03Z</time>
      </trkpt>
      <trkpt lat="62.634975530712" lon="17.760266842623">
        <ele>77.2</ele>
        <time>2018-04-01T12:08:04Z</time>
      </trkpt>
      <trkpt lat="62.635008806855" lon="17.760135665888">
        <ele>77</ele>
        <time>2018-04-01T12:08:05Z</time>
      </trkpt>
      <trkpt lat="62.635046693043" lon="17.759988228267">
        <ele>76.8</ele>
        <time>2018-04-01T12:08:06Z</time>
      </trkpt>
      <trkpt lat="62.635080220643" lon="17.759859147007">
        <ele>76.8</ele>
        <time>2018-04-01T12:08:07Z</time>
      </trkpt>
      <trkpt lat="62.635117184822" lon="17.759713804861">
        <ele>76.4</ele>
        <time>2018-04-01T12:08:08Z</time>
      </trkpt>
      <trkpt lat="62.635148700766" lon="17.759586819076">
        <ele>76.4</ele>
        <time>2018-04-01T12:08:09Z</time>
      </trkpt>
      <trkpt lat="62.635185162031" lon="17.759445332604">
        <ele>76.2</ele>
        <time>2018-04-01T12:08:10Z</time>
      </trkpt>
      <trkpt lat="62.635217180889" lon="17.759323208321">
        <ele>76.2</ele>
        <time>2018-04-01T12:08:11Z</time>
      </trkpt>
      <trkpt lat="62.635251546679" lon="17.75919169631">
        <ele>76.2</ele>
        <time>2018-04-01T12:08:12Z</time>
      </trkpt>
      <trkpt lat="62.635288091763" lon="17.759056160987">
        <ele>76.2</ele>
        <time>2018-04-01T12:08:13Z</time>
      </trkpt>
      <trkpt lat="62.635322122277" lon="17.758928420831">
        <ele>76.2</ele>
        <time>2018-04-01T12:08:14Z</time>
      </trkpt>
      <trkpt lat="62.635354644049" lon="17.758798417562">
        <ele>76.2</ele>
        <time>2018-04-01T12:08:15Z</time>
      </trkpt>
      <trkpt lat="62.635386914364" lon="17.758668162836">
        <ele>76.2</ele>
        <time>2018-04-01T12:08:16Z</time>
      </trkpt>
      <trkpt lat="62.635415496643" lon="17.758554755729">
        <ele>76.2</ele>
        <time>2018-04-01T12:08:17Z</time>
      </trkpt>
      <trkpt lat="62.635452544641" lon="17.758411844334">
        <ele>76.2</ele>
        <time>2018-04-01T12:08:18Z</time>
      </trkpt>
      <trkpt lat="62.635485150232" lon="17.75828645111">
        <ele>76.2</ele>
        <time>2018-04-01T12:08:19Z</time>
      </trkpt>
      <trkpt lat="62.635516498538" lon="17.758161812257">
        <ele>76</ele>
        <time>2018-04-01T12:08:20Z</time>
      </trkpt>
      <trkpt lat="62.635547595387" lon="17.758035580843">
        <ele>76.2</ele>
        <time>2018-04-01T12:08:21Z</time>
      </trkpt>
      <trkpt lat="62.635576596761" lon="17.757918150424">
        <ele>76.2</ele>
        <time>2018-04-01T12:08:22Z</time>
      </trkpt>
      <trkpt lat="62.635607442153" lon="17.757794014485">
        <ele>76.2</ele>
        <time>2018-04-01T12:08:23Z</time>
      </trkpt>
      <trkpt lat="62.635638622821" lon="17.757670130003">
        <ele>76.2</ele>
        <time>2018-04-01T12:08:24Z</time>
      </trkpt>
      <trkpt lat="62.635671898964" lon="17.75754046201">
        <ele>76.2</ele>
        <time>2018-04-01T12:08:25Z</time>
      </trkpt>
      <trkpt lat="62.635702995813" lon="17.75741892446">
        <ele>76.4</ele>
        <time>2018-04-01T12:08:26Z</time>
      </trkpt>
      <trkpt lat="62.635732751558" lon="17.757303589516">
        <ele>76.2</ele>
        <time>2018-04-01T12:08:27Z</time>
      </trkpt>
      <trkpt lat="62.635765357149" lon="17.757173250971">
        <ele>76</ele>
        <time>2018-04-01T12:08:28Z</time>
      </trkpt>
      <trkpt lat="62.635795783446" lon="17.757050204679">
        <ele>76</ele>
        <time>2018-04-01T12:08:29Z</time>
      </trkpt>
      <trkpt lat="62.635820090956" lon="17.756942748721">
        <ele>76</ele>
        <time>2018-04-01T12:08:30Z</time>
      </trkpt>
      <trkpt lat="62.635854372927" lon="17.756802770991">
        <ele>75.8</ele>
        <time>2018-04-01T12:08:31Z</time>
      </trkpt>
      <trkpt lat="62.63588178174" lon="17.756686178762">
        <ele>75.8</ele>
        <time>2018-04-01T12:08:32Z</time>
      </trkpt>
      <trkpt lat="62.635909944924" lon="17.756554080018">
        <ele>75.6</ele>
        <time>2018-04-01T12:08:33Z</time>
      </trkpt>
      <trkpt lat="62.635935677357" lon="17.756428351518">
        <ele>75.6</ele>
        <time>2018-04-01T12:08:34Z</time>
      </trkpt>
      <trkpt lat="62.635959314315" lon="17.756311340194">
        <ele>75.4</ele>
        <time>2018-04-01T12:08:35Z</time>
      </trkpt>
      <trkpt lat="62.635985968757" lon="17.756178906174">
        <ele>75.4</ele>
        <time>2018-04-01T12:08:36Z</time>
      </trkpt>
      <trkpt lat="62.636008599887" lon="17.756062481583">
        <ele>75.4</ele>
        <time>2018-04-01T12:08:37Z</time>
      </trkpt>
      <trkpt lat="62.636032572121" lon="17.75593365178">
        <ele>75.2</ele>
        <time>2018-04-01T12:08:38Z</time>
      </trkpt>
      <trkpt lat="62.636053526871" lon="17.755820328492">
        <ele>75</ele>
        <time>2018-04-01T12:08:39Z</time>
      </trkpt>
      <trkpt lat="62.636076325639" lon="17.75569392944">
        <ele>75</ele>
        <time>2018-04-01T12:08:40Z</time>
      </trkpt>
      <trkpt lat="62.636097448027" lon="17.755575660831">
        <ele>75</ele>
        <time>2018-04-01T12:08:41Z</time>
      </trkpt>
      <trkpt lat="62.636119743881" lon="17.755465774122">
        <ele>75</ele>
        <time>2018-04-01T12:08:42Z</time>
      </trkpt>
      <trkpt lat="62.636141285364" lon="17.755340045622">
        <ele>75</ele>
        <time>2018-04-01T12:08:43Z</time>
      </trkpt>
      <trkpt lat="62.636158803535" lon="17.75522202847">
        <ele>75</ele>
        <time>2018-04-01T12:08:44Z</time>
      </trkpt>
      <trkpt lat="62.636174393869" lon="17.755103424585">
        <ele>75</ele>
        <time>2018-04-01T12:08:45Z</time>
      </trkpt>
      <trkpt lat="62.636189313651" lon="17.754983395777">
        <ele>75.2</ele>
        <time>2018-04-01T12:08:46Z</time>
      </trkpt>
      <trkpt lat="62.636202976148" lon="17.754879460217">
        <ele>75.2</ele>
        <time>2018-04-01T12:08:47Z</time>
      </trkpt>
      <trkpt lat="62.636221583966" lon="17.754746355645">
        <ele>75.2</ele>
        <time>2018-04-01T12:08:48Z</time>
      </trkpt>
      <trkpt lat="62.636237928671" lon="17.754629260502">
        <ele>75.4</ele>
        <time>2018-04-01T12:08:49Z</time>
      </trkpt>
      <trkpt lat="62.636254273376" lon="17.754511662445">
        <ele>75.4</ele>
        <time>2018-04-01T12:08:50Z</time>
      </trkpt>
      <trkpt lat="62.636269947529" lon="17.754389202886">
        <ele>75.4</ele>
        <time>2018-04-01T12:08:51Z</time>
      </trkpt>
      <trkpt lat="62.636282855655" lon="17.754277807435">
        <ele>75.6</ele>
        <time>2018-04-01T12:08:52Z</time>
      </trkpt>
      <trkpt lat="62.636295344686" lon="17.754158700636">
        <ele>75.6</ele>
        <time>2018-04-01T12:08:53Z</time>
      </trkpt>
      <trkpt lat="62.636307666079" lon="17.754043030416">
        <ele>75.6</ele>
        <time>2018-04-01T12:08:54Z</time>
      </trkpt>
      <trkpt lat="62.6363209933" lon="17.753917218097">
        <ele>75.6</ele>
        <time>2018-04-01T12:08:55Z</time>
      </trkpt>
      <trkpt lat="62.636334655797" lon="17.75379794366">
        <ele>75.6</ele>
        <time>2018-04-01T12:08:56Z</time>
      </trkpt>
      <trkpt lat="62.63634865357" lon="17.753688727503">
        <ele>75.6</ele>
        <time>2018-04-01T12:08:57Z</time>
      </trkpt>
      <trkpt lat="62.636364746818" lon="17.753560065338">
        <ele>75.8</ele>
        <time>2018-04-01T12:08:58Z</time>
      </trkpt>
      <trkpt lat="62.636378157858" lon="17.75345177119">
        <ele>75.6</ele>
        <time>2018-04-01T12:08:59Z</time>
      </trkpt>
      <trkpt lat="62.636393496735" lon="17.753328054346">
        <ele>75.8</ele>
        <time>2018-04-01T12:09:00Z</time>
      </trkpt>
      <trkpt lat="62.636406991594" lon="17.75321372523">
        <ele>75.8</ele>
        <time>2018-04-01T12:09:01Z</time>
      </trkpt>
      <trkpt lat="62.636419480625" lon="17.753105011987">
        <ele>75.8</ele>
        <time>2018-04-01T12:09:02Z</time>
      </trkpt>
      <trkpt lat="62.636433729855" lon="17.752984144989">
        <ele>75.8</ele>
        <time>2018-04-01T12:09:03Z</time>
      </trkpt>
      <trkpt lat="62.636446973257" lon="17.752870737882">
        <ele>76</ele>
        <time>2018-04-01T12:09:04Z</time>
      </trkpt>
      <trkpt lat="62.636458624098" lon="17.752768227245">
        <ele>75.8</ele>
        <time>2018-04-01T12:09:05Z</time>
      </trkpt>
      <trkpt lat="62.636471616043" lon="17.752647863161">
        <ele>75.8</ele>
        <time>2018-04-01T12:09:06Z</time>
      </trkpt>
      <trkpt lat="62.636482847789" lon="17.752542754135">
        <ele>75.8</ele>
        <time>2018-04-01T12:09:07Z</time>
      </trkpt>
      <trkpt lat="62.636497264657" lon="17.75242582663">
        <ele>75.8</ele>
        <time>2018-04-01T12:09:08Z</time>
      </trkpt>
      <trkpt lat="62.636511178611" lon="17.752322980717">
        <ele>76</ele>
        <time>2018-04-01T12:09:09Z</time>
      </trkpt>
      <trkpt lat="62.636525763117" lon="17.752208986877">
        <ele>76.2</ele>
        <time>2018-04-01T12:09:10Z</time>
      </trkpt>
      <trkpt lat="62.636536827225" lon="17.75210647624">
        <ele>76.4</ele>
        <time>2018-04-01T12:09:11Z</time>
      </trkpt>
      <trkpt lat="62.636548729523" lon="17.751993739685">
        <ele>76.4</ele>
        <time>2018-04-01T12:09:12Z</time>
      </trkpt>
      <trkpt lat="62.636561721468" lon="17.751881757501">
        <ele>76.4</ele>
        <time>2018-04-01T12:09:13Z</time>
      </trkpt>
      <trkpt lat="62.636573959042" lon="17.751773966267">
        <ele>76.4</ele>
        <time>2018-04-01T12:09:14Z</time>
      </trkpt>
      <trkpt lat="62.636586448073" lon="17.751667097042">
        <ele>76.4</ele>
        <time>2018-04-01T12:09:15Z</time>
      </trkpt>
      <trkpt lat="62.636598937104" lon="17.751560982188">
        <ele>76.4</ele>
        <time>2018-04-01T12:09:16Z</time>
      </trkpt>
      <trkpt lat="62.636610085031" lon="17.751467104908">
        <ele>76.6</ele>
        <time>2018-04-01T12:09:17Z</time>
      </trkpt>
      <trkpt lat="62.636624920994" lon="17.75134959067">
        <ele>76.6</ele>
        <time>2018-04-01T12:09:18Z</time>
      </trkpt>
      <trkpt lat="62.636638499672" lon="17.751246577119">
        <ele>76.6</ele>
        <time>2018-04-01T12:09:19Z</time>
      </trkpt>
      <trkpt lat="62.63665124016" lon="17.75114507231">
        <ele>76.8</ele>
        <time>2018-04-01T12:09:20Z</time>
      </trkpt>
      <trkpt lat="62.636661717535" lon="17.751043986596">
        <ele>76.8</ele>
        <time>2018-04-01T12:09:21Z</time>
      </trkpt>
      <trkpt lat="62.636671775815" lon="17.750951282782">
        <ele>76.8</ele>
        <time>2018-04-01T12:09:22Z</time>
      </trkpt>
      <trkpt lat="62.636683594294" lon="17.750855142389">
        <ele>77</ele>
        <time>2018-04-01T12:09:23Z</time>
      </trkpt>
      <trkpt lat="62.636694658402" lon="17.750761600385">
        <ele>77</ele>
        <time>2018-04-01T12:09:24Z</time>
      </trkpt>
      <trkpt lat="62.636704800501" lon="17.750666130544">
        <ele>77</ele>
        <time>2018-04-01T12:09:25Z</time>
      </trkpt>
      <trkpt lat="62.63671410441" lon="17.750579042603">
        <ele>77.2</ele>
        <time>2018-04-01T12:09:26Z</time>
      </trkpt>
      <trkpt lat="62.636721564301" lon="17.750497738173">
        <ele>77.2</ele>
        <time>2018-04-01T12:09:27Z</time>
      </trkpt>
      <trkpt lat="62.636730113839" lon="17.750405872549">
        <ele>77.4</ele>
        <time>2018-04-01T12:09:28Z</time>
      </trkpt>
      <trkpt lat="62.636738663377" lon="17.750326747413">
        <ele>77.6</ele>
        <time>2018-04-01T12:09:29Z</time>
      </trkpt>
      <trkpt lat="62.63674930839" lon="17.750238066911">
        <ele>77.8</ele>
        <time>2018-04-01T12:09:30Z</time>
      </trkpt>
      <trkpt lat="62.636759785765" lon="17.750156511024">
        <ele>78</ele>
        <time>2018-04-01T12:09:31Z</time>
      </trkpt>
      <trkpt lat="62.63676942495" lon="17.750080068096">
        <ele>78.2</ele>
        <time>2018-04-01T12:09:32Z</time>
      </trkpt>
      <trkpt lat="62.636779734687" lon="17.749993734526">
        <ele>78.4</ele>
        <time>2018-04-01T12:09:33Z</time>
      </trkpt>
      <trkpt lat="62.636790463519" lon="17.749908993517">
        <ele>78.6</ele>
        <time>2018-04-01T12:09:34Z</time>
      </trkpt>
      <trkpt lat="62.636799180695" lon="17.749831460942">
        <ele>78.8</ele>
        <time>2018-04-01T12:09:35Z</time>
      </trkpt>
      <trkpt lat="62.636807394957" lon="17.749739176223">
        <ele>79</ele>
        <time>2018-04-01T12:09:36Z</time>
      </trkpt>
      <trkpt lat="62.636815106305" lon="17.749654602852">
        <ele>79.2</ele>
        <time>2018-04-01T12:09:37Z</time>
      </trkpt>
      <trkpt lat="62.636823739662" lon="17.749561563762">
        <ele>79.4</ele>
        <time>2018-04-01T12:09:38Z</time>
      </trkpt>
      <trkpt lat="62.636832037743" lon="17.74947623602">
        <ele>79.6</ele>
        <time>2018-04-01T12:09:39Z</time>
      </trkpt>
      <trkpt lat="62.6368406711" lon="17.749384621853">
        <ele>79.6</ele>
        <time>2018-04-01T12:09:40Z</time>
      </trkpt>
      <trkpt lat="62.636848466267" lon="17.749297282455">
        <ele>79.6</ele>
        <time>2018-04-01T12:09:41Z</time>
      </trkpt>
      <trkpt lat="62.636855842339" lon="17.74920550065">
        <ele>79.8</ele>
        <time>2018-04-01T12:09:42Z</time>
      </trkpt>
      <trkpt lat="62.636864056601" lon="17.749105504583">
        <ele>79.8</ele>
        <time>2018-04-01T12:09:43Z</time>
      </trkpt>
      <trkpt lat="62.63687336051" lon="17.74901104057">
        <ele>79.8</ele>
        <time>2018-04-01T12:09:44Z</time>
      </trkpt>
      <trkpt lat="62.636882915876" lon="17.748914900177">
        <ele>80</ele>
        <time>2018-04-01T12:09:45Z</time>
      </trkpt>
      <trkpt lat="62.636892135966" lon="17.748816915766">
        <ele>80</ele>
        <time>2018-04-01T12:09:46Z</time>
      </trkpt>
      <trkpt lat="62.636899512038" lon="17.74872773235">
        <ele>80</ele>
        <time>2018-04-01T12:09:47Z</time>
      </trkpt>
      <trkpt lat="62.636907391024" lon="17.748612732682">
        <ele>80.2</ele>
        <time>2018-04-01T12:09:48Z</time>
      </trkpt>
      <trkpt lat="62.636913761268" lon="17.74850645019">
        <ele>80.2</ele>
        <time>2018-04-01T12:09:49Z</time>
      </trkpt>
      <trkpt lat="62.636920215331" lon="17.748400754431">
        <ele>80.4</ele>
        <time>2018-04-01T12:09:50Z</time>
      </trkpt>
      <trkpt lat="62.636925495928" lon="17.748292125007">
        <ele>80.4</ele>
        <time>2018-04-01T12:09:51Z</time>
      </trkpt>
      <trkpt lat="62.636929770697" lon="17.748187602714">
        <ele>80.6</ele>
        <time>2018-04-01T12:09:52Z</time>
      </trkpt>
      <trkpt lat="62.636933877828" lon="17.748074363245">
        <ele>80.6</ele>
        <time>2018-04-01T12:09:53Z</time>
      </trkpt>
      <trkpt lat="62.636937146769" lon="17.747959363577">
        <ele>80.4</ele>
        <time>2018-04-01T12:09:54Z</time>
      </trkpt>
      <trkpt lat="62.636940080434" lon="17.747835562914">
        <ele>80.4</ele>
        <time>2018-04-01T12:09:55Z</time>
      </trkpt>
      <trkpt lat="62.63694293028" lon="17.747717461943">
        <ele>80.4</ele>
        <time>2018-04-01T12:09:56Z</time>
      </trkpt>
      <trkpt lat="62.636944522841" lon="17.747605731216">
        <ele>80.2</ele>
        <time>2018-04-01T12:09:57Z</time>
      </trkpt>
      <trkpt lat="62.636945361031" lon="17.747478577793">
        <ele>80.2</ele>
        <time>2018-04-01T12:09:58Z</time>
      </trkpt>
      <trkpt lat="62.636946785954" lon="17.74736483541">
        <ele>80.2</ele>
        <time>2018-04-01T12:09:59Z</time>
      </trkpt>
      <trkpt lat="62.636947791782" lon="17.747234329227">
        <ele>80.2</ele>
        <time>2018-04-01T12:10:00Z</time>
      </trkpt>
      <trkpt lat="62.636948043239" lon="17.747112204944">
        <ele>80.2</ele>
        <time>2018-04-01T12:10:01Z</time>
      </trkpt>
      <trkpt lat="62.636948210877" lon="17.746994103973">
        <ele>80</ele>
        <time>2018-04-01T12:10:02Z</time>
      </trkpt>
      <trkpt lat="62.636948210877" lon="17.746864184523">
        <ele>80</ele>
        <time>2018-04-01T12:10:03Z</time>
      </trkpt>
      <trkpt lat="62.636946534497" lon="17.746741389688">
        <ele>80</ele>
        <time>2018-04-01T12:10:04Z</time>
      </trkpt>
      <trkpt lat="62.63694544485" lon="17.746626557658">
        <ele>80</ele>
        <time>2018-04-01T12:10:05Z</time>
      </trkpt>
      <trkpt lat="62.636945361031" lon="17.746495464742">
        <ele>80</ele>
        <time>2018-04-01T12:10:06Z</time>
      </trkpt>
      <trkpt lat="62.636945528669" lon="17.746380967988">
        <ele>80</ele>
        <time>2018-04-01T12:10:07Z</time>
      </trkpt>
      <trkpt lat="62.636945025755" lon="17.746252054366">
        <ele>80</ele>
        <time>2018-04-01T12:10:08Z</time>
      </trkpt>
      <trkpt lat="62.636943684651" lon="17.74613604887">
        <ele>80</ele>
        <time>2018-04-01T12:10:09Z</time>
      </trkpt>
      <trkpt lat="62.636941337719" lon="17.746007302886">
        <ele>80</ele>
        <time>2018-04-01T12:10:10Z</time>
      </trkpt>
      <trkpt lat="62.636940331891" lon="17.745892638494">
        <ele>80</ele>
        <time>2018-04-01T12:10:11Z</time>
      </trkpt>
      <trkpt lat="62.636939828977" lon="17.745771771496">
        <ele>80</ele>
        <time>2018-04-01T12:10:12Z</time>
      </trkpt>
      <trkpt lat="62.636938404054" lon="17.745643109331">
        <ele>80</ele>
        <time>2018-04-01T12:10:13Z</time>
      </trkpt>
      <trkpt lat="62.636937482045" lon="17.745523164342">
        <ele>79.8</ele>
        <time>2018-04-01T12:10:14Z</time>
      </trkpt>
      <trkpt lat="62.636936811493" lon="17.745402464982">
        <ele>79.8</ele>
        <time>2018-04-01T12:10:15Z</time>
      </trkpt>
      <trkpt lat="62.636935721846" lon="17.74528277145">
        <ele>79.8</ele>
        <time>2018-04-01T12:10:16Z</time>
      </trkpt>
      <trkpt lat="62.636934296923" lon="17.745176069863">
        <ele>80</ele>
        <time>2018-04-01T12:10:17Z</time>
      </trkpt>
      <trkpt lat="62.63693371019" lon="17.745041205092">
        <ele>80.2</ele>
        <time>2018-04-01T12:10:18Z</time>
      </trkpt>
      <trkpt lat="62.636934632199" lon="17.744920338094">
        <ele>80.2</ele>
        <time>2018-04-01T12:10:19Z</time>
      </trkpt>
      <trkpt lat="62.636935721846" lon="17.744798549087">
        <ele>80.2</ele>
        <time>2018-04-01T12:10:20Z</time>
      </trkpt>
      <trkpt lat="62.636935889484" lon="17.744675670433">
        <ele>80.2</ele>
        <time>2018-04-01T12:10:21Z</time>
      </trkpt>
      <trkpt lat="62.636935302751" lon="17.744559581118">
        <ele>80.2</ele>
        <time>2018-04-01T12:10:22Z</time>
      </trkpt>
      <trkpt lat="62.636935302751" lon="17.744437456835">
        <ele>80</ele>
        <time>2018-04-01T12:10:23Z</time>
      </trkpt>
      <trkpt lat="62.63693538657" lon="17.744316925113">
        <ele>80</ele>
        <time>2018-04-01T12:10:24Z</time>
      </trkpt>
      <trkpt lat="62.63693538657" lon="17.744183485265">
        <ele>80</ele>
        <time>2018-04-01T12:10:25Z</time>
      </trkpt>
      <trkpt lat="62.636936140941" lon="17.744059768421">
        <ele>80</ele>
        <time>2018-04-01T12:10:26Z</time>
      </trkpt>
      <trkpt lat="62.636937146769" lon="17.743944265839">
        <ele>80</ele>
        <time>2018-04-01T12:10:27Z</time>
      </trkpt>
      <trkpt lat="62.636940248072" lon="17.743812837647">
        <ele>80</ele>
        <time>2018-04-01T12:10:28Z</time>
      </trkpt>
      <trkpt lat="62.636945528669" lon="17.743697418884">
        <ele>80</ele>
        <time>2018-04-01T12:10:29Z</time>
      </trkpt>
      <trkpt lat="62.636953742931" lon="17.743563140846">
        <ele>80</ele>
        <time>2018-04-01T12:10:30Z</time>
      </trkpt>
      <trkpt lat="62.636962879202" lon="17.743440681287">
        <ele>80.2</ele>
        <time>2018-04-01T12:10:31Z</time>
      </trkpt>
      <trkpt lat="62.636972518387" lon="17.74332727418">
        <ele>80</ele>
        <time>2018-04-01T12:10:32Z</time>
      </trkpt>
      <trkpt lat="62.636983917771" lon="17.743194588703">
        <ele>80</ele>
        <time>2018-04-01T12:10:33Z</time>
      </trkpt>
      <trkpt lat="62.636993892232" lon="17.743070201307">
        <ele>80</ele>
        <time>2018-04-01T12:10:34Z</time>
      </trkpt>
      <trkpt lat="62.637002777046" lon="17.742954195811">
        <ele>80</ele>
        <time>2018-04-01T12:10:35Z</time>
      </trkpt>
      <trkpt lat="62.637014679344" lon="17.742821594153">
        <ele>79.8</ele>
        <time>2018-04-01T12:10:36Z</time>
      </trkpt>
      <trkpt lat="62.637024569986" lon="17.7427053372">
        <ele>80</ele>
        <time>2018-04-01T12:10:37Z</time>
      </trkpt>
      <trkpt lat="62.637035466456" lon="17.742576172121">
        <ele>80</ele>
        <time>2018-04-01T12:10:38Z</time>
      </trkpt>
      <trkpt lat="62.637045440917" lon="17.742460501901">
        <ele>80</ele>
        <time>2018-04-01T12:10:39Z</time>
      </trkpt>
      <trkpt lat="62.637058432862" lon="17.742332426469">
        <ele>80</ele>
        <time>2018-04-01T12:10:40Z</time>
      </trkpt>
      <trkpt lat="62.637071257169" lon="17.742219857552">
        <ele>80</ele>
        <time>2018-04-01T12:10:41Z</time>
      </trkpt>
      <trkpt lat="62.637085338761" lon="17.742100834572">
        <ele>80</ele>
        <time>2018-04-01T12:10:42Z</time>
      </trkpt>
      <trkpt lat="62.637102018742" lon="17.741974686977">
        <ele>79.8</ele>
        <time>2018-04-01T12:10:43Z</time>
      </trkpt>
      <trkpt lat="62.637117692895" lon="17.741855663997">
        <ele>79.8</ele>
        <time>2018-04-01T12:10:44Z</time>
      </trkpt>
      <trkpt lat="62.637133450867" lon="17.741735299913">
        <ele>79.8</ele>
        <time>2018-04-01T12:10:45Z</time>
      </trkpt>
      <trkpt lat="62.637149544115" lon="17.741611247793">
        <ele>79.8</ele>
        <time>2018-04-01T12:10:46Z</time>
      </trkpt>
      <trkpt lat="62.637163458069" lon="17.741504043292">
        <ele>79.8</ele>
        <time>2018-04-01T12:10:47Z</time>
      </trkpt>
      <trkpt lat="62.637182149706" lon="17.741371190177">
        <ele>79.8</ele>
        <time>2018-04-01T12:10:48Z</time>
      </trkpt>
      <trkpt lat="62.637198159135" lon="17.741255436138">
        <ele>79.8</ele>
        <time>2018-04-01T12:10:49Z</time>
      </trkpt>
      <trkpt lat="62.637214755297" lon="17.741132725122">
        <ele>79.8</ele>
        <time>2018-04-01T12:10:50Z</time>
      </trkpt>
      <trkpt lat="62.637231854373" lon="17.741010265563">
        <ele>79.8</ele>
        <time>2018-04-01T12:10:51Z</time>
      </trkpt>
      <trkpt lat="62.637246774155" lon="17.740902139053">
        <ele>79.8</ele>
        <time>2018-04-01T12:10:52Z</time>
      </trkpt>
      <trkpt lat="62.637263202679" lon="17.740783199892">
        <ele>79.8</ele>
        <time>2018-04-01T12:10:53Z</time>
      </trkpt>
      <trkpt lat="62.637280553212" lon="17.740667026758">
        <ele>79.6</ele>
        <time>2018-04-01T12:10:54Z</time>
      </trkpt>
      <trkpt lat="62.637298490478" lon="17.740536604394">
        <ele>79.8</ele>
        <time>2018-04-01T12:10:55Z</time>
      </trkpt>
      <trkpt lat="62.637313074984" lon="17.740413474283">
        <ele>79.8</ele>
        <time>2018-04-01T12:10:56Z</time>
      </trkpt>
      <trkpt lat="62.63732598311" lon="17.740297804063">
        <ele>80</ele>
        <time>2018-04-01T12:10:57Z</time>
      </trkpt>
      <trkpt lat="62.637341489625" lon="17.74016394512">
        <ele>80</ele>
        <time>2018-04-01T12:10:58Z</time>
      </trkpt>
      <trkpt lat="62.637355822674" lon="17.740045005959">
        <ele>79.8</ele>
        <time>2018-04-01T12:10:59Z</time>
      </trkpt>
      <trkpt lat="62.637371748284" lon="17.73990913536">
        <ele>79.8</ele>
        <time>2018-04-01T12:11:00Z</time>
      </trkpt>
      <trkpt lat="62.637386500428" lon="17.739781898118">
        <ele>79.8</ele>
        <time>2018-04-01T12:11:01Z</time>
      </trkpt>
      <trkpt lat="62.637400498201" lon="17.739660276749">
        <ele>79.8</ele>
        <time>2018-04-01T12:11:02Z</time>
      </trkpt>
      <trkpt lat="62.637415585621" lon="17.739521388666">
        <ele>79.8</ele>
        <time>2018-04-01T12:11:03Z</time>
      </trkpt>
      <trkpt lat="62.637429499575" lon="17.739392558863">
        <ele>80</ele>
        <time>2018-04-01T12:11:04Z</time>
      </trkpt>
      <trkpt lat="62.637441569511" lon="17.739272362417">
        <ele>80</ele>
        <time>2018-04-01T12:11:05Z</time>
      </trkpt>
      <trkpt lat="62.637455148189" lon="17.739131965592">
        <ele>80</ele>
        <time>2018-04-01T12:11:06Z</time>
      </trkpt>
      <trkpt lat="62.637466379935" lon="17.739008835481">
        <ele>80</ele>
        <time>2018-04-01T12:11:07Z</time>
      </trkpt>
      <trkpt lat="62.637479204242" lon="17.738873635434">
        <ele>79.8</ele>
        <time>2018-04-01T12:11:08Z</time>
      </trkpt>
      <trkpt lat="62.637490603626" lon="17.738750421504">
        <ele>79.8</ele>
        <time>2018-04-01T12:11:09Z</time>
      </trkpt>
      <trkpt lat="62.637502338286" lon="17.738615305276">
        <ele>79.6</ele>
        <time>2018-04-01T12:11:10Z</time>
      </trkpt>
      <trkpt lat="62.637513653851" lon="17.738490331147">
        <ele>79.8</ele>
        <time>2018-04-01T12:11:11Z</time>
      </trkpt>
      <trkpt lat="62.637523628312" lon="17.738363010086">
        <ele>79.6</ele>
        <time>2018-04-01T12:11:12Z</time>
      </trkpt>
      <trkpt lat="62.637532596945" lon="17.738225295469">
        <ele>79.6</ele>
        <time>2018-04-01T12:11:13Z</time>
      </trkpt>
      <trkpt lat="62.637541733216" lon="17.738095795114">
        <ele>79.6</ele>
        <time>2018-04-01T12:11:14Z</time>
      </trkpt>
      <trkpt lat="62.637550953306" lon="17.737968641691">
        <ele>79.8</ele>
        <time>2018-04-01T12:11:15Z</time>
      </trkpt>
      <trkpt lat="62.637560005758" lon="17.737834279834">
        <ele>79.8</ele>
        <time>2018-04-01T12:11:16Z</time>
      </trkpt>
      <trkpt lat="62.637566962735" lon="17.737723387297">
        <ele>79.8</ele>
        <time>2018-04-01T12:11:17Z</time>
      </trkpt>
      <trkpt lat="62.637576099006" lon="17.737581565549">
        <ele>79.8</ele>
        <time>2018-04-01T12:11:18Z</time>
      </trkpt>
      <trkpt lat="62.637583894173" lon="17.73745407685">
        <ele>79.8</ele>
        <time>2018-04-01T12:11:19Z</time>
      </trkpt>
      <trkpt lat="62.63759085115" lon="17.737334467137">
        <ele>79.8</ele>
        <time>2018-04-01T12:11:20Z</time>
      </trkpt>
      <trkpt lat="62.637597389032" lon="17.737206224067">
        <ele>79.8</ele>
        <time>2018-04-01T12:11:21Z</time>
      </trkpt>
      <trkpt lat="62.637602837267" lon="17.737092062589">
        <ele>79.8</ele>
        <time>2018-04-01T12:11:22Z</time>
      </trkpt>
      <trkpt lat="62.637608872235" lon="17.736970105944">
        <ele>80</ele>
        <time>2018-04-01T12:11:23Z</time>
      </trkpt>
      <trkpt lat="62.637613398461" lon="17.736851837335">
        <ele>80</ele>
        <time>2018-04-01T12:11:24Z</time>
      </trkpt>
      <trkpt lat="62.63761851142" lon="17.73672401336">
        <ele>80</ele>
        <time>2018-04-01T12:11:25Z</time>
      </trkpt>
      <trkpt lat="62.637623372922" lon="17.73660415219">
        <ele>80</ele>
        <time>2018-04-01T12:11:26Z</time>
      </trkpt>
      <trkpt lat="62.637628402062" lon="17.736491080359">
        <ele>80</ele>
        <time>2018-04-01T12:11:27Z</time>
      </trkpt>
      <trkpt lat="62.637634353211" lon="17.736363424022">
        <ele>80.2</ele>
        <time>2018-04-01T12:11:28Z</time>
      </trkpt>
      <trkpt lat="62.637639633808" lon="17.736252531485">
        <ele>80.2</ele>
        <time>2018-04-01T12:11:29Z</time>
      </trkpt>
      <trkpt lat="62.637644327672" lon="17.736151613409">
        <ele>80.4</ele>
        <time>2018-04-01T12:11:30Z</time>
      </trkpt>
      <trkpt lat="62.637651703744" lon="17.736006355082">
        <ele>80.4</ele>
        <time>2018-04-01T12:11:31Z</time>
      </trkpt>
      <trkpt lat="62.637658073988" lon="17.735895630183">
        <ele>80.4</ele>
        <time>2018-04-01T12:11:32Z</time>
      </trkpt>
      <trkpt lat="62.63766461187" lon="17.735770656054">
        <ele>80.4</ele>
        <time>2018-04-01T12:11:33Z</time>
      </trkpt>
      <trkpt lat="62.637669724829" lon="17.735655488748">
        <ele>80.6</ele>
        <time>2018-04-01T12:11:34Z</time>
      </trkpt>
      <trkpt lat="62.637673580503" lon="17.735546021134">
        <ele>80.6</ele>
        <time>2018-04-01T12:11:35Z</time>
      </trkpt>
      <trkpt lat="62.6376788611" lon="17.735422974842">
        <ele>80.6</ele>
        <time>2018-04-01T12:11:36Z</time>
      </trkpt>
      <trkpt lat="62.637684141697" lon="17.735313171952">
        <ele>80.8</ele>
        <time>2018-04-01T12:11:37Z</time>
      </trkpt>
      <trkpt lat="62.637689506113" lon="17.735189119832">
        <ele>80.8</ele>
        <time>2018-04-01T12:11:38Z</time>
      </trkpt>
      <trkpt lat="62.637695205805" lon="17.735077975838">
        <ele>80.8</ele>
        <time>2018-04-01T12:11:39Z</time>
      </trkpt>
      <trkpt lat="62.637701324592" lon="17.7349604616">
        <ele>80.8</ele>
        <time>2018-04-01T12:11:40Z</time>
      </trkpt>
      <trkpt lat="62.63770735956" lon="17.734843617914">
        <ele>80.8</ele>
        <time>2018-04-01T12:11:41Z</time>
      </trkpt>
      <trkpt lat="62.637713310709" lon="17.734722750916">
        <ele>81</ele>
        <time>2018-04-01T12:11:42Z</time>
      </trkpt>
      <trkpt lat="62.637719597134" lon="17.734591071267">
        <ele>81</ele>
        <time>2018-04-01T12:11:43Z</time>
      </trkpt>
      <trkpt lat="62.637724458636" lon="17.734465342767">
        <ele>81.2</ele>
        <time>2018-04-01T12:11:44Z</time>
      </trkpt>
      <trkpt lat="62.637730242147" lon="17.734338105525">
        <ele>81.2</ele>
        <time>2018-04-01T12:11:45Z</time>
      </trkpt>
      <trkpt lat="62.637736025658" lon="17.734210868283">
        <ele>81.2</ele>
        <time>2018-04-01T12:11:46Z</time>
      </trkpt>
      <trkpt lat="62.637741306255" lon="17.734097461176">
        <ele>81.2</ele>
        <time>2018-04-01T12:11:47Z</time>
      </trkpt>
      <trkpt lat="62.637748095594" lon="17.733954465962">
        <ele>81.2</ele>
        <time>2018-04-01T12:11:48Z</time>
      </trkpt>
      <trkpt lat="62.637754382019" lon="17.733825636159">
        <ele>81.2</ele>
        <time>2018-04-01T12:11:49Z</time>
      </trkpt>
      <trkpt lat="62.637759830254" lon="17.733698063641">
        <ele>81.2</ele>
        <time>2018-04-01T12:11:50Z</time>
      </trkpt>
      <trkpt lat="62.637765278489" lon="17.73356822801">
        <ele>81.2</ele>
        <time>2018-04-01T12:11:51Z</time>
      </trkpt>
      <trkpt lat="62.637769972353" lon="17.733445936089">
        <ele>81</ele>
        <time>2018-04-01T12:11:52Z</time>
      </trkpt>
      <trkpt lat="62.637774247122" lon="17.733314591716">
        <ele>81</ele>
        <time>2018-04-01T12:11:53Z</time>
      </trkpt>
      <trkpt lat="62.637778438072" lon="17.733182157696">
        <ele>81</ele>
        <time>2018-04-01T12:11:54Z</time>
      </trkpt>
      <trkpt lat="62.637784389221" lon="17.733039497758">
        <ele>81</ele>
        <time>2018-04-01T12:11:55Z</time>
      </trkpt>
      <trkpt lat="62.637789921275" lon="17.732903124245">
        <ele>80.8</ele>
        <time>2018-04-01T12:11:56Z</time>
      </trkpt>
      <trkpt lat="62.637796794433" lon="17.732775132632">
        <ele>80.8</ele>
        <time>2018-04-01T12:11:57Z</time>
      </trkpt>
      <trkpt lat="62.637806349799" lon="17.732628030287">
        <ele>80.8</ele>
        <time>2018-04-01T12:11:58Z</time>
      </trkpt>
      <trkpt lat="62.637815737527" lon="17.732494925715">
        <ele>80.8</ele>
        <time>2018-04-01T12:11:59Z</time>
      </trkpt>
      <trkpt lat="62.637826550178" lon="17.732349751207">
        <ele>80.8</ele>
        <time>2018-04-01T12:12:00Z</time>
      </trkpt>
      <trkpt lat="62.637837865743" lon="17.732210192572">
        <ele>80.8</ele>
        <time>2018-04-01T12:12:01Z</time>
      </trkpt>
      <trkpt lat="62.637846415281" lon="17.73207792619">
        <ele>80.8</ele>
        <time>2018-04-01T12:12:02Z</time>
      </trkpt>
      <trkpt lat="62.637854378086" lon="17.731926716714">
        <ele>80.8</ele>
        <time>2018-04-01T12:12:03Z</time>
      </trkpt>
      <trkpt lat="62.637862676167" lon="17.731784727328">
        <ele>80.6</ele>
        <time>2018-04-01T12:12:04Z</time>
      </trkpt>
      <trkpt lat="62.637871058067" lon="17.731650868385">
        <ele>80.6</ele>
        <time>2018-04-01T12:12:05Z</time>
      </trkpt>
      <trkpt lat="62.637881283985" lon="17.731499826547">
        <ele>80.6</ele>
        <time>2018-04-01T12:12:06Z</time>
      </trkpt>
      <trkpt lat="62.637891258446" lon="17.731364710319">
        <ele>80.4</ele>
        <time>2018-04-01T12:12:07Z</time>
      </trkpt>
      <trkpt lat="62.637905340038" lon="17.731213081748">
        <ele>80.4</ele>
        <time>2018-04-01T12:12:08Z</time>
      </trkpt>
      <trkpt lat="62.637918834897" lon="17.731074193665">
        <ele>80.4</ele>
        <time>2018-04-01T12:12:09Z</time>
      </trkpt>
      <trkpt lat="62.637935263421" lon="17.730920972533">
        <ele>80.2</ele>
        <time>2018-04-01T12:12:10Z</time>
      </trkpt>
      <trkpt lat="62.637952865411" lon="17.730786107762">
        <ele>80.2</ele>
        <time>2018-04-01T12:12:11Z</time>
      </trkpt>
      <trkpt lat="62.637973652523" lon="17.730643866919">
        <ele>80</ele>
        <time>2018-04-01T12:12:12Z</time>
      </trkpt>
      <trkpt lat="62.637995613101" lon="17.730493160357">
        <ele>80</ele>
        <time>2018-04-01T12:12:13Z</time>
      </trkpt>
      <trkpt lat="62.638016064937" lon="17.73035125479">
        <ele>79.8</ele>
        <time>2018-04-01T12:12:14Z</time>
      </trkpt>
      <trkpt lat="62.638037354963" lon="17.730208427214">
        <ele>79.8</ele>
        <time>2018-04-01T12:12:15Z</time>
      </trkpt>
      <trkpt lat="62.638059147903" lon="17.730064761448">
        <ele>79.8</ele>
        <time>2018-04-01T12:12:16Z</time>
      </trkpt>
      <trkpt lat="62.638080605567" lon="17.729942050432">
        <ele>79.8</ele>
        <time>2018-04-01T12:12:17Z</time>
      </trkpt>
      <trkpt lat="62.638110948045" lon="17.729784135436">
        <ele>79.8</ele>
        <time>2018-04-01T12:12:18Z</time>
      </trkpt>
      <trkpt lat="62.6381398656" lon="17.729644241525">
        <ele>79.8</ele>
        <time>2018-04-01T12:12:19Z</time>
      </trkpt>
      <trkpt lat="62.638167358232" lon="17.729505688718">
        <ele>79.8</ele>
        <time>2018-04-01T12:12:20Z</time>
      </trkpt>
      <trkpt lat="62.638194850864" lon="17.729376523639">
        <ele>79.6</ele>
        <time>2018-04-01T12:12:21Z</time>
      </trkpt>
      <trkpt lat="62.638224355152" lon="17.729247190922">
        <ele>79.6</ele>
        <time>2018-04-01T12:12:22Z</time>
      </trkpt>
      <trkpt lat="62.63825553582" lon="17.729119618404">
        <ele>79.4</ele>
        <time>2018-04-01T12:12:23Z</time>
      </trkpt>
      <trkpt lat="62.638290991257" lon="17.728984502176">
        <ele>79.2</ele>
        <time>2018-04-01T12:12:24Z</time>
      </trkpt>
      <trkpt lat="62.638329464178" lon="17.728845530274">
        <ele>79.2</ele>
        <time>2018-04-01T12:12:25Z</time>
      </trkpt>
      <trkpt lat="62.638365003434" lon="17.728722148706">
        <ele>79.2</ele>
        <time>2018-04-01T12:12:26Z</time>
      </trkpt>
      <trkpt lat="62.638399369224" lon="17.728606478486">
        <ele>79.2</ele>
        <time>2018-04-01T12:12:27Z</time>
      </trkpt>
      <trkpt lat="62.63843909943" lon="17.728474212104">
        <ele>79</ele>
        <time>2018-04-01T12:12:28Z</time>
      </trkpt>
      <trkpt lat="62.638474387229" lon="17.72836055354">
        <ele>79</ele>
        <time>2018-04-01T12:12:29Z</time>
      </trkpt>
      <trkpt lat="62.638515877634" lon="17.728235244135">
        <ele>79</ele>
        <time>2018-04-01T12:12:30Z</time>
      </trkpt>
      <trkpt lat="62.638553596184" lon="17.728120328286">
        <ele>79</ele>
        <time>2018-04-01T12:12:31Z</time>
      </trkpt>
      <trkpt lat="62.638590560363" lon="17.7280118665">
        <ele>78.8</ele>
        <time>2018-04-01T12:12:32Z</time>
      </trkpt>
      <trkpt lat="62.638630709664" lon="17.727891586235">
        <ele>78.8</ele>
        <time>2018-04-01T12:12:33Z</time>
      </trkpt>
      <trkpt lat="62.638667506205" lon="17.72777968787">
        <ele>78.6</ele>
        <time>2018-04-01T12:12:34Z</time>
      </trkpt>
      <trkpt lat="62.638704051289" lon="17.72766988498">
        <ele>78.6</ele>
        <time>2018-04-01T12:12:35Z</time>
      </trkpt>
      <trkpt lat="62.638744535866" lon="17.727548179792">
        <ele>78.4</ele>
        <time>2018-04-01T12:12:36Z</time>
      </trkpt>
      <trkpt lat="62.63878024276" lon="17.7274418973">
        <ele>78.4</ele>
        <time>2018-04-01T12:12:37Z</time>
      </trkpt>
      <trkpt lat="62.638821397889" lon="17.727319689198">
        <ele>78.4</ele>
        <time>2018-04-01T12:12:38Z</time>
      </trkpt>
      <trkpt lat="62.638858278249" lon="17.727209299575">
        <ele>78.4</ele>
        <time>2018-04-01T12:12:39Z</time>
      </trkpt>
      <trkpt lat="62.638899433378" lon="17.727085498912">
        <ele>78.2</ele>
        <time>2018-04-01T12:12:40Z</time>
      </trkpt>
      <trkpt lat="62.638934721177" lon="17.726974522556">
        <ele>78.2</ele>
        <time>2018-04-01T12:12:41Z</time>
      </trkpt>
      <trkpt lat="62.638970008976" lon="17.726859606707">
        <ele>78.2</ele>
        <time>2018-04-01T12:12:42Z</time>
      </trkpt>
      <trkpt lat="62.639008062802" lon="17.726730776904">
        <ele>78</ele>
        <time>2018-04-01T12:12:43Z</time>
      </trkpt>
      <trkpt lat="62.639042763868" lon="17.726609406992">
        <ele>78</ele>
        <time>2018-04-01T12:12:44Z</time>
      </trkpt>
      <trkpt lat="62.639077213477" lon="17.726486528338">
        <ele>77.8</ele>
        <time>2018-04-01T12:12:45Z</time>
      </trkpt>
      <trkpt lat="62.639111579267" lon="17.726362979132">
        <ele>77.8</ele>
        <time>2018-04-01T12:12:46Z</time>
      </trkpt>
      <trkpt lat="62.639141754107" lon="17.726250913129">
        <ele>77.8</ele>
        <time>2018-04-01T12:12:47Z</time>
      </trkpt>
      <trkpt lat="62.639180394666" lon="17.726107247363">
        <ele>77.8</ele>
        <time>2018-04-01T12:12:48Z</time>
      </trkpt>
      <trkpt lat="62.639215514827" lon="17.725977244094">
        <ele>77.8</ele>
        <time>2018-04-01T12:12:49Z</time>
      </trkpt>
      <trkpt lat="62.639247868961" lon="17.725851347956">
        <ele>77.8</ele>
        <time>2018-04-01T12:12:50Z</time>
      </trkpt>
      <trkpt lat="62.639280139276" lon="17.725723523981">
        <ele>77.8</ele>
        <time>2018-04-01T12:12:51Z</time>
      </trkpt>
      <trkpt lat="62.639308553917" lon="17.725606009743">
        <ele>77.6</ele>
        <time>2018-04-01T12:12:52Z</time>
      </trkpt>
      <trkpt lat="62.63933763911" lon="17.725478940139">
        <ele>77.6</ele>
        <time>2018-04-01T12:12:53Z</time>
      </trkpt>
      <trkpt lat="62.639366221389" lon="17.725349607422">
        <ele>77.6</ele>
        <time>2018-04-01T12:12:54Z</time>
      </trkpt>
      <trkpt lat="62.639397569695" lon="17.725209713511">
        <ele>77.4</ele>
        <time>2018-04-01T12:12:55Z</time>
      </trkpt>
      <trkpt lat="62.63942648725" lon="17.725080380794">
        <ele>77.4</ele>
        <time>2018-04-01T12:12:56Z</time>
      </trkpt>
      <trkpt lat="62.639452219683" lon="17.724961776909">
        <ele>77.2</ele>
        <time>2018-04-01T12:12:57Z</time>
      </trkpt>
      <trkpt lat="62.639479628496" lon="17.724827079776">
        <ele>77.2</ele>
        <time>2018-04-01T12:12:58Z</time>
      </trkpt>
      <trkpt lat="62.639503265454" lon="17.724705793683">
        <ele>77</ele>
        <time>2018-04-01T12:12:59Z</time>
      </trkpt>
      <trkpt lat="62.639530003715" lon="17.724567995247">
        <ele>77</ele>
        <time>2018-04-01T12:13:00Z</time>
      </trkpt>
      <trkpt lat="62.63955473032" lon="17.724442602023">
        <ele>77</ele>
        <time>2018-04-01T12:13:01Z</time>
      </trkpt>
      <trkpt lat="62.639577026174" lon="17.724327350898">
        <ele>76.8</ele>
        <time>2018-04-01T12:13:02Z</time>
      </trkpt>
      <trkpt lat="62.639600160218" lon="17.724202460588">
        <ele>76.8</ele>
        <time>2018-04-01T12:13:03Z</time>
      </trkpt>
      <trkpt lat="62.639619690045" lon="17.724088550567">
        <ele>76.8</ele>
        <time>2018-04-01T12:13:04Z</time>
      </trkpt>
      <trkpt lat="62.63963603475" lon="17.723986710482">
        <ele>76.6</ele>
        <time>2018-04-01T12:13:05Z</time>
      </trkpt>
      <trkpt lat="62.639653385283" lon="17.723876153221">
        <ele>76.6</ele>
        <time>2018-04-01T12:13:06Z</time>
      </trkpt>
      <trkpt lat="62.639669478531" lon="17.723791412212">
        <ele>76.6</ele>
        <time>2018-04-01T12:13:07Z</time>
      </trkpt>
      <trkpt lat="62.639689427453" lon="17.723713711999">
        <ele>76.6</ele>
        <time>2018-04-01T12:13:08Z</time>
      </trkpt>
      <trkpt lat="62.639707783814" lon="17.723655206337">
        <ele>76.6</ele>
        <time>2018-04-01T12:13:09Z</time>
      </trkpt>
      <trkpt lat="62.63972320651" lon="17.723599801978">
        <ele>76.6</ele>
        <time>2018-04-01T12:13:10Z</time>
      </trkpt>
      <trkpt lat="62.63972991203" lon="17.723566358197">
        <ele>76.6</ele>
        <time>2018-04-01T12:13:11Z</time>
      </trkpt>
      <trkpt lat="62.639728654745" lon="17.723564597998">
        <ele>76.6</ele>
        <time>2018-04-01T12:13:12Z</time>
      </trkpt>
      <trkpt lat="62.639729660573" lon="17.723568453672">
        <ele>76.6</ele>
        <time>2018-04-01T12:13:13Z</time>
      </trkpt>
      <trkpt lat="62.639566884075" lon="17.723862406905">
        <ele>76.6</ele>
        <time>2018-04-01T12:14:04Z</time>
      </trkpt>
      <trkpt lat="62.639560430012" lon="17.723914877599">
        <ele>76.4</ele>
        <time>2018-04-01T12:14:05Z</time>
      </trkpt>
      <trkpt lat="62.639547018972" lon="17.724011856182">
        <ele>76.4</ele>
        <time>2018-04-01T12:14:06Z</time>
      </trkpt>
      <trkpt lat="62.639536206321" lon="17.724086287454">
        <ele>76.4</ele>
        <time>2018-04-01T12:14:07Z</time>
      </trkpt>
      <trkpt lat="62.639522292367" lon="17.724167005151">
        <ele>76.6</ele>
        <time>2018-04-01T12:14:08Z</time>
      </trkpt>
      <trkpt lat="62.639506785852" lon="17.724241017328">
        <ele>76.4</ele>
        <time>2018-04-01T12:14:09Z</time>
      </trkpt>
      <trkpt lat="62.639491279337" lon="17.724315532419">
        <ele>76.6</ele>
        <time>2018-04-01T12:14:10Z</time>
      </trkpt>
      <trkpt lat="62.639476108098" lon="17.724390718062">
        <ele>76.4</ele>
        <time>2018-04-01T12:14:11Z</time>
      </trkpt>
      <trkpt lat="62.639460433945" lon="17.724479985297">
        <ele>76.4</ele>
        <time>2018-04-01T12:14:12Z</time>
      </trkpt>
      <trkpt lat="62.639444759792" lon="17.724576544785">
        <ele>76.4</ele>
        <time>2018-04-01T12:14:13Z</time>
      </trkpt>
      <trkpt lat="62.639429588553" lon="17.724664387097">
        <ele>76.4</ele>
        <time>2018-04-01T12:14:14Z</time>
      </trkpt>
      <trkpt lat="62.639413243848" lon="17.724763544974">
        <ele>76.4</ele>
        <time>2018-04-01T12:14:15Z</time>
      </trkpt>
      <trkpt lat="62.639397066781" lon="17.724867396715">
        <ele>76.4</ele>
        <time>2018-04-01T12:14:16Z</time>
      </trkpt>
      <trkpt lat="62.639378542782" lon="17.724958088873">
        <ele>76.4</ele>
        <time>2018-04-01T12:14:17Z</time>
      </trkpt>
      <trkpt lat="62.639354486729" lon="17.725067472668">
        <ele>76.4</ele>
        <time>2018-04-01T12:14:18Z</time>
      </trkpt>
      <trkpt lat="62.63933260997" lon="17.725166546726">
        <ele>76.4</ele>
        <time>2018-04-01T12:14:19Z</time>
      </trkpt>
      <trkpt lat="62.639309643564" lon="17.725266626612">
        <ele>76.6</ele>
        <time>2018-04-01T12:14:20Z</time>
      </trkpt>
      <trkpt lat="62.639287180072" lon="17.725364443385">
        <ele>76.6</ele>
        <time>2018-04-01T12:14:21Z</time>
      </trkpt>
      <trkpt lat="62.639266476779" lon="17.725456728104">
        <ele>76.6</ele>
        <time>2018-04-01T12:14:22Z</time>
      </trkpt>
      <trkpt lat="62.639246946952" lon="17.725552197945">
        <ele>76.6</ele>
        <time>2018-04-01T12:14:23Z</time>
      </trkpt>
      <trkpt lat="62.639223812908" lon="17.725658815713">
        <ele>76.8</ele>
        <time>2018-04-01T12:14:24Z</time>
      </trkpt>
      <trkpt lat="62.639200343588" lon="17.725753950278">
        <ele>76.8</ele>
        <time>2018-04-01T12:14:25Z</time>
      </trkpt>
      <trkpt lat="62.639173940603" lon="17.725845815902">
        <ele>76.8</ele>
        <time>2018-04-01T12:14:26Z</time>
      </trkpt>
      <trkpt lat="62.639150219826" lon="17.725933825852">
        <ele>77</ele>
        <time>2018-04-01T12:14:27Z</time>
      </trkpt>
      <trkpt lat="62.639124235936" lon="17.726036168851">
        <ele>77.2</ele>
        <time>2018-04-01T12:14:28Z</time>
      </trkpt>
      <trkpt lat="62.639102442996" lon="17.726121245136">
        <ele>77.2</ele>
        <time>2018-04-01T12:14:29Z</time>
      </trkpt>
      <trkpt lat="62.639073944536" lon="17.72622735999">
        <ele>77.4</ele>
        <time>2018-04-01T12:14:30Z</time>
      </trkpt>
      <trkpt lat="62.63905433089" lon="17.726297600312">
        <ele>77.4</ele>
        <time>2018-04-01T12:14:31Z</time>
      </trkpt>
      <trkpt lat="62.639023234041" lon="17.726413186713">
        <ele>77.4</ele>
        <time>2018-04-01T12:14:32Z</time>
      </trkpt>
      <trkpt lat="62.638994567943" lon="17.726512009314">
        <ele>77.4</ele>
        <time>2018-04-01T12:14:33Z</time>
      </trkpt>
      <trkpt lat="62.638967494406" lon="17.72661125101">
        <ele>77.6</ele>
        <time>2018-04-01T12:14:34Z</time>
      </trkpt>
      <trkpt lat="62.638940420869" lon="17.726702697539">
        <ele>77.6</ele>
        <time>2018-04-01T12:14:35Z</time>
      </trkpt>
      <trkpt lat="62.638909407839" lon="17.726804118529">
        <ele>77.6</ele>
        <time>2018-04-01T12:14:36Z</time>
      </trkpt>
      <trkpt lat="62.638880993198" lon="17.726895732696">
        <ele>77.6</ele>
        <time>2018-04-01T12:14:37Z</time>
      </trkpt>
      <trkpt lat="62.638848219969" lon="17.727002099007">
        <ele>77.6</ele>
        <time>2018-04-01T12:14:38Z</time>
      </trkpt>
      <trkpt lat="62.638814776188" lon="17.727100418694">
        <ele>77.8</ele>
        <time>2018-04-01T12:14:39Z</time>
      </trkpt>
      <trkpt lat="62.6387852719" lon="17.727194128336">
        <ele>77.8</ele>
        <time>2018-04-01T12:14:40Z</time>
      </trkpt>
      <trkpt lat="62.638756941078" lon="17.727286413055">
        <ele>78</ele>
        <time>2018-04-01T12:14:41Z</time>
      </trkpt>
      <trkpt lat="62.638727352971" lon="17.727380206516">
        <ele>78</ele>
        <time>2018-04-01T12:14:42Z</time>
      </trkpt>
      <trkpt lat="62.638694328285" lon="17.727480705497">
        <ele>78</ele>
        <time>2018-04-01T12:14:43Z</time>
      </trkpt>
      <trkpt lat="62.638665997463" lon="17.727569469818">
        <ele>78</ele>
        <time>2018-04-01T12:14:44Z</time>
      </trkpt>
      <trkpt lat="62.638633894786" lon="17.727668292419">
        <ele>78</ele>
        <time>2018-04-01T12:14:45Z</time>
      </trkpt>
      <trkpt lat="62.638603468489" lon="17.727762002061">
        <ele>78</ele>
        <time>2018-04-01T12:14:46Z</time>
      </trkpt>
      <trkpt lat="62.638577149323" lon="17.727846659251">
        <ele>78.2</ele>
        <time>2018-04-01T12:14:47Z</time>
      </trkpt>
      <trkpt lat="62.638543454085" lon="17.727955540132">
        <ele>78.2</ele>
        <time>2018-04-01T12:14:48Z</time>
      </trkpt>
      <trkpt lat="62.638513614521" lon="17.72805126143">
        <ele>78.2</ele>
        <time>2018-04-01T12:14:49Z</time>
      </trkpt>
      <trkpt lat="62.638483439681" lon="17.728148072375">
        <ele>78.4</ele>
        <time>2018-04-01T12:14:50Z</time>
      </trkpt>
      <trkpt lat="62.638453851574" lon="17.72824236875">
        <ele>78.4</ele>
        <time>2018-04-01T12:14:51Z</time>
      </trkpt>
      <trkpt lat="62.638425017838" lon="17.728326774483">
        <ele>78.4</ele>
        <time>2018-04-01T12:14:52Z</time>
      </trkpt>
      <trkpt lat="62.638395178274" lon="17.728422328143">
        <ele>78.6</ele>
        <time>2018-04-01T12:14:53Z</time>
      </trkpt>
      <trkpt lat="62.63836450052" lon="17.728519139088">
        <ele>78.6</ele>
        <time>2018-04-01T12:14:54Z</time>
      </trkpt>
      <trkpt lat="62.638337007888" lon="17.728610585617">
        <ele>78.6</ele>
        <time>2018-04-01T12:14:55Z</time>
      </trkpt>
      <trkpt lat="62.638308844704" lon="17.728700774861">
        <ele>78.8</ele>
        <time>2018-04-01T12:14:56Z</time>
      </trkpt>
      <trkpt lat="62.638283531366" lon="17.728782833662">
        <ele>78.8</ele>
        <time>2018-04-01T12:14:57Z</time>
      </trkpt>
      <trkpt lat="62.638255368182" lon="17.728880398978">
        <ele>78.8</ele>
        <time>2018-04-01T12:14:58Z</time>
      </trkpt>
      <trkpt lat="62.6382320665" lon="17.728964553254">
        <ele>79</ele>
        <time>2018-04-01T12:14:59Z</time>
      </trkpt>
      <trkpt lat="62.638202226936" lon="17.729068237357">
        <ele>79</ele>
        <time>2018-04-01T12:15:00Z</time>
      </trkpt>
      <trkpt lat="62.638177667969" lon="17.729164126293">
        <ele>79</ele>
        <time>2018-04-01T12:15:01Z</time>
      </trkpt>
      <trkpt lat="62.638157299952" lon="17.729257081564">
        <ele>79</ele>
        <time>2018-04-01T12:15:02Z</time>
      </trkpt>
      <trkpt lat="62.638133830632" lon="17.729364537522">
        <ele>79</ele>
        <time>2018-04-01T12:15:03Z</time>
      </trkpt>
      <trkpt lat="62.638111031864" lon="17.729466629064">
        <ele>79</ele>
        <time>2018-04-01T12:15:04Z</time>
      </trkpt>
      <trkpt lat="62.638089909476" lon="17.729564529656">
        <ele>79.2</ele>
        <time>2018-04-01T12:15:05Z</time>
      </trkpt>
      <trkpt lat="62.63806526669" lon="17.729675086917">
        <ele>79.2</ele>
        <time>2018-04-01T12:15:06Z</time>
      </trkpt>
      <trkpt lat="62.638045569225" lon="17.729774747708">
        <ele>79.2</ele>
        <time>2018-04-01T12:15:07Z</time>
      </trkpt>
      <trkpt lat="62.638023189552" lon="17.729890837023">
        <ele>79.6</ele>
        <time>2018-04-01T12:15:08Z</time>
      </trkpt>
      <trkpt lat="62.638003156811" lon="17.729999885542">
        <ele>79.6</ele>
        <time>2018-04-01T12:15:09Z</time>
      </trkpt>
      <trkpt lat="62.637984716631" lon="17.730111364812">
        <ele>79.8</ele>
        <time>2018-04-01T12:15:10Z</time>
      </trkpt>
      <trkpt lat="62.637968288107" lon="17.730218569313">
        <ele>79.8</ele>
        <time>2018-04-01T12:15:11Z</time>
      </trkpt>
      <trkpt lat="62.63795043466" lon="17.730329378031">
        <ele>79.8</ele>
        <time>2018-04-01T12:15:12Z</time>
      </trkpt>
      <trkpt lat="62.637930569557" lon="17.730448401011">
        <ele>79.8</ele>
        <time>2018-04-01T12:15:13Z</time>
      </trkpt>
      <trkpt lat="62.637917661431" lon="17.730554683503">
        <ele>79.8</ele>
        <time>2018-04-01T12:15:14Z</time>
      </trkpt>
      <trkpt lat="62.637905256219" lon="17.730674125578">
        <ele>79.8</ele>
        <time>2018-04-01T12:15:15Z</time>
      </trkpt>
      <trkpt lat="62.637889749704" lon="17.730787029771">
        <ele>79.8</ele>
        <time>2018-04-01T12:15:16Z</time>
      </trkpt>
      <trkpt lat="62.637877931225" lon="17.730888618399">
        <ele>79.8</ele>
        <time>2018-04-01T12:15:17Z</time>
      </trkpt>
      <trkpt lat="62.637866950936" lon="17.731012670519">
        <ele>80</ele>
        <time>2018-04-01T12:15:18Z</time>
      </trkpt>
      <trkpt lat="62.637855300095" lon="17.731126412902">
        <ele>80</ele>
        <time>2018-04-01T12:15:19Z</time>
      </trkpt>
      <trkpt lat="62.637846163824" lon="17.731237053982">
        <ele>80.2</ele>
        <time>2018-04-01T12:15:20Z</time>
      </trkpt>
      <trkpt lat="62.637838284838" lon="17.731347192148">
        <ele>80.2</ele>
        <time>2018-04-01T12:15:21Z</time>
      </trkpt>
      <trkpt lat="62.637830238214" lon="17.731451211527">
        <ele>80.2</ele>
        <time>2018-04-01T12:15:22Z</time>
      </trkpt>
      <trkpt lat="62.63782302978" lon="17.731563109892">
        <ele>80.2</ele>
        <time>2018-04-01T12:15:23Z</time>
      </trkpt>
      <trkpt lat="62.637815066975" lon="17.731678780112">
        <ele>80.2</ele>
        <time>2018-04-01T12:15:24Z</time>
      </trkpt>
      <trkpt lat="62.637807355627" lon="17.731791181391">
        <ele>80.2</ele>
        <time>2018-04-01T12:15:25Z</time>
      </trkpt>
      <trkpt lat="62.637799979555" lon="17.731902912118">
        <ele>80.4</ele>
        <time>2018-04-01T12:15:26Z</time>
      </trkpt>
      <trkpt lat="62.637793274035" lon="17.732008188782">
        <ele>80.4</ele>
        <time>2018-04-01T12:15:27Z</time>
      </trkpt>
      <trkpt lat="62.637786233239" lon="17.732129558694">
        <ele>80.4</ele>
        <time>2018-04-01T12:15:28Z</time>
      </trkpt>
      <trkpt lat="62.637779276262" lon="17.732232823702">
        <ele>80.4</ele>
        <time>2018-04-01T12:15:29Z</time>
      </trkpt>
      <trkpt lat="62.637776426416" lon="17.732356540546">
        <ele>80.4</ele>
        <time>2018-04-01T12:15:30Z</time>
      </trkpt>
      <trkpt lat="62.637771648733" lon="17.732472629861">
        <ele>80.6</ele>
        <time>2018-04-01T12:15:31Z</time>
      </trkpt>
      <trkpt lat="62.637767122507" lon="17.732580002">
        <ele>80.6</ele>
        <time>2018-04-01T12:15:32Z</time>
      </trkpt>
      <trkpt lat="62.637759578797" lon="17.732704557034">
        <ele>80.6</ele>
        <time>2018-04-01T12:15:33Z</time>
      </trkpt>
      <trkpt lat="62.637757148046" lon="17.732823496195">
        <ele>80.6</ele>
        <time>2018-04-01T12:15:34Z</time>
      </trkpt>
      <trkpt lat="62.637752454182" lon="17.732937154759">
        <ele>80.6</ele>
        <time>2018-04-01T12:15:35Z</time>
      </trkpt>
      <trkpt lat="62.637747341223" lon="17.733061039241">
        <ele>80.6</ele>
        <time>2018-04-01T12:15:36Z</time>
      </trkpt>
      <trkpt lat="62.637744323739" lon="17.733170674493">
        <ele>80.8</ele>
        <time>2018-04-01T12:15:37Z</time>
      </trkpt>
      <trkpt lat="62.637739629875" lon="17.73329413988">
        <ele>80.6</ele>
        <time>2018-04-01T12:15:38Z</time>
      </trkpt>
      <trkpt lat="62.637733594907" lon="17.733411235023">
        <ele>80.8</ele>
        <time>2018-04-01T12:15:39Z</time>
      </trkpt>
      <trkpt lat="62.637729655414" lon="17.733526234691">
        <ele>80.8</ele>
        <time>2018-04-01T12:15:40Z</time>
      </trkpt>
      <trkpt lat="62.637726135016" lon="17.733634780296">
        <ele>81</ele>
        <time>2018-04-01T12:15:41Z</time>
      </trkpt>
      <trkpt lat="62.637721357333" lon="17.733747516851">
        <ele>81</ele>
        <time>2018-04-01T12:15:42Z</time>
      </trkpt>
      <trkpt lat="62.637720854419" lon="17.733865701641">
        <ele>81.2</ele>
        <time>2018-04-01T12:15:43Z</time>
      </trkpt>
      <trkpt lat="62.637716244374" lon="17.733974498703">
        <ele>81.2</ele>
        <time>2018-04-01T12:15:44Z</time>
      </trkpt>
      <trkpt lat="62.637710041768" lon="17.734095700977">
        <ele>81.2</ele>
        <time>2018-04-01T12:15:45Z</time>
      </trkpt>
      <trkpt lat="62.637707191922" lon="17.734209778636">
        <ele>81.2</ele>
        <time>2018-04-01T12:15:46Z</time>
      </trkpt>
      <trkpt lat="62.637701073135" lon="17.734310445255">
        <ele>81.4</ele>
        <time>2018-04-01T12:15:47Z</time>
      </trkpt>
      <trkpt lat="62.637695457262" lon="17.734440113248">
        <ele>81.4</ele>
        <time>2018-04-01T12:15:48Z</time>
      </trkpt>
      <trkpt lat="62.637692188321" lon="17.734551843975">
        <ele>81.4</ele>
        <time>2018-04-01T12:15:49Z</time>
      </trkpt>
      <trkpt lat="62.637689170837" lon="17.734668017109">
        <ele>81.4</ele>
        <time>2018-04-01T12:15:50Z</time>
      </trkpt>
      <trkpt lat="62.637684057878" lon="17.734785866623">
        <ele>81.4</ele>
        <time>2018-04-01T12:15:51Z</time>
      </trkpt>
      <trkpt lat="62.637676597987" lon="17.734896423884">
        <ele>81.2</ele>
        <time>2018-04-01T12:15:52Z</time>
      </trkpt>
      <trkpt lat="62.637668719001" lon="17.735016285054">
        <ele>81.2</ele>
        <time>2018-04-01T12:15:53Z</time>
      </trkpt>
      <trkpt lat="62.637662516395" lon="17.735143857572">
        <ele>81.4</ele>
        <time>2018-04-01T12:15:54Z</time>
      </trkpt>
      <trkpt lat="62.637656313789" lon="17.735268161149">
        <ele>81.4</ele>
        <time>2018-04-01T12:15:55Z</time>
      </trkpt>
      <trkpt lat="62.637648937717" lon="17.735390872165">
        <ele>81.4</ele>
        <time>2018-04-01T12:15:56Z</time>
      </trkpt>
      <trkpt lat="62.63764198074" lon="17.735511068611">
        <ele>81.4</ele>
        <time>2018-04-01T12:15:57Z</time>
      </trkpt>
      <trkpt lat="62.637635191401" lon="17.735645179011">
        <ele>81.2</ele>
        <time>2018-04-01T12:15:58Z</time>
      </trkpt>
      <trkpt lat="62.637630832813" lon="17.735760178679">
        <ele>81.2</ele>
        <time>2018-04-01T12:15:59Z</time>
      </trkpt>
      <trkpt lat="62.637623205284" lon="17.735900826961">
        <ele>81.2</ele>
        <time>2018-04-01T12:16:00Z</time>
      </trkpt>
      <trkpt lat="62.637616583583" lon="17.736032171334">
        <ele>81.2</ele>
        <time>2018-04-01T12:16:01Z</time>
      </trkpt>
      <trkpt lat="62.637608788416" lon="17.736153625065">
        <ele>81.2</ele>
        <time>2018-04-01T12:16:02Z</time>
      </trkpt>
      <trkpt lat="62.637603591638" lon="17.736292094053">
        <ele>81.2</ele>
        <time>2018-04-01T12:16:03Z</time>
      </trkpt>
      <trkpt lat="62.637596467023" lon="17.736426707367">
        <ele>81.2</ele>
        <time>2018-04-01T12:16:04Z</time>
      </trkpt>
      <trkpt lat="62.637588085123" lon="17.736553525514">
        <ele>81</ele>
        <time>2018-04-01T12:16:05Z</time>
      </trkpt>
      <trkpt lat="62.637579870861" lon="17.73668964757">
        <ele>81</ele>
        <time>2018-04-01T12:16:06Z</time>
      </trkpt>
      <trkpt lat="62.637575428454" lon="17.736809760197">
        <ele>81</ele>
        <time>2018-04-01T12:16:07Z</time>
      </trkpt>
      <trkpt lat="62.637568136201" lon="17.736959209474">
        <ele>80.8</ele>
        <time>2018-04-01T12:16:08Z</time>
      </trkpt>
      <trkpt lat="62.637560005758" lon="17.737094074245">
        <ele>80.8</ele>
        <time>2018-04-01T12:16:09Z</time>
      </trkpt>
      <trkpt lat="62.637554892799" lon="17.737215527976">
        <ele>80.8</ele>
        <time>2018-04-01T12:16:10Z</time>
      </trkpt>
      <trkpt lat="62.63754810346" lon="17.737346201797">
        <ele>80.6</ele>
        <time>2018-04-01T12:16:11Z</time>
      </trkpt>
      <trkpt lat="62.637539973017" lon="17.737482156215">
        <ele>80.4</ele>
        <time>2018-04-01T12:16:12Z</time>
      </trkpt>
      <trkpt lat="62.637532261669" lon="17.737630599664">
        <ele>80.4</ele>
        <time>2018-04-01T12:16:13Z</time>
      </trkpt>
      <trkpt lat="62.637525388511" lon="17.737761022028">
        <ele>80.2</ele>
        <time>2018-04-01T12:16:14Z</time>
      </trkpt>
      <trkpt lat="62.637516587516" lon="17.737909800753">
        <ele>80.2</ele>
        <time>2018-04-01T12:16:15Z</time>
      </trkpt>
      <trkpt lat="62.63750870853" lon="17.738038630556">
        <ele>80</ele>
        <time>2018-04-01T12:16:16Z</time>
      </trkpt>
      <trkpt lat="62.637500158992" lon="17.738158407907">
        <ele>80</ele>
        <time>2018-04-01T12:16:17Z</time>
      </trkpt>
      <trkpt lat="62.637488089056" lon="17.738307941003">
        <ele>79.8</ele>
        <time>2018-04-01T12:16:18Z</time>
      </trkpt>
      <trkpt lat="62.637477611681" lon="17.738439453014">
        <ele>79.8</ele>
        <time>2018-04-01T12:16:19Z</time>
      </trkpt>
      <trkpt lat="62.637464955012" lon="17.738571635577">
        <ele>79.6</ele>
        <time>2018-04-01T12:16:20Z</time>
      </trkpt>
      <trkpt lat="62.637453555628" lon="17.738704321054">
        <ele>79.6</ele>
        <time>2018-04-01T12:16:21Z</time>
      </trkpt>
      <trkpt lat="62.637441737149" lon="17.738826864432">
        <ele>79.6</ele>
        <time>2018-04-01T12:16:22Z</time>
      </trkpt>
      <trkpt lat="62.637430673041" lon="17.738955023683">
        <ele>79.6</ele>
        <time>2018-04-01T12:16:23Z</time>
      </trkpt>
      <trkpt lat="62.637418100191" lon="17.739091564834">
        <ele>79.6</ele>
        <time>2018-04-01T12:16:24Z</time>
      </trkpt>
      <trkpt lat="62.637406281712" lon="17.739217041877">
        <ele>79.6</ele>
        <time>2018-04-01T12:16:25Z</time>
      </trkpt>
      <trkpt lat="62.6373938765" lon="17.739333047373">
        <ele>79.4</ele>
        <time>2018-04-01T12:16:26Z</time>
      </trkpt>
      <trkpt lat="62.637381052193" lon="17.739454417285">
        <ele>79.4</ele>
        <time>2018-04-01T12:16:27Z</time>
      </trkpt>
      <trkpt lat="62.637367389696" lon="17.739588779142">
        <ele>79.4</ele>
        <time>2018-04-01T12:16:28Z</time>
      </trkpt>
      <trkpt lat="62.637353391923" lon="17.73970294062">
        <ele>79.4</ele>
        <time>2018-04-01T12:16:29Z</time>
      </trkpt>
      <trkpt lat="62.637337633951" lon="17.739828920577">
        <ele>79.4</ele>
        <time>2018-04-01T12:16:30Z</time>
      </trkpt>
      <trkpt lat="62.63732179216" lon="17.739957918018">
        <ele>79.4</ele>
        <time>2018-04-01T12:16:31Z</time>
      </trkpt>
      <trkpt lat="62.637306872378" lon="17.740073001505">
        <ele>79.6</ele>
        <time>2018-04-01T12:16:32Z</time>
      </trkpt>
      <trkpt lat="62.637289605664" lon="17.740206441353">
        <ele>79.6</ele>
        <time>2018-04-01T12:16:33Z</time>
      </trkpt>
      <trkpt lat="62.637274937339" lon="17.740329822921">
        <ele>79.8</ele>
        <time>2018-04-01T12:16:34Z</time>
      </trkpt>
      <trkpt lat="62.637260101376" lon="17.740447504797">
        <ele>79.8</ele>
        <time>2018-04-01T12:16:35Z</time>
      </trkpt>
      <trkpt lat="62.637242415567" lon="17.74057549641">
        <ele>80</ele>
        <time>2018-04-01T12:16:36Z</time>
      </trkpt>
      <trkpt lat="62.637227831061" lon="17.740686556585">
        <ele>80</ele>
        <time>2018-04-01T12:16:37Z</time>
      </trkpt>
      <trkpt lat="62.637210396709" lon="17.740816140759">
        <ele>80</ele>
        <time>2018-04-01T12:16:38Z</time>
      </trkpt>
      <trkpt lat="62.637193632909" lon="17.74094094725">
        <ele>80</ele>
        <time>2018-04-01T12:16:39Z</time>
      </trkpt>
      <trkpt lat="62.637177036747" lon="17.741065502284">
        <ele>80</ele>
        <time>2018-04-01T12:16:40Z</time>
      </trkpt>
      <trkpt lat="62.637162116965" lon="17.741183519436">
        <ele>80</ele>
        <time>2018-04-01T12:16:41Z</time>
      </trkpt>
      <trkpt lat="62.637145436984" lon="17.741307739194">
        <ele>80</ele>
        <time>2018-04-01T12:16:42Z</time>
      </trkpt>
      <trkpt lat="62.637126829166" lon="17.741442603965">
        <ele>80</ele>
        <time>2018-04-01T12:16:43Z</time>
      </trkpt>
      <trkpt lat="62.63710973009" lon="17.741560034384">
        <ele>79.8</ele>
        <time>2018-04-01T12:16:44Z</time>
      </trkpt>
      <trkpt lat="62.637094223575" lon="17.741682326305">
        <ele>80</ele>
        <time>2018-04-01T12:16:45Z</time>
      </trkpt>
      <trkpt lat="62.637077124499" lon="17.741808306262">
        <ele>80</ele>
        <time>2018-04-01T12:16:46Z</time>
      </trkpt>
      <trkpt lat="62.63706362964" lon="17.741919198799">
        <ele>80</ele>
        <time>2018-04-01T12:16:47Z</time>
      </trkpt>
      <trkpt lat="62.637046362926" lon="17.742057500149">
        <ele>80</ele>
        <time>2018-04-01T12:16:48Z</time>
      </trkpt>
      <trkpt lat="62.637030772592" lon="17.742178870061">
        <ele>80.2</ele>
        <time>2018-04-01T12:16:49Z</time>
      </trkpt>
      <trkpt lat="62.637016439543" lon="17.742300072335">
        <ele>80.2</ele>
        <time>2018-04-01T12:16:50Z</time>
      </trkpt>
      <trkpt lat="62.637004537245" lon="17.742422448075">
        <ele>80</ele>
        <time>2018-04-01T12:16:51Z</time>
      </trkpt>
      <trkpt lat="62.636991629119" lon="17.74253937558">
        <ele>80.2</ele>
        <time>2018-04-01T12:16:52Z</time>
      </trkpt>
      <trkpt lat="62.636979056269" lon="17.742662757148">
        <ele>80.2</ele>
        <time>2018-04-01T12:16:53Z</time>
      </trkpt>
      <trkpt lat="62.636965477591" lon="17.74279418534">
        <ele>80.2</ele>
        <time>2018-04-01T12:16:54Z</time>
      </trkpt>
      <trkpt lat="62.636953240017" lon="17.742922009315">
        <ele>80.2</ele>
        <time>2018-04-01T12:16:55Z</time>
      </trkpt>
      <trkpt lat="62.636943181737" lon="17.743051006756">
        <ele>80.2</ele>
        <time>2018-04-01T12:16:56Z</time>
      </trkpt>
      <trkpt lat="62.636932536724" lon="17.743170113555">
        <ele>80.2</ele>
        <time>2018-04-01T12:16:57Z</time>
      </trkpt>
      <trkpt lat="62.636921053521" lon="17.743307576715">
        <ele>80.2</ele>
        <time>2018-04-01T12:16:58Z</time>
      </trkpt>
      <trkpt lat="62.636912839259" lon="17.743424252763">
        <ele>80.2</ele>
        <time>2018-04-01T12:16:59Z</time>
      </trkpt>
      <trkpt lat="62.636903702988" lon="17.743569343452">
        <ele>80.2</ele>
        <time>2018-04-01T12:17:00Z</time>
      </trkpt>
      <trkpt lat="62.63689599164" lon="17.743699681997">
        <ele>80.2</ele>
        <time>2018-04-01T12:17:01Z</time>
      </trkpt>
      <trkpt lat="62.636889872853" lon="17.743821471004">
        <ele>80.2</ele>
        <time>2018-04-01T12:17:02Z</time>
      </trkpt>
      <trkpt lat="62.636885765722" lon="17.743961951648">
        <ele>80.2</ele>
        <time>2018-04-01T12:17:03Z</time>
      </trkpt>
      <trkpt lat="62.636882077686" lon="17.744094888582">
        <ele>80.2</ele>
        <time>2018-04-01T12:17:04Z</time>
      </trkpt>
      <trkpt lat="62.636876964727" lon="17.744219527435">
        <ele>80.2</ele>
        <time>2018-04-01T12:17:05Z</time>
      </trkpt>
      <trkpt lat="62.636872187044" lon="17.744358583156">
        <ele>80.2</ele>
        <time>2018-04-01T12:17:06Z</time>
      </trkpt>
      <trkpt lat="62.636871600311" lon="17.744482635276">
        <ele>80.4</ele>
        <time>2018-04-01T12:17:07Z</time>
      </trkpt>
      <trkpt lat="62.636871851768" lon="17.74462143954">
        <ele>80.4</ele>
        <time>2018-04-01T12:17:08Z</time>
      </trkpt>
      <trkpt lat="62.636872689958" lon="17.744755633759">
        <ele>80.2</ele>
        <time>2018-04-01T12:17:09Z</time>
      </trkpt>
      <trkpt lat="62.636872689958" lon="17.744891671996">
        <ele>80.4</ele>
        <time>2018-04-01T12:17:10Z</time>
      </trkpt>
      <trkpt lat="62.636873276691" lon="17.745017987229">
        <ele>80.4</ele>
        <time>2018-04-01T12:17:11Z</time>
      </trkpt>
      <trkpt lat="62.636874366338" lon="17.745146900851">
        <ele>80.2</ele>
        <time>2018-04-01T12:17:12Z</time>
      </trkpt>
      <trkpt lat="62.636876294175" lon="17.745292075359">
        <ele>80.2</ele>
        <time>2018-04-01T12:17:13Z</time>
      </trkpt>
      <trkpt lat="62.636876461813" lon="17.745419228782">
        <ele>80.2</ele>
        <time>2018-04-01T12:17:14Z</time>
      </trkpt>
      <trkpt lat="62.636876042718" lon="17.745561972539">
        <ele>80.2</ele>
        <time>2018-04-01T12:17:15Z</time>
      </trkpt>
      <trkpt lat="62.636878222012" lon="17.7456976755">
        <ele>80.2</ele>
        <time>2018-04-01T12:17:16Z</time>
      </trkpt>
      <trkpt lat="62.636879395478" lon="17.745815189738">
        <ele>80.2</ele>
        <time>2018-04-01T12:17:17Z</time>
      </trkpt>
      <trkpt lat="62.636881239496" lon="17.745963884644">
        <ele>80.2</ele>
        <time>2018-04-01T12:17:18Z</time>
      </trkpt>
      <trkpt lat="62.636883502609" lon="17.746099084691">
        <ele>80.2</ele>
        <time>2018-04-01T12:17:19Z</time>
      </trkpt>
      <trkpt lat="62.636884843713" lon="17.746233865643">
        <ele>80.2</ele>
        <time>2018-04-01T12:17:20Z</time>
      </trkpt>
      <trkpt lat="62.636887106826" lon="17.746369317147">
        <ele>80.2</ele>
        <time>2018-04-01T12:17:21Z</time>
      </trkpt>
      <trkpt lat="62.636889705215" lon="17.746496722027">
        <ele>80.2</ele>
        <time>2018-04-01T12:17:22Z</time>
      </trkpt>
      <trkpt lat="62.636891884509" lon="17.746634269006">
        <ele>80.2</ele>
        <time>2018-04-01T12:17:23Z</time>
      </trkpt>
      <trkpt lat="62.636895237269" lon="17.746779694971">
        <ele>80.2</ele>
        <time>2018-04-01T12:17:24Z</time>
      </trkpt>
      <trkpt lat="62.636895404907" lon="17.74691640376">
        <ele>80.2</ele>
        <time>2018-04-01T12:17:25Z</time>
      </trkpt>
      <trkpt lat="62.636895488726" lon="17.747051771445">
        <ele>80.2</ele>
        <time>2018-04-01T12:17:26Z</time>
      </trkpt>
      <trkpt lat="62.636894147622" lon="17.747179008687">
        <ele>80.2</ele>
        <time>2018-04-01T12:17:27Z</time>
      </trkpt>
      <trkpt lat="62.63689180069" lon="17.747322674453">
        <ele>80</ele>
        <time>2018-04-01T12:17:28Z</time>
      </trkpt>
      <trkpt lat="62.636890291948" lon="17.747444212003">
        <ele>80</ele>
        <time>2018-04-01T12:17:29Z</time>
      </trkpt>
      <trkpt lat="62.636888196473" lon="17.747589218873">
        <ele>80</ele>
        <time>2018-04-01T12:17:30Z</time>
      </trkpt>
      <trkpt lat="62.636886520093" lon="17.747720898522">
        <ele>80</ele>
        <time>2018-04-01T12:17:31Z</time>
      </trkpt>
      <trkpt lat="62.636884424618" lon="17.747814272888">
        <ele>80</ele>
        <time>2018-04-01T12:17:32Z</time>
      </trkpt>
      <trkpt lat="62.636879563116" lon="17.747983503449">
        <ele>80</ele>
        <time>2018-04-01T12:17:33Z</time>
      </trkpt>
      <trkpt lat="62.636874450157" lon="17.748114596365">
        <ele>80</ele>
        <time>2018-04-01T12:17:34Z</time>
      </trkpt>
      <trkpt lat="62.636870091569" lon="17.748237307381">
        <ele>80.2</ele>
        <time>2018-04-01T12:17:35Z</time>
      </trkpt>
      <trkpt lat="62.636865481524" lon="17.748368735573">
        <ele>80</ele>
        <time>2018-04-01T12:17:36Z</time>
      </trkpt>
      <trkpt lat="62.636860368565" lon="17.748497900652">
        <ele>80</ele>
        <time>2018-04-01T12:17:37Z</time>
      </trkpt>
      <trkpt lat="62.636853411588" lon="17.748637626925">
        <ele>80</ele>
        <time>2018-04-01T12:17:38Z</time>
      </trkpt>
      <trkpt lat="62.636845364964" lon="17.74876964185">
        <ele>80.2</ele>
        <time>2018-04-01T12:17:39Z</time>
      </trkpt>
      <trkpt lat="62.63683564196" lon="17.748900818585">
        <ele>80.2</ele>
        <time>2018-04-01T12:17:40Z</time>
      </trkpt>
      <trkpt lat="62.636826170413" lon="17.749025373619">
        <ele>80.2</ele>
        <time>2018-04-01T12:17:41Z</time>
      </trkpt>
      <trkpt lat="62.636815860676" lon="17.749159064924">
        <ele>80.2</ele>
        <time>2018-04-01T12:17:42Z</time>
      </trkpt>
      <trkpt lat="62.636801695265" lon="17.749304909984">
        <ele>80.2</ele>
        <time>2018-04-01T12:17:43Z</time>
      </trkpt>
      <trkpt lat="62.63678870332" lon="17.749443881886">
        <ele>80.2</ele>
        <time>2018-04-01T12:17:44Z</time>
      </trkpt>
      <trkpt lat="62.636776046651" lon="17.749573214603">
        <ele>80.2</ele>
        <time>2018-04-01T12:17:45Z</time>
      </trkpt>
      <trkpt lat="62.636761462145" lon="17.749719059663">
        <ele>80.2</ele>
        <time>2018-04-01T12:17:46Z</time>
      </trkpt>
      <trkpt lat="62.636746710001" lon="17.749844788163">
        <ele>80.2</ele>
        <time>2018-04-01T12:17:47Z</time>
      </trkpt>
      <trkpt lat="62.636728269821" lon="17.750005050091">
        <ele>80.2</ele>
        <time>2018-04-01T12:17:48Z</time>
      </trkpt>
      <trkpt lat="62.636710332555" lon="17.750150895151">
        <ele>80</ele>
        <time>2018-04-01T12:17:49Z</time>
      </trkpt>
      <trkpt lat="62.636693568755" lon="17.750302356084">
        <ele>79.8</ele>
        <time>2018-04-01T12:17:50Z</time>
      </trkpt>
      <trkpt lat="62.636678648973" lon="17.750445854212">
        <ele>79.8</ele>
        <time>2018-04-01T12:17:51Z</time>
      </trkpt>
      <trkpt lat="62.636661046983" lon="17.750601254638">
        <ele>79.6</ele>
        <time>2018-04-01T12:17:52Z</time>
      </trkpt>
      <trkpt lat="62.636642942079" lon="17.750758918177">
        <ele>79.4</ele>
        <time>2018-04-01T12:17:53Z</time>
      </trkpt>
      <trkpt lat="62.636623160795" lon="17.750931501498">
        <ele>79.2</ele>
        <time>2018-04-01T12:17:54Z</time>
      </trkpt>
      <trkpt lat="62.636604552977" lon="17.751089332675">
        <ele>78.8</ele>
        <time>2018-04-01T12:17:55Z</time>
      </trkpt>
      <trkpt lat="62.636585358426" lon="17.751243308178">
        <ele>78.4</ele>
        <time>2018-04-01T12:17:56Z</time>
      </trkpt>
      <trkpt lat="62.636567756436" lon="17.751393260369">
        <ele>78.2</ele>
        <time>2018-04-01T12:17:57Z</time>
      </trkpt>
      <trkpt lat="62.636547975152" lon="17.751565424595">
        <ele>77.8</ele>
        <time>2018-04-01T12:17:58Z</time>
      </trkpt>
      <trkpt lat="62.636531211352" lon="17.751711018198">
        <ele>77.6</ele>
        <time>2018-04-01T12:17:59Z</time>
      </trkpt>
      <trkpt lat="62.636512603534" lon="17.751875219619">
        <ele>77.4</ele>
        <time>2018-04-01T12:18:00Z</time>
      </trkpt>
      <trkpt lat="62.636494917725" lon="17.75202684819">
        <ele>77.2</ele>
        <time>2018-04-01T12:18:01Z</time>
      </trkpt>
      <trkpt lat="62.636478405382" lon="17.752167915567">
        <ele>77</ele>
        <time>2018-04-01T12:18:02Z</time>
      </trkpt>
      <trkpt lat="62.636458037365" lon="17.752325830563">
        <ele>77</ele>
        <time>2018-04-01T12:18:03Z</time>
      </trkpt>
      <trkpt lat="62.636437920805" lon="17.752476201849">
        <ele>77</ele>
        <time>2018-04-01T12:18:04Z</time>
      </trkpt>
      <trkpt lat="62.636421492281" lon="17.752615592846">
        <ele>76.8</ele>
        <time>2018-04-01T12:18:05Z</time>
      </trkpt>
      <trkpt lat="62.63640397411" lon="17.752766634684">
        <ele>76.8</ele>
        <time>2018-04-01T12:18:06Z</time>
      </trkpt>
      <trkpt lat="62.636385701568" lon="17.752915413409">
        <ele>76.8</ele>
        <time>2018-04-01T12:18:07Z</time>
      </trkpt>
      <trkpt lat="62.636367177569" lon="17.753071568206">
        <ele>76.6</ele>
        <time>2018-04-01T12:18:08Z</time>
      </trkpt>
      <trkpt lat="62.636351335778" lon="17.753220011655">
        <ele>76.6</ele>
        <time>2018-04-01T12:18:09Z</time>
      </trkpt>
      <trkpt lat="62.636336499815" lon="17.753366946362">
        <ele>76.4</ele>
        <time>2018-04-01T12:18:10Z</time>
      </trkpt>
      <trkpt lat="62.636321412395" lon="17.753504409522">
        <ele>76.4</ele>
        <time>2018-04-01T12:18:11Z</time>
      </trkpt>
      <trkpt lat="62.636305235328" lon="17.753647488555">
        <ele>76.4</ele>
        <time>2018-04-01T12:18:12Z</time>
      </trkpt>
      <trkpt lat="62.636286878967" lon="17.753797189289">
        <ele>76.2</ele>
        <time>2018-04-01T12:18:13Z</time>
      </trkpt>
      <trkpt lat="62.63626902552" lon="17.753940016865">
        <ele>76.2</ele>
        <time>2018-04-01T12:18:14Z</time>
      </trkpt>
      <trkpt lat="62.636251926444" lon="17.754078653491">
        <ele>76</ele>
        <time>2018-04-01T12:18:15Z</time>
      </trkpt>
      <trkpt lat="62.63623382154" lon="17.754221061972">
        <ele>76</ele>
        <time>2018-04-01T12:18:16Z</time>
      </trkpt>
      <trkpt lat="62.63621873412" lon="17.754347125748">
        <ele>75.8</ele>
        <time>2018-04-01T12:18:17Z</time>
      </trkpt>
      <trkpt lat="62.636200210121" lon="17.754507387676">
        <ele>75.8</ele>
        <time>2018-04-01T12:18:18Z</time>
      </trkpt>
      <trkpt lat="62.636181769941" lon="17.754651640175">
        <ele>75.8</ele>
        <time>2018-04-01T12:18:19Z</time>
      </trkpt>
      <trkpt lat="62.636162156295" lon="17.754793210466">
        <ele>75.8</ele>
        <time>2018-04-01T12:18:20Z</time>
      </trkpt>
      <trkpt lat="62.636143967572" lon="17.754926817952">
        <ele>75.6</ele>
        <time>2018-04-01T12:18:21Z</time>
      </trkpt>
      <trkpt lat="62.636123012822" lon="17.755066711863">
        <ele>75.6</ele>
        <time>2018-04-01T12:18:22Z</time>
      </trkpt>
      <trkpt lat="62.636101471339" lon="17.755207360145">
        <ele>75.4</ele>
        <time>2018-04-01T12:18:23Z</time>
      </trkpt>
      <trkpt lat="62.636080684227" lon="17.755354211033">
        <ele>75.4</ele>
        <time>2018-04-01T12:18:24Z</time>
      </trkpt>
      <trkpt lat="62.63605947802" lon="17.755492512383">
        <ele>75.4</ele>
        <time>2018-04-01T12:18:25Z</time>
      </trkpt>
      <trkpt lat="62.636036176338" lon="17.75562603605">
        <ele>75.4</ele>
        <time>2018-04-01T12:18:26Z</time>
      </trkpt>
      <trkpt lat="62.636015137769" lon="17.755751596912">
        <ele>75.4</ele>
        <time>2018-04-01T12:18:27Z</time>
      </trkpt>
      <trkpt lat="62.635990662621" lon="17.755895765592">
        <ele>75.4</ele>
        <time>2018-04-01T12:18:28Z</time>
      </trkpt>
      <trkpt lat="62.635967444758" lon="17.756021577911">
        <ele>75.2</ele>
        <time>2018-04-01T12:18:29Z</time>
      </trkpt>
      <trkpt lat="62.635940203583" lon="17.756162058555">
        <ele>75.2</ele>
        <time>2018-04-01T12:18:30Z</time>
      </trkpt>
      <trkpt lat="62.635913465322" lon="17.756291307453">
        <ele>75</ele>
        <time>2018-04-01T12:18:31Z</time>
      </trkpt>
      <trkpt lat="62.635889073993" lon="17.756418377057">
        <ele>75</ele>
        <time>2018-04-01T12:18:32Z</time>
      </trkpt>
      <trkpt lat="62.635862419551" lon="17.756550391982">
        <ele>75</ele>
        <time>2018-04-01T12:18:33Z</time>
      </trkpt>
      <trkpt lat="62.635836100385" lon="17.756674779378">
        <ele>75</ele>
        <time>2018-04-01T12:18:34Z</time>
      </trkpt>
      <trkpt lat="62.635809781219" lon="17.756787432114">
        <ele>75</ele>
        <time>2018-04-01T12:18:35Z</time>
      </trkpt>
      <trkpt lat="62.635782120949" lon="17.756903689067">
        <ele>75.2</ele>
        <time>2018-04-01T12:18:36Z</time>
      </trkpt>
      <trkpt lat="62.635754963593" lon="17.757020532753">
        <ele>75.2</ele>
        <time>2018-04-01T12:18:37Z</time>
      </trkpt>
      <trkpt lat="62.635727219504" lon="17.75714148357">
        <ele>75.2</ele>
        <time>2018-04-01T12:18:38Z</time>
      </trkpt>
      <trkpt lat="62.635700565062" lon="17.757254723039">
        <ele>75.4</ele>
        <time>2018-04-01T12:18:39Z</time>
      </trkpt>
      <trkpt lat="62.635674245896" lon="17.757369052155">
        <ele>75.4</ele>
        <time>2018-04-01T12:18:40Z</time>
      </trkpt>
      <trkpt lat="62.635647339997" lon="17.757471562792">
        <ele>75.4</ele>
        <time>2018-04-01T12:18:41Z</time>
      </trkpt>
      <trkpt lat="62.63561942827" lon="17.757573486696">
        <ele>75.4</ele>
        <time>2018-04-01T12:18:42Z</time>
      </trkpt>
      <trkpt lat="62.635589337249" lon="17.757690078925">
        <ele>75.4</ele>
        <time>2018-04-01T12:18:43Z</time>
      </trkpt>
      <trkpt lat="62.63556159316" lon="17.757799881815">
        <ele>75.4</ele>
        <time>2018-04-01T12:18:44Z</time>
      </trkpt>
      <trkpt lat="62.635533681433" lon="17.757907337773">
        <ele>75.6</ele>
        <time>2018-04-01T12:18:45Z</time>
      </trkpt>
      <trkpt lat="62.63550711081" lon="17.75801487755">
        <ele>75.6</ele>
        <time>2018-04-01T12:18:46Z</time>
      </trkpt>
      <trkpt lat="62.635482970938" lon="17.758108168097">
        <ele>75.8</ele>
        <time>2018-04-01T12:18:47Z</time>
      </trkpt>
      <trkpt lat="62.635452377003" lon="17.758224676507">
        <ele>75.8</ele>
        <time>2018-04-01T12:18:48Z</time>
      </trkpt>
      <trkpt lat="62.635424213819" lon="17.758329031162">
        <ele>75.8</ele>
        <time>2018-04-01T12:18:49Z</time>
      </trkpt>
      <trkpt lat="62.635397140282" lon="17.758434056369">
        <ele>75.8</ele>
        <time>2018-04-01T12:18:50Z</time>
      </trkpt>
      <trkpt lat="62.635371910763" lon="17.75853287897">
        <ele>76</ele>
        <time>2018-04-01T12:18:51Z</time>
      </trkpt>
      <trkpt lat="62.635344418131" lon="17.758639664376">
        <ele>76</ele>
        <time>2018-04-01T12:18:52Z</time>
      </trkpt>
      <trkpt lat="62.63531600349" lon="17.75874494104">
        <ele>76</ele>
        <time>2018-04-01T12:18:53Z</time>
      </trkpt>
      <trkpt lat="62.635285912469" lon="17.758857761414">
        <ele>76.2</ele>
        <time>2018-04-01T12:18:54Z</time>
      </trkpt>
      <trkpt lat="62.635259174208" lon="17.758964714458">
        <ele>76.2</ele>
        <time>2018-04-01T12:18:55Z</time>
      </trkpt>
      <trkpt lat="62.635231933033" lon="17.759071499864">
        <ele>76.2</ele>
        <time>2018-04-01T12:18:56Z</time>
      </trkpt>
      <trkpt lat="62.635205027134" lon="17.759171998845">
        <ele>76.2</ele>
        <time>2018-04-01T12:18:57Z</time>
      </trkpt>
      <trkpt lat="62.635175271389" lon="17.759286747056">
        <ele>76.2</ele>
        <time>2018-04-01T12:18:58Z</time>
      </trkpt>
      <trkpt lat="62.635149371318" lon="17.759388922417">
        <ele>76.4</ele>
        <time>2018-04-01T12:18:59Z</time>
      </trkpt>
      <trkpt lat="62.635121124315" lon="17.75950434118">
        <ele>76.4</ele>
        <time>2018-04-01T12:19:00Z</time>
      </trkpt>
      <trkpt lat="62.635093128769" lon="17.759613389699">
        <ele>76.6</ele>
        <time>2018-04-01T12:19:01Z</time>
      </trkpt>
      <trkpt lat="62.63506706106" lon="17.759714307775">
        <ele>76.6</ele>
        <time>2018-04-01T12:19:02Z</time>
      </trkpt>
      <trkpt lat="62.635037640591" lon="17.759828888348">
        <ele>76.6</ele>
        <time>2018-04-01T12:19:03Z</time>
      </trkpt>
      <trkpt lat="62.635008639217" lon="17.759933243003">
        <ele>76.6</ele>
        <time>2018-04-01T12:19:04Z</time>
      </trkpt>
      <trkpt lat="62.634982990603" lon="17.760032065604">
        <ele>76.6</ele>
        <time>2018-04-01T12:19:05Z</time>
      </trkpt>
      <trkpt lat="62.634955330333" lon="17.76013633644">
        <ele>76.6</ele>
        <time>2018-04-01T12:19:06Z</time>
      </trkpt>
      <trkpt lat="62.634928089158" lon="17.760242954208">
        <ele>76.8</ele>
        <time>2018-04-01T12:19:07Z</time>
      </trkpt>
      <trkpt lat="62.634900177431" lon="17.760356696591">
        <ele>76.8</ele>
        <time>2018-04-01T12:19:08Z</time>
      </trkpt>
      <trkpt lat="62.634874193541" lon="17.760460380694">
        <ele>76.8</ele>
        <time>2018-04-01T12:19:09Z</time>
      </trkpt>
      <trkpt lat="62.634848628746" lon="17.760564483892">
        <ele>76.8</ele>
        <time>2018-04-01T12:19:10Z</time>
      </trkpt>
      <trkpt lat="62.634824153598" lon="17.760660624285">
        <ele>76.8</ele>
        <time>2018-04-01T12:19:11Z</time>
      </trkpt>
      <trkpt lat="62.634798504984" lon="17.760760368895">
        <ele>76.8</ele>
        <time>2018-04-01T12:19:12Z</time>
      </trkpt>
      <trkpt lat="62.634770509438" lon="17.760863969179">
        <ele>77</ele>
        <time>2018-04-01T12:19:13Z</time>
      </trkpt>
      <trkpt lat="62.634745279919" lon="17.760958684649">
        <ele>77</ele>
        <time>2018-04-01T12:19:14Z</time>
      </trkpt>
      <trkpt lat="62.634720720952" lon="17.761053651576">
        <ele>77</ele>
        <time>2018-04-01T12:19:15Z</time>
      </trkpt>
      <trkpt lat="62.634695910528" lon="17.761145181924">
        <ele>77.2</ele>
        <time>2018-04-01T12:19:16Z</time>
      </trkpt>
      <trkpt lat="62.634675374873" lon="17.761223217413">
        <ele>77.2</ele>
        <time>2018-04-01T12:19:17Z</time>
      </trkpt>
      <trkpt lat="62.634650899725" lon="17.761321118005">
        <ele>77.4</ele>
        <time>2018-04-01T12:19:18Z</time>
      </trkpt>
      <trkpt lat="62.634629693518" lon="17.761407451575">
        <ele>77.6</ele>
        <time>2018-04-01T12:19:19Z</time>
      </trkpt>
      <trkpt lat="62.634609241682" lon="17.761491438213">
        <ele>77.6</ele>
        <time>2018-04-01T12:19:20Z</time>
      </trkpt>
      <trkpt lat="62.634590382407" lon="17.761568132598">
        <ele>77.8</ele>
        <time>2018-04-01T12:19:21Z</time>
      </trkpt>
      <trkpt lat="62.634571355494" lon="17.761646838639">
        <ele>77.8</ele>
        <time>2018-04-01T12:19:22Z</time>
      </trkpt>
      <trkpt lat="62.634551741848" lon="17.761726131413">
        <ele>78</ele>
        <time>2018-04-01T12:19:23Z</time>
      </trkpt>
      <trkpt lat="62.634531876745" lon="17.761807352024">
        <ele>78.2</ele>
        <time>2018-04-01T12:19:24Z</time>
      </trkpt>
      <trkpt lat="62.634513352746" lon="17.761882621486">
        <ele>78.4</ele>
        <time>2018-04-01T12:19:25Z</time>
      </trkpt>
      <trkpt lat="62.634494074376" lon="17.761956298387">
        <ele>78.6</ele>
        <time>2018-04-01T12:19:26Z</time>
      </trkpt>
      <trkpt lat="62.634477729671" lon="17.762026873985">
        <ele>78.8</ele>
        <time>2018-04-01T12:19:27Z</time>
      </trkpt>
      <trkpt lat="62.634456272007" lon="17.762105496207">
        <ele>79</ele>
        <time>2018-04-01T12:19:28Z</time>
      </trkpt>
      <trkpt lat="62.634437831827" lon="17.762174982158">
        <ele>79.2</ele>
        <time>2018-04-01T12:19:29Z</time>
      </trkpt>
      <trkpt lat="62.634417966724" lon="17.762254610208">
        <ele>79.2</ele>
        <time>2018-04-01T12:19:30Z</time>
      </trkpt>
      <trkpt lat="62.634399945639" lon="17.762331304593">
        <ele>79.4</ele>
        <time>2018-04-01T12:19:31Z</time>
      </trkpt>
      <trkpt lat="62.634382092192" lon="17.76240028763">
        <ele>79.6</ele>
        <time>2018-04-01T12:19:32Z</time>
      </trkpt>
      <trkpt lat="62.634359963976" lon="17.762478323119">
        <ele>79.8</ele>
        <time>2018-04-01T12:19:33Z</time>
      </trkpt>
      <trkpt lat="62.63433783576" lon="17.762548228165">
        <ele>80</ele>
        <time>2018-04-01T12:19:34Z</time>
      </trkpt>
      <trkpt lat="62.634316629553" lon="17.762613439347">
        <ele>80.2</ele>
        <time>2018-04-01T12:19:35Z</time>
      </trkpt>
      <trkpt lat="62.634295674803" lon="17.762684517859">
        <ele>80.4</ele>
        <time>2018-04-01T12:19:36Z</time>
      </trkpt>
      <trkpt lat="62.634277234623" lon="17.762758278579">
        <ele>80.8</ele>
        <time>2018-04-01T12:19:37Z</time>
      </trkpt>
      <trkpt lat="62.634259297357" lon="17.762840085923">
        <ele>81</ele>
        <time>2018-04-01T12:19:38Z</time>
      </trkpt>
      <trkpt lat="62.634240857177" lon="17.762914265738">
        <ele>81</ele>
        <time>2018-04-01T12:19:39Z</time>
      </trkpt>
      <trkpt lat="62.634220656798" lon="17.762985847164">
        <ele>81.2</ele>
        <time>2018-04-01T12:19:40Z</time>
      </trkpt>
      <trkpt lat="62.634201713704" lon="17.76305323764">
        <ele>81.4</ele>
        <time>2018-04-01T12:19:41Z</time>
      </trkpt>
      <trkpt lat="62.634182267696" lon="17.763124819066">
        <ele>81.6</ele>
        <time>2018-04-01T12:19:42Z</time>
      </trkpt>
      <trkpt lat="62.63416097767" lon="17.763202016365">
        <ele>81.8</ele>
        <time>2018-04-01T12:19:43Z</time>
      </trkpt>
      <trkpt lat="62.634142286033" lon="17.763281895872">
        <ele>81.8</ele>
        <time>2018-04-01T12:19:44Z</time>
      </trkpt>
      <trkpt lat="62.634122337111" lon="17.763359763723">
        <ele>82</ele>
        <time>2018-04-01T12:19:45Z</time>
      </trkpt>
      <trkpt lat="62.634101717637" lon="17.763438302126">
        <ele>82.2</ele>
        <time>2018-04-01T12:19:46Z</time>
      </trkpt>
      <trkpt lat="62.634082523086" lon="17.763505944059">
        <ele>82.2</ele>
        <time>2018-04-01T12:19:47Z</time>
      </trkpt>
      <trkpt lat="62.634057377386" lon="17.763593032">
        <ele>82.4</ele>
        <time>2018-04-01T12:19:48Z</time>
      </trkpt>
      <trkpt lat="62.634034830075" lon="17.763670061661">
        <ele>82.6</ele>
        <time>2018-04-01T12:19:49Z</time>
      </trkpt>
      <trkpt lat="62.63401345623" lon="17.763746839865">
        <ele>82.8</ele>
        <time>2018-04-01T12:19:50Z</time>
      </trkpt>
      <trkpt lat="62.633993842584" lon="17.76382101968">
        <ele>82.8</ele>
        <time>2018-04-01T12:19:51Z</time>
      </trkpt>
      <trkpt lat="62.633972804015" lon="17.76389980954">
        <ele>83</ele>
        <time>2018-04-01T12:19:52Z</time>
      </trkpt>
      <trkpt lat="62.633952855093" lon="17.763979689047">
        <ele>83</ele>
        <time>2018-04-01T12:19:53Z</time>
      </trkpt>
      <trkpt lat="62.633931481248" lon="17.764060406744">
        <ele>83.2</ele>
        <time>2018-04-01T12:19:54Z</time>
      </trkpt>
      <trkpt lat="62.633909101575" lon="17.764133245455">
        <ele>83.2</ele>
        <time>2018-04-01T12:19:55Z</time>
      </trkpt>
      <trkpt lat="62.63388772773" lon="17.764207089994">
        <ele>83.4</ele>
        <time>2018-04-01T12:19:56Z</time>
      </trkpt>
      <trkpt lat="62.633868281722" lon="17.764275821574">
        <ele>83.6</ele>
        <time>2018-04-01T12:19:57Z</time>
      </trkpt>
      <trkpt lat="62.633847159334" lon="17.764357964194">
        <ele>83.8</ele>
        <time>2018-04-01T12:19:58Z</time>
      </trkpt>
      <trkpt lat="62.633826036946" lon="17.764427785421">
        <ele>84</ele>
        <time>2018-04-01T12:19:59Z</time>
      </trkpt>
      <trkpt lat="62.633802064712" lon="17.764507664928">
        <ele>84.2</ele>
        <time>2018-04-01T12:20:00Z</time>
      </trkpt>
      <trkpt lat="62.633781026143" lon="17.764584359313">
        <ele>84.4</ele>
        <time>2018-04-01T12:20:01Z</time>
      </trkpt>
      <trkpt lat="62.633759400841" lon="17.764656108377">
        <ele>84.6</ele>
        <time>2018-04-01T12:20:02Z</time>
      </trkpt>
      <trkpt lat="62.633735093331" lon="17.764739256825">
        <ele>84.6</ele>
        <time>2018-04-01T12:20:03Z</time>
      </trkpt>
      <trkpt lat="62.633710785821" lon="17.764817879047">
        <ele>84.8</ele>
        <time>2018-04-01T12:20:04Z</time>
      </trkpt>
      <trkpt lat="62.633689495795" lon="17.764892058862">
        <ele>84.8</ele>
        <time>2018-04-01T12:20:05Z</time>
      </trkpt>
      <trkpt lat="62.633666864665" lon="17.764973195654">
        <ele>84.8</ele>
        <time>2018-04-01T12:20:06Z</time>
      </trkpt>
      <trkpt lat="62.633641048413" lon="17.765049470944">
        <ele>84.8</ele>
        <time>2018-04-01T12:20:07Z</time>
      </trkpt>
      <trkpt lat="62.6336136396" lon="17.765134379591">
        <ele>85</ele>
        <time>2018-04-01T12:20:08Z</time>
      </trkpt>
      <trkpt lat="62.63358765571" lon="17.765215432564">
        <ele>85.2</ele>
        <time>2018-04-01T12:20:09Z</time>
      </trkpt>
      <trkpt lat="62.633561420363" lon="17.765297742822">
        <ele>85.2</ele>
        <time>2018-04-01T12:20:10Z</time>
      </trkpt>
      <trkpt lat="62.633536609939" lon="17.765375191578">
        <ele>85.4</ele>
        <time>2018-04-01T12:20:11Z</time>
      </trkpt>
      <trkpt lat="62.633509368764" lon="17.765453310886">
        <ele>85.4</ele>
        <time>2018-04-01T12:20:12Z</time>
      </trkpt>
      <trkpt lat="62.633479780657" lon="17.765540901741">
        <ele>85.6</ele>
        <time>2018-04-01T12:20:13Z</time>
      </trkpt>
      <trkpt lat="62.633452958577" lon="17.765622206171">
        <ele>85.6</ele>
        <time>2018-04-01T12:20:14Z</time>
      </trkpt>
      <trkpt lat="62.633424963031" lon="17.765700074022">
        <ele>85.6</ele>
        <time>2018-04-01T12:20:15Z</time>
      </trkpt>
      <trkpt lat="62.633397302761" lon="17.765782887194">
        <ele>85.8</ele>
        <time>2018-04-01T12:20:16Z</time>
      </trkpt>
      <trkpt lat="62.633373162889" lon="17.765856145">
        <ele>85.8</ele>
        <time>2018-04-01T12:20:17Z</time>
      </trkpt>
      <trkpt lat="62.633340892574" lon="17.765949016452">
        <ele>86</ele>
        <time>2018-04-01T12:20:18Z</time>
      </trkpt>
      <trkpt lat="62.633310717734" lon="17.766032332538">
        <ele>86</ele>
        <time>2018-04-01T12:20:19Z</time>
      </trkpt>
      <trkpt lat="62.633280542894" lon="17.766115313348">
        <ele>86</ele>
        <time>2018-04-01T12:20:20Z</time>
      </trkpt>
      <trkpt lat="62.633253469357" lon="17.766196533959">
        <ele>86.2</ele>
        <time>2018-04-01T12:20:21Z</time>
      </trkpt>
      <trkpt lat="62.63322304306" lon="17.766282448434">
        <ele>86.2</ele>
        <time>2018-04-01T12:20:22Z</time>
      </trkpt>
      <trkpt lat="62.633192113849" lon="17.766369871651">
        <ele>86.4</ele>
        <time>2018-04-01T12:20:23Z</time>
      </trkpt>
      <trkpt lat="62.633158334792" lon="17.766465844406">
        <ele>86.6</ele>
        <time>2018-04-01T12:20:24Z</time>
      </trkpt>
      <trkpt lat="62.633125142468" lon="17.76655435727">
        <ele>86.6</ele>
        <time>2018-04-01T12:20:25Z</time>
      </trkpt>
      <trkpt lat="62.633091950144" lon="17.766643792143">
        <ele>86.6</ele>
        <time>2018-04-01T12:20:26Z</time>
      </trkpt>
      <trkpt lat="62.633060266562" lon="17.766729036066">
        <ele>86.6</ele>
        <time>2018-04-01T12:20:27Z</time>
      </trkpt>
      <trkpt lat="62.633024308211" lon="17.766826517563">
        <ele>86.6</ele>
        <time>2018-04-01T12:20:28Z</time>
      </trkpt>
      <trkpt lat="62.632990780611" lon="17.76691813173">
        <ele>86.6</ele>
        <time>2018-04-01T12:20:29Z</time>
      </trkpt>
      <trkpt lat="62.632969490585" lon="17.766962471981">
        <ele>86.6</ele>
        <time>2018-04-01T12:20:30Z</time>
      </trkpt>
      <trkpt lat="62.632916852253" lon="17.767092056155">
        <ele>86.4</ele>
        <time>2018-04-01T12:20:31Z</time>
      </trkpt>
      <trkpt lat="62.632884330481" lon="17.767176797164">
        <ele>86.4</ele>
        <time>2018-04-01T12:20:32Z</time>
      </trkpt>
      <trkpt lat="62.632845438465" lon="17.767272518462">
        <ele>86.4</ele>
        <time>2018-04-01T12:20:33Z</time>
      </trkpt>
      <trkpt lat="62.632807803734" lon="17.767360528412">
        <ele>86.4</ele>
        <time>2018-04-01T12:20:34Z</time>
      </trkpt>
      <trkpt lat="62.632773018849" lon="17.767449041276">
        <ele>86.4</ele>
        <time>2018-04-01T12:20:35Z</time>
      </trkpt>
      <trkpt lat="62.632735719394" lon="17.767541325995">
        <ele>86.4</ele>
        <time>2018-04-01T12:20:36Z</time>
      </trkpt>
      <trkpt lat="62.632696492102" lon="17.767635538551">
        <ele>86.4</ele>
        <time>2018-04-01T12:20:37Z</time>
      </trkpt>
      <trkpt lat="62.632655336973" lon="17.767735953713">
        <ele>86.4</ele>
        <time>2018-04-01T12:20:38Z</time>
      </trkpt>
      <trkpt lat="62.632615439129" lon="17.767831255916">
        <ele>86.4</ele>
        <time>2018-04-01T12:20:39Z</time>
      </trkpt>
      <trkpt lat="62.632573781086" lon="17.76792144516">
        <ele>86.4</ele>
        <time>2018-04-01T12:20:40Z</time>
      </trkpt>
      <trkpt lat="62.632534386156" lon="17.768009706567">
        <ele>86.4</ele>
        <time>2018-04-01T12:20:41Z</time>
      </trkpt>
      <trkpt lat="62.632494069217" lon="17.768105763141">
        <ele>86.4</ele>
        <time>2018-04-01T12:20:42Z</time>
      </trkpt>
      <trkpt lat="62.632450986251" lon="17.768211375081">
        <ele>86.2</ele>
        <time>2018-04-01T12:20:43Z</time>
      </trkpt>
      <trkpt lat="62.632408070923" lon="17.76830533618">
        <ele>86.2</ele>
        <time>2018-04-01T12:20:44Z</time>
      </trkpt>
      <trkpt lat="62.632364987957" lon="17.768401308935">
        <ele>86.2</ele>
        <time>2018-04-01T12:20:45Z</time>
      </trkpt>
      <trkpt lat="62.632322072629" lon="17.768492504007">
        <ele>86</ele>
        <time>2018-04-01T12:20:46Z</time>
      </trkpt>
      <trkpt lat="62.632285443726" lon="17.768568192564">
        <ele>86</ele>
        <time>2018-04-01T12:20:47Z</time>
      </trkpt>
      <trkpt lat="62.632233056851" lon="17.76868335987">
        <ele>86</ele>
        <time>2018-04-01T12:20:48Z</time>
      </trkpt>
      <trkpt lat="62.632188884238" lon="17.76878394267">
        <ele>85.8</ele>
        <time>2018-04-01T12:20:49Z</time>
      </trkpt>
      <trkpt lat="62.632144543987" lon="17.768884944565">
        <ele>85.6</ele>
        <time>2018-04-01T12:20:50Z</time>
      </trkpt>
      <trkpt lat="62.632100622831" lon="17.768978570388">
        <ele>85.6</ele>
        <time>2018-04-01T12:20:51Z</time>
      </trkpt>
      <trkpt lat="62.632052762182" lon="17.769079656102">
        <ele>85.4</ele>
        <time>2018-04-01T12:20:52Z</time>
      </trkpt>
      <trkpt lat="62.632005069171" lon="17.769180993273">
        <ele>85.4</ele>
        <time>2018-04-01T12:20:53Z</time>
      </trkpt>
      <trkpt lat="62.631953771943" lon="17.769289287421">
        <ele>85.2</ele>
        <time>2018-04-01T12:20:54Z</time>
      </trkpt>
      <trkpt lat="62.631904067276" lon="17.769387104194">
        <ele>85.2</ele>
        <time>2018-04-01T12:20:55Z</time>
      </trkpt>
      <trkpt lat="62.631854530247" lon="17.769487686994">
        <ele>85.2</ele>
        <time>2018-04-01T12:20:56Z</time>
      </trkpt>
      <trkpt lat="62.631810273815" lon="17.76958189955">
        <ele>85.2</ele>
        <time>2018-04-01T12:20:57Z</time>
      </trkpt>
      <trkpt lat="62.631759060406" lon="17.769690780431">
        <ele>85</ele>
        <time>2018-04-01T12:20:58Z</time>
      </trkpt>
      <trkpt lat="62.631713379051" lon="17.769784909168">
        <ele>85</ele>
        <time>2018-04-01T12:20:59Z</time>
      </trkpt>
      <trkpt lat="62.631663255289" lon="17.769894209144">
        <ele>85</ele>
        <time>2018-04-01T12:21:00Z</time>
      </trkpt>
      <trkpt lat="62.631615143183" lon="17.769996133048">
        <ele>84.8</ele>
        <time>2018-04-01T12:21:01Z</time>
      </trkpt>
      <trkpt lat="62.631570886751" lon="17.770092860174">
        <ele>84.8</ele>
        <time>2018-04-01T12:21:02Z</time>
      </trkpt>
      <trkpt lat="62.631522690826" lon="17.770205848186">
        <ele>84.6</ele>
        <time>2018-04-01T12:21:03Z</time>
      </trkpt>
      <trkpt lat="62.631477260928" lon="17.770313304144">
        <ele>84.4</ele>
        <time>2018-04-01T12:21:04Z</time>
      </trkpt>
      <trkpt lat="62.631433423591" lon="17.770410198908">
        <ele>84.2</ele>
        <time>2018-04-01T12:21:05Z</time>
      </trkpt>
      <trkpt lat="62.631386233494" lon="17.770518828332">
        <ele>84.2</ele>
        <time>2018-04-01T12:21:06Z</time>
      </trkpt>
      <trkpt lat="62.631341055053" lon="17.770625697557">
        <ele>84</ele>
        <time>2018-04-01T12:21:07Z</time>
      </trkpt>
      <trkpt lat="62.631289757825" lon="17.770741619234">
        <ele>83.8</ele>
        <time>2018-04-01T12:21:08Z</time>
      </trkpt>
      <trkpt lat="62.631238376778" lon="17.770851673581">
        <ele>83.6</ele>
        <time>2018-04-01T12:21:09Z</time>
      </trkpt>
      <trkpt lat="62.631188588292" lon="17.770958626625">
        <ele>83.4</ele>
        <time>2018-04-01T12:21:10Z</time>
      </trkpt>
      <trkpt lat="62.631141230557" lon="17.771060718167">
        <ele>83.2</ele>
        <time>2018-04-01T12:21:11Z</time>
      </trkpt>
      <trkpt lat="62.6310906877" lon="17.771169263772">
        <ele>83.2</ele>
        <time>2018-04-01T12:21:12Z</time>
      </trkpt>
      <trkpt lat="62.631037378816" lon="17.771288202933">
        <ele>83</ele>
        <time>2018-04-01T12:21:13Z</time>
      </trkpt>
      <trkpt lat="62.630989182891" lon="17.771399346927">
        <ele>83</ele>
        <time>2018-04-01T12:21:14Z</time>
      </trkpt>
      <trkpt lat="62.630942579527" lon="17.771512754034">
        <ele>82.8</ele>
        <time>2018-04-01T12:21:15Z</time>
      </trkpt>
      <trkpt lat="62.630897904" lon="17.771626328779">
        <ele>82.6</ele>
        <time>2018-04-01T12:21:16Z</time>
      </trkpt>
      <trkpt lat="62.630857167966" lon="17.771735964031">
        <ele>82.6</ele>
        <time>2018-04-01T12:21:17Z</time>
      </trkpt>
      <trkpt lat="62.630812743896" lon="17.771857333943">
        <ele>82.6</ele>
        <time>2018-04-01T12:21:18Z</time>
      </trkpt>
      <trkpt lat="62.630771840224" lon="17.771972752706">
        <ele>82.6</ele>
        <time>2018-04-01T12:21:19Z</time>
      </trkpt>
      <trkpt lat="62.630732445294" lon="17.772084399614">
        <ele>82.4</ele>
        <time>2018-04-01T12:21:20Z</time>
      </trkpt>
      <trkpt lat="62.630695481115" lon="17.772189927735">
        <ele>82.4</ele>
        <time>2018-04-01T12:21:21Z</time>
      </trkpt>
      <trkpt lat="62.630657008194" lon="17.772301574643">
        <ele>82.4</ele>
        <time>2018-04-01T12:21:22Z</time>
      </trkpt>
      <trkpt lat="62.630622390947" lon="17.772415652302">
        <ele>82.2</ele>
        <time>2018-04-01T12:21:23Z</time>
      </trkpt>
      <trkpt lat="62.630585845863" lon="17.772535262015">
        <ele>82.2</ele>
        <time>2018-04-01T12:21:24Z</time>
      </trkpt>
      <trkpt lat="62.630551144797" lon="17.772648333846">
        <ele>82.2</ele>
        <time>2018-04-01T12:21:25Z</time>
      </trkpt>
      <trkpt lat="62.630518790663" lon="17.772759561659">
        <ele>82</ele>
        <time>2018-04-01T12:21:26Z</time>
      </trkpt>
      <trkpt lat="62.630489454013" lon="17.772866011789">
        <ele>82.2</ele>
        <time>2018-04-01T12:21:27Z</time>
      </trkpt>
      <trkpt lat="62.630457351336" lon="17.772990147728">
        <ele>82.2</ele>
        <time>2018-04-01T12:21:28Z</time>
      </trkpt>
      <trkpt lat="62.63042935579" lon="17.773100788808">
        <ele>82.2</ele>
        <time>2018-04-01T12:21:29Z</time>
      </trkpt>
      <trkpt lat="62.630398678036" lon="17.773226265851">
        <ele>82.2</ele>
        <time>2018-04-01T12:21:30Z</time>
      </trkpt>
      <trkpt lat="62.630370095757" lon="17.77334285808">
        <ele>82.2</ele>
        <time>2018-04-01T12:21:31Z</time>
      </trkpt>
      <trkpt lat="62.630344279505" lon="17.773451236047">
        <ele>82.2</ele>
        <time>2018-04-01T12:21:32Z</time>
      </trkpt>
      <trkpt lat="62.630315948683" lon="17.773576126357">
        <ele>82</ele>
        <time>2018-04-01T12:21:33Z</time>
      </trkpt>
      <trkpt lat="62.630290132431" lon="17.773693892052">
        <ele>82.2</ele>
        <time>2018-04-01T12:21:34Z</time>
      </trkpt>
      <trkpt lat="62.630266244016" lon="17.773802689114">
        <ele>82.2</ele>
        <time>2018-04-01T12:21:35Z</time>
      </trkpt>
      <trkpt lat="62.630243612886" lon="17.773921963551">
        <ele>82.2</ele>
        <time>2018-04-01T12:21:36Z</time>
      </trkpt>
      <trkpt lat="62.630220395023" lon="17.774048278784">
        <ele>82.2</ele>
        <time>2018-04-01T12:21:37Z</time>
      </trkpt>
      <trkpt lat="62.630198518264" lon="17.774173420551">
        <ele>82.4</ele>
        <time>2018-04-01T12:21:38Z</time>
      </trkpt>
      <trkpt lat="62.630176892962" lon="17.774296383024">
        <ele>82.4</ele>
        <time>2018-04-01T12:21:39Z</time>
      </trkpt>
      <trkpt lat="62.63015610585" lon="17.77441657947">
        <ele>82.2</ele>
        <time>2018-04-01T12:21:40Z</time>
      </trkpt>
      <trkpt lat="62.630136743661" lon="17.774529902758">
        <ele>82.4</ele>
        <time>2018-04-01T12:21:41Z</time>
      </trkpt>
      <trkpt lat="62.630116794739" lon="17.774648506643">
        <ele>82.2</ele>
        <time>2018-04-01T12:21:42Z</time>
      </trkpt>
      <trkpt lat="62.630096929636" lon="17.774778090817">
        <ele>82.4</ele>
        <time>2018-04-01T12:21:43Z</time>
      </trkpt>
      <trkpt lat="62.630077902723" lon="17.774898119625">
        <ele>82.4</ele>
        <time>2018-04-01T12:21:44Z</time>
      </trkpt>
      <trkpt lat="62.630059881638" lon="17.775021585012">
        <ele>82.4</ele>
        <time>2018-04-01T12:21:45Z</time>
      </trkpt>
      <trkpt lat="62.630044207485" lon="17.775143374019">
        <ele>82.6</ele>
        <time>2018-04-01T12:21:46Z</time>
      </trkpt>
      <trkpt lat="62.630029790617" lon="17.775254685651">
        <ele>82.6</ele>
        <time>2018-04-01T12:21:47Z</time>
      </trkpt>
      <trkpt lat="62.630011685713" lon="17.775390723888">
        <ele>82.6</ele>
        <time>2018-04-01T12:21:48Z</time>
      </trkpt>
      <trkpt lat="62.629997017388" lon="17.775513015809">
        <ele>82.8</ele>
        <time>2018-04-01T12:21:49Z</time>
      </trkpt>
      <trkpt lat="62.629982097606" lon="17.775640253051">
        <ele>82.8</ele>
        <time>2018-04-01T12:21:50Z</time>
      </trkpt>
      <trkpt lat="62.629971201136" lon="17.775751648502">
        <ele>82.6</ele>
        <time>2018-04-01T12:21:51Z</time>
      </trkpt>
      <trkpt lat="62.629957873915" lon="17.775872180224">
        <ele>82.8</ele>
        <time>2018-04-01T12:21:52Z</time>
      </trkpt>
      <trkpt lat="62.629946055436" lon="17.775994807421">
        <ele>82.8</ele>
        <time>2018-04-01T12:21:53Z</time>
      </trkpt>
      <trkpt lat="62.629935578061" lon="17.776124559233">
        <ele>82.8</ele>
        <time>2018-04-01T12:21:54Z</time>
      </trkpt>
      <trkpt lat="62.629927866713" lon="17.776250120095">
        <ele>82.8</ele>
        <time>2018-04-01T12:21:55Z</time>
      </trkpt>
      <trkpt lat="62.629919065718" lon="17.776374675129">
        <ele>83</ele>
        <time>2018-04-01T12:21:56Z</time>
      </trkpt>
      <trkpt lat="62.629910935275" lon="17.776490093892">
        <ele>82.8</ele>
        <time>2018-04-01T12:21:57Z</time>
      </trkpt>
      <trkpt lat="62.629903391565" lon="17.776622108817">
        <ele>82.8</ele>
        <time>2018-04-01T12:21:58Z</time>
      </trkpt>
      <trkpt lat="62.629896434588" lon="17.776745574204">
        <ele>82.8</ele>
        <time>2018-04-01T12:21:59Z</time>
      </trkpt>
      <trkpt lat="62.629891405448" lon="17.776846743737">
        <ele>82.8</ele>
        <time>2018-04-01T12:22:00Z</time>
      </trkpt>
      <trkpt lat="62.629886376308" lon="17.776998456127">
        <ele>82.8</ele>
        <time>2018-04-01T12:22:01Z</time>
      </trkpt>
      <trkpt lat="62.629881682444" lon="17.777114796899">
        <ele>82.8</ele>
        <time>2018-04-01T12:22:02Z</time>
      </trkpt>
      <trkpt lat="62.629876904761" lon="17.777243878159">
        <ele>82.8</ele>
        <time>2018-04-01T12:22:03Z</time>
      </trkpt>
      <trkpt lat="62.62987363582" lon="17.777368852288">
        <ele>82.8</ele>
        <time>2018-04-01T12:22:04Z</time>
      </trkpt>
      <trkpt lat="62.629868941956" lon="17.777481253567">
        <ele>82.8</ele>
        <time>2018-04-01T12:22:05Z</time>
      </trkpt>
      <trkpt lat="62.629863745178" lon="17.777602707298">
        <ele>83</ele>
        <time>2018-04-01T12:22:06Z</time>
      </trkpt>
      <trkpt lat="62.629858967495" lon="17.777721646459">
        <ele>83</ele>
        <time>2018-04-01T12:22:07Z</time>
      </trkpt>
      <trkpt lat="62.629858129305" lon="17.777849051339">
        <ele>83.2</ele>
        <time>2018-04-01T12:22:08Z</time>
      </trkpt>
      <trkpt lat="62.62985938659" lon="17.7779679905">
        <ele>83</ele>
        <time>2018-04-01T12:22:09Z</time>
      </trkpt>
      <trkpt lat="62.62986022478" lon="17.778086594385">
        <ele>83.2</ele>
        <time>2018-04-01T12:22:10Z</time>
      </trkpt>
      <trkpt lat="62.629862990807" lon="17.778197738379">
        <ele>83.2</ele>
        <time>2018-04-01T12:22:11Z</time>
      </trkpt>
      <trkpt lat="62.629868690499" lon="17.778312402771">
        <ele>83.2</ele>
        <time>2018-04-01T12:22:12Z</time>
      </trkpt>
      <trkpt lat="62.629875647476" lon="17.77843653871">
        <ele>83.2</ele>
        <time>2018-04-01T12:22:13Z</time>
      </trkpt>
      <trkpt lat="62.629882436815" lon="17.778556986613">
        <ele>83.2</ele>
        <time>2018-04-01T12:22:14Z</time>
      </trkpt>
      <trkpt lat="62.629887801231" lon="17.778678607982">
        <ele>83.2</ele>
        <time>2018-04-01T12:22:15Z</time>
      </trkpt>
      <trkpt lat="62.629893249466" lon="17.778801738093">
        <ele>83</ele>
        <time>2018-04-01T12:22:16Z</time>
      </trkpt>
      <trkpt lat="62.629899200615" lon="17.778911205707">
        <ele>83</ele>
        <time>2018-04-01T12:22:17Z</time>
      </trkpt>
      <trkpt lat="62.629906241411" lon="17.779042298623">
        <ele>83.2</ele>
        <time>2018-04-01T12:22:18Z</time>
      </trkpt>
      <trkpt lat="62.62991303075" lon="17.779171128426">
        <ele>83.2</ele>
        <time>2018-04-01T12:22:19Z</time>
      </trkpt>
      <trkpt lat="62.62992141265" lon="17.77929400708">
        <ele>83.4</ele>
        <time>2018-04-01T12:22:20Z</time>
      </trkpt>
      <trkpt lat="62.629930381283" lon="17.779407246549">
        <ele>83.4</ele>
        <time>2018-04-01T12:22:21Z</time>
      </trkpt>
      <trkpt lat="62.629940523382" lon="17.779531466307">
        <ele>83.4</ele>
        <time>2018-04-01T12:22:22Z</time>
      </trkpt>
      <trkpt lat="62.629948737644" lon="17.779655099332">
        <ele>83.4</ele>
        <time>2018-04-01T12:22:23Z</time>
      </trkpt>
      <trkpt lat="62.629958963562" lon="17.779785605515">
        <ele>83.4</ele>
        <time>2018-04-01T12:22:24Z</time>
      </trkpt>
      <trkpt lat="62.629966842548" lon="17.779908232712">
        <ele>83.4</ele>
        <time>2018-04-01T12:22:25Z</time>
      </trkpt>
      <trkpt lat="62.629977236104" lon="17.78003161428">
        <ele>83.4</ele>
        <time>2018-04-01T12:22:26Z</time>
      </trkpt>
      <trkpt lat="62.629985534185" lon="17.780146530129">
        <ele>83.4</ele>
        <time>2018-04-01T12:22:27Z</time>
      </trkpt>
      <trkpt lat="62.629994251361" lon="17.780275862846">
        <ele>83.4</ele>
        <time>2018-04-01T12:22:28Z</time>
      </trkpt>
      <trkpt lat="62.630000873062" lon="17.780387677392">
        <ele>83.4</ele>
        <time>2018-04-01T12:22:29Z</time>
      </trkpt>
      <trkpt lat="62.630008752048" lon="17.780511394236">
        <ele>83.6</ele>
        <time>2018-04-01T12:22:30Z</time>
      </trkpt>
      <trkpt lat="62.630016295758" lon="17.780626142447">
        <ele>83.8</ele>
        <time>2018-04-01T12:22:31Z</time>
      </trkpt>
      <trkpt lat="62.630024593839" lon="17.780731670568">
        <ele>84</ele>
        <time>2018-04-01T12:22:32Z</time>
      </trkpt>
      <trkpt lat="62.63003624468" lon="17.780850609729">
        <ele>84</ele>
        <time>2018-04-01T12:22:33Z</time>
      </trkpt>
      <trkpt lat="62.63004546477" lon="17.780960915533">
        <ele>84.2</ele>
        <time>2018-04-01T12:22:34Z</time>
      </trkpt>
      <trkpt lat="62.630052924661" lon="17.781065270188">
        <ele>84.4</ele>
        <time>2018-04-01T12:22:35Z</time>
      </trkpt>
      <trkpt lat="62.630060468371" lon="17.781177000915">
        <ele>84.4</ele>
        <time>2018-04-01T12:22:36Z</time>
      </trkpt>
      <trkpt lat="62.630068347357" lon="17.781287474357">
        <ele>84.4</ele>
        <time>2018-04-01T12:22:37Z</time>
      </trkpt>
      <trkpt lat="62.63007731599" lon="17.781404401862">
        <ele>84.4</ele>
        <time>2018-04-01T12:22:38Z</time>
      </trkpt>
      <trkpt lat="62.630086284623" lon="17.781512109277">
        <ele>84.6</ele>
        <time>2018-04-01T12:22:39Z</time>
      </trkpt>
      <trkpt lat="62.630095253256" lon="17.781620906339">
        <ele>84.6</ele>
        <time>2018-04-01T12:22:40Z</time>
      </trkpt>
      <trkpt lat="62.630103216061" lon="17.78172643446">
        <ele>84.6</ele>
        <time>2018-04-01T12:22:41Z</time>
      </trkpt>
      <trkpt lat="62.630112100875" lon="17.781836404988">
        <ele>84.8</ele>
        <time>2018-04-01T12:22:42Z</time>
      </trkpt>
      <trkpt lat="62.630123248802" lon="17.781947213706">
        <ele>84.8</ele>
        <time>2018-04-01T12:22:43Z</time>
      </trkpt>
      <trkpt lat="62.630131714521" lon="17.782064308849">
        <ele>84.8</ele>
        <time>2018-04-01T12:22:44Z</time>
      </trkpt>
      <trkpt lat="62.630142275715" lon="17.78217905706">
        <ele>85</ele>
        <time>2018-04-01T12:22:45Z</time>
      </trkpt>
      <trkpt lat="62.630152501633" lon="17.782294643461">
        <ele>85</ele>
        <time>2018-04-01T12:22:46Z</time>
      </trkpt>
      <trkpt lat="62.630159793886" lon="17.782389526569">
        <ele>85</ele>
        <time>2018-04-01T12:22:47Z</time>
      </trkpt>
      <trkpt lat="62.630171444727" lon="17.782525732444">
        <ele>85.2</ele>
        <time>2018-04-01T12:22:48Z</time>
      </trkpt>
      <trkpt lat="62.63018125155" lon="17.782643246682">
        <ele>85.2</ele>
        <time>2018-04-01T12:22:49Z</time>
      </trkpt>
      <trkpt lat="62.630191980382" lon="17.782760509463">
        <ele>85.2</ele>
        <time>2018-04-01T12:22:50Z</time>
      </trkpt>
      <trkpt lat="62.630202541576" lon="17.782869055068">
        <ele>85.4</ele>
        <time>2018-04-01T12:22:51Z</time>
      </trkpt>
      <trkpt lat="62.630213605684" lon="17.782985814935">
        <ele>85.4</ele>
        <time>2018-04-01T12:22:52Z</time>
      </trkpt>
      <trkpt lat="62.630224418335" lon="17.78310944796">
        <ele>85.6</ele>
        <time>2018-04-01T12:22:53Z</time>
      </trkpt>
      <trkpt lat="62.630235314805" lon="17.783240121781">
        <ele>85.6</ele>
        <time>2018-04-01T12:22:54Z</time>
      </trkpt>
      <trkpt lat="62.630245540723" lon="17.783366520833">
        <ele>85.6</ele>
        <time>2018-04-01T12:22:55Z</time>
      </trkpt>
      <trkpt lat="62.63025668865" lon="17.783496943197">
        <ele>85.6</ele>
        <time>2018-04-01T12:22:56Z</time>
      </trkpt>
      <trkpt lat="62.630267836577" lon="17.783618564566">
        <ele>85.4</ele>
        <time>2018-04-01T12:22:57Z</time>
      </trkpt>
      <trkpt lat="62.630280074151" lon="17.783760805409">
        <ele>85.4</ele>
        <time>2018-04-01T12:22:58Z</time>
      </trkpt>
      <trkpt lat="62.630289713336" lon="17.783892652696">
        <ele>85.2</ele>
        <time>2018-04-01T12:22:59Z</time>
      </trkpt>
      <trkpt lat="62.630296670313" lon="17.784042521068">
        <ele>85.2</ele>
        <time>2018-04-01T12:23:00Z</time>
      </trkpt>
      <trkpt lat="62.630305387489" lon="17.784180068047">
        <ele>85</ele>
        <time>2018-04-01T12:23:01Z</time>
      </trkpt>
      <trkpt lat="62.630315948683" lon="17.784318034121">
        <ele>85</ele>
        <time>2018-04-01T12:23:02Z</time>
      </trkpt>
      <trkpt lat="62.630328605352" lon="17.784471255253">
        <ele>84.8</ele>
        <time>2018-04-01T12:23:03Z</time>
      </trkpt>
      <trkpt lat="62.630339250365" lon="17.784616178304">
        <ele>84.8</ele>
        <time>2018-04-01T12:23:04Z</time>
      </trkpt>
      <trkpt lat="62.630351320301" lon="17.784743499365">
        <ele>84.8</ele>
        <time>2018-04-01T12:23:05Z</time>
      </trkpt>
      <trkpt lat="62.630363893151" lon="17.784890517891">
        <ele>84.8</ele>
        <time>2018-04-01T12:23:06Z</time>
      </trkpt>
      <trkpt lat="62.630374705802" lon="17.785036698227">
        <ele>84.8</ele>
        <time>2018-04-01T12:23:07Z</time>
      </trkpt>
      <trkpt lat="62.630386356643" lon="17.78519235011">
        <ele>84.6</ele>
        <time>2018-04-01T12:23:08Z</time>
      </trkpt>
      <trkpt lat="62.630397336932" lon="17.785339200998">
        <ele>84.6</ele>
        <time>2018-04-01T12:23:09Z</time>
      </trkpt>
      <trkpt lat="62.630407227574" lon="17.785482782945">
        <ele>84.6</ele>
        <time>2018-04-01T12:23:10Z</time>
      </trkpt>
      <trkpt lat="62.630415274198" lon="17.785612031843">
        <ele>84.6</ele>
        <time>2018-04-01T12:23:11Z</time>
      </trkpt>
      <trkpt lat="62.630423237003" lon="17.785747818623">
        <ele>84.4</ele>
        <time>2018-04-01T12:23:12Z</time>
      </trkpt>
      <trkpt lat="62.630432624731" lon="17.785890897656">
        <ele>84.4</ele>
        <time>2018-04-01T12:23:13Z</time>
      </trkpt>
      <trkpt lat="62.630438072966" lon="17.786026768255">
        <ele>84.4</ele>
        <time>2018-04-01T12:23:14Z</time>
      </trkpt>
      <trkpt lat="62.630444778486" lon="17.786162387397">
        <ele>84.6</ele>
        <time>2018-04-01T12:23:15Z</time>
      </trkpt>
      <trkpt lat="62.630454082395" lon="17.786296078702">
        <ele>84.6</ele>
        <time>2018-04-01T12:23:16Z</time>
      </trkpt>
      <trkpt lat="62.630461039372" lon="17.786407390334">
        <ele>84.6</ele>
        <time>2018-04-01T12:23:17Z</time>
      </trkpt>
      <trkpt lat="62.630470008005" lon="17.786548709168">
        <ele>84.6</ele>
        <time>2018-04-01T12:23:18Z</time>
      </trkpt>
      <trkpt lat="62.630474115136" lon="17.786674353849">
        <ele>84.6</ele>
        <time>2018-04-01T12:23:19Z</time>
      </trkpt>
      <trkpt lat="62.630477551715" lon="17.786792957734">
        <ele>84.6</ele>
        <time>2018-04-01T12:23:20Z</time>
      </trkpt>
      <trkpt lat="62.630480569199" lon="17.786899575502">
        <ele>84.6</ele>
        <time>2018-04-01T12:23:21Z</time>
      </trkpt>
      <trkpt lat="62.63048551452" lon="17.787010048944">
        <ele>84.8</ele>
        <time>2018-04-01T12:23:22Z</time>
      </trkpt>
      <trkpt lat="62.63049138185" lon="17.787126222078">
        <ele>84.8</ele>
        <time>2018-04-01T12:23:23Z</time>
      </trkpt>
      <trkpt lat="62.630496494809" lon="17.787243568678">
        <ele>85</ele>
        <time>2018-04-01T12:23:24Z</time>
      </trkpt>
      <trkpt lat="62.630500099026" lon="17.787356221414">
        <ele>85</ele>
        <time>2018-04-01T12:23:25Z</time>
      </trkpt>
      <trkpt lat="62.630503284148" lon="17.787463509734">
        <ele>85.2</ele>
        <time>2018-04-01T12:23:26Z</time>
      </trkpt>
      <trkpt lat="62.630506804546" lon="17.787561577964">
        <ele>85.2</ele>
        <time>2018-04-01T12:23:27Z</time>
      </trkpt>
      <trkpt lat="62.630510576401" lon="17.787673224872">
        <ele>85.2</ele>
        <time>2018-04-01T12:23:28Z</time>
      </trkpt>
      <trkpt lat="62.630513426247" lon="17.787740112434">
        <ele>85.2</ele>
        <time>2018-04-01T12:23:29Z</time>
      </trkpt>
      <trkpt lat="62.630518623025" lon="17.787880676897">
        <ele>85.2</ele>
        <time>2018-04-01T12:23:30Z</time>
      </trkpt>
      <trkpt lat="62.630521389052" lon="17.78798100824">
        <ele>85.2</ele>
        <time>2018-04-01T12:23:31Z</time>
      </trkpt>
      <trkpt lat="62.63052323307" lon="17.788073712054">
        <ele>85.2</ele>
        <time>2018-04-01T12:23:32Z</time>
      </trkpt>
      <trkpt lat="62.630528094572" lon="17.788182090021">
        <ele>85.4</ele>
        <time>2018-04-01T12:23:33Z</time>
      </trkpt>
      <trkpt lat="62.63053329135" lon="17.788286444676">
        <ele>85.6</ele>
        <time>2018-04-01T12:23:34Z</time>
      </trkpt>
      <trkpt lat="62.63053832049" lon="17.78837747211">
        <ele>85.6</ele>
        <time>2018-04-01T12:23:35Z</time>
      </trkpt>
      <trkpt lat="62.63054334963" lon="17.788480150385">
        <ele>85.8</ele>
        <time>2018-04-01T12:23:36Z</time>
      </trkpt>
      <trkpt lat="62.630546786209" lon="17.788584002126">
        <ele>86</ele>
        <time>2018-04-01T12:23:37Z</time>
      </trkpt>
      <trkpt lat="62.630550725702" lon="17.788695649034">
        <ele>86</ele>
        <time>2018-04-01T12:23:38Z</time>
      </trkpt>
      <trkpt lat="62.630554832833" lon="17.788802099164">
        <ele>86.2</ele>
        <time>2018-04-01T12:23:39Z</time>
      </trkpt>
      <trkpt lat="62.630556844489" lon="17.788906956733">
        <ele>86.4</ele>
        <time>2018-04-01T12:23:40Z</time>
      </trkpt>
      <trkpt lat="62.630560197249" lon="17.789005779334">
        <ele>86.4</ele>
        <time>2018-04-01T12:23:41Z</time>
      </trkpt>
      <trkpt lat="62.630563130914" lon="17.789109882532">
        <ele>86.6</ele>
        <time>2018-04-01T12:23:42Z</time>
      </trkpt>
      <trkpt lat="62.630566651312" lon="17.789223373458">
        <ele>86.6</ele>
        <time>2018-04-01T12:23:43Z</time>
      </trkpt>
      <trkpt lat="62.630570590805" lon="17.789330661778">
        <ele>86.8</ele>
        <time>2018-04-01T12:23:44Z</time>
      </trkpt>
      <trkpt lat="62.630575619945" lon="17.789437531003">
        <ele>86.8</ele>
        <time>2018-04-01T12:23:45Z</time>
      </trkpt>
      <trkpt lat="62.630580565266" lon="17.7895433944">
        <ele>86.8</ele>
        <time>2018-04-01T12:23:46Z</time>
      </trkpt>
      <trkpt lat="62.630584169483" lon="17.789634002739">
        <ele>87</ele>
        <time>2018-04-01T12:23:47Z</time>
      </trkpt>
      <trkpt lat="62.63058861189" lon="17.789759731239">
        <ele>87</ele>
        <time>2018-04-01T12:23:48Z</time>
      </trkpt>
      <trkpt lat="62.630592886659" lon="17.789869198853">
        <ele>87.2</ele>
        <time>2018-04-01T12:23:49Z</time>
      </trkpt>
      <trkpt lat="62.630597748161" lon="17.789980259028">
        <ele>87.2</ele>
        <time>2018-04-01T12:23:50Z</time>
      </trkpt>
      <trkpt lat="62.630604369862" lon="17.790084781321">
        <ele>87.4</ele>
        <time>2018-04-01T12:23:51Z</time>
      </trkpt>
      <trkpt lat="62.630609315183" lon="17.790195254763">
        <ele>87.6</ele>
        <time>2018-04-01T12:23:52Z</time>
      </trkpt>
      <trkpt lat="62.630614092866" lon="17.790307907499">
        <ele>87.8</ele>
        <time>2018-04-01T12:23:53Z</time>
      </trkpt>
      <trkpt lat="62.630620295472" lon="17.790423745357">
        <ele>87.8</ele>
        <time>2018-04-01T12:23:54Z</time>
      </trkpt>
      <trkpt lat="62.63062800682" lon="17.790536481912">
        <ele>88</ele>
        <time>2018-04-01T12:23:55Z</time>
      </trkpt>
      <trkpt lat="62.630634796159" lon="17.790647039173">
        <ele>88</ele>
        <time>2018-04-01T12:23:56Z</time>
      </trkpt>
      <trkpt lat="62.630642507507" lon="17.790748543982">
        <ele>88.2</ele>
        <time>2018-04-01T12:23:57Z</time>
      </trkpt>
      <trkpt lat="62.630652146692" lon="17.79086438184">
        <ele>88.2</ele>
        <time>2018-04-01T12:23:58Z</time>
      </trkpt>
      <trkpt lat="62.630660863868" lon="17.7909683174">
        <ele>88.4</ele>
        <time>2018-04-01T12:23:59Z</time>
      </trkpt>
      <trkpt lat="62.630671927976" lon="17.791084993448">
        <ele>88.6</ele>
        <time>2018-04-01T12:24:00Z</time>
      </trkpt>
      <trkpt lat="62.63068165098" lon="17.791194880157">
        <ele>88.6</ele>
        <time>2018-04-01T12:24:01Z</time>
      </trkpt>
      <trkpt lat="62.630691290165" lon="17.791298731898">
        <ele>88.6</ele>
        <time>2018-04-01T12:24:02Z</time>
      </trkpt>
      <trkpt lat="62.630702941006" lon="17.791418676887">
        <ele>88.6</ele>
        <time>2018-04-01T12:24:03Z</time>
      </trkpt>
      <trkpt lat="62.630716687322" lon="17.791529234148">
        <ele>88.4</ele>
        <time>2018-04-01T12:24:04Z</time>
      </trkpt>
      <trkpt lat="62.630729595448" lon="17.791634846088">
        <ele>88.6</ele>
        <time>2018-04-01T12:24:05Z</time>
      </trkpt>
      <trkpt lat="62.630744850506" lon="17.79174951048">
        <ele>88.4</ele>
        <time>2018-04-01T12:24:06Z</time>
      </trkpt>
      <trkpt lat="62.630758596822" lon="17.791864510148">
        <ele>88.4</ele>
        <time>2018-04-01T12:24:07Z</time>
      </trkpt>
      <trkpt lat="62.630774270975" lon="17.79198420368">
        <ele>88.4</ele>
        <time>2018-04-01T12:24:08Z</time>
      </trkpt>
      <trkpt lat="62.630790448042" lon="17.792100628271">
        <ele>88.6</ele>
        <time>2018-04-01T12:24:09Z</time>
      </trkpt>
      <trkpt lat="62.630807882394" lon="17.792219064518">
        <ele>88.6</ele>
        <time>2018-04-01T12:24:10Z</time>
      </trkpt>
      <trkpt lat="62.630826154936" lon="17.792331717254">
        <ele>88.8</ele>
        <time>2018-04-01T12:24:11Z</time>
      </trkpt>
      <trkpt lat="62.630844678935" lon="17.792452081338">
        <ele>88.8</ele>
        <time>2018-04-01T12:24:12Z</time>
      </trkpt>
      <trkpt lat="62.630865801323" lon="17.792582755159">
        <ele>88.8</ele>
        <time>2018-04-01T12:24:13Z</time>
      </trkpt>
      <trkpt lat="62.630888516272" lon="17.792708567478">
        <ele>88.6</ele>
        <time>2018-04-01T12:24:14Z</time>
      </trkpt>
      <trkpt lat="62.630913075239" lon="17.792831446132">
        <ele>88.6</ele>
        <time>2018-04-01T12:24:15Z</time>
      </trkpt>
      <trkpt lat="62.630939059129" lon="17.792954324786">
        <ele>88.6</ele>
        <time>2018-04-01T12:24:16Z</time>
      </trkpt>
      <trkpt lat="62.630963031363" lon="17.793067312798">
        <ele>88.2</ele>
        <time>2018-04-01T12:24:17Z</time>
      </trkpt>
      <trkpt lat="62.630992032737" lon="17.793203099578">
        <ele>88.2</ele>
        <time>2018-04-01T12:24:18Z</time>
      </trkpt>
      <trkpt lat="62.631020698835" lon="17.793325475318">
        <ele>88</ele>
        <time>2018-04-01T12:24:19Z</time>
      </trkpt>
      <trkpt lat="62.631051879503" lon="17.793449862714">
        <ele>87.8</ele>
        <time>2018-04-01T12:24:20Z</time>
      </trkpt>
      <trkpt lat="62.631078450126" lon="17.793574836843">
        <ele>87.4</ele>
        <time>2018-04-01T12:24:21Z</time>
      </trkpt>
      <trkpt lat="62.631106361853" lon="17.793705594483">
        <ele>87.4</ele>
        <time>2018-04-01T12:24:22Z</time>
      </trkpt>
      <trkpt lat="62.63113594996" lon="17.793837106494">
        <ele>87.2</ele>
        <time>2018-04-01T12:24:23Z</time>
      </trkpt>
      <trkpt lat="62.631169142284" lon="17.793975994577">
        <ele>87</ele>
        <time>2018-04-01T12:24:24Z</time>
      </trkpt>
      <trkpt lat="62.631201664056" lon="17.794100801068">
        <ele>86.8</ele>
        <time>2018-04-01T12:24:25Z</time>
      </trkpt>
      <trkpt lat="62.631234772561" lon="17.794234660011">
        <ele>86.6</ele>
        <time>2018-04-01T12:24:26Z</time>
      </trkpt>
      <trkpt lat="62.631265115039" lon="17.794357371027">
        <ele>86.6</ele>
        <time>2018-04-01T12:24:27Z</time>
      </trkpt>
      <trkpt lat="62.631300570476" lon="17.794499192775">
        <ele>86.4</ele>
        <time>2018-04-01T12:24:28Z</time>
      </trkpt>
      <trkpt lat="62.631331499687" lon="17.794623999266">
        <ele>86</ele>
        <time>2018-04-01T12:24:29Z</time>
      </trkpt>
      <trkpt lat="62.631366116934" lon="17.794766743023">
        <ele>86</ele>
        <time>2018-04-01T12:24:30Z</time>
      </trkpt>
      <trkpt lat="62.631397213783" lon="17.794898255034">
        <ele>86</ele>
        <time>2018-04-01T12:24:31Z</time>
      </trkpt>
      <trkpt lat="62.63142680189" lon="17.795024151172">
        <ele>86</ele>
        <time>2018-04-01T12:24:32Z</time>
      </trkpt>
      <trkpt lat="62.631461754413" lon="17.79516681111">
        <ele>85.8</ele>
        <time>2018-04-01T12:24:33Z</time>
      </trkpt>
      <trkpt lat="62.631494611461" lon="17.795299580406">
        <ele>85.6</ele>
        <time>2018-04-01T12:24:34Z</time>
      </trkpt>
      <trkpt lat="62.631517494048" lon="17.795390943116">
        <ele>85.6</ele>
        <time>2018-04-01T12:24:35Z</time>
      </trkpt>
      <trkpt lat="62.631556218426" lon="17.795555982727">
        <ele>85.2</ele>
        <time>2018-04-01T12:24:36Z</time>
      </trkpt>
      <trkpt lat="62.631585890352" lon="17.795687997652">
        <ele>85</ele>
        <time>2018-04-01T12:24:37Z</time>
      </trkpt>
      <trkpt lat="62.631620004685" lon="17.795825712269">
        <ele>84.6</ele>
        <time>2018-04-01T12:24:38Z</time>
      </trkpt>
      <trkpt lat="62.631647916412" lon="17.795959403574">
        <ele>84.6</ele>
        <time>2018-04-01T12:24:39Z</time>
      </trkpt>
      <trkpt lat="62.631674738492" lon="17.796093765431">
        <ele>84.4</ele>
        <time>2018-04-01T12:24:40Z</time>
      </trkpt>
      <trkpt lat="62.631699046002" lon="17.796218907198">
        <ele>84.4</ele>
        <time>2018-04-01T12:24:41Z</time>
      </trkpt>
      <trkpt lat="62.631725365168" lon="17.796345892983">
        <ele>84.2</ele>
        <time>2018-04-01T12:24:42Z</time>
      </trkpt>
      <trkpt lat="62.631752438705" lon="17.796477488813">
        <ele>84.2</ele>
        <time>2018-04-01T12:24:43Z</time>
      </trkpt>
      <trkpt lat="62.631776578577" lon="17.796602546761">
        <ele>84</ele>
        <time>2018-04-01T12:24:44Z</time>
      </trkpt>
      <trkpt lat="62.631797952422" lon="17.796724587225">
        <ele>83.8</ele>
        <time>2018-04-01T12:24:45Z</time>
      </trkpt>
      <trkpt lat="62.631819410086" lon="17.796839503074">
        <ele>83.6</ele>
        <time>2018-04-01T12:24:46Z</time>
      </trkpt>
      <trkpt lat="62.631834246049" lon="17.796932709802">
        <ele>83.6</ele>
        <time>2018-04-01T12:24:47Z</time>
      </trkpt>
      <trkpt lat="62.631855703713" lon="17.797063467442">
        <ele>83.6</ele>
        <time>2018-04-01T12:24:48Z</time>
      </trkpt>
      <trkpt lat="62.631873640979" lon="17.797172851237">
        <ele>83.6</ele>
        <time>2018-04-01T12:24:49Z</time>
      </trkpt>
      <trkpt lat="62.631890572417" lon="17.797278798453">
        <ele>83.6</ele>
        <time>2018-04-01T12:24:50Z</time>
      </trkpt>
      <trkpt lat="62.631904737828" lon="17.797376699045">
        <ele>83.6</ele>
        <time>2018-04-01T12:24:51Z</time>
      </trkpt>
      <trkpt lat="62.631918148868" lon="17.797482059528">
        <ele>83.6</ele>
        <time>2018-04-01T12:24:52Z</time>
      </trkpt>
      <trkpt lat="62.631929883528" lon="17.797587587649">
        <ele>83.6</ele>
        <time>2018-04-01T12:24:53Z</time>
      </trkpt>
      <trkpt lat="62.631942875473" lon="17.797699066919">
        <ele>83.6</ele>
        <time>2018-04-01T12:24:54Z</time>
      </trkpt>
      <trkpt lat="62.631954610133" lon="17.797801745194">
        <ele>83.6</ele>
        <time>2018-04-01T12:24:55Z</time>
      </trkpt>
      <trkpt lat="62.631964249318" lon="17.797906183668">
        <ele>83.8</ele>
        <time>2018-04-01T12:24:56Z</time>
      </trkpt>
      <trkpt lat="62.631973385589" lon="17.798000228586">
        <ele>83.8</ele>
        <time>2018-04-01T12:24:57Z</time>
      </trkpt>
      <trkpt lat="62.631984282059" lon="17.798104331784">
        <ele>83.8</ele>
        <time>2018-04-01T12:24:58Z</time>
      </trkpt>
      <trkpt lat="62.631993334511" lon="17.798197622331">
        <ele>84</ele>
        <time>2018-04-01T12:24:59Z</time>
      </trkpt>
      <trkpt lat="62.632003141334" lon="17.798301390253">
        <ele>84</ele>
        <time>2018-04-01T12:25:00Z</time>
      </trkpt>
      <trkpt lat="62.632011187958" lon="17.798399877578">
        <ele>84.2</ele>
        <time>2018-04-01T12:25:01Z</time>
      </trkpt>
      <trkpt lat="62.632017977297" lon="17.798493503401">
        <ele>84.2</ele>
        <time>2018-04-01T12:25:02Z</time>
      </trkpt>
      <trkpt lat="62.632027616482" lon="17.798594756753">
        <ele>84.4</ele>
        <time>2018-04-01T12:25:03Z</time>
      </trkpt>
      <trkpt lat="62.632036501296" lon="17.79869223825">
        <ele>84.4</ele>
        <time>2018-04-01T12:25:04Z</time>
      </trkpt>
      <trkpt lat="62.632041781893" lon="17.798785696435">
        <ele>84.6</ele>
        <time>2018-04-01T12:25:05Z</time>
      </trkpt>
      <trkpt lat="62.632046643395" lon="17.798885608683">
        <ele>84.6</ele>
        <time>2018-04-01T12:25:06Z</time>
      </trkpt>
      <trkpt lat="62.632052426906" lon="17.798981749076">
        <ele>84.6</ele>
        <time>2018-04-01T12:25:07Z</time>
      </trkpt>
      <trkpt lat="62.632057539865" lon="17.799086439007">
        <ele>84.8</ele>
        <time>2018-04-01T12:25:08Z</time>
      </trkpt>
      <trkpt lat="62.632062652824" lon="17.799187021807">
        <ele>84.8</ele>
        <time>2018-04-01T12:25:09Z</time>
      </trkpt>
      <trkpt lat="62.63206885543" lon="17.799286179684">
        <ele>85</ele>
        <time>2018-04-01T12:25:10Z</time>
      </trkpt>
      <trkpt lat="62.632073549294" lon="17.799380727516">
        <ele>85</ele>
        <time>2018-04-01T12:25:11Z</time>
      </trkpt>
      <trkpt lat="62.63207807552" lon="17.799481729411">
        <ele>85</ele>
        <time>2018-04-01T12:25:12Z</time>
      </trkpt>
      <trkpt lat="62.632083020841" lon="17.79958742517">
        <ele>85.2</ele>
        <time>2018-04-01T12:25:13Z</time>
      </trkpt>
      <trkpt lat="62.632089474904" lon="17.799692618015">
        <ele>85.2</ele>
        <time>2018-04-01T12:25:14Z</time>
      </trkpt>
      <trkpt lat="62.632094084949" lon="17.799795966842">
        <ele>85.4</ele>
        <time>2018-04-01T12:25:15Z</time>
      </trkpt>
      <trkpt lat="62.632098946451" lon="17.799900572954">
        <ele>85.4</ele>
        <time>2018-04-01T12:25:16Z</time>
      </trkpt>
      <trkpt lat="62.632102299211" lon="17.799989421094">
        <ele>85.4</ele>
        <time>2018-04-01T12:25:17Z</time>
      </trkpt>
      <trkpt lat="62.63210741217" lon="17.800119592001">
        <ele>85.4</ele>
        <time>2018-04-01T12:25:18Z</time>
      </trkpt>
      <trkpt lat="62.632109423826" lon="17.80023115509">
        <ele>85.4</ele>
        <time>2018-04-01T12:25:19Z</time>
      </trkpt>
      <trkpt lat="62.632113530957" lon="17.80034431074">
        <ele>85.6</ele>
        <time>2018-04-01T12:25:20Z</time>
      </trkpt>
      <trkpt lat="62.632118560097" lon="17.800451515241">
        <ele>85.6</ele>
        <time>2018-04-01T12:25:21Z</time>
      </trkpt>
      <trkpt lat="62.632123840694" lon="17.800562994511">
        <ele>85.6</ele>
        <time>2018-04-01T12:25:22Z</time>
      </trkpt>
      <trkpt lat="62.632132976965" lon="17.800676401618">
        <ele>85.6</ele>
        <time>2018-04-01T12:25:23Z</time>
      </trkpt>
      <trkpt lat="62.632139347209" lon="17.800776481504">
        <ele>85.6</ele>
        <time>2018-04-01T12:25:24Z</time>
      </trkpt>
      <trkpt lat="62.632146890919" lon="17.800915034311">
        <ele>85.6</ele>
        <time>2018-04-01T12:25:25Z</time>
      </trkpt>
      <trkpt lat="62.632152590611" lon="17.80103246473">
        <ele>85.6</ele>
        <time>2018-04-01T12:25:26Z</time>
      </trkpt>
      <trkpt lat="62.632155272819" lon="17.801145704199">
        <ele>85.6</ele>
        <time>2018-04-01T12:25:27Z</time>
      </trkpt>
      <trkpt lat="62.63216021814" lon="17.801272354708">
        <ele>85.6</ele>
        <time>2018-04-01T12:25:28Z</time>
      </trkpt>
      <trkpt lat="62.632165834013" lon="17.801386013272">
        <ele>85.4</ele>
        <time>2018-04-01T12:25:29Z</time>
      </trkpt>
      <trkpt lat="62.632170695515" lon="17.801511238858">
        <ele>85.4</ele>
        <time>2018-04-01T12:25:30Z</time>
      </trkpt>
      <trkpt lat="62.632177401035" lon="17.801630429476">
        <ele>85.2</ele>
        <time>2018-04-01T12:25:31Z</time>
      </trkpt>
      <trkpt lat="62.632184609469" lon="17.801742495479">
        <ele>85</ele>
        <time>2018-04-01T12:25:32Z</time>
      </trkpt>
      <trkpt lat="62.632193410464" lon="17.801870487092">
        <ele>85</ele>
        <time>2018-04-01T12:25:33Z</time>
      </trkpt>
      <trkpt lat="62.632202295278" lon="17.801994120117">
        <ele>85</ele>
        <time>2018-04-01T12:25:34Z</time>
      </trkpt>
      <trkpt lat="62.632212605015" lon="17.802110628527">
        <ele>85</ele>
        <time>2018-04-01T12:25:35Z</time>
      </trkpt>
      <trkpt lat="62.632225848417" lon="17.802240212701">
        <ele>85</ele>
        <time>2018-04-01T12:25:36Z</time>
      </trkpt>
      <trkpt lat="62.632239678552" lon="17.802363426631">
        <ele>85</ele>
        <time>2018-04-01T12:25:37Z</time>
      </trkpt>
      <trkpt lat="62.632253424868" lon="17.802497537031">
        <ele>84.8</ele>
        <time>2018-04-01T12:25:38Z</time>
      </trkpt>
      <trkpt lat="62.632268260831" lon="17.802624355178">
        <ele>84.6</ele>
        <time>2018-04-01T12:25:39Z</time>
      </trkpt>
      <trkpt lat="62.632283683527" lon="17.80275662156">
        <ele>84.4</ele>
        <time>2018-04-01T12:25:40Z</time>
      </trkpt>
      <trkpt lat="62.632297848938" lon="17.802882433879">
        <ele>84.2</ele>
        <time>2018-04-01T12:25:41Z</time>
      </trkpt>
      <trkpt lat="62.632315115652" lon="17.803019310306">
        <ele>83.8</ele>
        <time>2018-04-01T12:25:42Z</time>
      </trkpt>
      <trkpt lat="62.632337160049" lon="17.803162137882">
        <ele>83.6</ele>
        <time>2018-04-01T12:25:43Z</time>
      </trkpt>
      <trkpt lat="62.632359791179" lon="17.803302869983">
        <ele>83.2</ele>
        <time>2018-04-01T12:25:44Z</time>
      </trkpt>
      <trkpt lat="62.632382673766" lon="17.803442596256">
        <ele>82.8</ele>
        <time>2018-04-01T12:25:45Z</time>
      </trkpt>
      <trkpt lat="62.632405723991" lon="17.803585759108">
        <ele>82.4</ele>
        <time>2018-04-01T12:25:46Z</time>
      </trkpt>
      <trkpt lat="62.632424667085" lon="17.803700926414">
        <ele>82.2</ele>
        <time>2018-04-01T12:25:47Z</time>
      </trkpt>
      <trkpt lat="62.632454339011" lon="17.803866217482">
        <ele>82</ele>
        <time>2018-04-01T12:25:48Z</time>
      </trkpt>
      <trkpt lat="62.632480071444" lon="17.804001501348">
        <ele>81.8</ele>
        <time>2018-04-01T12:25:49Z</time>
      </trkpt>
      <trkpt lat="62.632507899352" lon="17.804137539585">
        <ele>81.4</ele>
        <time>2018-04-01T12:25:50Z</time>
      </trkpt>
      <trkpt lat="62.632534469975" lon="17.804265615017">
        <ele>81.2</ele>
        <time>2018-04-01T12:25:51Z</time>
      </trkpt>
      <trkpt lat="62.632560118589" lon="17.80439947396">
        <ele>80.8</ele>
        <time>2018-04-01T12:25:52Z</time>
      </trkpt>
      <trkpt lat="62.632586102479" lon="17.804534254912">
        <ele>80.6</ele>
        <time>2018-04-01T12:25:53Z</time>
      </trkpt>
      <trkpt lat="62.632614684758" lon="17.804672975357">
        <ele>80.6</ele>
        <time>2018-04-01T12:25:54Z</time>
      </trkpt>
      <trkpt lat="62.632639327544" lon="17.804799625866">
        <ele>80.2</ele>
        <time>2018-04-01T12:25:55Z</time>
      </trkpt>
      <trkpt lat="62.632666652538" lon="17.804922588339">
        <ele>80</ele>
        <time>2018-04-01T12:25:56Z</time>
      </trkpt>
      <trkpt lat="62.632695067179" lon="17.80503649836">
        <ele>79.8</ele>
        <time>2018-04-01T12:25:57Z</time>
      </trkpt>
      <trkpt lat="62.632726247847" lon="17.805165160525">
        <ele>79.4</ele>
        <time>2018-04-01T12:25:58Z</time>
      </trkpt>
      <trkpt lat="62.632754159574" lon="17.805280914564">
        <ele>79.2</ele>
        <time>2018-04-01T12:25:59Z</time>
      </trkpt>
      <trkpt lat="62.632784585871" lon="17.805412929489">
        <ele>78.8</ele>
        <time>2018-04-01T12:26:00Z</time>
      </trkpt>
      <trkpt lat="62.632812246141" lon="17.805536227238">
        <ele>78.6</ele>
        <time>2018-04-01T12:26:01Z</time>
      </trkpt>
      <trkpt lat="62.632837727117" lon="17.805649299069">
        <ele>78.4</ele>
        <time>2018-04-01T12:26:02Z</time>
      </trkpt>
      <trkpt lat="62.632867985776" lon="17.80577829651">
        <ele>78</ele>
        <time>2018-04-01T12:26:03Z</time>
      </trkpt>
      <trkpt lat="62.632896735693" lon="17.805897403309">
        <ele>78</ele>
        <time>2018-04-01T12:26:04Z</time>
      </trkpt>
      <trkpt lat="62.632922300488" lon="17.806002679973">
        <ele>77.8</ele>
        <time>2018-04-01T12:26:05Z</time>
      </trkpt>
      <trkpt lat="62.632949290206" lon="17.80611943984">
        <ele>77.8</ele>
        <time>2018-04-01T12:26:06Z</time>
      </trkpt>
      <trkpt lat="62.632974855001" lon="17.806227147255">
        <ele>77.6</ele>
        <time>2018-04-01T12:26:07Z</time>
      </trkpt>
      <trkpt lat="62.6330017609" lon="17.806341308733">
        <ele>77.8</ele>
        <time>2018-04-01T12:26:08Z</time>
      </trkpt>
      <trkpt lat="62.633027158057" lon="17.806448764691">
        <ele>77.8</ele>
        <time>2018-04-01T12:26:09Z</time>
      </trkpt>
      <trkpt lat="62.633050795015" lon="17.806552029699">
        <ele>77.8</ele>
        <time>2018-04-01T12:26:10Z</time>
      </trkpt>
      <trkpt lat="62.633074431973" lon="17.806644733513">
        <ele>77.8</ele>
        <time>2018-04-01T12:26:11Z</time>
      </trkpt>
      <trkpt lat="62.633098068931" lon="17.80674053863">
        <ele>77.8</ele>
        <time>2018-04-01T12:26:12Z</time>
      </trkpt>
      <trkpt lat="62.633122041165" lon="17.806839025955">
        <ele>78</ele>
        <time>2018-04-01T12:26:13Z</time>
      </trkpt>
      <trkpt lat="62.633143666467" lon="17.806930304846">
        <ele>78.2</ele>
        <time>2018-04-01T12:26:14Z</time>
      </trkpt>
      <trkpt lat="62.633164118303" lon="17.807016889873">
        <ele>78.2</ele>
        <time>2018-04-01T12:26:15Z</time>
      </trkpt>
      <trkpt lat="62.63318700089" lon="17.807100792692">
        <ele>78.4</ele>
        <time>2018-04-01T12:26:16Z</time>
      </trkpt>
      <trkpt lat="62.63320376469" lon="17.807169524272">
        <ele>78.4</ele>
        <time>2018-04-01T12:26:17Z</time>
      </trkpt>
      <trkpt lat="62.633228826571" lon="17.807266419036">
        <ele>78.6</ele>
        <time>2018-04-01T12:26:18Z</time>
      </trkpt>
      <trkpt lat="62.633249278407" lon="17.807346885276">
        <ele>78.6</ele>
        <time>2018-04-01T12:26:19Z</time>
      </trkpt>
      <trkpt lat="62.633271825718" lon="17.807425842774">
        <ele>78.8</ele>
        <time>2018-04-01T12:26:20Z</time>
      </trkpt>
      <trkpt lat="62.63329345102" lon="17.807501279874">
        <ele>79</ele>
        <time>2018-04-01T12:26:21Z</time>
      </trkpt>
      <trkpt lat="62.633315160141" lon="17.807579483001">
        <ele>79.2</ele>
        <time>2018-04-01T12:26:22Z</time>
      </trkpt>
      <trkpt lat="62.633335863434" lon="17.807659530146">
        <ele>79.4</ele>
        <time>2018-04-01T12:26:23Z</time>
      </trkpt>
      <trkpt lat="62.63335799165" lon="17.807743935879">
        <ele>79.8</ele>
        <time>2018-04-01T12:26:24Z</time>
      </trkpt>
      <trkpt lat="62.633379030219" lon="17.807823061015">
        <ele>80</ele>
        <time>2018-04-01T12:26:25Z</time>
      </trkpt>
      <trkpt lat="62.63340073934" lon="17.807902437608">
        <ele>80</ele>
        <time>2018-04-01T12:26:26Z</time>
      </trkpt>
      <trkpt lat="62.633421023538" lon="17.807974605767">
        <ele>80</ele>
        <time>2018-04-01T12:26:27Z</time>
      </trkpt>
      <trkpt lat="62.633444409039" lon="17.808058927681">
        <ele>80</ele>
        <time>2018-04-01T12:26:28Z</time>
      </trkpt>
      <trkpt lat="62.633466872531" lon="17.808130928202">
        <ele>80</ele>
        <time>2018-04-01T12:26:29Z</time>
      </trkpt>
      <trkpt lat="62.63348539653" lon="17.808189936778">
        <ele>80.2</ele>
        <time>2018-04-01T12:26:30Z</time>
      </trkpt>
      <trkpt lat="62.633518421216" lon="17.808292782691">
        <ele>80.2</ele>
        <time>2018-04-01T12:26:31Z</time>
      </trkpt>
      <trkpt lat="62.633542058174" lon="17.808367716877">
        <ele>80.4</ele>
        <time>2018-04-01T12:26:32Z</time>
      </trkpt>
      <trkpt lat="62.633569466987" lon="17.808456062103">
        <ele>80.4</ele>
        <time>2018-04-01T12:26:33Z</time>
      </trkpt>
      <trkpt lat="62.633597043438" lon="17.808534097592">
        <ele>80.6</ele>
        <time>2018-04-01T12:26:34Z</time>
      </trkpt>
      <trkpt lat="62.633624116975" lon="17.808607103941">
        <ele>80.6</ele>
        <time>2018-04-01T12:26:35Z</time>
      </trkpt>
      <trkpt lat="62.633651777245" lon="17.808687067267">
        <ele>80.8</ele>
        <time>2018-04-01T12:26:36Z</time>
      </trkpt>
      <trkpt lat="62.633679940429" lon="17.808766108584">
        <ele>80.6</ele>
        <time>2018-04-01T12:26:37Z</time>
      </trkpt>
      <trkpt lat="62.633710115269" lon="17.808854034715">
        <ele>80.6</ele>
        <time>2018-04-01T12:26:38Z</time>
      </trkpt>
      <trkpt lat="62.633739116643" lon="17.808932992213">
        <ele>80.6</ele>
        <time>2018-04-01T12:26:39Z</time>
      </trkpt>
      <trkpt lat="62.633771051682" lon="17.80901035715">
        <ele>80.8</ele>
        <time>2018-04-01T12:26:40Z</time>
      </trkpt>
      <trkpt lat="62.633801477979" lon="17.809084704603">
        <ele>80.8</ele>
        <time>2018-04-01T12:26:41Z</time>
      </trkpt>
      <trkpt lat="62.633832993923" lon="17.809165673757">
        <ele>80.8</ele>
        <time>2018-04-01T12:26:42Z</time>
      </trkpt>
      <trkpt lat="62.633867192075" lon="17.809250247128">
        <ele>80.8</ele>
        <time>2018-04-01T12:26:43Z</time>
      </trkpt>
      <trkpt lat="62.633902228417" lon="17.809332641205">
        <ele>80.8</ele>
        <time>2018-04-01T12:26:44Z</time>
      </trkpt>
      <trkpt lat="62.633937516216" lon="17.809411179608">
        <ele>80.8</ele>
        <time>2018-04-01T12:26:45Z</time>
      </trkpt>
      <trkpt lat="62.633972804015" lon="17.809490891477">
        <ele>80.8</ele>
        <time>2018-04-01T12:26:46Z</time>
      </trkpt>
      <trkpt lat="62.634002811217" lon="17.809555264469">
        <ele>80.8</ele>
        <time>2018-04-01T12:26:47Z</time>
      </trkpt>
      <trkpt lat="62.634047486744" lon="17.809646124265">
        <ele>80.8</ele>
        <time>2018-04-01T12:26:48Z</time>
      </trkpt>
      <trkpt lat="62.634084199466" lon="17.809725500858">
        <ele>80.8</ele>
        <time>2018-04-01T12:26:49Z</time>
      </trkpt>
      <trkpt lat="62.634121498921" lon="17.809803452528">
        <ele>80.8</ele>
        <time>2018-04-01T12:26:50Z</time>
      </trkpt>
      <trkpt lat="62.634158295462" lon="17.80987620742">
        <ele>80.8</ele>
        <time>2018-04-01T12:26:51Z</time>
      </trkpt>
      <trkpt lat="62.634197941849" lon="17.809950135778">
        <ele>80.8</ele>
        <time>2018-04-01T12:26:52Z</time>
      </trkpt>
      <trkpt lat="62.634237336779" lon="17.810028171267">
        <ele>80.6</ele>
        <time>2018-04-01T12:26:53Z</time>
      </trkpt>
      <trkpt lat="62.634280335926" lon="17.81010838605">
        <ele>80.6</ele>
        <time>2018-04-01T12:26:54Z</time>
      </trkpt>
      <trkpt lat="62.634322580702" lon="17.810181057123">
        <ele>80.6</ele>
        <time>2018-04-01T12:26:55Z</time>
      </trkpt>
      <trkpt lat="62.634363735831" lon="17.810255823671">
        <ele>80.6</ele>
        <time>2018-04-01T12:26:56Z</time>
      </trkpt>
      <trkpt lat="62.634402544028" lon="17.810326986002">
        <ele>80.4</ele>
        <time>2018-04-01T12:26:57Z</time>
      </trkpt>
      <trkpt lat="62.634446549003" lon="17.810406111138">
        <ele>80.4</ele>
        <time>2018-04-01T12:26:58Z</time>
      </trkpt>
      <trkpt lat="62.634486027752" lon="17.810479033668">
        <ele>80.4</ele>
        <time>2018-04-01T12:26:59Z</time>
      </trkpt>
      <trkpt lat="62.634530284184" lon="17.810561595383">
        <ele>80.2</ele>
        <time>2018-04-01T12:27:00Z</time>
      </trkpt>
      <trkpt lat="62.634573534788" lon="17.810633260628">
        <ele>80.2</ele>
        <time>2018-04-01T12:27:01Z</time>
      </trkpt>
      <trkpt lat="62.634615444288" lon="17.810700734923">
        <ele>80.2</ele>
        <time>2018-04-01T12:27:02Z</time>
      </trkpt>
      <trkpt lat="62.63466221529" lon="17.81077893805">
        <ele>80</ele>
        <time>2018-04-01T12:27:03Z</time>
      </trkpt>
      <trkpt lat="62.634706555541" lon="17.81085688972">
        <ele>79.8</ele>
        <time>2018-04-01T12:27:04Z</time>
      </trkpt>
      <trkpt lat="62.634747543032" lon="17.810929057879">
        <ele>79.8</ele>
        <time>2018-04-01T12:27:05Z</time>
      </trkpt>
      <trkpt lat="62.634793308206" lon="17.811006506635">
        <ele>79.8</ele>
        <time>2018-04-01T12:27:06Z</time>
      </trkpt>
      <trkpt lat="62.634837648457" lon="17.811080937907">
        <ele>79.6</ele>
        <time>2018-04-01T12:27:07Z</time>
      </trkpt>
      <trkpt lat="62.634885341468" lon="17.811163583441">
        <ele>79.8</ele>
        <time>2018-04-01T12:27:08Z</time>
      </trkpt>
      <trkpt lat="62.63493043609" lon="17.81124078074">
        <ele>79.8</ele>
        <time>2018-04-01T12:27:09Z</time>
      </trkpt>
      <trkpt lat="62.634975446893" lon="17.811318648591">
        <ele>79.8</ele>
        <time>2018-04-01T12:27:10Z</time>
      </trkpt>
      <trkpt lat="62.635018697497" lon="17.811391990216">
        <ele>79.8</ele>
        <time>2018-04-01T12:27:11Z</time>
      </trkpt>
      <trkpt lat="62.635064043576" lon="17.811470360981">
        <ele>80</ele>
        <time>2018-04-01T12:27:12Z</time>
      </trkpt>
      <trkpt lat="62.635110898397" lon="17.811554766714">
        <ele>79.8</ele>
        <time>2018-04-01T12:27:13Z</time>
      </trkpt>
      <trkpt lat="62.635155741562" lon="17.811635652049">
        <ele>79.6</ele>
        <time>2018-04-01T12:27:14Z</time>
      </trkpt>
      <trkpt lat="62.635201087641" lon="17.811711424425">
        <ele>79.6</ele>
        <time>2018-04-01T12:27:15Z</time>
      </trkpt>
      <trkpt lat="62.635245930806" lon="17.811788454086">
        <ele>79.6</ele>
        <time>2018-04-01T12:27:16Z</time>
      </trkpt>
      <trkpt lat="62.635281889157" lon="17.811854754915">
        <ele>79.6</ele>
        <time>2018-04-01T12:27:17Z</time>
      </trkpt>
      <trkpt lat="62.635333102566" lon="17.81194988948">
        <ele>79.6</ele>
        <time>2018-04-01T12:27:18Z</time>
      </trkpt>
      <trkpt lat="62.63537719136" lon="17.812028344064">
        <ele>79.4</ele>
        <time>2018-04-01T12:27:19Z</time>
      </trkpt>
      <trkpt lat="62.635421112516" lon="17.812105541363">
        <ele>79.4</ele>
        <time>2018-04-01T12:27:20Z</time>
      </trkpt>
      <trkpt lat="62.635462519102" lon="17.812180475549">
        <ele>79.4</ele>
        <time>2018-04-01T12:27:21Z</time>
      </trkpt>
      <trkpt lat="62.635505350611" lon="17.81226001978">
        <ele>79.4</ele>
        <time>2018-04-01T12:27:22Z</time>
      </trkpt>
      <trkpt lat="62.635547176292" lon="17.812342832952">
        <ele>79.2</ele>
        <time>2018-04-01T12:27:23Z</time>
      </trkpt>
      <trkpt lat="62.635591684181" lon="17.812434195662">
        <ele>79.2</ele>
        <time>2018-04-01T12:27:24Z</time>
      </trkpt>
      <trkpt lat="62.635632671672" lon="17.812521702698">
        <ele>79.2</ele>
        <time>2018-04-01T12:27:25Z</time>
      </trkpt>
      <trkpt lat="62.635673994439" lon="17.812611472847">
        <ele>79.2</ele>
        <time>2018-04-01T12:27:26Z</time>
      </trkpt>
      <trkpt lat="62.635711712989" lon="17.812694369838">
        <ele>79.2</ele>
        <time>2018-04-01T12:27:27Z</time>
      </trkpt>
      <trkpt lat="62.635752029928" lon="17.812787576566">
        <ele>79.2</ele>
        <time>2018-04-01T12:27:28Z</time>
      </trkpt>
      <trkpt lat="62.635787988279" lon="17.812872401394">
        <ele>79.2</ele>
        <time>2018-04-01T12:27:29Z</time>
      </trkpt>
      <trkpt lat="62.635826377381" lon="17.812970469624">
        <ele>79.2</ele>
        <time>2018-04-01T12:27:30Z</time>
      </trkpt>
      <trkpt lat="62.635861748999" lon="17.813062670524">
        <ele>79.4</ele>
        <time>2018-04-01T12:27:31Z</time>
      </trkpt>
      <trkpt lat="62.635895695694" lon="17.813151267207">
        <ele>79.4</ele>
        <time>2018-04-01T12:27:32Z</time>
      </trkpt>
      <trkpt lat="62.635931654045" lon="17.813249251618">
        <ele>79.4</ele>
        <time>2018-04-01T12:27:33Z</time>
      </trkpt>
      <trkpt lat="62.635966858025" lon="17.813340781966">
        <ele>79.4</ele>
        <time>2018-04-01T12:27:34Z</time>
      </trkpt>
      <trkpt lat="62.635998373969" lon="17.813429713925">
        <ele>79.4</ele>
        <time>2018-04-01T12:27:35Z</time>
      </trkpt>
      <trkpt lat="62.636032488302" lon="17.813525267585">
        <ele>79.4</ele>
        <time>2018-04-01T12:27:36Z</time>
      </trkpt>
      <trkpt lat="62.636065932083" lon="17.813618558132">
        <ele>79.2</ele>
        <time>2018-04-01T12:27:37Z</time>
      </trkpt>
      <trkpt lat="62.636099794959" lon="17.813717213095">
        <ele>79.4</ele>
        <time>2018-04-01T12:27:38Z</time>
      </trkpt>
      <trkpt lat="62.636130388894" lon="17.813812096203">
        <ele>79.4</ele>
        <time>2018-04-01T12:27:39Z</time>
      </trkpt>
      <trkpt lat="62.636160144639" lon="17.813906644035">
        <ele>79.4</ele>
        <time>2018-04-01T12:27:40Z</time>
      </trkpt>
      <trkpt lat="62.636188643099" lon="17.813996917098">
        <ele>79.6</ele>
        <time>2018-04-01T12:27:41Z</time>
      </trkpt>
      <trkpt lat="62.636217644473" lon="17.814093644224">
        <ele>79.6</ele>
        <time>2018-04-01T12:27:42Z</time>
      </trkpt>
      <trkpt lat="62.636248154589" lon="17.814196490137">
        <ele>79.6</ele>
        <time>2018-04-01T12:27:43Z</time>
      </trkpt>
      <trkpt lat="62.63627656923" lon="17.814293552539">
        <ele>79.8</ele>
        <time>2018-04-01T12:27:44Z</time>
      </trkpt>
      <trkpt lat="62.636303642767" lon="17.81438902238">
        <ele>80</ele>
        <time>2018-04-01T12:27:45Z</time>
      </trkpt>
      <trkpt lat="62.636331219218" lon="17.814483486393">
        <ele>80.2</ele>
        <time>2018-04-01T12:27:46Z</time>
      </trkpt>
      <trkpt lat="62.636352760701" lon="17.814567640669">
        <ele>80.4</ele>
        <time>2018-04-01T12:27:47Z</time>
      </trkpt>
      <trkpt lat="62.636380085695" lon="17.814674426075">
        <ele>80.6</ele>
        <time>2018-04-01T12:27:48Z</time>
      </trkpt>
      <trkpt lat="62.636404141748" lon="17.81477123702">
        <ele>80.8</ele>
        <time>2018-04-01T12:27:49Z</time>
      </trkpt>
      <trkpt lat="62.636427778706" lon="17.814869053793">
        <ele>80.8</ele>
        <time>2018-04-01T12:27:50Z</time>
      </trkpt>
      <trkpt lat="62.636449823103" lon="17.814963014892">
        <ele>81</ele>
        <time>2018-04-01T12:27:51Z</time>
      </trkpt>
      <trkpt lat="62.636472873328" lon="17.815063681511">
        <ele>81</ele>
        <time>2018-04-01T12:27:52Z</time>
      </trkpt>
      <trkpt lat="62.636496258829" lon="17.815166695062">
        <ele>81.2</ele>
        <time>2018-04-01T12:27:53Z</time>
      </trkpt>
      <trkpt lat="62.636518554683" lon="17.815274570115">
        <ele>81.2</ele>
        <time>2018-04-01T12:27:54Z</time>
      </trkpt>
      <trkpt lat="62.63653976089" lon="17.815379343865">
        <ele>81.2</ele>
        <time>2018-04-01T12:27:55Z</time>
      </trkpt>
      <trkpt lat="62.636560799459" lon="17.815484620529">
        <ele>81.4</ele>
        <time>2018-04-01T12:27:56Z</time>
      </trkpt>
      <trkpt lat="62.636580916019" lon="17.815582269664">
        <ele>81.4</ele>
        <time>2018-04-01T12:27:57Z</time>
      </trkpt>
      <trkpt lat="62.636601367855" lon="17.815694587124">
        <ele>81.4</ele>
        <time>2018-04-01T12:27:58Z</time>
      </trkpt>
      <trkpt lat="62.636619305121" lon="17.815792822992">
        <ele>81.6</ele>
        <time>2018-04-01T12:27:59Z</time>
      </trkpt>
      <trkpt lat="62.636639924595" lon="17.815902961158">
        <ele>81.6</ele>
        <time>2018-04-01T12:28:00Z</time>
      </trkpt>
      <trkpt lat="62.636657861861" lon="17.81600672908">
        <ele>81.6</ele>
        <time>2018-04-01T12:28:01Z</time>
      </trkpt>
      <trkpt lat="62.636674206566" lon="17.816103037111">
        <ele>81.6</ele>
        <time>2018-04-01T12:28:02Z</time>
      </trkpt>
      <trkpt lat="62.636695161316" lon="17.816213678191">
        <ele>81.8</ele>
        <time>2018-04-01T12:28:03Z</time>
      </trkpt>
      <trkpt lat="62.636713014763" lon="17.816315266819">
        <ele>81.8</ele>
        <time>2018-04-01T12:28:04Z</time>
      </trkpt>
      <trkpt lat="62.636730113839" lon="17.816413418868">
        <ele>81.8</ele>
        <time>2018-04-01T12:28:05Z</time>
      </trkpt>
      <trkpt lat="62.636748554019" lon="17.816518779351">
        <ele>82</ele>
        <time>2018-04-01T12:28:06Z</time>
      </trkpt>
      <trkpt lat="62.636767078018" lon="17.816620116522">
        <ele>82.2</ele>
        <time>2018-04-01T12:28:07Z</time>
      </trkpt>
      <trkpt lat="62.636784931465" lon="17.816728494489">
        <ele>82.2</ele>
        <time>2018-04-01T12:28:08Z</time>
      </trkpt>
      <trkpt lat="62.636802030541" lon="17.816829244927">
        <ele>82.4</ele>
        <time>2018-04-01T12:28:09Z</time>
      </trkpt>
      <trkpt lat="62.636820219264" lon="17.816925636777">
        <ele>82.4</ele>
        <time>2018-04-01T12:28:10Z</time>
      </trkpt>
      <trkpt lat="62.636835977236" lon="17.817018592048">
        <ele>82.4</ele>
        <time>2018-04-01T12:28:11Z</time>
      </trkpt>
      <trkpt lat="62.636853076312" lon="17.817114983898">
        <ele>82.6</ele>
        <time>2018-04-01T12:28:12Z</time>
      </trkpt>
      <trkpt lat="62.636871013578" lon="17.817214393232">
        <ele>82.6</ele>
        <time>2018-04-01T12:28:13Z</time>
      </trkpt>
      <trkpt lat="62.636887023007" lon="17.817316149498">
        <ele>82.6</ele>
        <time>2018-04-01T12:28:14Z</time>
      </trkpt>
      <trkpt lat="62.636904122083" lon="17.817411451701">
        <ele>82.6</ele>
        <time>2018-04-01T12:28:15Z</time>
      </trkpt>
      <trkpt lat="62.636920885883" lon="17.817509687569">
        <ele>82.6</ele>
        <time>2018-04-01T12:28:16Z</time>
      </trkpt>
      <trkpt lat="62.636935135113" lon="17.817594596216">
        <ele>82.6</ele>
        <time>2018-04-01T12:28:17Z</time>
      </trkpt>
      <trkpt lat="62.63695215037" lon="17.817704818201">
        <ele>82.6</ele>
        <time>2018-04-01T12:28:18Z</time>
      </trkpt>
      <trkpt lat="62.63696807598" lon="17.81780213206">
        <ele>82.6</ele>
        <time>2018-04-01T12:28:19Z</time>
      </trkpt>
      <trkpt lat="62.636985175056" lon="17.8178993621">
        <ele>82.6</ele>
        <time>2018-04-01T12:28:20Z</time>
      </trkpt>
      <trkpt lat="62.636999675743" lon="17.817993658475">
        <ele>82.4</ele>
        <time>2018-04-01T12:28:21Z</time>
      </trkpt>
      <trkpt lat="62.63701417643" lon="17.81809549856">
        <ele>82.4</ele>
        <time>2018-04-01T12:28:22Z</time>
      </trkpt>
      <trkpt lat="62.637031107868" lon="17.818199182663">
        <ele>82.4</ele>
        <time>2018-04-01T12:28:23Z</time>
      </trkpt>
      <trkpt lat="62.637048039306" lon="17.818310661933">
        <ele>82.4</ele>
        <time>2018-04-01T12:28:24Z</time>
      </trkpt>
      <trkpt lat="62.637064300192" lon="17.818416944425">
        <ele>82.6</ele>
        <time>2018-04-01T12:28:25Z</time>
      </trkpt>
      <trkpt lat="62.637081566906" lon="17.818522388727">
        <ele>82.6</ele>
        <time>2018-04-01T12:28:26Z</time>
      </trkpt>
      <trkpt lat="62.637098665982" lon="17.8186202055">
        <ele>82.6</ele>
        <time>2018-04-01T12:28:27Z</time>
      </trkpt>
      <trkpt lat="62.637116770886" lon="17.81873503753">
        <ele>82.6</ele>
        <time>2018-04-01T12:28:28Z</time>
      </trkpt>
      <trkpt lat="62.637132612677" lon="17.818839978918">
        <ele>82.8</ele>
        <time>2018-04-01T12:28:29Z</time>
      </trkpt>
      <trkpt lat="62.637151052857" lon="17.818956487328">
        <ele>82.6</ele>
        <time>2018-04-01T12:28:30Z</time>
      </trkpt>
      <trkpt lat="62.637169912132" lon="17.819064697657">
        <ele>82.6</ele>
        <time>2018-04-01T12:28:31Z</time>
      </trkpt>
      <trkpt lat="62.637187178846" lon="17.819166956837">
        <ele>82.8</ele>
        <time>2018-04-01T12:28:32Z</time>
      </trkpt>
      <trkpt lat="62.637205199931" lon="17.819282794695">
        <ele>82.8</ele>
        <time>2018-04-01T12:28:33Z</time>
      </trkpt>
      <trkpt lat="62.637224226844" lon="17.819390418291">
        <ele>82.6</ele>
        <time>2018-04-01T12:28:34Z</time>
      </trkpt>
      <trkpt lat="62.637238140798" lon="17.819494018575">
        <ele>82.8</ele>
        <time>2018-04-01T12:28:35Z</time>
      </trkpt>
      <trkpt lat="62.637255156055" lon="17.81960591694">
        <ele>82.8</ele>
        <time>2018-04-01T12:28:36Z</time>
      </trkpt>
      <trkpt lat="62.637271584579" lon="17.819712953803">
        <ele>82.8</ele>
        <time>2018-04-01T12:28:37Z</time>
      </trkpt>
      <trkpt lat="62.637286839637" lon="17.819831306231">
        <ele>82.8</ele>
        <time>2018-04-01T12:28:38Z</time>
      </trkpt>
      <trkpt lat="62.637309135491" lon="17.819938846008">
        <ele>82.8</ele>
        <time>2018-04-01T12:28:39Z</time>
      </trkpt>
      <trkpt lat="62.637328749137" lon="17.820049822364">
        <ele>82.8</ele>
        <time>2018-04-01T12:28:40Z</time>
      </trkpt>
      <trkpt lat="62.637346434946" lon="17.820157781236">
        <ele>82.6</ele>
        <time>2018-04-01T12:28:41Z</time>
      </trkpt>
      <trkpt lat="62.637362612013" lon="17.820274205827">
        <ele>82.6</ele>
        <time>2018-04-01T12:28:42Z</time>
      </trkpt>
      <trkpt lat="62.637380800736" lon="17.820396916843">
        <ele>82.6</ele>
        <time>2018-04-01T12:28:43Z</time>
      </trkpt>
      <trkpt lat="62.63739806745" lon="17.820512335606">
        <ele>82.4</ele>
        <time>2018-04-01T12:28:44Z</time>
      </trkpt>
      <trkpt lat="62.637414915069" lon="17.820626329446">
        <ele>82.4</ele>
        <time>2018-04-01T12:28:45Z</time>
      </trkpt>
      <trkpt lat="62.637432265602" lon="17.820739904191">
        <ele>82.4</ele>
        <time>2018-04-01T12:28:46Z</time>
      </trkpt>
      <trkpt lat="62.637446431013" lon="17.820833362376">
        <ele>82.4</ele>
        <time>2018-04-01T12:28:47Z</time>
      </trkpt>
      <trkpt lat="62.637466296116" lon="17.820969316794">
        <ele>82.4</ele>
        <time>2018-04-01T12:28:48Z</time>
      </trkpt>
      <trkpt lat="62.63748188645" lon="17.821085573747">
        <ele>82.4</ele>
        <time>2018-04-01T12:28:49Z</time>
      </trkpt>
      <trkpt lat="62.637498482612" lon="17.82120099251">
        <ele>82.4</ele>
        <time>2018-04-01T12:28:50Z</time>
      </trkpt>
      <trkpt lat="62.637513234756" lon="17.821311717409">
        <ele>82.4</ele>
        <time>2018-04-01T12:28:51Z</time>
      </trkpt>
      <trkpt lat="62.637529411823" lon="17.821425543611">
        <ele>82.4</ele>
        <time>2018-04-01T12:28:52Z</time>
      </trkpt>
      <trkpt lat="62.637544834519" lon="17.821541213831">
        <ele>82.2</ele>
        <time>2018-04-01T12:28:53Z</time>
      </trkpt>
      <trkpt lat="62.637561179224" lon="17.82166367339">
        <ele>82.2</ele>
        <time>2018-04-01T12:28:54Z</time>
      </trkpt>
      <trkpt lat="62.637577607748" lon="17.82178101999">
        <ele>82.2</ele>
        <time>2018-04-01T12:28:55Z</time>
      </trkpt>
      <trkpt lat="62.637593952453" lon="17.821897779857">
        <ele>82.2</ele>
        <time>2018-04-01T12:28:56Z</time>
      </trkpt>
      <trkpt lat="62.63761096771" lon="17.822005151996">
        <ele>82.2</ele>
        <time>2018-04-01T12:28:57Z</time>
      </trkpt>
      <trkpt lat="62.637629324071" lon="17.822128282107">
        <ele>82.2</ele>
        <time>2018-04-01T12:28:58Z</time>
      </trkpt>
      <trkpt lat="62.637645165862" lon="17.822237665902">
        <ele>82.2</ele>
        <time>2018-04-01T12:28:59Z</time>
      </trkpt>
      <trkpt lat="62.637660756196" lon="17.822362472393">
        <ele>82.2</ele>
        <time>2018-04-01T12:29:00Z</time>
      </trkpt>
      <trkpt lat="62.637676765625" lon="17.822480321907">
        <ele>82</ele>
        <time>2018-04-01T12:29:01Z</time>
      </trkpt>
      <trkpt lat="62.637691601588" lon="17.822589454245">
        <ele>82</ele>
        <time>2018-04-01T12:29:02Z</time>
      </trkpt>
      <trkpt lat="62.637708952121" lon="17.822715434202">
        <ele>82</ele>
        <time>2018-04-01T12:29:03Z</time>
      </trkpt>
      <trkpt lat="62.637726051197" lon="17.822834038087">
        <ele>82</ele>
        <time>2018-04-01T12:29:04Z</time>
      </trkpt>
      <trkpt lat="62.637742144445" lon="17.822946858461">
        <ele>82</ele>
        <time>2018-04-01T12:29:05Z</time>
      </trkpt>
      <trkpt lat="62.637758405331" lon="17.823068898925">
        <ele>82</ele>
        <time>2018-04-01T12:29:06Z</time>
      </trkpt>
      <trkpt lat="62.637773157475" lon="17.823188341">
        <ele>81.8</ele>
        <time>2018-04-01T12:29:07Z</time>
      </trkpt>
      <trkpt lat="62.637788915447" lon="17.82331658407">
        <ele>82</ele>
        <time>2018-04-01T12:29:08Z</time>
      </trkpt>
      <trkpt lat="62.637803332315" lon="17.823439881819">
        <ele>82</ele>
        <time>2018-04-01T12:29:09Z</time>
      </trkpt>
      <trkpt lat="62.63781716245" lon="17.823560832636">
        <ele>81.8</ele>
        <time>2018-04-01T12:29:10Z</time>
      </trkpt>
      <trkpt lat="62.637830154395" lon="17.823675999942">
        <ele>81.8</ele>
        <time>2018-04-01T12:29:11Z</time>
      </trkpt>
      <trkpt lat="62.637842643426" lon="17.823797537492">
        <ele>81.8</ele>
        <time>2018-04-01T12:29:12Z</time>
      </trkpt>
      <trkpt lat="62.637856054466" lon="17.823926367295">
        <ele>81.6</ele>
        <time>2018-04-01T12:29:13Z</time>
      </trkpt>
      <trkpt lat="62.637868711135" lon="17.824048575397">
        <ele>81.6</ele>
        <time>2018-04-01T12:29:14Z</time>
      </trkpt>
      <trkpt lat="62.637880278157" lon="17.824171789327">
        <ele>81.4</ele>
        <time>2018-04-01T12:29:15Z</time>
      </trkpt>
      <trkpt lat="62.637891174627" lon="17.824296679637">
        <ele>81.4</ele>
        <time>2018-04-01T12:29:16Z</time>
      </trkpt>
      <trkpt lat="62.637901484364" lon="17.824399274093">
        <ele>81.2</ele>
        <time>2018-04-01T12:29:17Z</time>
      </trkpt>
      <trkpt lat="62.637916571784" lon="17.824544867696">
        <ele>81.2</ele>
        <time>2018-04-01T12:29:18Z</time>
      </trkpt>
      <trkpt lat="62.637928893177" lon="17.824666489065">
        <ele>81.2</ele>
        <time>2018-04-01T12:29:19Z</time>
      </trkpt>
      <trkpt lat="62.637939957285" lon="17.824786685511">
        <ele>81.2</ele>
        <time>2018-04-01T12:29:20Z</time>
      </trkpt>
      <trkpt lat="62.63795043466" lon="17.824903026283">
        <ele>81.2</ele>
        <time>2018-04-01T12:29:21Z</time>
      </trkpt>
      <trkpt lat="62.637962588415" lon="17.825023893281">
        <ele>81.2</ele>
        <time>2018-04-01T12:29:22Z</time>
      </trkpt>
      <trkpt lat="62.637973820161" lon="17.825150962885">
        <ele>81.2</ele>
        <time>2018-04-01T12:29:23Z</time>
      </trkpt>
      <trkpt lat="62.637984129898" lon="17.825283229267">
        <ele>81</ele>
        <time>2018-04-01T12:29:24Z</time>
      </trkpt>
      <trkpt lat="62.637994523454" lon="17.825410047414">
        <ele>81</ele>
        <time>2018-04-01T12:29:25Z</time>
      </trkpt>
      <trkpt lat="62.638005000829" lon="17.825539212493">
        <ele>81</ele>
        <time>2018-04-01T12:29:26Z</time>
      </trkpt>
      <trkpt lat="62.638012628358" lon="17.825659660396">
        <ele>81</ele>
        <time>2018-04-01T12:29:27Z</time>
      </trkpt>
      <trkpt lat="62.638021513172" lon="17.825797877927">
        <ele>81</ele>
        <time>2018-04-01T12:29:28Z</time>
      </trkpt>
      <trkpt lat="62.638031319995" lon="17.825920672762">
        <ele>81</ele>
        <time>2018-04-01T12:29:29Z</time>
      </trkpt>
      <trkpt lat="62.638038779886" lon="17.826019830639">
        <ele>80.8</ele>
        <time>2018-04-01T12:29:30Z</time>
      </trkpt>
      <trkpt lat="62.63804934108" lon="17.826188977381">
        <ele>81</ele>
        <time>2018-04-01T12:29:31Z</time>
      </trkpt>
      <trkpt lat="62.638057890618" lon="17.826312023673">
        <ele>81.2</ele>
        <time>2018-04-01T12:29:32Z</time>
      </trkpt>
      <trkpt lat="62.63806610488" lon="17.82645476743">
        <ele>81</ele>
        <time>2018-04-01T12:29:33Z</time>
      </trkpt>
      <trkpt lat="62.63807197221" lon="17.826584854518">
        <ele>81</ele>
        <time>2018-04-01T12:29:34Z</time>
      </trkpt>
      <trkpt lat="62.638077168988" lon="17.826712762312">
        <ele>81.2</ele>
        <time>2018-04-01T12:29:35Z</time>
      </trkpt>
      <trkpt lat="62.638080940843" lon="17.826844861056">
        <ele>81.2</ele>
        <time>2018-04-01T12:29:36Z</time>
      </trkpt>
      <trkpt lat="62.638087227268" lon="17.826974277592">
        <ele>81</ele>
        <time>2018-04-01T12:29:37Z</time>
      </trkpt>
      <trkpt lat="62.638092843141" lon="17.827098581169">
        <ele>81</ele>
        <time>2018-04-01T12:29:38Z</time>
      </trkpt>
      <trkpt lat="62.638096531177" lon="17.827229757904">
        <ele>81</ele>
        <time>2018-04-01T12:29:39Z</time>
      </trkpt>
      <trkpt lat="62.638100219213" lon="17.827356492232">
        <ele>81</ele>
        <time>2018-04-01T12:29:40Z</time>
      </trkpt>
      <trkpt lat="62.638102314688" lon="17.827477443049">
        <ele>80.8</ele>
        <time>2018-04-01T12:29:41Z</time>
      </trkpt>
      <trkpt lat="62.638105415991" lon="17.827601662807">
        <ele>80.8</ele>
        <time>2018-04-01T12:29:42Z</time>
      </trkpt>
      <trkpt lat="62.638107008552" lon="17.827746921134">
        <ele>80.6</ele>
        <time>2018-04-01T12:29:43Z</time>
      </trkpt>
      <trkpt lat="62.638109271665" lon="17.827875415661">
        <ele>80.6</ele>
        <time>2018-04-01T12:29:44Z</time>
      </trkpt>
      <trkpt lat="62.63811220533" lon="17.827997623763">
        <ele>80.6</ele>
        <time>2018-04-01T12:29:45Z</time>
      </trkpt>
      <trkpt lat="62.638113127339" lon="17.828120921512">
        <ele>80.6</ele>
        <time>2018-04-01T12:29:46Z</time>
      </trkpt>
      <trkpt lat="62.638114216986" lon="17.828236088818">
        <ele>80.6</ele>
        <time>2018-04-01T12:29:47Z</time>
      </trkpt>
      <trkpt lat="62.638115138995" lon="17.828378916394">
        <ele>80.6</ele>
        <time>2018-04-01T12:29:48Z</time>
      </trkpt>
      <trkpt lat="62.638113714072" lon="17.828506740369">
        <ele>80.6</ele>
        <time>2018-04-01T12:29:49Z</time>
      </trkpt>
      <trkpt lat="62.63811304352" lon="17.828633474697">
        <ele>80.6</ele>
        <time>2018-04-01T12:29:50Z</time>
      </trkpt>
      <trkpt lat="62.638113211158" lon="17.828754928428">
        <ele>80.6</ele>
        <time>2018-04-01T12:29:51Z</time>
      </trkpt>
      <trkpt lat="62.638113546434" lon="17.828885434611">
        <ele>80.6</ele>
        <time>2018-04-01T12:29:52Z</time>
      </trkpt>
      <trkpt lat="62.638112121511" lon="17.82901795245">
        <ele>80.6</ele>
        <time>2018-04-01T12:29:53Z</time>
      </trkpt>
      <trkpt lat="62.638108517294" lon="17.829156589076">
        <ele>80.6</ele>
        <time>2018-04-01T12:29:54Z</time>
      </trkpt>
      <trkpt lat="62.638105751267" lon="17.829290783295">
        <ele>80.6</ele>
        <time>2018-04-01T12:29:55Z</time>
      </trkpt>
      <trkpt lat="62.638103152878" lon="17.829419613098">
        <ele>80.6</ele>
        <time>2018-04-01T12:29:56Z</time>
      </trkpt>
      <trkpt lat="62.638100973584" lon="17.829543581399">
        <ele>80.6</ele>
        <time>2018-04-01T12:29:57Z</time>
      </trkpt>
      <trkpt lat="62.638097872281" lon="17.829678781446">
        <ele>80.6</ele>
        <time>2018-04-01T12:29:58Z</time>
      </trkpt>
      <trkpt lat="62.638094435702" lon="17.829799564625">
        <ele>80.4</ele>
        <time>2018-04-01T12:29:59Z</time>
      </trkpt>
      <trkpt lat="62.638090077114" lon="17.829935016129">
        <ele>80.4</ele>
        <time>2018-04-01T12:30:00Z</time>
      </trkpt>
      <trkpt lat="62.638083539232" lon="17.830058732973">
        <ele>80.2</ele>
        <time>2018-04-01T12:30:01Z</time>
      </trkpt>
      <trkpt lat="62.63807951592" lon="17.830149006036">
        <ele>80.2</ele>
        <time>2018-04-01T12:30:02Z</time>
      </trkpt>
      <trkpt lat="62.638072056029" lon="17.830305663747">
        <ele>80.2</ele>
        <time>2018-04-01T12:30:03Z</time>
      </trkpt>
      <trkpt lat="62.638066272518" lon="17.830431308428">
        <ele>80.2</ele>
        <time>2018-04-01T12:30:04Z</time>
      </trkpt>
      <trkpt lat="62.638060321369" lon="17.830547230105">
        <ele>80.2</ele>
        <time>2018-04-01T12:30:05Z</time>
      </trkpt>
      <trkpt lat="62.63805269384" lon="17.830671952777">
        <ele>80.2</ele>
        <time>2018-04-01T12:30:06Z</time>
      </trkpt>
      <trkpt lat="62.638046910329" lon="17.830791813947">
        <ele>80.4</ele>
        <time>2018-04-01T12:30:07Z</time>
      </trkpt>
      <trkpt lat="62.63804095918" lon="17.830925169976">
        <ele>80.2</ele>
        <time>2018-04-01T12:30:08Z</time>
      </trkpt>
      <trkpt lat="62.638033583108" lon="17.831045785517">
        <ele>80.2</ele>
        <time>2018-04-01T12:30:09Z</time>
      </trkpt>
      <trkpt lat="62.638027129045" lon="17.831170172913">
        <ele>80.2</ele>
        <time>2018-04-01T12:30:10Z</time>
      </trkpt>
      <trkpt lat="62.638018663326" lon="17.831286765142">
        <ele>80.2</ele>
        <time>2018-04-01T12:30:11Z</time>
      </trkpt>
      <trkpt lat="62.638010449064" lon="17.831406626312">
        <ele>80</ele>
        <time>2018-04-01T12:30:12Z</time>
      </trkpt>
      <trkpt lat="62.63800072606" lon="17.831541993997">
        <ele>80</ele>
        <time>2018-04-01T12:30:13Z</time>
      </trkpt>
      <trkpt lat="62.637993014712" lon="17.831671829628">
        <ele>79.8</ele>
        <time>2018-04-01T12:30:14Z</time>
      </trkpt>
      <trkpt lat="62.637983710803" lon="17.831799485965">
        <ele>79.6</ele>
        <time>2018-04-01T12:30:15Z</time>
      </trkpt>
      <trkpt lat="62.637972562876" lon="17.831926555569">
        <ele>79.8</ele>
        <time>2018-04-01T12:30:16Z</time>
      </trkpt>
      <trkpt lat="62.63796468389" lon="17.832031664595">
        <ele>79.8</ele>
        <time>2018-04-01T12:30:17Z</time>
      </trkpt>
      <trkpt lat="62.637953200687" lon="17.832183293166">
        <ele>79.8</ele>
        <time>2018-04-01T12:30:18Z</time>
      </trkpt>
      <trkpt lat="62.637942974769" lon="17.83230952458">
        <ele>79.8</ele>
        <time>2018-04-01T12:30:19Z</time>
      </trkpt>
      <trkpt lat="62.637930988652" lon="17.832437264736">
        <ele>79.8</ele>
        <time>2018-04-01T12:30:20Z</time>
      </trkpt>
      <trkpt lat="62.637918164345" lon="17.832559724295">
        <ele>79.6</ele>
        <time>2018-04-01T12:30:21Z</time>
      </trkpt>
      <trkpt lat="62.637905256219" lon="17.832685368976">
        <ele>79.4</ele>
        <time>2018-04-01T12:30:22Z</time>
      </trkpt>
      <trkpt lat="62.63789176136" lon="17.832815288426">
        <ele>79.2</ele>
        <time>2018-04-01T12:30:23Z</time>
      </trkpt>
      <trkpt lat="62.637880697252" lon="17.832949817921">
        <ele>79</ele>
        <time>2018-04-01T12:30:24Z</time>
      </trkpt>
      <trkpt lat="62.637869549325" lon="17.833080575561">
        <ele>78.8</ele>
        <time>2018-04-01T12:30:25Z</time>
      </trkpt>
      <trkpt lat="62.637857730846" lon="17.83321057883">
        <ele>78.6</ele>
        <time>2018-04-01T12:30:26Z</time>
      </trkpt>
      <trkpt lat="62.637847253471" lon="17.833332451656">
        <ele>78.6</ele>
        <time>2018-04-01T12:30:27Z</time>
      </trkpt>
      <trkpt lat="62.637834010069" lon="17.833471004463">
        <ele>78.4</ele>
        <time>2018-04-01T12:30:28Z</time>
      </trkpt>
      <trkpt lat="62.637821101943" lon="17.833599666628">
        <ele>78.4</ele>
        <time>2018-04-01T12:30:29Z</time>
      </trkpt>
      <trkpt lat="62.637806685075" lon="17.833744254403">
        <ele>78.4</ele>
        <time>2018-04-01T12:30:30Z</time>
      </trkpt>
      <trkpt lat="62.637790927103" lon="17.833883477762">
        <ele>78.4</ele>
        <time>2018-04-01T12:30:31Z</time>
      </trkpt>
      <trkpt lat="62.637778354253" lon="17.834008200434">
        <ele>78.2</ele>
        <time>2018-04-01T12:30:32Z</time>
      </trkpt>
      <trkpt lat="62.637761758091" lon="17.834157062978">
        <ele>78.2</ele>
        <time>2018-04-01T12:30:33Z</time>
      </trkpt>
      <trkpt lat="62.637747257404" lon="17.834296621613">
        <ele>78</ele>
        <time>2018-04-01T12:30:34Z</time>
      </trkpt>
      <trkpt lat="62.637732924355" lon="17.834426960158">
        <ele>77.6</ele>
        <time>2018-04-01T12:30:35Z</time>
      </trkpt>
      <trkpt lat="62.637716998745" lon="17.834566267336">
        <ele>77.4</ele>
        <time>2018-04-01T12:30:36Z</time>
      </trkpt>
      <trkpt lat="62.637700402583" lon="17.834702640849">
        <ele>77.4</ele>
        <time>2018-04-01T12:30:37Z</time>
      </trkpt>
      <trkpt lat="62.637683135869" lon="17.83485175485">
        <ele>77</ele>
        <time>2018-04-01T12:30:38Z</time>
      </trkpt>
      <trkpt lat="62.637668383725" lon="17.834993995693">
        <ele>77</ele>
        <time>2018-04-01T12:30:39Z</time>
      </trkpt>
      <trkpt lat="62.637653883038" lon="17.835136655631">
        <ele>76.6</ele>
        <time>2018-04-01T12:30:40Z</time>
      </trkpt>
      <trkpt lat="62.637639717627" lon="17.835272190954">
        <ele>76.4</ele>
        <time>2018-04-01T12:30:41Z</time>
      </trkpt>
      <trkpt lat="62.637624714026" lon="17.83541585672">
        <ele>76</ele>
        <time>2018-04-01T12:30:42Z</time>
      </trkpt>
      <trkpt lat="62.637607950226" lon="17.83556756911">
        <ele>75.6</ele>
        <time>2018-04-01T12:30:43Z</time>
      </trkpt>
      <trkpt lat="62.637588504218" lon="17.835720371147">
        <ele>75.4</ele>
        <time>2018-04-01T12:30:44Z</time>
      </trkpt>
      <trkpt lat="62.637569561124" lon="17.835871748261">
        <ele>75.2</ele>
        <time>2018-04-01T12:30:45Z</time>
      </trkpt>
      <trkpt lat="62.637550282754" lon="17.836024550298">
        <ele>74.8</ele>
        <time>2018-04-01T12:30:46Z</time>
      </trkpt>
      <trkpt lat="62.637536620257" lon="17.836157319594">
        <ele>74.8</ele>
        <time>2018-04-01T12:30:47Z</time>
      </trkpt>
      <trkpt lat="62.637517341887" lon="17.836331327838">
        <ele>74.4</ele>
        <time>2018-04-01T12:30:48Z</time>
      </trkpt>
      <trkpt lat="62.637499320802" lon="17.836484800427">
        <ele>74</ele>
        <time>2018-04-01T12:30:49Z</time>
      </trkpt>
      <trkpt lat="62.637480461527" lon="17.836643050699">
        <ele>73.8</ele>
        <time>2018-04-01T12:30:50Z</time>
      </trkpt>
      <trkpt lat="62.637464619736" lon="17.836787219379">
        <ele>73.4</ele>
        <time>2018-04-01T12:30:51Z</time>
      </trkpt>
      <trkpt lat="62.63744752066" lon="17.836937674484">
        <ele>73.2</ele>
        <time>2018-04-01T12:30:52Z</time>
      </trkpt>
      <trkpt lat="62.637430002489" lon="17.837099528973">
        <ele>73</ele>
        <time>2018-04-01T12:30:53Z</time>
      </trkpt>
      <trkpt lat="62.637411059395" lon="17.837265825869">
        <ele>72.8</ele>
        <time>2018-04-01T12:30:54Z</time>
      </trkpt>
      <trkpt lat="62.63738968555" lon="17.837436397534">
        <ele>72.6</ele>
        <time>2018-04-01T12:30:55Z</time>
      </trkpt>
      <trkpt lat="62.637371161551" lon="17.837598252023">
        <ele>72.4</ele>
        <time>2018-04-01T12:30:56Z</time>
      </trkpt>
      <trkpt lat="62.637353056647" lon="17.837755831743">
        <ele>72</ele>
        <time>2018-04-01T12:30:57Z</time>
      </trkpt>
      <trkpt lat="62.637335454657" lon="17.83790192826">
        <ele>71.6</ele>
        <time>2018-04-01T12:30:58Z</time>
      </trkpt>
      <trkpt lat="62.637317014477" lon="17.83806369893">
        <ele>71.4</ele>
        <time>2018-04-01T12:30:59Z</time>
      </trkpt>
      <trkpt lat="62.637298825754" lon="17.838230666378">
        <ele>71</ele>
        <time>2018-04-01T12:31:00Z</time>
      </trkpt>
      <trkpt lat="62.637280804669" lon="17.838389084288">
        <ele>70.6</ele>
        <time>2018-04-01T12:31:01Z</time>
      </trkpt>
      <trkpt lat="62.637264459964" lon="17.838540880497">
        <ele>70.4</ele>
        <time>2018-04-01T12:31:02Z</time>
      </trkpt>
      <trkpt lat="62.637246857974" lon="17.838715726931">
        <ele>70.4</ele>
        <time>2018-04-01T12:31:03Z</time>
      </trkpt>
      <trkpt lat="62.637231519097" lon="17.83887590504">
        <ele>70</ele>
        <time>2018-04-01T12:31:04Z</time>
      </trkpt>
      <trkpt lat="62.637217772781" lon="17.839020576634">
        <ele>69.6</ele>
        <time>2018-04-01T12:31:05Z</time>
      </trkpt>
      <trkpt lat="62.637202685361" lon="17.839174719775">
        <ele>69.4</ele>
        <time>2018-04-01T12:31:06Z</time>
      </trkpt>
      <trkpt lat="62.637188352312" lon="17.839340010843">
        <ele>69.2</ele>
        <time>2018-04-01T12:31:07Z</time>
      </trkpt>
      <trkpt lat="62.637175779462" lon="17.839505888644">
        <ele>68.8</ele>
        <time>2018-04-01T12:31:08Z</time>
      </trkpt>
      <trkpt lat="62.63716337425" lon="17.839656930482">
        <ele>68.4</ele>
        <time>2018-04-01T12:31:09Z</time>
      </trkpt>
      <trkpt lat="62.637149879391" lon="17.83981635422">
        <ele>68.2</ele>
        <time>2018-04-01T12:31:10Z</time>
      </trkpt>
      <trkpt lat="62.637138731464" lon="17.839969575352">
        <ele>68.2</ele>
        <time>2018-04-01T12:31:11Z</time>
      </trkpt>
      <trkpt lat="62.637127918813" lon="17.840120365733">
        <ele>68</ele>
        <time>2018-04-01T12:31:12Z</time>
      </trkpt>
      <trkpt lat="62.637116016515" lon="17.840267132802">
        <ele>68</ele>
        <time>2018-04-01T12:31:13Z</time>
      </trkpt>
      <trkpt lat="62.637103276027" lon="17.840415911527">
        <ele>67.8</ele>
        <time>2018-04-01T12:31:14Z</time>
      </trkpt>
      <trkpt lat="62.637094810308" lon="17.840562510958">
        <ele>67.8</ele>
        <time>2018-04-01T12:31:15Z</time>
      </trkpt>
      <trkpt lat="62.637087266598" lon="17.840702488688">
        <ele>67.6</ele>
        <time>2018-04-01T12:31:16Z</time>
      </trkpt>
      <trkpt lat="62.637081986001" lon="17.840825199704">
        <ele>67.2</ele>
        <time>2018-04-01T12:31:17Z</time>
      </trkpt>
      <trkpt lat="62.637075280481" lon="17.840979342845">
        <ele>67</ele>
        <time>2018-04-01T12:31:18Z</time>
      </trkpt>
      <trkpt lat="62.637069999884" lon="17.84111890148">
        <ele>66.6</ele>
        <time>2018-04-01T12:31:19Z</time>
      </trkpt>
      <trkpt lat="62.637067066219" lon="17.841257789563">
        <ele>66.2</ele>
        <time>2018-04-01T12:31:20Z</time>
      </trkpt>
      <trkpt lat="62.637064300192" lon="17.841399527492">
        <ele>66</ele>
        <time>2018-04-01T12:31:21Z</time>
      </trkpt>
      <trkpt lat="62.637059857785" lon="17.841529027847">
        <ele>65.8</ele>
        <time>2018-04-01T12:31:22Z</time>
      </trkpt>
      <trkpt lat="62.637054241912" lon="17.84167294507">
        <ele>65.8</ele>
        <time>2018-04-01T12:31:23Z</time>
      </trkpt>
      <trkpt lat="62.637049715686" lon="17.841826836754">
        <ele>65.6</ele>
        <time>2018-04-01T12:31:24Z</time>
      </trkpt>
      <trkpt lat="62.637046446745" lon="17.841969915787">
        <ele>65.4</ele>
        <time>2018-04-01T12:31:25Z</time>
      </trkpt>
      <trkpt lat="62.637043596899" lon="17.842110983164">
        <ele>65.2</ele>
        <time>2018-04-01T12:31:26Z</time>
      </trkpt>
      <trkpt lat="62.63704267489" lon="17.842243249546">
        <ele>65</ele>
        <time>2018-04-01T12:31:27Z</time>
      </trkpt>
      <trkpt lat="62.637041585243" lon="17.842382305267">
        <ele>64.8</ele>
        <time>2018-04-01T12:31:28Z</time>
      </trkpt>
      <trkpt lat="62.637040244139" lon="17.842513146726">
        <ele>64.8</ele>
        <time>2018-04-01T12:31:29Z</time>
      </trkpt>
      <trkpt lat="62.637038819216" lon="17.842661338718">
        <ele>64.6</ele>
        <time>2018-04-01T12:31:30Z</time>
      </trkpt>
      <trkpt lat="62.637037813388" lon="17.842797628412">
        <ele>64.6</ele>
        <time>2018-04-01T12:31:31Z</time>
      </trkpt>
      <trkpt lat="62.637038316302" lon="17.842922853998">
        <ele>64.6</ele>
        <time>2018-04-01T12:31:32Z</time>
      </trkpt>
      <trkpt lat="62.637039154492" lon="17.843069453429">
        <ele>64.6</ele>
        <time>2018-04-01T12:31:33Z</time>
      </trkpt>
      <trkpt lat="62.637039741225" lon="17.843208257693">
        <ele>64.4</ele>
        <time>2018-04-01T12:31:34Z</time>
      </trkpt>
      <trkpt lat="62.63703932213" lon="17.843338260962">
        <ele>64.6</ele>
        <time>2018-04-01T12:31:35Z</time>
      </trkpt>
      <trkpt lat="62.637037394293" lon="17.843486872049">
        <ele>64.4</ele>
        <time>2018-04-01T12:31:36Z</time>
      </trkpt>
      <trkpt lat="62.637035382637" lon="17.84361922225">
        <ele>64.4</ele>
        <time>2018-04-01T12:31:37Z</time>
      </trkpt>
      <trkpt lat="62.637035717913" lon="17.843771605192">
        <ele>64.4</ele>
        <time>2018-04-01T12:31:38Z</time>
      </trkpt>
      <trkpt lat="62.637040411777" lon="17.843916192967">
        <ele>64.2</ele>
        <time>2018-04-01T12:31:39Z</time>
      </trkpt>
      <trkpt lat="62.63704686584" lon="17.844051393014">
        <ele>64</ele>
        <time>2018-04-01T12:31:40Z</time>
      </trkpt>
      <trkpt lat="62.637050889152" lon="17.844189945821">
        <ele>64</ele>
        <time>2018-04-01T12:31:41Z</time>
      </trkpt>
      <trkpt lat="62.637054074274" lon="17.844331851388">
        <ele>64</ele>
        <time>2018-04-01T12:31:42Z</time>
      </trkpt>
      <trkpt lat="62.637059857785" lon="17.844477696448">
        <ele>63.8</ele>
        <time>2018-04-01T12:31:43Z</time>
      </trkpt>
      <trkpt lat="62.637065892753" lon="17.844633348331">
        <ele>63.6</ele>
        <time>2018-04-01T12:31:44Z</time>
      </trkpt>
      <trkpt lat="62.637071927721" lon="17.84478179178">
        <ele>63.6</ele>
        <time>2018-04-01T12:31:45Z</time>
      </trkpt>
      <trkpt lat="62.637078465603" lon="17.844928810306">
        <ele>63.4</ele>
        <time>2018-04-01T12:31:46Z</time>
      </trkpt>
      <trkpt lat="62.637085757856" lon="17.845050934589">
        <ele>63.2</ele>
        <time>2018-04-01T12:31:47Z</time>
      </trkpt>
      <trkpt lat="62.637094391213" lon="17.845229133783">
        <ele>63.4</ele>
        <time>2018-04-01T12:31:48Z</time>
      </trkpt>
      <trkpt lat="62.637100929095" lon="17.845378666879">
        <ele>63.4</ele>
        <time>2018-04-01T12:31:49Z</time>
      </trkpt>
      <trkpt lat="62.637106544968" lon="17.845527697061">
        <ele>63.2</ele>
        <time>2018-04-01T12:31:50Z</time>
      </trkpt>
      <trkpt lat="62.637113585764" lon="17.845675469958">
        <ele>63.2</ele>
        <time>2018-04-01T12:31:51Z</time>
      </trkpt>
      <trkpt lat="62.637119453094" lon="17.845809580358">
        <ele>63</ele>
        <time>2018-04-01T12:31:52Z</time>
      </trkpt>
      <trkpt lat="62.637124482234" lon="17.845956431246">
        <ele>63</ele>
        <time>2018-04-01T12:31:53Z</time>
      </trkpt>
      <trkpt lat="62.637131103935" lon="17.846111831672">
        <ele>62.8</ele>
        <time>2018-04-01T12:31:54Z</time>
      </trkpt>
      <trkpt lat="62.637138647645" lon="17.846259185474">
        <ele>62.8</ele>
        <time>2018-04-01T12:31:55Z</time>
      </trkpt>
      <trkpt lat="62.637145520803" lon="17.846404359982">
        <ele>62.6</ele>
        <time>2018-04-01T12:31:56Z</time>
      </trkpt>
      <trkpt lat="62.637152896875" lon="17.846542661332">
        <ele>62.4</ele>
        <time>2018-04-01T12:31:57Z</time>
      </trkpt>
      <trkpt lat="62.637157171644" lon="17.846692362066">
        <ele>62.2</ele>
        <time>2018-04-01T12:31:58Z</time>
      </trkpt>
      <trkpt lat="62.637163458069" lon="17.846843236266">
        <ele>62</ele>
        <time>2018-04-01T12:31:59Z</time>
      </trkpt>
      <trkpt lat="62.637168487209" lon="17.847003414375">
        <ele>61.8</ele>
        <time>2018-04-01T12:32:00Z</time>
      </trkpt>
      <trkpt lat="62.637174605996" lon="17.847159569172">
        <ele>61.8</ele>
        <time>2018-04-01T12:32:01Z</time>
      </trkpt>
      <trkpt lat="62.637181311516" lon="17.847303654033">
        <ele>61.6</ele>
        <time>2018-04-01T12:32:02Z</time>
      </trkpt>
      <trkpt lat="62.637188603769" lon="17.847470118567">
        <ele>61.4</ele>
        <time>2018-04-01T12:32:03Z</time>
      </trkpt>
      <trkpt lat="62.637195728384" lon="17.8476299614">
        <ele>61.4</ele>
        <time>2018-04-01T12:32:04Z</time>
      </trkpt>
      <trkpt lat="62.637201763352" lon="17.847777399021">
        <ele>61</ele>
        <time>2018-04-01T12:32:05Z</time>
      </trkpt>
      <trkpt lat="62.637208887967" lon="17.847946461944">
        <ele>60.8</ele>
        <time>2018-04-01T12:32:06Z</time>
      </trkpt>
      <trkpt lat="62.637214336202" lon="17.848096749411">
        <ele>60.6</ele>
        <time>2018-04-01T12:32:07Z</time>
      </trkpt>
      <trkpt lat="62.637220790265" lon="17.848266901981">
        <ele>60.4</ele>
        <time>2018-04-01T12:32:08Z</time>
      </trkpt>
      <trkpt lat="62.637225567948" lon="17.848427163909">
        <ele>60.4</ele>
        <time>2018-04-01T12:32:09Z</time>
      </trkpt>
      <trkpt lat="62.637231183821" lon="17.848583737801">
        <ele>60.2</ele>
        <time>2018-04-01T12:32:10Z</time>
      </trkpt>
      <trkpt lat="62.637237889341" lon="17.84873469582">
        <ele>60.2</ele>
        <time>2018-04-01T12:32:11Z</time>
      </trkpt>
      <trkpt lat="62.637244594861" lon="17.848893197549">
        <ele>60.2</ele>
        <time>2018-04-01T12:32:12Z</time>
      </trkpt>
      <trkpt lat="62.637250210734" lon="17.849053375658">
        <ele>60.2</ele>
        <time>2018-04-01T12:32:13Z</time>
      </trkpt>
      <trkpt lat="62.637255156055" lon="17.849224785513">
        <ele>60</ele>
        <time>2018-04-01T12:32:14Z</time>
      </trkpt>
      <trkpt lat="62.637258676453" lon="17.84938513126">
        <ele>59.8</ele>
        <time>2018-04-01T12:32:15Z</time>
      </trkpt>
      <trkpt lat="62.637264040869" lon="17.84954857831">
        <ele>59.8</ele>
        <time>2018-04-01T12:32:16Z</time>
      </trkpt>
      <trkpt lat="62.637268148" lon="17.849675312638">
        <ele>59.6</ele>
        <time>2018-04-01T12:32:17Z</time>
      </trkpt>
      <trkpt lat="62.637274350606" lon="17.849867761062">
        <ele>59.4</ele>
        <time>2018-04-01T12:32:18Z</time>
      </trkpt>
      <trkpt lat="62.637280217936" lon="17.850028777361">
        <ele>59.2</ele>
        <time>2018-04-01T12:32:19Z</time>
      </trkpt>
      <trkpt lat="62.63728658818" lon="17.850196080085">
        <ele>59</ele>
        <time>2018-04-01T12:32:20Z</time>
      </trkpt>
      <trkpt lat="62.63729077913" lon="17.850362544619">
        <ele>58.8</ele>
        <time>2018-04-01T12:32:21Z</time>
      </trkpt>
      <trkpt lat="62.637295305356" lon="17.85051920233">
        <ele>58.4</ele>
        <time>2018-04-01T12:32:22Z</time>
      </trkpt>
      <trkpt lat="62.637300166858" lon="17.850682733199">
        <ele>57.8</ele>
        <time>2018-04-01T12:32:23Z</time>
      </trkpt>
      <trkpt lat="62.637304273989" lon="17.850855735615">
        <ele>57.4</ele>
        <time>2018-04-01T12:32:24Z</time>
      </trkpt>
      <trkpt lat="62.637308129663" lon="17.851014991715">
        <ele>57</ele>
        <time>2018-04-01T12:32:25Z</time>
      </trkpt>
      <trkpt lat="62.637315338097" lon="17.851173661082">
        <ele>56.6</ele>
        <time>2018-04-01T12:32:26Z</time>
      </trkpt>
      <trkpt lat="62.637321037789" lon="17.851325792567">
        <ele>56.2</ele>
        <time>2018-04-01T12:32:27Z</time>
      </trkpt>
      <trkpt lat="62.637324893463" lon="17.851490580721">
        <ele>55.8</ele>
        <time>2018-04-01T12:32:28Z</time>
      </trkpt>
      <trkpt lat="62.637329168232" lon="17.851655285056">
        <ele>55.6</ele>
        <time>2018-04-01T12:32:29Z</time>
      </trkpt>
      <trkpt lat="62.637334867924" lon="17.851832394603">
        <ele>55.4</ele>
        <time>2018-04-01T12:32:30Z</time>
      </trkpt>
      <trkpt lat="62.637338472141" lon="17.851949825022">
        <ele>55.2</ele>
        <time>2018-04-01T12:32:31Z</time>
      </trkpt>
      <trkpt lat="62.63734609967" lon="17.852162557644">
        <ele>55</ele>
        <time>2018-04-01T12:32:32Z</time>
      </trkpt>
      <trkpt lat="62.637352050819" lon="17.85234310377">
        <ele>54.6</ele>
        <time>2018-04-01T12:32:33Z</time>
      </trkpt>
      <trkpt lat="62.637358840158" lon="17.852514178349">
        <ele>54.4</ele>
        <time>2018-04-01T12:32:34Z</time>
      </trkpt>
      <trkpt lat="62.637364204574" lon="17.852675110829">
        <ele>54.2</ele>
        <time>2018-04-01T12:32:35Z</time>
      </trkpt>
      <trkpt lat="62.637369988085" lon="17.852859261172">
        <ele>54</ele>
        <time>2018-04-01T12:32:36Z</time>
      </trkpt>
      <trkpt lat="62.637376190691" lon="17.853020612747">
        <ele>53.8</ele>
        <time>2018-04-01T12:32:37Z</time>
      </trkpt>
      <trkpt lat="62.637384572591" lon="17.853202416158">
        <ele>53.6</ele>
        <time>2018-04-01T12:32:38Z</time>
      </trkpt>
      <trkpt lat="62.637392451577" lon="17.853378771334">
        <ele>53.4</ele>
        <time>2018-04-01T12:32:39Z</time>
      </trkpt>
      <trkpt lat="62.63740142021" lon="17.853553114854">
        <ele>53</ele>
        <time>2018-04-01T12:32:40Z</time>
      </trkpt>
      <trkpt lat="62.637409047739" lon="17.853720585216">
        <ele>52.8</ele>
        <time>2018-04-01T12:32:41Z</time>
      </trkpt>
      <trkpt lat="62.637418016372" lon="17.853897610944">
        <ele>52.4</ele>
        <time>2018-04-01T12:32:42Z</time>
      </trkpt>
      <trkpt lat="62.637428996661" lon="17.854070529541">
        <ele>52</ele>
        <time>2018-04-01T12:32:43Z</time>
      </trkpt>
      <trkpt lat="62.637442826796" lon="17.85425836792">
        <ele>51.6</ele>
        <time>2018-04-01T12:32:44Z</time>
      </trkpt>
      <trkpt lat="62.637456573112" lon="17.854432879078">
        <ele>51.2</ele>
        <time>2018-04-01T12:32:45Z</time>
      </trkpt>
      <trkpt lat="62.637470319428" lon="17.854605546218">
        <ele>50.8</ele>
        <time>2018-04-01T12:32:46Z</time>
      </trkpt>
      <trkpt lat="62.637481299717" lon="17.854744015206">
        <ele>50.6</ele>
        <time>2018-04-01T12:32:47Z</time>
      </trkpt>
      <trkpt lat="62.637498985526" lon="17.854943252969">
        <ele>50.2</ele>
        <time>2018-04-01T12:32:48Z</time>
      </trkpt>
      <trkpt lat="62.63751541405" lon="17.855111142426">
        <ele>49.8</ele>
        <time>2018-04-01T12:32:49Z</time>
      </trkpt>
      <trkpt lat="62.637528322176" lon="17.855276936408">
        <ele>49.6</ele>
        <time>2018-04-01T12:32:50Z</time>
      </trkpt>
      <trkpt lat="62.637544247786" lon="17.855436360146">
        <ele>49.4</ele>
        <time>2018-04-01T12:32:51Z</time>
      </trkpt>
      <trkpt lat="62.637560424853" lon="17.855588994545">
        <ele>49</ele>
        <time>2018-04-01T12:32:52Z</time>
      </trkpt>
      <trkpt lat="62.637578110662" lon="17.855749005016">
        <ele>49</ele>
        <time>2018-04-01T12:32:53Z</time>
      </trkpt>
      <trkpt lat="62.637596886118" lon="17.855916391559">
        <ele>48.8</ele>
        <time>2018-04-01T12:32:54Z</time>
      </trkpt>
      <trkpt lat="62.637615326298" lon="17.856067517216">
        <ele>48.6</ele>
        <time>2018-04-01T12:32:55Z</time>
      </trkpt>
      <trkpt lat="62.637633263564" lon="17.856216212122">
        <ele>48.4</ele>
        <time>2018-04-01T12:32:56Z</time>
      </trkpt>
      <trkpt lat="62.637649440631" lon="17.856352669454">
        <ele>48.2</ele>
        <time>2018-04-01T12:32:57Z</time>
      </trkpt>
      <trkpt lat="62.637666791164" lon="17.856494575021">
        <ele>48.2</ele>
        <time>2018-04-01T12:32:58Z</time>
      </trkpt>
      <trkpt lat="62.637684896068" lon="17.856635726217">
        <ele>48</ele>
        <time>2018-04-01T12:32:59Z</time>
      </trkpt>
      <trkpt lat="62.637704342076" lon="17.856784085847">
        <ele>48</ele>
        <time>2018-04-01T12:33:00Z</time>
      </trkpt>
      <trkpt lat="62.637723033713" lon="17.856921129912">
        <ele>47.8</ele>
        <time>2018-04-01T12:33:01Z</time>
      </trkpt>
      <trkpt lat="62.637738121133" lon="17.857043924747">
        <ele>47.8</ele>
        <time>2018-04-01T12:33:02Z</time>
      </trkpt>
      <trkpt lat="62.637754884933" lon="17.857182729011">
        <ele>47.8</ele>
        <time>2018-04-01T12:33:03Z</time>
      </trkpt>
      <trkpt lat="62.637771062" lon="17.857310469167">
        <ele>47.6</ele>
        <time>2018-04-01T12:33:04Z</time>
      </trkpt>
      <trkpt lat="62.637786903791" lon="17.857425133559">
        <ele>47.6</ele>
        <time>2018-04-01T12:33:05Z</time>
      </trkpt>
      <trkpt lat="62.637804421962" lon="17.857551532611">
        <ele>47.6</ele>
        <time>2018-04-01T12:33:06Z</time>
      </trkpt>
      <trkpt lat="62.637820179934" lon="17.857663514795">
        <ele>47.6</ele>
        <time>2018-04-01T12:33:07Z</time>
      </trkpt>
      <trkpt lat="62.637835351173" lon="17.857787902191">
        <ele>47.6</ele>
        <time>2018-04-01T12:33:08Z</time>
      </trkpt>
      <trkpt lat="62.637850103317" lon="17.857901225479">
        <ele>47.8</ele>
        <time>2018-04-01T12:33:09Z</time>
      </trkpt>
      <trkpt lat="62.637863514357" lon="17.858017230975">
        <ele>47.8</ele>
        <time>2018-04-01T12:33:10Z</time>
      </trkpt>
      <trkpt lat="62.637876087207" lon="17.858122675277">
        <ele>47.8</ele>
        <time>2018-04-01T12:33:11Z</time>
      </trkpt>
      <trkpt lat="62.63788924679" lon="17.858235411832">
        <ele>48</ele>
        <time>2018-04-01T12:33:12Z</time>
      </trkpt>
      <trkpt lat="62.637902071097" lon="17.858346388188">
        <ele>48</ele>
        <time>2018-04-01T12:33:13Z</time>
      </trkpt>
      <trkpt lat="62.637915565956" lon="17.858462812779">
        <ele>48</ele>
        <time>2018-04-01T12:33:14Z</time>
      </trkpt>
      <trkpt lat="62.637929144634" lon="17.858570184918">
        <ele>48</ele>
        <time>2018-04-01T12:33:15Z</time>
      </trkpt>
      <trkpt lat="62.637940292561" lon="17.858680490722">
        <ele>48</ele>
        <time>2018-04-01T12:33:16Z</time>
      </trkpt>
      <trkpt lat="62.637949009737" lon="17.858766656654">
        <ele>48</ele>
        <time>2018-04-01T12:33:17Z</time>
      </trkpt>
      <trkpt lat="62.637963510424" lon="17.858895989371">
        <ele>47.8</ele>
        <time>2018-04-01T12:33:18Z</time>
      </trkpt>
      <trkpt lat="62.637976250912" lon="17.859003193872">
        <ele>48</ele>
        <time>2018-04-01T12:33:19Z</time>
      </trkpt>
      <trkpt lat="62.637987566477" lon="17.85911064983">
        <ele>48</ele>
        <time>2018-04-01T12:33:20Z</time>
      </trkpt>
      <trkpt lat="62.637997205662" lon="17.859216177951">
        <ele>48</ele>
        <time>2018-04-01T12:33:21Z</time>
      </trkpt>
      <trkpt lat="62.638006090476" lon="17.859316928389">
        <ele>48</ele>
        <time>2018-04-01T12:33:22Z</time>
      </trkpt>
      <trkpt lat="62.638015226747" lon="17.859424300528">
        <ele>48</ele>
        <time>2018-04-01T12:33:23Z</time>
      </trkpt>
      <trkpt lat="62.638024865932" lon="17.859537204721">
        <ele>48</ele>
        <time>2018-04-01T12:33:24Z</time>
      </trkpt>
      <trkpt lat="62.638031571452" lon="17.859647678163">
        <ele>48</ele>
        <time>2018-04-01T12:33:25Z</time>
      </trkpt>
      <trkpt lat="62.638037774058" lon="17.859754463569">
        <ele>48</ele>
        <time>2018-04-01T12:33:26Z</time>
      </trkpt>
      <trkpt lat="62.638044228121" lon="17.85985580074">
        <ele>48</ele>
        <time>2018-04-01T12:33:27Z</time>
      </trkpt>
      <trkpt lat="62.638050849822" lon="17.859967531467">
        <ele>48</ele>
        <time>2018-04-01T12:33:28Z</time>
      </trkpt>
      <trkpt lat="62.638058812627" lon="17.860073394864">
        <ele>48</ele>
        <time>2018-04-01T12:33:29Z</time>
      </trkpt>
      <trkpt lat="62.638065015233" lon="17.860192417844">
        <ele>48</ele>
        <time>2018-04-01T12:33:30Z</time>
      </trkpt>
      <trkpt lat="62.638070379649" lon="17.860300711992">
        <ele>48</ele>
        <time>2018-04-01T12:33:31Z</time>
      </trkpt>
      <trkpt lat="62.638075744065" lon="17.860406407751">
        <ele>48</ele>
        <time>2018-04-01T12:33:32Z</time>
      </trkpt>
      <trkpt lat="62.638079851196" lon="17.860524005808">
        <ele>48</ele>
        <time>2018-04-01T12:33:33Z</time>
      </trkpt>
      <trkpt lat="62.638085131793" lon="17.860634060155">
        <ele>48</ele>
        <time>2018-04-01T12:33:34Z</time>
      </trkpt>
      <trkpt lat="62.638089490381" lon="17.860738666267">
        <ele>48</ele>
        <time>2018-04-01T12:33:35Z</time>
      </trkpt>
      <trkpt lat="62.638092507865" lon="17.860854671763">
        <ele>48</ele>
        <time>2018-04-01T12:33:36Z</time>
      </trkpt>
      <trkpt lat="62.638095944444" lon="17.860960870436">
        <ele>48</ele>
        <time>2018-04-01T12:33:37Z</time>
      </trkpt>
      <trkpt lat="62.638098626652" lon="17.861080312511">
        <ele>48</ele>
        <time>2018-04-01T12:33:38Z</time>
      </trkpt>
      <trkpt lat="62.638103404335" lon="17.861193719618">
        <ele>48.2</ele>
        <time>2018-04-01T12:33:39Z</time>
      </trkpt>
      <trkpt lat="62.638108601113" lon="17.861305450345">
        <ele>48.2</ele>
        <time>2018-04-01T12:33:40Z</time>
      </trkpt>
      <trkpt lat="62.638110445131" lon="17.861370661527">
        <ele>48.2</ele>
        <time>2018-04-01T12:33:41Z</time>
      </trkpt>
      <trkpt lat="62.638114803719" lon="17.861522876831">
        <ele>48.2</ele>
        <time>2018-04-01T12:33:42Z</time>
      </trkpt>
      <trkpt lat="62.638114971357" lon="17.861638798508">
        <ele>48.2</ele>
        <time>2018-04-01T12:33:43Z</time>
      </trkpt>
      <trkpt lat="62.638114552262" lon="17.861756983298">
        <ele>48.2</ele>
        <time>2018-04-01T12:33:44Z</time>
      </trkpt>
      <trkpt lat="62.638114049348" lon="17.861870641862">
        <ele>48.2</ele>
        <time>2018-04-01T12:33:45Z</time>
      </trkpt>
      <trkpt lat="62.638111786235" lon="17.861986563539">
        <ele>48.2</ele>
        <time>2018-04-01T12:33:46Z</time>
      </trkpt>
      <trkpt lat="62.638110948045" lon="17.862081027552">
        <ele>48.2</ele>
        <time>2018-04-01T12:33:47Z</time>
      </trkpt>
      <trkpt lat="62.638110026036" lon="17.862217484884">
        <ele>48.2</ele>
        <time>2018-04-01T12:33:48Z</time>
      </trkpt>
      <trkpt lat="62.638108517294" lon="17.862331478724">
        <ele>48.2</ele>
        <time>2018-04-01T12:33:49Z</time>
      </trkpt>
      <trkpt lat="62.63810717619" lon="17.862447148944">
        <ele>48.2</ele>
        <time>2018-04-01T12:33:50Z</time>
      </trkpt>
      <trkpt lat="62.638104410163" lon="17.862558795852">
        <ele>48.2</ele>
        <time>2018-04-01T12:33:51Z</time>
      </trkpt>
      <trkpt lat="62.638101811774" lon="17.862667173819">
        <ele>48.2</ele>
        <time>2018-04-01T12:33:52Z</time>
      </trkpt>
      <trkpt lat="62.638098291376" lon="17.862781251478">
        <ele>48.2</ele>
        <time>2018-04-01T12:33:53Z</time>
      </trkpt>
      <trkpt lat="62.638092507865" lon="17.862902956666">
        <ele>48.4</ele>
        <time>2018-04-01T12:33:54Z</time>
      </trkpt>
      <trkpt lat="62.638087562544" lon="17.863014519755">
        <ele>48.2</ele>
        <time>2018-04-01T12:33:55Z</time>
      </trkpt>
      <trkpt lat="62.638083036318" lon="17.863129016509">
        <ele>48.4</ele>
        <time>2018-04-01T12:33:56Z</time>
      </trkpt>
      <trkpt lat="62.638078761549" lon="17.863236472467">
        <ele>48.4</ele>
        <time>2018-04-01T12:33:57Z</time>
      </trkpt>
      <trkpt lat="62.63807448678" lon="17.863350466307">
        <ele>48.4</ele>
        <time>2018-04-01T12:33:58Z</time>
      </trkpt>
      <trkpt lat="62.638071050201" lon="17.863466639441">
        <ele>48.2</ele>
        <time>2018-04-01T12:33:59Z</time>
      </trkpt>
      <trkpt lat="62.638066440156" lon="17.863589182819">
        <ele>48.4</ele>
        <time>2018-04-01T12:34:00Z</time>
      </trkpt>
      <trkpt lat="62.638060824283" lon="17.863705020677">
        <ele>48.4</ele>
        <time>2018-04-01T12:34:01Z</time>
      </trkpt>
      <trkpt lat="62.638055376048" lon="17.863813147187">
        <ele>48.4</ele>
        <time>2018-04-01T12:34:02Z</time>
      </trkpt>
      <trkpt lat="62.638050598365" lon="17.863936193479">
        <ele>48.4</ele>
        <time>2018-04-01T12:34:03Z</time>
      </trkpt>
      <trkpt lat="62.638045569225" lon="17.864056892839">
        <ele>48.4</ele>
        <time>2018-04-01T12:34:04Z</time>
      </trkpt>
      <trkpt lat="62.638038612248" lon="17.864162337141">
        <ele>48.4</ele>
        <time>2018-04-01T12:34:05Z</time>
      </trkpt>
      <trkpt lat="62.638031236176" lon="17.86428144394">
        <ele>48.4</ele>
        <time>2018-04-01T12:34:06Z</time>
      </trkpt>
      <trkpt lat="62.638026207036" lon="17.86439124683">
        <ele>48.4</ele>
        <time>2018-04-01T12:34:07Z</time>
      </trkpt>
      <trkpt lat="62.638022267543" lon="17.864513874027">
        <ele>48.4</ele>
        <time>2018-04-01T12:34:08Z</time>
      </trkpt>
      <trkpt lat="62.638016567851" lon="17.864628203143">
        <ele>48.4</ele>
        <time>2018-04-01T12:34:09Z</time>
      </trkpt>
      <trkpt lat="62.638011035797" lon="17.864741861707">
        <ele>48.4</ele>
        <time>2018-04-01T12:34:10Z</time>
      </trkpt>
      <trkpt lat="62.638005336105" lon="17.864847473647">
        <ele>48.4</ele>
        <time>2018-04-01T12:34:11Z</time>
      </trkpt>
      <trkpt lat="62.63799904968" lon="17.864957947089">
        <ele>48.4</ele>
        <time>2018-04-01T12:34:12Z</time>
      </trkpt>
      <trkpt lat="62.637993014712" lon="17.865071689472">
        <ele>48.4</ele>
        <time>2018-04-01T12:34:13Z</time>
      </trkpt>
      <trkpt lat="62.637986728287" lon="17.865165399114">
        <ele>48.4</ele>
        <time>2018-04-01T12:34:14Z</time>
      </trkpt>
      <trkpt lat="62.637978597844" lon="17.865299509514">
        <ele>48.4</ele>
        <time>2018-04-01T12:34:15Z</time>
      </trkpt>
      <trkpt lat="62.637974155437" lon="17.865412832802">
        <ele>48.6</ele>
        <time>2018-04-01T12:34:16Z</time>
      </trkpt>
      <trkpt lat="62.63796971303" lon="17.865509559928">
        <ele>48.4</ele>
        <time>2018-04-01T12:34:17Z</time>
      </trkpt>
      <trkpt lat="62.637961917863" lon="17.865630426926">
        <ele>48.6</ele>
        <time>2018-04-01T12:34:18Z</time>
      </trkpt>
      <trkpt lat="62.637955379981" lon="17.865739307807">
        <ele>48.6</ele>
        <time>2018-04-01T12:34:19Z</time>
      </trkpt>
      <trkpt lat="62.637950015565" lon="17.865847350498">
        <ele>48.6</ele>
        <time>2018-04-01T12:34:20Z</time>
      </trkpt>
      <trkpt lat="62.637943896778" lon="17.865956482836">
        <ele>48.6</ele>
        <time>2018-04-01T12:34:21Z</time>
      </trkpt>
      <trkpt lat="62.637937777991" lon="17.866058909654">
        <ele>48.6</ele>
        <time>2018-04-01T12:34:22Z</time>
      </trkpt>
      <trkpt lat="62.637933419403" lon="17.866167036164">
        <ele>48.8</ele>
        <time>2018-04-01T12:34:23Z</time>
      </trkpt>
      <trkpt lat="62.637926210969" lon="17.866279353624">
        <ele>48.8</ele>
        <time>2018-04-01T12:34:24Z</time>
      </trkpt>
      <trkpt lat="62.637919253992" lon="17.866385217021">
        <ele>49</ele>
        <time>2018-04-01T12:34:25Z</time>
      </trkpt>
      <trkpt lat="62.637913219024" lon="17.866490493685">
        <ele>49</ele>
        <time>2018-04-01T12:34:26Z</time>
      </trkpt>
      <trkpt lat="62.637908022246" lon="17.866586717897">
        <ele>49.2</ele>
        <time>2018-04-01T12:34:27Z</time>
      </trkpt>
      <trkpt lat="62.637902071097" lon="17.866697023701">
        <ele>49.4</ele>
        <time>2018-04-01T12:34:28Z</time>
      </trkpt>
      <trkpt lat="62.637897796328" lon="17.866789978972">
        <ele>49.4</ele>
        <time>2018-04-01T12:34:29Z</time>
      </trkpt>
      <trkpt lat="62.637892180455" lon="17.866891483781">
        <ele>49.6</ele>
        <time>2018-04-01T12:34:30Z</time>
      </trkpt>
      <trkpt lat="62.637887402772" lon="17.866983600862">
        <ele>49.6</ele>
        <time>2018-04-01T12:34:31Z</time>
      </trkpt>
      <trkpt lat="62.637882708908" lon="17.867064486197">
        <ele>49.8</ele>
        <time>2018-04-01T12:34:32Z</time>
      </trkpt>
      <trkpt lat="62.637878266501" lon="17.867156938554">
        <ele>49.8</ele>
        <time>2018-04-01T12:34:33Z</time>
      </trkpt>
      <trkpt lat="62.637872315352" lon="17.867240673735">
        <ele>50</ele>
        <time>2018-04-01T12:34:34Z</time>
      </trkpt>
      <trkpt lat="62.63786661566" lon="17.867316697568">
        <ele>50</ele>
        <time>2018-04-01T12:34:35Z</time>
      </trkpt>
      <trkpt lat="62.637860580692" lon="17.867401606215">
        <ele>50.2</ele>
        <time>2018-04-01T12:34:36Z</time>
      </trkpt>
      <trkpt lat="62.637854797181" lon="17.867476037487">
        <ele>50.4</ele>
        <time>2018-04-01T12:34:37Z</time>
      </trkpt>
      <trkpt lat="62.637847840204" lon="17.867561029953">
        <ele>50.4</ele>
        <time>2018-04-01T12:34:38Z</time>
      </trkpt>
      <trkpt lat="62.637843230159" lon="17.867643172573">
        <ele>50.6</ele>
        <time>2018-04-01T12:34:39Z</time>
      </trkpt>
      <trkpt lat="62.637835351173" lon="17.867724477003">
        <ele>50.8</ele>
        <time>2018-04-01T12:34:40Z</time>
      </trkpt>
      <trkpt lat="62.637828478015" lon="17.86780100375">
        <ele>51</ele>
        <time>2018-04-01T12:34:41Z</time>
      </trkpt>
      <trkpt lat="62.637825963445" lon="17.867881721447">
        <ele>51.2</ele>
        <time>2018-04-01T12:34:42Z</time>
      </trkpt>
      <trkpt lat="62.637823113599" lon="17.867961181859">
        <ele>51.2</ele>
        <time>2018-04-01T12:34:43Z</time>
      </trkpt>
      <trkpt lat="62.637818922649" lon="17.868038379158">
        <ele>51.4</ele>
        <time>2018-04-01T12:34:44Z</time>
      </trkpt>
      <trkpt lat="62.637815569889" lon="17.868117504294">
        <ele>51.6</ele>
        <time>2018-04-01T12:34:45Z</time>
      </trkpt>
      <trkpt lat="62.637813977328" lon="17.868191516471">
        <ele>51.8</ele>
        <time>2018-04-01T12:34:46Z</time>
      </trkpt>
      <trkpt lat="62.637811127482" lon="17.868259158404">
        <ele>52</ele>
        <time>2018-04-01T12:34:47Z</time>
      </trkpt>
      <trkpt lat="62.637811714215" lon="17.868337864445">
        <ele>52.2</ele>
        <time>2018-04-01T12:34:48Z</time>
      </trkpt>
      <trkpt lat="62.63780878055" lon="17.868414307373">
        <ele>52.4</ele>
        <time>2018-04-01T12:34:49Z</time>
      </trkpt>
      <trkpt lat="62.637805176333" lon="17.868491085577">
        <ele>52.6</ele>
        <time>2018-04-01T12:34:50Z</time>
      </trkpt>
      <trkpt lat="62.637803248496" lon="17.868568534333">
        <ele>52.8</ele>
        <time>2018-04-01T12:34:51Z</time>
      </trkpt>
      <trkpt lat="62.637800482469" lon="17.868638439379">
        <ele>52.8</ele>
        <time>2018-04-01T12:34:52Z</time>
      </trkpt>
      <trkpt lat="62.637796626795" lon="17.868720079085">
        <ele>53</ele>
        <time>2018-04-01T12:34:53Z</time>
      </trkpt>
      <trkpt lat="62.637793190216" lon="17.8688026408">
        <ele>53.2</ele>
        <time>2018-04-01T12:34:54Z</time>
      </trkpt>
      <trkpt lat="62.637789083085" lon="17.868883609954">
        <ele>53.4</ele>
        <time>2018-04-01T12:34:55Z</time>
      </trkpt>
      <trkpt lat="62.637786400877" lon="17.868962818909">
        <ele>53.4</ele>
        <time>2018-04-01T12:34:56Z</time>
      </trkpt>
      <trkpt lat="62.637784724497" lon="17.869038339828">
        <ele>53.8</ele>
        <time>2018-04-01T12:34:57Z</time>
      </trkpt>
      <trkpt lat="62.637784137764" lon="17.86912282938">
        <ele>53.8</ele>
        <time>2018-04-01T12:34:58Z</time>
      </trkpt>
      <trkpt lat="62.637782209927" lon="17.869198853213">
        <ele>54</ele>
        <time>2018-04-01T12:34:59Z</time>
      </trkpt>
      <trkpt lat="62.637783131936" lon="17.869283594222">
        <ele>54.2</ele>
        <time>2018-04-01T12:35:00Z</time>
      </trkpt>
      <trkpt lat="62.637780952642" lon="17.869365233928">
        <ele>54.2</ele>
        <time>2018-04-01T12:35:01Z</time>
      </trkpt>
      <trkpt lat="62.637779695357" lon="17.869443101779">
        <ele>54.4</ele>
        <time>2018-04-01T12:35:02Z</time>
      </trkpt>
      <trkpt lat="62.637780617366" lon="17.869532117557">
        <ele>54.6</ele>
        <time>2018-04-01T12:35:03Z</time>
      </trkpt>
      <trkpt lat="62.637780365909" lon="17.869614763091">
        <ele>54.8</ele>
        <time>2018-04-01T12:35:04Z</time>
      </trkpt>
      <trkpt lat="62.637782461384" lon="17.869689362001">
        <ele>55</ele>
        <time>2018-04-01T12:35:05Z</time>
      </trkpt>
      <trkpt lat="62.637782461384" lon="17.869775863209">
        <ele>55.2</ele>
        <time>2018-04-01T12:35:06Z</time>
      </trkpt>
      <trkpt lat="62.637782545203" lon="17.869849623929">
        <ele>55.4</ele>
        <time>2018-04-01T12:35:07Z</time>
      </trkpt>
      <trkpt lat="62.637783215755" lon="17.86993503549">
        <ele>55.6</ele>
        <time>2018-04-01T12:35:08Z</time>
      </trkpt>
      <trkpt lat="62.637784137764" lon="17.870015669368">
        <ele>55.8</ele>
        <time>2018-04-01T12:35:09Z</time>
      </trkpt>
      <trkpt lat="62.637783802488" lon="17.870097057617">
        <ele>56</ele>
        <time>2018-04-01T12:35:10Z</time>
      </trkpt>
      <trkpt lat="62.637783970126" lon="17.870171907984">
        <ele>56</ele>
        <time>2018-04-01T12:35:11Z</time>
      </trkpt>
      <trkpt lat="62.637787490524" lon="17.870245668704">
        <ele>56.2</ele>
        <time>2018-04-01T12:35:12Z</time>
      </trkpt>
      <trkpt lat="62.637790508008" lon="17.870329068609">
        <ele>56.2</ele>
        <time>2018-04-01T12:35:13Z</time>
      </trkpt>
      <trkpt lat="62.637792184388" lon="17.87040526008">
        <ele>56.6</ele>
        <time>2018-04-01T12:35:14Z</time>
      </trkpt>
      <trkpt lat="62.637796040062" lon="17.870476254773">
        <ele>56.8</ele>
        <time>2018-04-01T12:35:15Z</time>
      </trkpt>
      <trkpt lat="62.637799392822" lon="17.870553787348">
        <ele>57</ele>
        <time>2018-04-01T12:35:16Z</time>
      </trkpt>
      <trkpt lat="62.637801488297" lon="17.870622435109">
        <ele>57.2</ele>
        <time>2018-04-01T12:35:17Z</time>
      </trkpt>
      <trkpt lat="62.637807271808" lon="17.870706757023">
        <ele>57.4</ele>
        <time>2018-04-01T12:35:18Z</time>
      </trkpt>
      <trkpt lat="62.637814564061" lon="17.870780098648">
        <ele>57.6</ele>
        <time>2018-04-01T12:35:19Z</time>
      </trkpt>
      <trkpt lat="62.637819257925" lon="17.870859056146">
        <ele>57.8</ele>
        <time>2018-04-01T12:35:20Z</time>
      </trkpt>
      <trkpt lat="62.637823951789" lon="17.870937678368">
        <ele>57.8</ele>
        <time>2018-04-01T12:35:21Z</time>
      </trkpt>
      <trkpt lat="62.637827556006" lon="17.871011187631">
        <ele>58</ele>
        <time>2018-04-01T12:35:22Z</time>
      </trkpt>
      <trkpt lat="62.637830908766" lon="17.871088636387">
        <ele>58.2</ele>
        <time>2018-04-01T12:35:23Z</time>
      </trkpt>
      <trkpt lat="62.637837698105" lon="17.871167845342">
        <ele>58.2</ele>
        <time>2018-04-01T12:35:24Z</time>
      </trkpt>
      <trkpt lat="62.637843481616" lon="17.871241857519">
        <ele>58.4</ele>
        <time>2018-04-01T12:35:25Z</time>
      </trkpt>
      <trkpt lat="62.637850606231" lon="17.871313774221">
        <ele>58.6</ele>
        <time>2018-04-01T12:35:26Z</time>
      </trkpt>
      <trkpt lat="62.637854461905" lon="17.871379488317">
        <ele>58.8</ele>
        <time>2018-04-01T12:35:27Z</time>
      </trkpt>
      <trkpt lat="62.637857982303" lon="17.87145467396">
        <ele>59</ele>
        <time>2018-04-01T12:35:28Z</time>
      </trkpt>
      <trkpt lat="62.637863514357" lon="17.871517119115">
        <ele>59</ele>
        <time>2018-04-01T12:35:29Z</time>
      </trkpt>
      <trkpt lat="62.637871896257" lon="17.871587694713">
        <ele>59.2</ele>
        <time>2018-04-01T12:35:30Z</time>
      </trkpt>
      <trkpt lat="62.637875332836" lon="17.871633878982">
        <ele>59.2</ele>
        <time>2018-04-01T12:35:31Z</time>
      </trkpt>
      <trkpt lat="62.637882960365" lon="17.871719542">
        <ele>59.4</ele>
        <time>2018-04-01T12:35:32Z</time>
      </trkpt>
      <trkpt lat="62.637890755532" lon="17.871792799806">
        <ele>59.4</ele>
        <time>2018-04-01T12:35:33Z</time>
      </trkpt>
      <trkpt lat="62.63789930507" lon="17.871859352092">
        <ele>59.8</ele>
        <time>2018-04-01T12:35:34Z</time>
      </trkpt>
      <trkpt lat="62.637907016418" lon="17.871925401464">
        <ele>60</ele>
        <time>2018-04-01T12:35:35Z</time>
      </trkpt>
      <trkpt lat="62.637915482137" lon="17.871997737261">
        <ele>60.2</ele>
        <time>2018-04-01T12:35:36Z</time>
      </trkpt>
      <trkpt lat="62.637924618408" lon="17.872061942615">
        <ele>60.4</ele>
        <time>2018-04-01T12:35:37Z</time>
      </trkpt>
      <trkpt lat="62.63793367086" lon="17.872134781326">
        <ele>60.4</ele>
        <time>2018-04-01T12:35:38Z</time>
      </trkpt>
      <trkpt lat="62.637941382208" lon="17.872203093811">
        <ele>60.6</ele>
        <time>2018-04-01T12:35:39Z</time>
      </trkpt>
      <trkpt lat="62.637949428832" lon="17.872269981373">
        <ele>60.8</ele>
        <time>2018-04-01T12:35:40Z</time>
      </trkpt>
      <trkpt lat="62.637958900379" lon="17.872332426528">
        <ele>61</ele>
        <time>2018-04-01T12:35:41Z</time>
      </trkpt>
      <trkpt lat="62.637969210116" lon="17.872397386253">
        <ele>61.2</ele>
        <time>2018-04-01T12:35:42Z</time>
      </trkpt>
      <trkpt lat="62.637979436034" lon="17.872464609091">
        <ele>61.4</ele>
        <time>2018-04-01T12:35:43Z</time>
      </trkpt>
      <trkpt lat="62.637989661952" lon="17.872538369811">
        <ele>61.4</ele>
        <time>2018-04-01T12:35:44Z</time>
      </trkpt>
      <trkpt lat="62.638000642241" lon="17.872604000088">
        <ele>61.8</ele>
        <time>2018-04-01T12:35:45Z</time>
      </trkpt>
      <trkpt lat="62.638012544539" lon="17.872673569858">
        <ele>61.8</ele>
        <time>2018-04-01T12:35:46Z</time>
      </trkpt>
      <trkpt lat="62.63802000443" lon="17.872731321149">
        <ele>62</ele>
        <time>2018-04-01T12:35:47Z</time>
      </trkpt>
      <trkpt lat="62.638033331651" lon="17.872811871208">
        <ele>62.2</ele>
        <time>2018-04-01T12:35:48Z</time>
      </trkpt>
      <trkpt lat="62.638045233949" lon="17.872880351331">
        <ele>62.2</ele>
        <time>2018-04-01T12:35:49Z</time>
      </trkpt>
      <trkpt lat="62.638056549514" lon="17.872948412359">
        <ele>62.4</ele>
        <time>2018-04-01T12:35:50Z</time>
      </trkpt>
      <trkpt lat="62.638067865079" lon="17.873016808663">
        <ele>62.4</ele>
        <time>2018-04-01T12:35:51Z</time>
      </trkpt>
      <trkpt lat="62.638078593911" lon="17.873081936026">
        <ele>62.6</ele>
        <time>2018-04-01T12:35:52Z</time>
      </trkpt>
      <trkpt lat="62.63809125058" lon="17.873150499968">
        <ele>62.8</ele>
        <time>2018-04-01T12:35:53Z</time>
      </trkpt>
      <trkpt lat="62.638104410163" lon="17.873223003403">
        <ele>63</ele>
        <time>2018-04-01T12:35:54Z</time>
      </trkpt>
      <trkpt lat="62.638117737384" lon="17.873292489354">
        <ele>63</ele>
        <time>2018-04-01T12:35:55Z</time>
      </trkpt>
      <trkpt lat="62.638130058777" lon="17.873361975305">
        <ele>63.4</ele>
        <time>2018-04-01T12:35:56Z</time>
      </trkpt>
      <trkpt lat="62.638141709618" lon="17.873427186487">
        <ele>63.4</ele>
        <time>2018-04-01T12:35:57Z</time>
      </trkpt>
      <trkpt lat="62.638154198649" lon="17.873496923895">
        <ele>63.4</ele>
        <time>2018-04-01T12:35:58Z</time>
      </trkpt>
      <trkpt lat="62.638185882231" lon="17.873643439507">
        <ele>63.6</ele>
        <time>2018-04-01T12:36:00Z</time>
      </trkpt>
      <trkpt lat="62.638202310755" lon="17.873715942942">
        <ele>63.6</ele>
        <time>2018-04-01T12:36:01Z</time>
      </trkpt>
      <trkpt lat="62.638216895261" lon="17.873784171608">
        <ele>63.8</ele>
        <time>2018-04-01T12:36:02Z</time>
      </trkpt>
      <trkpt lat="62.638235000165" lon="17.873864302572">
        <ele>64</ele>
        <time>2018-04-01T12:36:03Z</time>
      </trkpt>
      <trkpt lat="62.638251093413" lon="17.873936722188">
        <ele>64.2</ele>
        <time>2018-04-01T12:36:04Z</time>
      </trkpt>
      <trkpt lat="62.638265929376" lon="17.874009896175">
        <ele>64.2</ele>
        <time>2018-04-01T12:36:05Z</time>
      </trkpt>
      <trkpt lat="62.638283866642" lon="17.874093631356">
        <ele>64.4</ele>
        <time>2018-04-01T12:36:06Z</time>
      </trkpt>
      <trkpt lat="62.638299373157" lon="17.874168230266">
        <ele>64.4</ele>
        <time>2018-04-01T12:36:07Z</time>
      </trkpt>
      <trkpt lat="62.638317729518" lon="17.874249534696">
        <ele>64.6</ele>
        <time>2018-04-01T12:36:08Z</time>
      </trkpt>
      <trkpt lat="62.638333236033" lon="17.874325642348">
        <ele>64.6</ele>
        <time>2018-04-01T12:36:09Z</time>
      </trkpt>
      <trkpt lat="62.638348239634" lon="17.874399822163">
        <ele>64.6</ele>
        <time>2018-04-01T12:36:10Z</time>
      </trkpt>
      <trkpt lat="62.638364835796" lon="17.874471235951">
        <ele>64.8</ele>
        <time>2018-04-01T12:36:11Z</time>
      </trkpt>
      <trkpt lat="62.638382605424" lon="17.874545499585">
        <ele>64.8</ele>
        <time>2018-04-01T12:36:12Z</time>
      </trkpt>
      <trkpt lat="62.638401045604" lon="17.874619260305">
        <ele>65</ele>
        <time>2018-04-01T12:36:13Z</time>
      </trkpt>
      <trkpt lat="62.638419401965" lon="17.874698050165">
        <ele>65</ele>
        <time>2018-04-01T12:36:14Z</time>
      </trkpt>
      <trkpt lat="62.638436836317" lon="17.874771224152">
        <ele>65.2</ele>
        <time>2018-04-01T12:36:15Z</time>
      </trkpt>
      <trkpt lat="62.638453516298" lon="17.874846325976">
        <ele>65.4</ele>
        <time>2018-04-01T12:36:16Z</time>
      </trkpt>
      <trkpt lat="62.638469106632" lon="17.874905753647">
        <ele>65.4</ele>
        <time>2018-04-01T12:36:17Z</time>
      </trkpt>
      <trkpt lat="62.638490815753" lon="17.874990327018">
        <ele>65.6</ele>
        <time>2018-04-01T12:36:18Z</time>
      </trkpt>
      <trkpt lat="62.638506657544" lon="17.875066099394">
        <ele>65.6</ele>
        <time>2018-04-01T12:36:19Z</time>
      </trkpt>
      <trkpt lat="62.638523253706" lon="17.875141368856">
        <ele>65.8</ele>
        <time>2018-04-01T12:36:20Z</time>
      </trkpt>
      <trkpt lat="62.638539263135" lon="17.875213788472">
        <ele>65.8</ele>
        <time>2018-04-01T12:36:21Z</time>
      </trkpt>
      <trkpt lat="62.638554015279" lon="17.875284196432">
        <ele>65.8</ele>
        <time>2018-04-01T12:36:22Z</time>
      </trkpt>
      <trkpt lat="62.63857153345" lon="17.875357538057">
        <ele>66</ele>
        <time>2018-04-01T12:36:23Z</time>
      </trkpt>
      <trkpt lat="62.638591147096" lon="17.875431298777">
        <ele>66</ele>
        <time>2018-04-01T12:36:24Z</time>
      </trkpt>
      <trkpt lat="62.638610676923" lon="17.87550564623">
        <ele>66.2</ele>
        <time>2018-04-01T12:36:25Z</time>
      </trkpt>
      <trkpt lat="62.638629955293" lon="17.875581418606">
        <ele>66.2</ele>
        <time>2018-04-01T12:36:26Z</time>
      </trkpt>
      <trkpt lat="62.638646216179" lon="17.875650904557">
        <ele>66.4</ele>
        <time>2018-04-01T12:36:27Z</time>
      </trkpt>
      <trkpt lat="62.638665075454" lon="17.875725587286">
        <ele>66.4</ele>
        <time>2018-04-01T12:36:28Z</time>
      </trkpt>
      <trkpt lat="62.638682006892" lon="17.875800353834">
        <ele>66.4</ele>
        <time>2018-04-01T12:36:29Z</time>
      </trkpt>
      <trkpt lat="62.638700363253" lon="17.875882412635">
        <ele>66.6</ele>
        <time>2018-04-01T12:36:30Z</time>
      </trkpt>
      <trkpt lat="62.638717965243" lon="17.875956508631">
        <ele>66.8</ele>
        <time>2018-04-01T12:36:31Z</time>
      </trkpt>
      <trkpt lat="62.638734226129" lon="17.876028341514">
        <ele>66.8</ele>
        <time>2018-04-01T12:36:32Z</time>
      </trkpt>
      <trkpt lat="62.63875258249" lon="17.876108723935">
        <ele>66.8</ele>
        <time>2018-04-01T12:36:33Z</time>
      </trkpt>
      <trkpt lat="62.638768424281" lon="17.876186591786">
        <ele>67</ele>
        <time>2018-04-01T12:36:34Z</time>
      </trkpt>
      <trkpt lat="62.638783511701" lon="17.876259598135">
        <ele>67</ele>
        <time>2018-04-01T12:36:35Z</time>
      </trkpt>
      <trkpt lat="62.638800443139" lon="17.876339393823">
        <ele>67.2</ele>
        <time>2018-04-01T12:36:36Z</time>
      </trkpt>
      <trkpt lat="62.638817458396" lon="17.876411897258">
        <ele>67.2</ele>
        <time>2018-04-01T12:36:37Z</time>
      </trkpt>
      <trkpt lat="62.638837155861" lon="17.876491273851">
        <ele>67.4</ele>
        <time>2018-04-01T12:36:38Z</time>
      </trkpt>
      <trkpt lat="62.638855512222" lon="17.876570231349">
        <ele>67.6</ele>
        <time>2018-04-01T12:36:39Z</time>
      </trkpt>
      <trkpt lat="62.638870432004" lon="17.876646255182">
        <ele>67.8</ele>
        <time>2018-04-01T12:36:40Z</time>
      </trkpt>
      <trkpt lat="62.638884848872" lon="17.876722614291">
        <ele>68</ele>
        <time>2018-04-01T12:36:41Z</time>
      </trkpt>
      <trkpt lat="62.638902199405" lon="17.876800146866">
        <ele>68</ele>
        <time>2018-04-01T12:36:42Z</time>
      </trkpt>
      <trkpt lat="62.638919885214" lon="17.876876170699">
        <ele>68</ele>
        <time>2018-04-01T12:36:43Z</time>
      </trkpt>
      <trkpt lat="62.638937738661" lon="17.876959486785">
        <ele>68</ele>
        <time>2018-04-01T12:36:44Z</time>
      </trkpt>
      <trkpt lat="62.638951568796" lon="17.877041294129">
        <ele>68.2</ele>
        <time>2018-04-01T12:36:45Z</time>
      </trkpt>
      <trkpt lat="62.638963638732" lon="17.877123436749">
        <ele>68.2</ele>
        <time>2018-04-01T12:36:46Z</time>
      </trkpt>
      <trkpt lat="62.638975121935" lon="17.877190659587">
        <ele>68.4</ele>
        <time>2018-04-01T12:36:47Z</time>
      </trkpt>
      <trkpt lat="62.638993897391" lon="17.877284369229">
        <ele>68.4</ele>
        <time>2018-04-01T12:36:48Z</time>
      </trkpt>
      <trkpt lat="62.639007895164" lon="17.877364081098">
        <ele>68.6</ele>
        <time>2018-04-01T12:36:49Z</time>
      </trkpt>
      <trkpt lat="62.639020216557" lon="17.877443960605">
        <ele>68.6</ele>
        <time>2018-04-01T12:36:50Z</time>
      </trkpt>
      <trkpt lat="62.639033543778" lon="17.877524426845">
        <ele>68.6</ele>
        <time>2018-04-01T12:36:51Z</time>
      </trkpt>
      <trkpt lat="62.639046200447" lon="17.87760195942">
        <ele>68.8</ele>
        <time>2018-04-01T12:36:52Z</time>
      </trkpt>
      <trkpt lat="62.639060114401" lon="17.877685610782">
        <ele>68.8</ele>
        <time>2018-04-01T12:36:53Z</time>
      </trkpt>
      <trkpt lat="62.639073693079" lon="17.877776219121">
        <ele>68.8</ele>
        <time>2018-04-01T12:36:54Z</time>
      </trkpt>
      <trkpt lat="62.639087607033" lon="17.877859451388">
        <ele>69</ele>
        <time>2018-04-01T12:36:55Z</time>
      </trkpt>
      <trkpt lat="62.639101940082" lon="17.877944695311">
        <ele>69</ele>
        <time>2018-04-01T12:36:56Z</time>
      </trkpt>
      <trkpt lat="62.639114512932" lon="17.878024155723">
        <ele>69.2</ele>
        <time>2018-04-01T12:36:57Z</time>
      </trkpt>
      <trkpt lat="62.639126582868" lon="17.878110992207">
        <ele>69.4</ele>
        <time>2018-04-01T12:36:58Z</time>
      </trkpt>
      <trkpt lat="62.639139155718" lon="17.878199169795">
        <ele>69.4</ele>
        <time>2018-04-01T12:36:59Z</time>
      </trkpt>
      <trkpt lat="62.63915156093" lon="17.878292376523">
        <ele>69.6</ele>
        <time>2018-04-01T12:37:00Z</time>
      </trkpt>
      <trkpt lat="62.639162122124" lon="17.878382398129">
        <ele>69.8</ele>
        <time>2018-04-01T12:37:01Z</time>
      </trkpt>
      <trkpt lat="62.639169917291" lon="17.878468228785">
        <ele>69.8</ele>
        <time>2018-04-01T12:37:02Z</time>
      </trkpt>
      <trkpt lat="62.639178885924" lon="17.878559759133">
        <ele>70</ele>
        <time>2018-04-01T12:37:03Z</time>
      </trkpt>
      <trkpt lat="62.639199421579" lon="17.878745921132">
        <ele>70.2</ele>
        <time>2018-04-01T12:37:05Z</time>
      </trkpt>
      <trkpt lat="62.639209982773" lon="17.878843067353">
        <ele>70.4</ele>
        <time>2018-04-01T12:37:06Z</time>
      </trkpt>
      <trkpt lat="62.639219538139" lon="17.878928730371">
        <ele>70.4</ele>
        <time>2018-04-01T12:37:07Z</time>
      </trkpt>
      <trkpt lat="62.639229931695" lon="17.87902520604">
        <ele>70.4</ele>
        <time>2018-04-01T12:37:08Z</time>
      </trkpt>
      <trkpt lat="62.639238900328" lon="17.879114724732">
        <ele>70.6</ele>
        <time>2018-04-01T12:37:09Z</time>
      </trkpt>
      <trkpt lat="62.639247701323" lon="17.879204913976">
        <ele>70.8</ele>
        <time>2018-04-01T12:37:10Z</time>
      </trkpt>
      <trkpt lat="62.639256502318" lon="17.879288732976">
        <ele>71</ele>
        <time>2018-04-01T12:37:11Z</time>
      </trkpt>
      <trkpt lat="62.639265135675" lon="17.879380347143">
        <ele>71</ele>
        <time>2018-04-01T12:37:12Z</time>
      </trkpt>
      <trkpt lat="62.639272679385" lon="17.879475397889">
        <ele>71</ele>
        <time>2018-04-01T12:37:13Z</time>
      </trkpt>
      <trkpt lat="62.639282402389" lon="17.879569861902">
        <ele>71</ele>
        <time>2018-04-01T12:37:14Z</time>
      </trkpt>
      <trkpt lat="62.639290365194" lon="17.879662817173">
        <ele>71.2</ele>
        <time>2018-04-01T12:37:15Z</time>
      </trkpt>
      <trkpt lat="62.639296651619" lon="17.87975526953">
        <ele>71.2</ele>
        <time>2018-04-01T12:37:16Z</time>
      </trkpt>
      <trkpt lat="62.639300255836" lon="17.879830371354">
        <ele>71.4</ele>
        <time>2018-04-01T12:37:17Z</time>
      </trkpt>
      <trkpt lat="62.639307548089" lon="17.879939336054">
        <ele>71.4</ele>
        <time>2018-04-01T12:37:18Z</time>
      </trkpt>
      <trkpt lat="62.639315091799" lon="17.880033632429">
        <ele>71.6</ele>
        <time>2018-04-01T12:37:19Z</time>
      </trkpt>
      <trkpt lat="62.6393217135" lon="17.880123318759">
        <ele>71.8</ele>
        <time>2018-04-01T12:37:20Z</time>
      </trkpt>
      <trkpt lat="62.639328754296" lon="17.880212334537">
        <ele>72</ele>
        <time>2018-04-01T12:37:21Z</time>
      </trkpt>
      <trkpt lat="62.639336549463" lon="17.880297997555">
        <ele>72</ele>
        <time>2018-04-01T12:37:22Z</time>
      </trkpt>
      <trkpt lat="62.639345434277" lon="17.880388019161">
        <ele>72.2</ele>
        <time>2018-04-01T12:37:23Z</time>
      </trkpt>
      <trkpt lat="62.639352642711" lon="17.880484662468">
        <ele>72.4</ele>
        <time>2018-04-01T12:37:24Z</time>
      </trkpt>
      <trkpt lat="62.639357420394" lon="17.880576611911">
        <ele>72.6</ele>
        <time>2018-04-01T12:37:25Z</time>
      </trkpt>
      <trkpt lat="62.639362617172" lon="17.880669064268">
        <ele>72.6</ele>
        <time>2018-04-01T12:37:26Z</time>
      </trkpt>
      <trkpt lat="62.63936781395" lon="17.88075439201">
        <ele>72.6</ele>
        <time>2018-04-01T12:37:27Z</time>
      </trkpt>
      <trkpt lat="62.639374770927" lon="17.880846425272">
        <ele>72.8</ele>
        <time>2018-04-01T12:37:28Z</time>
      </trkpt>
      <trkpt lat="62.639381979361" lon="17.88093711743">
        <ele>72.8</ele>
        <time>2018-04-01T12:37:29Z</time>
      </trkpt>
      <trkpt lat="62.639387595234" lon="17.880988163201">
        <ele>73</ele>
        <time>2018-04-01T12:37:30Z</time>
      </trkpt>
      <trkpt lat="62.639401173912" lon="17.881126716008">
        <ele>73</ele>
        <time>2018-04-01T12:37:31Z</time>
      </trkpt>
      <trkpt lat="62.639410394002" lon="17.88121372013">
        <ele>73</ele>
        <time>2018-04-01T12:37:32Z</time>
      </trkpt>
      <trkpt lat="62.639422128662" lon="17.881313548559">
        <ele>73.2</ele>
        <time>2018-04-01T12:37:33Z</time>
      </trkpt>
      <trkpt lat="62.639433360408" lon="17.881406671468">
        <ele>73.4</ele>
        <time>2018-04-01T12:37:34Z</time>
      </trkpt>
      <trkpt lat="62.639445011249" lon="17.881499459101">
        <ele>73.4</ele>
        <time>2018-04-01T12:37:35Z</time>
      </trkpt>
      <trkpt lat="62.639455320986" lon="17.881572968364">
        <ele>73.6</ele>
        <time>2018-04-01T12:37:36Z</time>
      </trkpt>
      <trkpt lat="62.639471833329" lon="17.881681933064">
        <ele>73.6</ele>
        <time>2018-04-01T12:37:37Z</time>
      </trkpt>
      <trkpt lat="62.639487088387" lon="17.881781090941">
        <ele>73.8</ele>
        <time>2018-04-01T12:37:38Z</time>
      </trkpt>
      <trkpt lat="62.639501253798" lon="17.881872872746">
        <ele>74</ele>
        <time>2018-04-01T12:37:39Z</time>
      </trkpt>
      <trkpt lat="62.639519274883" lon="17.881963732542">
        <ele>74</ele>
        <time>2018-04-01T12:37:40Z</time>
      </trkpt>
      <trkpt lat="62.639535787226" lon="17.882049227922">
        <ele>74.2</ele>
        <time>2018-04-01T12:37:41Z</time>
      </trkpt>
      <trkpt lat="62.639552802483" lon="17.88213992008">
        <ele>74.4</ele>
        <time>2018-04-01T12:37:42Z</time>
      </trkpt>
      <trkpt lat="62.639571242663" lon="17.88222793003">
        <ele>74.6</ele>
        <time>2018-04-01T12:37:43Z</time>
      </trkpt>
      <trkpt lat="62.63959077249" lon="17.882321974948">
        <ele>74.8</ele>
        <time>2018-04-01T12:37:44Z</time>
      </trkpt>
      <trkpt lat="62.63960921267" lon="17.882411242183">
        <ele>75</ele>
        <time>2018-04-01T12:37:45Z</time>
      </trkpt>
      <trkpt lat="62.63962765285" lon="17.882497324296">
        <ele>75</ele>
        <time>2018-04-01T12:37:46Z</time>
      </trkpt>
      <trkpt lat="62.639644668107" lon="17.882571504111">
        <ele>75</ele>
        <time>2018-04-01T12:37:47Z</time>
      </trkpt>
      <trkpt lat="62.639669394712" lon="17.882677032232">
        <ele>75</ele>
        <time>2018-04-01T12:37:48Z</time>
      </trkpt>
      <trkpt lat="62.639693199308" lon="17.882765796553">
        <ele>75</ele>
        <time>2018-04-01T12:37:49Z</time>
      </trkpt>
      <trkpt lat="62.639716920085" lon="17.882853303589">
        <ele>75</ele>
        <time>2018-04-01T12:37:50Z</time>
      </trkpt>
      <trkpt lat="62.639742233423" lon="17.882939301883">
        <ele>75.2</ele>
        <time>2018-04-01T12:37:51Z</time>
      </trkpt>
      <trkpt lat="62.639765870381" lon="17.883024797263">
        <ele>75.2</ele>
        <time>2018-04-01T12:37:52Z</time>
      </trkpt>
      <trkpt lat="62.639791267538" lon="17.883111801385">
        <ele>75.2</ele>
        <time>2018-04-01T12:37:53Z</time>
      </trkpt>
      <trkpt lat="62.639818508713" lon="17.88320525957">
        <ele>75.4</ele>
        <time>2018-04-01T12:37:54Z</time>
      </trkpt>
      <trkpt lat="62.639844827879" lon="17.883292850425">
        <ele>75.4</ele>
        <time>2018-04-01T12:37:55Z</time>
      </trkpt>
      <trkpt lat="62.639873326339" lon="17.883377591434">
        <ele>75.4</ele>
        <time>2018-04-01T12:37:56Z</time>
      </trkpt>
      <trkpt lat="62.639899477867" lon="17.883457973855">
        <ele>75.4</ele>
        <time>2018-04-01T12:37:57Z</time>
      </trkpt>
      <trkpt lat="62.639927473413" lon="17.883543385416">
        <ele>75.4</ele>
        <time>2018-04-01T12:37:58Z</time>
      </trkpt>
      <trkpt lat="62.63999561826" lon="17.883714292357">
        <ele>75.6</ele>
        <time>2018-04-01T12:38:00Z</time>
      </trkpt>
      <trkpt lat="62.640028559127" lon="17.88379953628">
        <ele>75.6</ele>
        <time>2018-04-01T12:38:01Z</time>
      </trkpt>
      <trkpt lat="62.640062170546" lon="17.88387916433">
        <ele>75.6</ele>
        <time>2018-04-01T12:38:02Z</time>
      </trkpt>
      <trkpt lat="62.640101397838" lon="17.883968934479">
        <ele>75.6</ele>
        <time>2018-04-01T12:38:03Z</time>
      </trkpt>
      <trkpt lat="62.640138445836" lon="17.884054513678">
        <ele>75.6</ele>
        <time>2018-04-01T12:38:04Z</time>
      </trkpt>
      <trkpt lat="62.640175410015" lon="17.884129028769">
        <ele>75.4</ele>
        <time>2018-04-01T12:38:05Z</time>
      </trkpt>
      <trkpt lat="62.640219331171" lon="17.884215446158">
        <ele>75.4</ele>
        <time>2018-04-01T12:38:06Z</time>
      </trkpt>
      <trkpt lat="62.640258139368" lon="17.88429658295">
        <ele>75.2</ele>
        <time>2018-04-01T12:38:07Z</time>
      </trkpt>
      <trkpt lat="62.640303485447" lon="17.884386604556">
        <ele>75.4</ele>
        <time>2018-04-01T12:38:08Z</time>
      </trkpt>
      <trkpt lat="62.640347406603" lon="17.884468495719">
        <ele>75.2</ele>
        <time>2018-04-01T12:38:09Z</time>
      </trkpt>
      <trkpt lat="62.640394261424" lon="17.884544519552">
        <ele>75</ele>
        <time>2018-04-01T12:38:10Z</time>
      </trkpt>
      <trkpt lat="62.640439104589" lon="17.884615765702">
        <ele>75</ele>
        <time>2018-04-01T12:38:11Z</time>
      </trkpt>
      <trkpt lat="62.6404867976" lon="17.884695645209">
        <ele>75</ele>
        <time>2018-04-01T12:38:12Z</time>
      </trkpt>
      <trkpt lat="62.640539100656" lon="17.884775021802">
        <ele>74.8</ele>
        <time>2018-04-01T12:38:13Z</time>
      </trkpt>
      <trkpt lat="62.640592828635" lon="17.884849704531">
        <ele>74.8</ele>
        <time>2018-04-01T12:38:14Z</time>
      </trkpt>
      <trkpt lat="62.640645383148" lon="17.88492774002">
        <ele>74.6</ele>
        <time>2018-04-01T12:38:15Z</time>
      </trkpt>
      <trkpt lat="62.640700368412" lon="17.885000746369">
        <ele>74.6</ele>
        <time>2018-04-01T12:38:16Z</time>
      </trkpt>
      <trkpt lat="62.640746385043" lon="17.885062269515">
        <ele>74.6</ele>
        <time>2018-04-01T12:38:17Z</time>
      </trkpt>
      <trkpt lat="62.640814613709" lon="17.88515237494">
        <ele>74.6</ele>
        <time>2018-04-01T12:38:18Z</time>
      </trkpt>
      <trkpt lat="62.640873706104" lon="17.885223369633">
        <ele>74.4</ele>
        <time>2018-04-01T12:38:19Z</time>
      </trkpt>
      <trkpt lat="62.640931541214" lon="17.885299225828">
        <ele>74.2</ele>
        <time>2018-04-01T12:38:20Z</time>
      </trkpt>
      <trkpt lat="62.640988957229" lon="17.885370723435">
        <ele>74.2</ele>
        <time>2018-04-01T12:38:21Z</time>
      </trkpt>
      <trkpt lat="62.641044445407" lon="17.885437946273">
        <ele>74</ele>
        <time>2018-04-01T12:38:22Z</time>
      </trkpt>
      <trkpt lat="62.641102531974" lon="17.885511623174">
        <ele>73.6</ele>
        <time>2018-04-01T12:38:23Z</time>
      </trkpt>
      <trkpt lat="62.641164138939" lon="17.885596112726">
        <ele>73.2</ele>
        <time>2018-04-01T12:38:24Z</time>
      </trkpt>
      <trkpt lat="62.641223147515" lon="17.885680267002">
        <ele>73</ele>
        <time>2018-04-01T12:38:25Z</time>
      </trkpt>
      <trkpt lat="62.641281988453" lon="17.885768109314">
        <ele>72.6</ele>
        <time>2018-04-01T12:38:26Z</time>
      </trkpt>
      <trkpt lat="62.64133839864" lon="17.885850671029">
        <ele>72.4</ele>
        <time>2018-04-01T12:38:27Z</time>
      </trkpt>
      <trkpt lat="62.641399837967" lon="17.885941195549">
        <ele>72</ele>
        <time>2018-04-01T12:38:28Z</time>
      </trkpt>
      <trkpt lat="62.641459349457" lon="17.886034318458">
        <ele>71.8</ele>
        <time>2018-04-01T12:38:29Z</time>
      </trkpt>
      <trkpt lat="62.641520621146" lon="17.886138840751">
        <ele>71.6</ele>
        <time>2018-04-01T12:38:30Z</time>
      </trkpt>
      <trkpt lat="62.641576528419" lon="17.886239088275">
        <ele>71.2</ele>
        <time>2018-04-01T12:38:31Z</time>
      </trkpt>
      <trkpt lat="62.641626903638" lon="17.886332630279">
        <ele>70.8</ele>
        <time>2018-04-01T12:38:32Z</time>
      </trkpt>
      <trkpt lat="62.641681553626" lon="17.886441427341">
        <ele>70.6</ele>
        <time>2018-04-01T12:38:33Z</time>
      </trkpt>
      <trkpt lat="62.64173067156" lon="17.88655047586">
        <ele>70.2</ele>
        <time>2018-04-01T12:38:34Z</time>
      </trkpt>
      <trkpt lat="62.641777777838" lon="17.886656758352">
        <ele>70</ele>
        <time>2018-04-01T12:38:35Z</time>
      </trkpt>
      <trkpt lat="62.641830164713" lon="17.886778547359">
        <ele>69.8</ele>
        <time>2018-04-01T12:38:36Z</time>
      </trkpt>
      <trkpt lat="62.641874085869" lon="17.886893966122">
        <ele>69.6</ele>
        <time>2018-04-01T12:38:37Z</time>
      </trkpt>
      <trkpt lat="62.641922952346" lon="17.887026986875">
        <ele>69.6</ele>
        <time>2018-04-01T12:38:38Z</time>
      </trkpt>
      <trkpt lat="62.641967544054" lon="17.887151793366">
        <ele>69.4</ele>
        <time>2018-04-01T12:38:39Z</time>
      </trkpt>
      <trkpt lat="62.642008783002" lon="17.887278443875">
        <ele>69.2</ele>
        <time>2018-04-01T12:38:40Z</time>
      </trkpt>
      <trkpt lat="62.642047088285" lon="17.887396544846">
        <ele>69</ele>
        <time>2018-04-01T12:38:41Z</time>
      </trkpt>
      <trkpt lat="62.642084806835" lon="17.887520596966">
        <ele>68.8</ele>
        <time>2018-04-01T12:38:42Z</time>
      </trkpt>
      <trkpt lat="62.642120932824" lon="17.887644146172">
        <ele>68.6</ele>
        <time>2018-04-01T12:38:43Z</time>
      </trkpt>
      <trkpt lat="62.642155969166" lon="17.887781274056">
        <ele>68.4</ele>
        <time>2018-04-01T12:38:44Z</time>
      </trkpt>
      <trkpt lat="62.642186814558" lon="17.887907254013">
        <ele>68.2</ele>
        <time>2018-04-01T12:38:45Z</time>
      </trkpt>
      <trkpt lat="62.642215648294" lon="17.888030216486">
        <ele>68.2</ele>
        <time>2018-04-01T12:38:46Z</time>
      </trkpt>
      <trkpt lat="62.642237692691" lon="17.88813046401">
        <ele>68.2</ele>
        <time>2018-04-01T12:38:47Z</time>
      </trkpt>
      <trkpt lat="62.642267029341" lon="17.888275722337">
        <ele>68.2</ele>
        <time>2018-04-01T12:38:48Z</time>
      </trkpt>
      <trkpt lat="62.642288319367" lon="17.888396924611">
        <ele>68</ele>
        <time>2018-04-01T12:38:49Z</time>
      </trkpt>
      <trkpt lat="62.642309944669" lon="17.888513433021">
        <ele>68</ele>
        <time>2018-04-01T12:38:50Z</time>
      </trkpt>
      <trkpt lat="62.642330228867" lon="17.888624660834">
        <ele>68</ele>
        <time>2018-04-01T12:38:51Z</time>
      </trkpt>
      <trkpt lat="62.642348249952" lon="17.888729266946">
        <ele>68</ele>
        <time>2018-04-01T12:38:52Z</time>
      </trkpt>
      <trkpt lat="62.642365013752" lon="17.888838483103">
        <ele>68</ele>
        <time>2018-04-01T12:38:53Z</time>
      </trkpt>
      <trkpt lat="62.642381693733" lon="17.888950800563">
        <ele>68.2</ele>
        <time>2018-04-01T12:38:54Z</time>
      </trkpt>
      <trkpt lat="62.642397367886" lon="17.889052305372">
        <ele>68.4</ele>
        <time>2018-04-01T12:38:55Z</time>
      </trkpt>
      <trkpt lat="62.642414215505" lon="17.889149954507">
        <ele>68.4</ele>
        <time>2018-04-01T12:38:56Z</time>
      </trkpt>
      <trkpt lat="62.642429470563" lon="17.889238802647">
        <ele>68.4</ele>
        <time>2018-04-01T12:38:57Z</time>
      </trkpt>
      <trkpt lat="62.642444306526" lon="17.889332847565">
        <ele>68.6</ele>
        <time>2018-04-01T12:38:58Z</time>
      </trkpt>
      <trkpt lat="62.642456041186" lon="17.889424461732">
        <ele>68.6</ele>
        <time>2018-04-01T12:38:59Z</time>
      </trkpt>
      <trkpt lat="62.642468865493" lon="17.889522781419">
        <ele>68.6</ele>
        <time>2018-04-01T12:39:00Z</time>
      </trkpt>
      <trkpt lat="62.642482108895" lon="17.889613808853">
        <ele>68.8</ele>
        <time>2018-04-01T12:39:01Z</time>
      </trkpt>
      <trkpt lat="62.642494178831" lon="17.889699639509">
        <ele>68.8</ele>
        <time>2018-04-01T12:39:02Z</time>
      </trkpt>
      <trkpt lat="62.642505578215" lon="17.889795779902">
        <ele>69</ele>
        <time>2018-04-01T12:39:03Z</time>
      </trkpt>
      <trkpt lat="62.642518318703" lon="17.889887226431">
        <ele>69.2</ele>
        <time>2018-04-01T12:39:04Z</time>
      </trkpt>
      <trkpt lat="62.642529801906" lon="17.889970961612">
        <ele>69.4</ele>
        <time>2018-04-01T12:39:05Z</time>
      </trkpt>
      <trkpt lat="62.642545476059" lon="17.890067018186">
        <ele>69.6</ele>
        <time>2018-04-01T12:39:06Z</time>
      </trkpt>
      <trkpt lat="62.642560228203" lon="17.890152094471">
        <ele>69.6</ele>
        <time>2018-04-01T12:39:07Z</time>
      </trkpt>
      <trkpt lat="62.642576740546" lon="17.890251671443">
        <ele>69.8</ele>
        <time>2018-04-01T12:39:08Z</time>
      </trkpt>
      <trkpt lat="62.642590486862" lon="17.890346973646">
        <ele>70</ele>
        <time>2018-04-01T12:39:09Z</time>
      </trkpt>
      <trkpt lat="62.642601718608" lon="17.890441186202">
        <ele>70</ele>
        <time>2018-04-01T12:39:10Z</time>
      </trkpt>
      <trkpt lat="62.642611693069" lon="17.890533890016">
        <ele>70.2</ele>
        <time>2018-04-01T12:39:11Z</time>
      </trkpt>
      <trkpt lat="62.642624349738" lon="17.890630700961">
        <ele>70.2</ele>
        <time>2018-04-01T12:39:12Z</time>
      </trkpt>
      <trkpt lat="62.642637928416" lon="17.890726506078">
        <ele>70.2</ele>
        <time>2018-04-01T12:39:13Z</time>
      </trkpt>
      <trkpt lat="62.642650249809" lon="17.890830609276">
        <ele>70.4</ele>
        <time>2018-04-01T12:39:14Z</time>
      </trkpt>
      <trkpt lat="62.642661565374" lon="17.89092750404">
        <ele>70.6</ele>
        <time>2018-04-01T12:39:15Z</time>
      </trkpt>
      <trkpt lat="62.642672461844" lon="17.891026578098">
        <ele>70.6</ele>
        <time>2018-04-01T12:39:16Z</time>
      </trkpt>
      <trkpt lat="62.642682771581" lon="17.891107798709">
        <ele>70.6</ele>
        <time>2018-04-01T12:39:17Z</time>
      </trkpt>
      <trkpt lat="62.642697775182" lon="17.891225815861">
        <ele>70.6</ele>
        <time>2018-04-01T12:39:18Z</time>
      </trkpt>
      <trkpt lat="62.64270883929" lon="17.891325560471">
        <ele>70.6</ele>
        <time>2018-04-01T12:39:19Z</time>
      </trkpt>
      <trkpt lat="62.642721328321" lon="17.891427400556">
        <ele>70.8</ele>
        <time>2018-04-01T12:39:20Z</time>
      </trkpt>
      <trkpt lat="62.642734906999" lon="17.891526390795">
        <ele>70.6</ele>
        <time>2018-04-01T12:39:21Z</time>
      </trkpt>
      <trkpt lat="62.642746222564" lon="17.89162823088">
        <ele>70.6</ele>
        <time>2018-04-01T12:39:22Z</time>
      </trkpt>
      <trkpt lat="62.642759382147" lon="17.89172629911">
        <ele>70.6</ele>
        <time>2018-04-01T12:39:23Z</time>
      </trkpt>
      <trkpt lat="62.642773715196" lon="17.891837610742">
        <ele>70.8</ele>
        <time>2018-04-01T12:39:24Z</time>
      </trkpt>
      <trkpt lat="62.642785701313" lon="17.891943557958">
        <ele>70.8</ele>
        <time>2018-04-01T12:39:25Z</time>
      </trkpt>
      <trkpt lat="62.642798357982" lon="17.892051768287">
        <ele>70.8</ele>
        <time>2018-04-01T12:39:26Z</time>
      </trkpt>
      <trkpt lat="62.642806991339" lon="17.89213030669">
        <ele>70.8</ele>
        <time>2018-04-01T12:39:27Z</time>
      </trkpt>
      <trkpt lat="62.64282199494" lon="17.892262237796">
        <ele>71</ele>
        <time>2018-04-01T12:39:28Z</time>
      </trkpt>
      <trkpt lat="62.642834316333" lon="17.892376399274">
        <ele>71</ele>
        <time>2018-04-01T12:39:29Z</time>
      </trkpt>
      <trkpt lat="62.642847392097" lon="17.892496511901">
        <ele>70.8</ele>
        <time>2018-04-01T12:39:30Z</time>
      </trkpt>
      <trkpt lat="62.642860803137" lon="17.892610421922">
        <ele>70.8</ele>
        <time>2018-04-01T12:39:31Z</time>
      </trkpt>
      <trkpt lat="62.642872370159" lon="17.892720895364">
        <ele>70.8</ele>
        <time>2018-04-01T12:39:32Z</time>
      </trkpt>
      <trkpt lat="62.642888547226" lon="17.892844779846">
        <ele>70.8</ele>
        <time>2018-04-01T12:39:33Z</time>
      </trkpt>
      <trkpt lat="62.64290497575" lon="17.89295760022">
        <ele>70.8</ele>
        <time>2018-04-01T12:39:34Z</time>
      </trkpt>
      <trkpt lat="62.642915117849" lon="17.893036641537">
        <ele>70.8</ele>
        <time>2018-04-01T12:39:35Z</time>
      </trkpt>
      <trkpt lat="62.64293179783" lon="17.893171422489">
        <ele>70.8</ele>
        <time>2018-04-01T12:39:36Z</time>
      </trkpt>
      <trkpt lat="62.642945041232" lon="17.893267898158">
        <ele>70.8</ele>
        <time>2018-04-01T12:39:37Z</time>
      </trkpt>
      <trkpt lat="62.64296197267" lon="17.893372755727">
        <ele>70.8</ele>
        <time>2018-04-01T12:39:38Z</time>
      </trkpt>
      <trkpt lat="62.642974294063" lon="17.893477613296">
        <ele>70.6</ele>
        <time>2018-04-01T12:39:39Z</time>
      </trkpt>
      <trkpt lat="62.642985358171" lon="17.89358624272">
        <ele>70.6</ele>
        <time>2018-04-01T12:39:40Z</time>
      </trkpt>
      <trkpt lat="62.642992398967" lon="17.893691603203">
        <ele>70.6</ele>
        <time>2018-04-01T12:39:41Z</time>
      </trkpt>
      <trkpt lat="62.642999188306" lon="17.893807608699">
        <ele>70.6</ele>
        <time>2018-04-01T12:39:42Z</time>
      </trkpt>
      <trkpt lat="62.643006732016" lon="17.89392822424">
        <ele>70.6</ele>
        <time>2018-04-01T12:39:43Z</time>
      </trkpt>
      <trkpt lat="62.643015113916" lon="17.894060071527">
        <ele>70.6</ele>
        <time>2018-04-01T12:39:44Z</time>
      </trkpt>
      <trkpt lat="62.643022573807" lon="17.894185716208">
        <ele>70.4</ele>
        <time>2018-04-01T12:39:45Z</time>
      </trkpt>
      <trkpt lat="62.643029698422" lon="17.894314210735">
        <ele>70.4</ele>
        <time>2018-04-01T12:39:46Z</time>
      </trkpt>
      <trkpt lat="62.643037577408" lon="17.894421331417">
        <ele>70.4</ele>
        <time>2018-04-01T12:39:47Z</time>
      </trkpt>
      <trkpt lat="62.643049563525" lon="17.894578324404">
        <ele>70.2</ele>
        <time>2018-04-01T12:39:48Z</time>
      </trkpt>
      <trkpt lat="62.643059370348" lon="17.894708662949">
        <ele>70.2</ele>
        <time>2018-04-01T12:39:49Z</time>
      </trkpt>
      <trkpt lat="62.643069177171" lon="17.894841599883">
        <ele>70.2</ele>
        <time>2018-04-01T12:39:50Z</time>
      </trkpt>
      <trkpt lat="62.643076050329" lon="17.894976632292">
        <ele>70</ele>
        <time>2018-04-01T12:39:51Z</time>
      </trkpt>
      <trkpt lat="62.643081582383" lon="17.895107892846">
        <ele>70</ele>
        <time>2018-04-01T12:39:52Z</time>
      </trkpt>
      <trkpt lat="62.643088958455" lon="17.895246613291">
        <ele>70</ele>
        <time>2018-04-01T12:39:53Z</time>
      </trkpt>
      <trkpt lat="62.643097675631" lon="17.895396146387">
        <ele>69.8</ele>
        <time>2018-04-01T12:39:54Z</time>
      </trkpt>
      <trkpt lat="62.643104800246" lon="17.895535537384">
        <ele>69.8</ele>
        <time>2018-04-01T12:39:55Z</time>
      </trkpt>
      <trkpt lat="62.643110919033" lon="17.895674257829">
        <ele>69.8</ele>
        <time>2018-04-01T12:39:56Z</time>
      </trkpt>
      <trkpt lat="62.643116618725" lon="17.895804177279">
        <ele>69.6</ele>
        <time>2018-04-01T12:39:57Z</time>
      </trkpt>
      <trkpt lat="62.643121396408" lon="17.89594071843">
        <ele>69.6</ele>
        <time>2018-04-01T12:39:58Z</time>
      </trkpt>
      <trkpt lat="62.643124330073" lon="17.896077427219">
        <ele>69.4</ele>
        <time>2018-04-01T12:39:59Z</time>
      </trkpt>
      <trkpt lat="62.643127012281" lon="17.896221260623">
        <ele>69.4</ele>
        <time>2018-04-01T12:40:00Z</time>
      </trkpt>
      <trkpt lat="62.643127431376" lon="17.896355538661">
        <ele>69.4</ele>
        <time>2018-04-01T12:40:01Z</time>
      </trkpt>
      <trkpt lat="62.6431270961" lon="17.896479842238">
        <ele>69.4</ele>
        <time>2018-04-01T12:40:02Z</time>
      </trkpt>
      <trkpt lat="62.643126760824" lon="17.896621496348">
        <ele>69.2</ele>
        <time>2018-04-01T12:40:03Z</time>
      </trkpt>
      <trkpt lat="62.643126174091" lon="17.896753092178">
        <ele>69.2</ele>
        <time>2018-04-01T12:40:04Z</time>
      </trkpt>
      <trkpt lat="62.643126425548" lon="17.896874881185">
        <ele>69.2</ele>
        <time>2018-04-01T12:40:05Z</time>
      </trkpt>
      <trkpt lat="62.6431270961" lon="17.897011254698">
        <ele>69.2</ele>
        <time>2018-04-01T12:40:06Z</time>
      </trkpt>
      <trkpt lat="62.643125503539" lon="17.897132540791">
        <ele>69</ele>
        <time>2018-04-01T12:40:07Z</time>
      </trkpt>
      <trkpt lat="62.64312122877" lon="17.897267405562">
        <ele>69</ele>
        <time>2018-04-01T12:40:08Z</time>
      </trkpt>
      <trkpt lat="62.643117289277" lon="17.897388943112">
        <ele>68.8</ele>
        <time>2018-04-01T12:40:09Z</time>
      </trkpt>
      <trkpt lat="62.643113433603" lon="17.89751316287">
        <ele>68.8</ele>
        <time>2018-04-01T12:40:10Z</time>
      </trkpt>
      <trkpt lat="62.643110499938" lon="17.897629922737">
        <ele>68.6</ele>
        <time>2018-04-01T12:40:11Z</time>
      </trkpt>
      <trkpt lat="62.643107314816" lon="17.897755818875">
        <ele>68.4</ele>
        <time>2018-04-01T12:40:12Z</time>
      </trkpt>
      <trkpt lat="62.64310362678" lon="17.897881547375">
        <ele>68.6</ele>
        <time>2018-04-01T12:40:13Z</time>
      </trkpt>
      <trkpt lat="62.643097172717" lon="17.89801272411">
        <ele>68.6</ele>
        <time>2018-04-01T12:40:14Z</time>
      </trkpt>
      <trkpt lat="62.643092227396" lon="17.898136692411">
        <ele>68.6</ele>
        <time>2018-04-01T12:40:15Z</time>
      </trkpt>
      <trkpt lat="62.643088204084" lon="17.898260325436">
        <ele>68.6</ele>
        <time>2018-04-01T12:40:16Z</time>
      </trkpt>
      <trkpt lat="62.643085773333" lon="17.898357555476">
        <ele>68.6</ele>
        <time>2018-04-01T12:40:17Z</time>
      </trkpt>
      <trkpt lat="62.643082588211" lon="17.89850055069">
        <ele>68.4</ele>
        <time>2018-04-01T12:40:18Z</time>
      </trkpt>
      <trkpt lat="62.64307931927" lon="17.898618986937">
        <ele>68.4</ele>
        <time>2018-04-01T12:40:19Z</time>
      </trkpt>
      <trkpt lat="62.643075798872" lon="17.898733735148">
        <ele>68.6</ele>
        <time>2018-04-01T12:40:20Z</time>
      </trkpt>
      <trkpt lat="62.64307261375" lon="17.898848483359">
        <ele>68.6</ele>
        <time>2018-04-01T12:40:21Z</time>
      </trkpt>
      <trkpt lat="62.643070769732" lon="17.898958705344">
        <ele>68.6</ele>
        <time>2018-04-01T12:40:22Z</time>
      </trkpt>
      <trkpt lat="62.643066662601" lon="17.899074878478">
        <ele>68.6</ele>
        <time>2018-04-01T12:40:23Z</time>
      </trkpt>
      <trkpt lat="62.643062723108" lon="17.899197505675">
        <ele>68.6</ele>
        <time>2018-04-01T12:40:24Z</time>
      </trkpt>
      <trkpt lat="62.643061549642" lon="17.899310409868">
        <ele>68.6</ele>
        <time>2018-04-01T12:40:25Z</time>
      </trkpt>
      <trkpt lat="62.643058615977" lon="17.899423984613">
        <ele>68.6</ele>
        <time>2018-04-01T12:40:26Z</time>
      </trkpt>
      <trkpt lat="62.643056017588" lon="17.899530518562">
        <ele>68.8</ele>
        <time>2018-04-01T12:40:27Z</time>
      </trkpt>
      <trkpt lat="62.643051826638" lon="17.899645853506">
        <ele>68.8</ele>
        <time>2018-04-01T12:40:28Z</time>
      </trkpt>
      <trkpt lat="62.64304662986" lon="17.899762613373">
        <ele>68.8</ele>
        <time>2018-04-01T12:40:29Z</time>
      </trkpt>
      <trkpt lat="62.643043528557" lon="17.899850288047">
        <ele>69</ele>
        <time>2018-04-01T12:40:30Z</time>
      </trkpt>
      <trkpt lat="62.64303992434" lon="17.900001665161">
        <ele>69</ele>
        <time>2018-04-01T12:40:31Z</time>
      </trkpt>
      <trkpt lat="62.64303657158" lon="17.900113060612">
        <ele>69</ele>
        <time>2018-04-01T12:40:32Z</time>
      </trkpt>
      <trkpt lat="62.643030955707" lon="17.90024063313">
        <ele>69</ele>
        <time>2018-04-01T12:40:33Z</time>
      </trkpt>
      <trkpt lat="62.6430265133" lon="17.90036300887">
        <ele>69</ele>
        <time>2018-04-01T12:40:34Z</time>
      </trkpt>
      <trkpt lat="62.643023495816" lon="17.900478008538">
        <ele>68.8</ele>
        <time>2018-04-01T12:40:35Z</time>
      </trkpt>
      <trkpt lat="62.643018382857" lon="17.900606335427">
        <ele>68.8</ele>
        <time>2018-04-01T12:40:36Z</time>
      </trkpt>
      <trkpt lat="62.64301477864" lon="17.900724436398">
        <ele>69</ele>
        <time>2018-04-01T12:40:37Z</time>
      </trkpt>
      <trkpt lat="62.643010922966" lon="17.900857205694">
        <ele>69</ele>
        <time>2018-04-01T12:40:38Z</time>
      </trkpt>
      <trkpt lat="62.643005893826" lon="17.900983856203">
        <ele>69</ele>
        <time>2018-04-01T12:40:39Z</time>
      </trkpt>
      <trkpt lat="62.643001870514" lon="17.901108075961">
        <ele>69</ele>
        <time>2018-04-01T12:40:40Z</time>
      </trkpt>
      <trkpt lat="62.642998685392" lon="17.901227769493">
        <ele>69</ele>
        <time>2018-04-01T12:40:41Z</time>
      </trkpt>
      <trkpt lat="62.64299633846" lon="17.901352408346">
        <ele>69</ele>
        <time>2018-04-01T12:40:42Z</time>
      </trkpt>
      <trkpt lat="62.64299382389" lon="17.901481489606">
        <ele>68.8</ele>
        <time>2018-04-01T12:40:43Z</time>
      </trkpt>
      <trkpt lat="62.642989800578" lon="17.901616270558">
        <ele>68.8</ele>
        <time>2018-04-01T12:40:44Z</time>
      </trkpt>
      <trkpt lat="62.642986363999" lon="17.901741496144">
        <ele>68.8</ele>
        <time>2018-04-01T12:40:45Z</time>
      </trkpt>
      <trkpt lat="62.642983514153" lon="17.9018692363">
        <ele>68.8</ele>
        <time>2018-04-01T12:40:46Z</time>
      </trkpt>
      <trkpt lat="62.642979826117" lon="17.901972417489">
        <ele>68.8</ele>
        <time>2018-04-01T12:40:47Z</time>
      </trkpt>
      <trkpt lat="62.642975802805" lon="17.902121615309">
        <ele>68.8</ele>
        <time>2018-04-01T12:40:48Z</time>
      </trkpt>
      <trkpt lat="62.642971444217" lon="17.90224474542">
        <ele>68.8</ele>
        <time>2018-04-01T12:40:49Z</time>
      </trkpt>
      <trkpt lat="62.642968929647" lon="17.902368126988">
        <ele>68.6</ele>
        <time>2018-04-01T12:40:50Z</time>
      </trkpt>
      <trkpt lat="62.64296784" lon="17.902493101117">
        <ele>68.6</ele>
        <time>2018-04-01T12:40:51Z</time>
      </trkpt>
      <trkpt lat="62.642965995982" lon="17.902607262595">
        <ele>68.6</ele>
        <time>2018-04-01T12:40:52Z</time>
      </trkpt>
      <trkpt lat="62.642964654878" lon="17.90273005743">
        <ele>68.6</ele>
        <time>2018-04-01T12:40:53Z</time>
      </trkpt>
      <trkpt lat="62.642964738697" lon="17.902860312156">
        <ele>68.6</ele>
        <time>2018-04-01T12:40:54Z</time>
      </trkpt>
      <trkpt lat="62.64296532543" lon="17.902982771715">
        <ele>68.6</ele>
        <time>2018-04-01T12:40:55Z</time>
      </trkpt>
      <trkpt lat="62.642965995982" lon="17.903107913482">
        <ele>68.6</ele>
        <time>2018-04-01T12:40:56Z</time>
      </trkpt>
      <trkpt lat="62.642966666534" lon="17.903224002797">
        <ele>68.6</ele>
        <time>2018-04-01T12:40:57Z</time>
      </trkpt>
      <trkpt lat="62.642969600199" lon="17.903347384365">
        <ele>68.6</ele>
        <time>2018-04-01T12:40:58Z</time>
      </trkpt>
      <trkpt lat="62.642974461701" lon="17.903469424829">
        <ele>68.6</ele>
        <time>2018-04-01T12:40:59Z</time>
      </trkpt>
      <trkpt lat="62.64298292742" lon="17.903598003175">
        <ele>68.6</ele>
        <time>2018-04-01T12:41:00Z</time>
      </trkpt>
      <trkpt lat="62.642991141682" lon="17.903719540725">
        <ele>68.8</ele>
        <time>2018-04-01T12:41:01Z</time>
      </trkpt>
      <trkpt lat="62.642999188306" lon="17.903836132954">
        <ele>68.8</ele>
        <time>2018-04-01T12:41:02Z</time>
      </trkpt>
      <trkpt lat="62.643011928794" lon="17.903957586685">
        <ele>68.8</ele>
        <time>2018-04-01T12:41:03Z</time>
      </trkpt>
      <trkpt lat="62.643028776413" lon="17.904071412887">
        <ele>68.8</ele>
        <time>2018-04-01T12:41:04Z</time>
      </trkpt>
      <trkpt lat="62.643047300412" lon="17.904176270456">
        <ele>68.8</ele>
        <time>2018-04-01T12:41:05Z</time>
      </trkpt>
      <trkpt lat="62.643068590438" lon="17.904296802178">
        <ele>68.6</ele>
        <time>2018-04-01T12:41:06Z</time>
      </trkpt>
      <trkpt lat="62.643086946799" lon="17.904400905376">
        <ele>68.6</ele>
        <time>2018-04-01T12:41:07Z</time>
      </trkpt>
      <trkpt lat="62.643108404463" lon="17.904514480121">
        <ele>68.6</ele>
        <time>2018-04-01T12:41:08Z</time>
      </trkpt>
      <trkpt lat="62.643131789964" lon="17.904621181708">
        <ele>68.6</ele>
        <time>2018-04-01T12:41:09Z</time>
      </trkpt>
      <trkpt lat="62.643155678379" lon="17.904725201087">
        <ele>68.6</ele>
        <time>2018-04-01T12:41:10Z</time>
      </trkpt>
      <trkpt lat="62.643179231518" lon="17.90482217967">
        <ele>68.6</ele>
        <time>2018-04-01T12:41:11Z</time>
      </trkpt>
      <trkpt lat="62.643206640331" lon="17.904922175737">
        <ele>68.8</ele>
        <time>2018-04-01T12:41:12Z</time>
      </trkpt>
      <trkpt lat="62.643234803515" lon="17.905021333614">
        <ele>68.8</ele>
        <time>2018-04-01T12:41:13Z</time>
      </trkpt>
      <trkpt lat="62.643265732726" lon="17.905129208667">
        <ele>68.8</ele>
        <time>2018-04-01T12:41:14Z</time>
      </trkpt>
      <trkpt lat="62.643295404652" lon="17.905226941621">
        <ele>68.8</ele>
        <time>2018-04-01T12:41:15Z</time>
      </trkpt>
      <trkpt lat="62.64332909989" lon="17.905322076186">
        <ele>68.8</ele>
        <time>2018-04-01T12:41:16Z</time>
      </trkpt>
      <trkpt lat="62.64335759835" lon="17.905399022028">
        <ele>69</ele>
        <time>2018-04-01T12:41:17Z</time>
      </trkpt>
      <trkpt lat="62.643399172574" lon="17.905513183506">
        <ele>69</ele>
        <time>2018-04-01T12:41:18Z</time>
      </trkpt>
      <trkpt lat="62.643431694346" lon="17.905612676659">
        <ele>69</ele>
        <time>2018-04-01T12:41:19Z</time>
      </trkpt>
      <trkpt lat="62.643463042652" lon="17.905713510916">
        <ele>69</ele>
        <time>2018-04-01T12:41:20Z</time>
      </trkpt>
      <trkpt lat="62.64349841427" lon="17.905814428992">
        <ele>69</ele>
        <time>2018-04-01T12:41:21Z</time>
      </trkpt>
      <trkpt lat="62.643532947698" lon="17.905901936028">
        <ele>69</ele>
        <time>2018-04-01T12:41:22Z</time>
      </trkpt>
      <trkpt lat="62.643569744239" lon="17.906001596819">
        <ele>68.8</ele>
        <time>2018-04-01T12:41:23Z</time>
      </trkpt>
      <trkpt lat="62.643607127513" lon="17.906108885139">
        <ele>68.8</ele>
        <time>2018-04-01T12:41:24Z</time>
      </trkpt>
      <trkpt lat="62.643642499131" lon="17.906212653061">
        <ele>68.6</ele>
        <time>2018-04-01T12:41:25Z</time>
      </trkpt>
      <trkpt lat="62.643679211853" lon="17.906316085707">
        <ele>68.6</ele>
        <time>2018-04-01T12:41:26Z</time>
      </trkpt>
      <trkpt lat="62.643714834928" lon="17.906411220272">
        <ele>68.6</ele>
        <time>2018-04-01T12:41:27Z</time>
      </trkpt>
      <trkpt lat="62.64375238584" lon="17.906514904375">
        <ele>68.6</ele>
        <time>2018-04-01T12:41:28Z</time>
      </trkpt>
      <trkpt lat="62.64379010439" lon="17.906617247374">
        <ele>68.6</ele>
        <time>2018-04-01T12:41:29Z</time>
      </trkpt>
      <trkpt lat="62.6438311757" lon="17.90673241468">
        <ele>68.4</ele>
        <time>2018-04-01T12:41:30Z</time>
      </trkpt>
      <trkpt lat="62.643870235354" lon="17.906838697172">
        <ele>68.4</ele>
        <time>2018-04-01T12:41:31Z</time>
      </trkpt>
      <trkpt lat="62.643909546465" lon="17.9069402858">
        <ele>68.4</ele>
        <time>2018-04-01T12:41:32Z</time>
      </trkpt>
      <trkpt lat="62.643954221992" lon="17.90705595602">
        <ele>68.2</ele>
        <time>2018-04-01T12:41:33Z</time>
      </trkpt>
      <trkpt lat="62.643994287474" lon="17.907165004539">
        <ele>68</ele>
        <time>2018-04-01T12:41:34Z</time>
      </trkpt>
      <trkpt lat="62.64403150311" lon="17.907267850452">
        <ele>67.8</ele>
        <time>2018-04-01T12:41:35Z</time>
      </trkpt>
      <trkpt lat="62.644071568592" lon="17.907385867604">
        <ele>67.6</ele>
        <time>2018-04-01T12:41:36Z</time>
      </trkpt>
      <trkpt lat="62.644108029857" lon="17.907489886983">
        <ele>67.4</ele>
        <time>2018-04-01T12:41:37Z</time>
      </trkpt>
      <trkpt lat="62.644149268805" lon="17.907614106741">
        <ele>67.2</ele>
        <time>2018-04-01T12:41:38Z</time>
      </trkpt>
      <trkpt lat="62.644187238812" lon="17.907730615151">
        <ele>67</ele>
        <time>2018-04-01T12:41:39Z</time>
      </trkpt>
      <trkpt lat="62.644224873543" lon="17.907858774402">
        <ele>66.8</ele>
        <time>2018-04-01T12:41:40Z</time>
      </trkpt>
      <trkpt lat="62.644253120546" lon="17.907976959192">
        <ele>66.6</ele>
        <time>2018-04-01T12:41:41Z</time>
      </trkpt>
      <trkpt lat="62.644279355893" lon="17.908089779566">
        <ele>66.4</ele>
        <time>2018-04-01T12:41:42Z</time>
      </trkpt>
      <trkpt lat="62.644303663403" lon="17.908206539433">
        <ele>66.4</ele>
        <time>2018-04-01T12:41:43Z</time>
      </trkpt>
      <trkpt lat="62.644323277049" lon="17.908330088639">
        <ele>66.2</ele>
        <time>2018-04-01T12:41:44Z</time>
      </trkpt>
      <trkpt lat="62.644336268994" lon="17.908446597049">
        <ele>66.2</ele>
        <time>2018-04-01T12:41:45Z</time>
      </trkpt>
      <trkpt lat="62.644348422749" lon="17.908553885369">
        <ele>66.2</ele>
        <time>2018-04-01T12:41:46Z</time>
      </trkpt>
      <trkpt lat="62.644356385554" lon="17.908638123464">
        <ele>66.2</ele>
        <time>2018-04-01T12:41:47Z</time>
      </trkpt>
      <trkpt lat="62.644364096902" lon="17.908755218607">
        <ele>66.2</ele>
        <time>2018-04-01T12:41:48Z</time>
      </trkpt>
      <trkpt lat="62.6443676173" lon="17.908851694276">
        <ele>66.4</ele>
        <time>2018-04-01T12:41:49Z</time>
      </trkpt>
      <trkpt lat="62.64436929368" lon="17.908942218796">
        <ele>66.6</ele>
        <time>2018-04-01T12:41:50Z</time>
      </trkpt>
      <trkpt lat="62.644370634784" lon="17.909030815479">
        <ele>66.8</ele>
        <time>2018-04-01T12:41:51Z</time>
      </trkpt>
      <trkpt lat="62.644367533481" lon="17.9091111979">
        <ele>67</ele>
        <time>2018-04-01T12:41:52Z</time>
      </trkpt>
      <trkpt lat="62.644364851273" lon="17.909196525642">
        <ele>67.2</ele>
        <time>2018-04-01T12:41:53Z</time>
      </trkpt>
      <trkpt lat="62.644360157409" lon="17.909286295791">
        <ele>67.4</ele>
        <time>2018-04-01T12:41:54Z</time>
      </trkpt>
      <trkpt lat="62.644351607871" lon="17.909367516402">
        <ele>67.8</ele>
        <time>2018-04-01T12:41:55Z</time>
      </trkpt>
      <trkpt lat="62.644341884867" lon="17.909448066461">
        <ele>68</ele>
        <time>2018-04-01T12:41:56Z</time>
      </trkpt>
      <trkpt lat="62.644330066388" lon="17.90952107281">
        <ele>68.2</ele>
        <time>2018-04-01T12:41:57Z</time>
      </trkpt>
      <trkpt lat="62.644315900977" lon="17.909597683376">
        <ele>68.6</ele>
        <time>2018-04-01T12:41:58Z</time>
      </trkpt>
      <trkpt lat="62.644299556272" lon="17.909669600078">
        <ele>68.8</ele>
        <time>2018-04-01T12:41:59Z</time>
      </trkpt>
      <trkpt lat="62.644279439712" lon="17.909748557576">
        <ele>69</ele>
        <time>2018-04-01T12:42:00Z</time>
      </trkpt>
      <trkpt lat="62.644259742247" lon="17.909821815382">
        <ele>69.2</ele>
        <time>2018-04-01T12:42:01Z</time>
      </trkpt>
      <trkpt lat="62.644240296239" lon="17.909892055704">
        <ele>69.2</ele>
        <time>2018-04-01T12:42:02Z</time>
      </trkpt>
      <trkpt lat="62.644215569634" lon="17.909970594107">
        <ele>69.4</ele>
        <time>2018-04-01T12:42:03Z</time>
      </trkpt>
      <trkpt lat="62.644188663735" lon="17.910041756438">
        <ele>69.6</ele>
        <time>2018-04-01T12:42:04Z</time>
      </trkpt>
      <trkpt lat="62.644165026777" lon="17.910112248217">
        <ele>69.6</ele>
        <time>2018-04-01T12:42:05Z</time>
      </trkpt>
      <trkpt lat="62.644135354851" lon="17.910189613154">
        <ele>69.6</ele>
        <time>2018-04-01T12:42:06Z</time>
      </trkpt>
      <trkpt lat="62.6441077784" lon="17.910258009458">
        <ele>69.6</ele>
        <time>2018-04-01T12:42:07Z</time>
      </trkpt>
      <trkpt lat="62.644074586076" lon="17.910335625852">
        <ele>69.6</ele>
        <time>2018-04-01T12:42:08Z</time>
      </trkpt>
      <trkpt lat="62.644044662693" lon="17.910413409884">
        <ele>69.6</ele>
        <time>2018-04-01T12:42:09Z</time>
      </trkpt>
      <trkpt lat="62.644012643835" lon="17.910490271907">
        <ele>69.6</ele>
        <time>2018-04-01T12:42:10Z</time>
      </trkpt>
      <trkpt lat="62.643980708796" lon="17.910564284084">
        <ele>69.6</ele>
        <time>2018-04-01T12:42:11Z</time>
      </trkpt>
      <trkpt lat="62.643947181196" lon="17.910644331229">
        <ele>69.6</ele>
        <time>2018-04-01T12:42:12Z</time>
      </trkpt>
      <trkpt lat="62.643911474302" lon="17.910724126917">
        <ele>69.8</ele>
        <time>2018-04-01T12:42:13Z</time>
      </trkpt>
      <trkpt lat="62.64387224701" lon="17.910811717772">
        <ele>69.8</ele>
        <time>2018-04-01T12:42:14Z</time>
      </trkpt>
      <trkpt lat="62.643834109365" lon="17.910896961695">
        <ele>69.8</ele>
        <time>2018-04-01T12:42:15Z</time>
      </trkpt>
      <trkpt lat="62.643794043883" lon="17.910981283609">
        <ele>69.8</ele>
        <time>2018-04-01T12:42:16Z</time>
      </trkpt>
      <trkpt lat="62.64376076774" lon="17.911048757904">
        <ele>69.8</ele>
        <time>2018-04-01T12:42:17Z</time>
      </trkpt>
      <trkpt lat="62.643710057245" lon="17.911145317392">
        <ele>69.6</ele>
        <time>2018-04-01T12:42:18Z</time>
      </trkpt>
      <trkpt lat="62.64366772865" lon="17.91122678946">
        <ele>69.6</ele>
        <time>2018-04-01T12:42:19Z</time>
      </trkpt>
      <trkpt lat="62.643631183566" lon="17.911305411682">
        <ele>69.4</ele>
        <time>2018-04-01T12:42:20Z</time>
      </trkpt>
      <trkpt lat="62.643580808347" lon="17.91140616212">
        <ele>69.2</ele>
        <time>2018-04-01T12:42:21Z</time>
      </trkpt>
      <trkpt lat="62.643540994322" lon="17.911486544541">
        <ele>69</ele>
        <time>2018-04-01T12:42:22Z</time>
      </trkpt>
      <trkpt lat="62.64349841427" lon="17.911567346057">
        <ele>68.8</ele>
        <time>2018-04-01T12:42:23Z</time>
      </trkpt>
      <trkpt lat="62.643452984372" lon="17.911653009075">
        <ele>68.6</ele>
        <time>2018-04-01T12:42:24Z</time>
      </trkpt>
      <trkpt lat="62.643407722112" lon="17.911734481143">
        <ele>68.6</ele>
        <time>2018-04-01T12:42:25Z</time>
      </trkpt>
      <trkpt lat="62.643361370205" lon="17.911819557428">
        <ele>68.4</ele>
        <time>2018-04-01T12:42:26Z</time>
      </trkpt>
      <trkpt lat="62.643316694678" lon="17.911897006184">
        <ele>68.2</ele>
        <time>2018-04-01T12:42:27Z</time>
      </trkpt>
      <trkpt lat="62.643266403278" lon="17.911980992822">
        <ele>68.2</ele>
        <time>2018-04-01T12:42:28Z</time>
      </trkpt>
      <trkpt lat="62.643216363335" lon="17.912069673324">
        <ele>68</ele>
        <time>2018-04-01T12:42:29Z</time>
      </trkpt>
      <trkpt lat="62.643159114958" lon="17.912163299147">
        <ele>67.6</ele>
        <time>2018-04-01T12:42:30Z</time>
      </trkpt>
      <trkpt lat="62.643106895721" lon="17.912253069296">
        <ele>67.2</ele>
        <time>2018-04-01T12:42:31Z</time>
      </trkpt>
      <trkpt lat="62.643055598493" lon="17.912339989599">
        <ele>67.2</ele>
        <time>2018-04-01T12:42:32Z</time>
      </trkpt>
      <trkpt lat="62.642994913537" lon="17.912439231295">
        <ele>67</ele>
        <time>2018-04-01T12:42:33Z</time>
      </trkpt>
      <trkpt lat="62.64293850335" lon="17.912531096919">
        <ele>66.8</ele>
        <time>2018-04-01T12:42:34Z</time>
      </trkpt>
      <trkpt lat="62.64288485919" lon="17.912620196516">
        <ele>66.8</ele>
        <time>2018-04-01T12:42:35Z</time>
      </trkpt>
      <trkpt lat="62.642824174234" lon="17.912719941126">
        <ele>66.6</ele>
        <time>2018-04-01T12:42:36Z</time>
      </trkpt>
      <trkpt lat="62.64277002716" lon="17.912803592488">
        <ele>66.4</ele>
        <time>2018-04-01T12:42:37Z</time>
      </trkpt>
      <trkpt lat="62.642710431851" lon="17.912901241623">
        <ele>66</ele>
        <time>2018-04-01T12:42:38Z</time>
      </trkpt>
      <trkpt lat="62.642654105483" lon="17.912995454179">
        <ele>65.8</ele>
        <time>2018-04-01T12:42:39Z</time>
      </trkpt>
      <trkpt lat="62.642596354192" lon="17.913085643423">
        <ele>65.6</ele>
        <time>2018-04-01T12:42:40Z</time>
      </trkpt>
      <trkpt lat="62.642539776367" lon="17.913169127147">
        <ele>65.2</ele>
        <time>2018-04-01T12:42:41Z</time>
      </trkpt>
      <trkpt lat="62.642479761963" lon="17.913258394382">
        <ele>65</ele>
        <time>2018-04-01T12:42:42Z</time>
      </trkpt>
      <trkpt lat="62.642420837206" lon="17.913347493979">
        <ele>64.6</ele>
        <time>2018-04-01T12:42:43Z</time>
      </trkpt>
      <trkpt lat="62.642359397879" lon="17.913442712363">
        <ele>64.4</ele>
        <time>2018-04-01T12:42:44Z</time>
      </trkpt>
      <trkpt lat="62.64230315533" lon="17.913533991254">
        <ele>64.2</ele>
        <time>2018-04-01T12:42:45Z</time>
      </trkpt>
      <trkpt lat="62.642244901125" lon="17.913625270145">
        <ele>63.8</ele>
        <time>2018-04-01T12:42:46Z</time>
      </trkpt>
      <trkpt lat="62.642194693544" lon="17.913701210159">
        <ele>63.4</ele>
        <time>2018-04-01T12:42:47Z</time>
      </trkpt>
      <trkpt lat="62.642130152914" lon="17.91379835638">
        <ele>63.2</ele>
        <time>2018-04-01T12:42:48Z</time>
      </trkpt>
      <trkpt lat="62.642076508754" lon="17.91388217538">
        <ele>63</ele>
        <time>2018-04-01T12:42:49Z</time>
      </trkpt>
      <trkpt lat="62.642016242893" lon="17.913974879194">
        <ele>62.8</ele>
        <time>2018-04-01T12:42:50Z</time>
      </trkpt>
      <trkpt lat="62.641958575421" lon="17.914061631859">
        <ele>62.6</ele>
        <time>2018-04-01T12:42:51Z</time>
      </trkpt>
      <trkpt lat="62.64190585327" lon="17.914146289049">
        <ele>62.6</ele>
        <time>2018-04-01T12:42:52Z</time>
      </trkpt>
      <trkpt lat="62.64184885635" lon="17.914236897388">
        <ele>62.4</ele>
        <time>2018-04-01T12:42:53Z</time>
      </trkpt>
      <trkpt lat="62.641788674308" lon="17.914336641998">
        <ele>62.4</ele>
        <time>2018-04-01T12:42:54Z</time>
      </trkpt>
      <trkpt lat="62.641733772863" lon="17.914428842898">
        <ele>62</ele>
        <time>2018-04-01T12:42:55Z</time>
      </trkpt>
      <trkpt lat="62.641679709608" lon="17.914522049626">
        <ele>61.8</ele>
        <time>2018-04-01T12:42:56Z</time>
      </trkpt>
      <trkpt lat="62.641631094588" lon="17.914606958273">
        <ele>61.4</ele>
        <time>2018-04-01T12:42:57Z</time>
      </trkpt>
      <trkpt lat="62.641576779876" lon="17.91470108701">
        <ele>61.2</ele>
        <time>2018-04-01T12:42:58Z</time>
      </trkpt>
      <trkpt lat="62.64152280044" lon="17.91479328791">
        <ele>60.8</ele>
        <time>2018-04-01T12:42:59Z</time>
      </trkpt>
      <trkpt lat="62.641464462416" lon="17.914899570402">
        <ele>60.6</ele>
        <time>2018-04-01T12:43:00Z</time>
      </trkpt>
      <trkpt lat="62.641409058057" lon="17.915001745763">
        <ele>60.2</ele>
        <time>2018-04-01T12:43:01Z</time>
      </trkpt>
      <trkpt lat="62.641357341734" lon="17.915099813993">
        <ele>60</ele>
        <time>2018-04-01T12:43:02Z</time>
      </trkpt>
      <trkpt lat="62.64129900371" lon="17.915222525009">
        <ele>59.8</ele>
        <time>2018-04-01T12:43:03Z</time>
      </trkpt>
      <trkpt lat="62.641246952111" lon="17.915342050903">
        <ele>59.6</ele>
        <time>2018-04-01T12:43:04Z</time>
      </trkpt>
      <trkpt lat="62.641199175281" lon="17.915458978408">
        <ele>59.2</ele>
        <time>2018-04-01T12:43:05Z</time>
      </trkpt>
      <trkpt lat="62.641143435646" lon="17.915593004989">
        <ele>59</ele>
        <time>2018-04-01T12:43:06Z</time>
      </trkpt>
      <trkpt lat="62.641095826454" lon="17.915713536711">
        <ele>58.6</ele>
        <time>2018-04-01T12:43:07Z</time>
      </trkpt>
      <trkpt lat="62.64104167938" lon="17.915848904396">
        <ele>58.4</ele>
        <time>2018-04-01T12:43:08Z</time>
      </trkpt>
      <trkpt lat="62.640992058532" lon="17.91597178305">
        <ele>58.2</ele>
        <time>2018-04-01T12:43:09Z</time>
      </trkpt>
      <trkpt lat="62.640942186227" lon="17.916092901505">
        <ele>58</ele>
        <time>2018-04-01T12:43:10Z</time>
      </trkpt>
      <trkpt lat="62.640895163768" lon="17.916204296956">
        <ele>57.6</ele>
        <time>2018-04-01T12:43:11Z</time>
      </trkpt>
      <trkpt lat="62.640847973671" lon="17.916319799538">
        <ele>57.4</ele>
        <time>2018-04-01T12:43:12Z</time>
      </trkpt>
      <trkpt lat="62.640805225981" lon="17.916426584944">
        <ele>57.4</ele>
        <time>2018-04-01T12:43:13Z</time>
      </trkpt>
      <trkpt lat="62.640763484119" lon="17.916529933771">
        <ele>57.2</ele>
        <time>2018-04-01T12:43:14Z</time>
      </trkpt>
      <trkpt lat="62.640727861044" lon="17.916621715576">
        <ele>57</ele>
        <time>2018-04-01T12:43:15Z</time>
      </trkpt>
      <trkpt lat="62.640692740883" lon="17.916714587028">
        <ele>56.6</ele>
        <time>2018-04-01T12:43:16Z</time>
      </trkpt>
      <trkpt lat="62.640659380921" lon="17.916804440996">
        <ele>56.4</ele>
        <time>2018-04-01T12:43:17Z</time>
      </trkpt>
      <trkpt lat="62.640619902172" lon="17.91691055585">
        <ele>56.4</ele>
        <time>2018-04-01T12:43:18Z</time>
      </trkpt>
      <trkpt lat="62.640581261613" lon="17.917009629908">
        <ele>56</ele>
        <time>2018-04-01T12:43:19Z</time>
      </trkpt>
      <trkpt lat="62.640542453416" lon="17.917101411713">
        <ele>55.8</ele>
        <time>2018-04-01T12:43:20Z</time>
      </trkpt>
      <trkpt lat="62.640505824513" lon="17.917193193518">
        <ele>55.2</ele>
        <time>2018-04-01T12:43:21Z</time>
      </trkpt>
      <trkpt lat="62.640468441239" lon="17.917264523487">
        <ele>55</ele>
        <time>2018-04-01T12:43:22Z</time>
      </trkpt>
      <trkpt lat="62.640426783196" lon="17.917326130452">
        <ele>54.6</ele>
        <time>2018-04-01T12:43:23Z</time>
      </trkpt>
      <trkpt lat="62.640379928375" lon="17.917362172622">
        <ele>54.4</ele>
        <time>2018-04-01T12:43:24Z</time>
      </trkpt>
      <trkpt lat="62.640332486821" lon="17.917359155138">
        <ele>54.2</ele>
        <time>2018-04-01T12:43:25Z</time>
      </trkpt>
      <trkpt lat="62.640291331692" lon="17.917326633366">
        <ele>54.4</ele>
        <time>2018-04-01T12:43:26Z</time>
      </trkpt>
      <trkpt lat="62.640254870427" lon="17.91728271221">
        <ele>54.6</ele>
        <time>2018-04-01T12:43:27Z</time>
      </trkpt>
      <trkpt lat="62.640216481325" lon="17.91723158262">
        <ele>54.8</ele>
        <time>2018-04-01T12:43:28Z</time>
      </trkpt>
      <trkpt lat="62.640178511318" lon="17.917182045591">
        <ele>55</ele>
        <time>2018-04-01T12:43:29Z</time>
      </trkpt>
      <trkpt lat="62.640137942922" lon="17.917130832182">
        <ele>55.4</ele>
        <time>2018-04-01T12:43:30Z</time>
      </trkpt>
      <trkpt lat="62.640114473602" lon="17.917092191623">
        <ele>55.4</ele>
        <time>2018-04-01T12:43:31Z</time>
      </trkpt>
      <trkpt lat="62.640073234654" lon="17.917019604369">
        <ele>55.6</ele>
        <time>2018-04-01T12:43:32Z</time>
      </trkpt>
      <trkpt lat="62.64004004233" lon="17.916961601621">
        <ele>56</ele>
        <time>2018-04-01T12:43:33Z</time>
      </trkpt>
      <trkpt lat="62.640008526386" lon="17.916904772339">
        <ele>56</ele>
        <time>2018-04-01T12:43:34Z</time>
      </trkpt>
      <trkpt lat="62.639978351546" lon="17.916851128179">
        <ele>56.2</ele>
        <time>2018-04-01T12:43:35Z</time>
      </trkpt>
      <trkpt lat="62.639944572489" lon="17.916787174282">
        <ele>56.4</ele>
        <time>2018-04-01T12:43:36Z</time>
      </trkpt>
      <trkpt lat="62.639914565287" lon="17.916729758267">
        <ele>56.6</ele>
        <time>2018-04-01T12:43:37Z</time>
      </trkpt>
      <trkpt lat="62.639880618592" lon="17.916667396931">
        <ele>56.8</ele>
        <time>2018-04-01T12:43:38Z</time>
      </trkpt>
      <trkpt lat="62.639847510087" lon="17.916605873785">
        <ele>57</ele>
        <time>2018-04-01T12:43:39Z</time>
      </trkpt>
      <trkpt lat="62.639815910324" lon="17.91654259044">
        <ele>57.4</ele>
        <time>2018-04-01T12:43:40Z</time>
      </trkpt>
      <trkpt lat="62.639784645837" lon="17.916482492217">
        <ele>57.6</ele>
        <time>2018-04-01T12:43:41Z</time>
      </trkpt>
      <trkpt lat="62.639749693314" lon="17.916417867768">
        <ele>57.6</ele>
        <time>2018-04-01T12:43:42Z</time>
      </trkpt>
      <trkpt lat="62.639715578981" lon="17.916348297998">
        <ele>57.8</ele>
        <time>2018-04-01T12:43:43Z</time>
      </trkpt>
      <trkpt lat="62.639682219019" lon="17.916275291649">
        <ele>57.8</ele>
        <time>2018-04-01T12:43:44Z</time>
      </trkpt>
      <trkpt lat="62.639654977844" lon="17.916203542585">
        <ele>57.8</ele>
        <time>2018-04-01T12:43:45Z</time>
      </trkpt>
      <trkpt lat="62.639631089429" lon="17.916130955331">
        <ele>57.8</ele>
        <time>2018-04-01T12:43:46Z</time>
      </trkpt>
      <trkpt lat="62.639612481611" lon="17.916073874592">
        <ele>57.8</ele>
        <time>2018-04-01T12:43:47Z</time>
      </trkpt>
      <trkpt lat="62.639586078626" lon="17.91599189961">
        <ele>57.6</ele>
        <time>2018-04-01T12:43:48Z</time>
      </trkpt>
      <trkpt lat="62.639557831623" lon="17.915932220482">
        <ele>57.6</ele>
        <time>2018-04-01T12:43:49Z</time>
      </trkpt>
      <trkpt lat="62.639520867444" lon="17.915890227163">
        <ele>57.6</ele>
        <time>2018-04-01T12:43:50Z</time>
      </trkpt>
      <trkpt lat="62.639478957944" lon="17.915873211906">
        <ele>57.6</ele>
        <time>2018-04-01T12:43:51Z</time>
      </trkpt>
      <trkpt lat="62.639434952969" lon="17.915879749788">
        <ele>57.6</ele>
        <time>2018-04-01T12:43:52Z</time>
      </trkpt>
      <trkpt lat="62.639387595234" lon="17.915904224936">
        <ele>57.6</ele>
        <time>2018-04-01T12:43:53Z</time>
      </trkpt>
      <trkpt lat="62.639336130368" lon="17.915947391721">
        <ele>57.6</ele>
        <time>2018-04-01T12:43:54Z</time>
      </trkpt>
      <trkpt lat="62.639286425701" lon="17.915987624841">
        <ele>57.6</ele>
        <time>2018-04-01T12:43:55Z</time>
      </trkpt>
      <trkpt lat="62.639233619731" lon="17.916029199065">
        <ele>57.6</ele>
        <time>2018-04-01T12:43:56Z</time>
      </trkpt>
      <trkpt lat="62.639182909236" lon="17.916066414701">
        <ele>57.6</ele>
        <time>2018-04-01T12:43:57Z</time>
      </trkpt>
      <trkpt lat="62.639127421058" lon="17.916105306717">
        <ele>57.8</ele>
        <time>2018-04-01T12:43:58Z</time>
      </trkpt>
      <trkpt lat="62.639069921224" lon="17.916144869285">
        <ele>57.8</ele>
        <time>2018-04-01T12:43:59Z</time>
      </trkpt>
      <trkpt lat="62.639005548232" lon="17.91618719788">
        <ele>57.8</ele>
        <time>2018-04-01T12:44:00Z</time>
      </trkpt>
      <trkpt lat="62.638943522172" lon="17.91622491643">
        <ele>57.8</ele>
        <time>2018-04-01T12:44:01Z</time>
      </trkpt>
      <trkpt lat="62.63888417832" lon="17.916260790962">
        <ele>57.8</ele>
        <time>2018-04-01T12:44:02Z</time>
      </trkpt>
      <trkpt lat="62.638816955482" lon="17.916301443177">
        <ele>57.6</ele>
        <time>2018-04-01T12:44:03Z</time>
      </trkpt>
      <trkpt lat="62.638753085404" lon="17.91633974846">
        <ele>57.6</ele>
        <time>2018-04-01T12:44:04Z</time>
      </trkpt>
      <trkpt lat="62.638694412104" lon="17.916378724295">
        <ele>57.4</ele>
        <time>2018-04-01T12:44:05Z</time>
      </trkpt>
      <trkpt lat="62.638625931981" lon="17.916420298519">
        <ele>57.4</ele>
        <time>2018-04-01T12:44:06Z</time>
      </trkpt>
      <trkpt lat="62.638562397179" lon="17.916453909938">
        <ele>57.4</ele>
        <time>2018-04-01T12:44:07Z</time>
      </trkpt>
      <trkpt lat="62.638492156857" lon="17.916486850805">
        <ele>57.2</ele>
        <time>2018-04-01T12:44:08Z</time>
      </trkpt>
      <trkpt lat="62.63842904115" lon="17.916512080324">
        <ele>57</ele>
        <time>2018-04-01T12:44:09Z</time>
      </trkpt>
      <trkpt lat="62.638362069769" lon="17.91654091406">
        <ele>57</ele>
        <time>2018-04-01T12:44:10Z</time>
      </trkpt>
      <trkpt lat="62.638299624614" lon="17.916571256538">
        <ele>56.8</ele>
        <time>2018-04-01T12:44:11Z</time>
      </trkpt>
      <trkpt lat="62.63823374288" lon="17.916602856301">
        <ele>56.8</ele>
        <time>2018-04-01T12:44:12Z</time>
      </trkpt>
      <trkpt lat="62.638166771499" lon="17.91663395315">
        <ele>56.8</ele>
        <time>2018-04-01T12:44:13Z</time>
      </trkpt>
      <trkpt lat="62.638095609168" lon="17.916667983664">
        <ele>56.8</ele>
        <time>2018-04-01T12:44:14Z</time>
      </trkpt>
      <trkpt lat="62.638031068538" lon="17.916698912875">
        <ele>56.8</ele>
        <time>2018-04-01T12:44:15Z</time>
      </trkpt>
      <trkpt lat="62.637965102985" lon="17.916731267009">
        <ele>56.8</ele>
        <time>2018-04-01T12:44:16Z</time>
      </trkpt>
      <trkpt lat="62.63791103973" lon="17.91675465251">
        <ele>56.6</ele>
        <time>2018-04-01T12:44:17Z</time>
      </trkpt>
      <trkpt lat="62.637832166051" lon="17.916791113775">
        <ele>56.6</ele>
        <time>2018-04-01T12:44:18Z</time>
      </trkpt>
      <trkpt lat="62.637765110851" lon="17.916821456253">
        <ele>56.6</ele>
        <time>2018-04-01T12:44:19Z</time>
      </trkpt>
      <trkpt lat="62.637697217461" lon="17.916848781247">
        <ele>56.6</ele>
        <time>2018-04-01T12:44:20Z</time>
      </trkpt>
      <trkpt lat="62.637628234424" lon="17.916865461228">
        <ele>56.6</ele>
        <time>2018-04-01T12:44:21Z</time>
      </trkpt>
      <trkpt lat="62.637560424853" lon="17.916883063218">
        <ele>56.4</ele>
        <time>2018-04-01T12:44:22Z</time>
      </trkpt>
      <trkpt lat="62.637487083228" lon="17.91689546843">
        <ele>56.2</ele>
        <time>2018-04-01T12:44:23Z</time>
      </trkpt>
      <trkpt lat="62.637405192065" lon="17.916913154239">
        <ele>56</ele>
        <time>2018-04-01T12:44:24Z</time>
      </trkpt>
      <trkpt lat="62.637326486024" lon="17.916939389586">
        <ele>55.6</ele>
        <time>2018-04-01T12:44:25Z</time>
      </trkpt>
      <trkpt lat="62.63724886963" lon="17.916968642417">
        <ele>55.2</ele>
        <time>2018-04-01T12:44:26Z</time>
      </trkpt>
      <trkpt lat="62.637173264892" lon="17.916995967411">
        <ele>54.6</ele>
        <time>2018-04-01T12:44:27Z</time>
      </trkpt>
      <trkpt lat="62.637097576335" lon="17.917025220242">
        <ele>54</ele>
        <time>2018-04-01T12:44:28Z</time>
      </trkpt>
      <trkpt lat="62.63702758747" lon="17.917050114485">
        <ele>53.4</ele>
        <time>2018-04-01T12:44:29Z</time>
      </trkpt>
      <trkpt lat="62.636950641628" lon="17.917073416167">
        <ele>53</ele>
        <time>2018-04-01T12:44:30Z</time>
      </trkpt>
      <trkpt lat="62.636884424618" lon="17.917095879659">
        <ele>52.2</ele>
        <time>2018-04-01T12:44:31Z</time>
      </trkpt>
      <trkpt lat="62.636828182069" lon="17.917118007875">
        <ele>51.6</ele>
        <time>2018-04-01T12:44:32Z</time>
      </trkpt>
      <trkpt lat="62.636769592588" lon="17.917141812471">
        <ele>51</ele>
        <time>2018-04-01T12:44:33Z</time>
      </trkpt>
      <trkpt lat="62.63671829536" lon="17.91716201285">
        <ele>50.4</ele>
        <time>2018-04-01T12:44:34Z</time>
      </trkpt>
      <trkpt lat="62.636669847978" lon="17.9171829676">
        <ele>50.2</ele>
        <time>2018-04-01T12:44:35Z</time>
      </trkpt>
      <trkpt lat="62.636614611257" lon="17.917215070277">
        <ele>49.8</ele>
        <time>2018-04-01T12:44:36Z</time>
      </trkpt>
      <trkpt lat="62.636564403676" lon="17.917249352248">
        <ele>49.6</ele>
        <time>2018-04-01T12:44:37Z</time>
      </trkpt>
      <trkpt lat="62.636509502231" lon="17.917296626164">
        <ele>49.4</ele>
        <time>2018-04-01T12:44:38Z</time>
      </trkpt>
      <trkpt lat="62.636461473944" lon="17.917347755754">
        <ele>49.2</ele>
        <time>2018-04-01T12:44:39Z</time>
      </trkpt>
      <trkpt lat="62.636417720426" lon="17.91740257338">
        <ele>49.2</ele>
        <time>2018-04-01T12:44:40Z</time>
      </trkpt>
      <trkpt lat="62.636379415143" lon="17.917457474825">
        <ele>49</ele>
        <time>2018-04-01T12:44:41Z</time>
      </trkpt>
      <trkpt lat="62.636344378801" lon="17.917514220288">
        <ele>48.8</ele>
        <time>2018-04-01T12:44:42Z</time>
      </trkpt>
      <trkpt lat="62.636310515925" lon="17.917566104249">
        <ele>48.8</ele>
        <time>2018-04-01T12:44:43Z</time>
      </trkpt>
      <trkpt lat="62.636275982497" lon="17.917622849712">
        <ele>48.6</ele>
        <time>2018-04-01T12:44:44Z</time>
      </trkpt>
      <trkpt lat="62.636245388562" lon="17.917678756985">
        <ele>48.4</ele>
        <time>2018-04-01T12:44:45Z</time>
      </trkpt>
      <trkpt lat="62.636215548998" lon="17.917736675914">
        <ele>48.2</ele>
        <time>2018-04-01T12:44:46Z</time>
      </trkpt>
      <trkpt lat="62.636190654755" lon="17.917777998681">
        <ele>48.2</ele>
        <time>2018-04-01T12:44:47Z</time>
      </trkpt>
      <trkpt lat="62.636153103843" lon="17.917820494914">
        <ele>48</ele>
        <time>2018-04-01T12:44:48Z</time>
      </trkpt>
      <trkpt lat="62.636116307302" lon="17.917836085248">
        <ele>47.8</ele>
        <time>2018-04-01T12:44:49Z</time>
      </trkpt>
      <trkpt lat="62.636076828553" lon="17.917833654497">
        <ele>47.8</ele>
        <time>2018-04-01T12:44:50Z</time>
      </trkpt>
      <trkpt lat="62.636036595433" lon="17.917807502969">
        <ele>47.8</ele>
        <time>2018-04-01T12:44:51Z</time>
      </trkpt>
      <trkpt lat="62.63600331929" lon="17.917761737795">
        <ele>47.8</ele>
        <time>2018-04-01T12:44:52Z</time>
      </trkpt>
      <trkpt lat="62.635969372595" lon="17.91770180721">
        <ele>48</ele>
        <time>2018-04-01T12:44:53Z</time>
      </trkpt>
      <trkpt lat="62.635934252434" lon="17.917641038435">
        <ele>48.2</ele>
        <time>2018-04-01T12:44:54Z</time>
      </trkpt>
      <trkpt lat="62.635899802825" lon="17.917591752863">
        <ele>48.4</ele>
        <time>2018-04-01T12:44:55Z</time>
      </trkpt>
      <trkpt lat="62.635867113415" lon="17.917546574422">
        <ele>48.8</ele>
        <time>2018-04-01T12:44:56Z</time>
      </trkpt>
      <trkpt lat="62.635836184204" lon="17.917502988542">
        <ele>48.8</ele>
        <time>2018-04-01T12:44:57Z</time>
      </trkpt>
      <trkpt lat="62.635803578613" lon="17.917455882264">
        <ele>49</ele>
        <time>2018-04-01T12:44:58Z</time>
      </trkpt>
      <trkpt lat="62.635771475936" lon="17.917408273072">
        <ele>49.4</ele>
        <time>2018-04-01T12:44:59Z</time>
      </trkpt>
      <trkpt lat="62.635738199793" lon="17.917353790722">
        <ele>49.6</ele>
        <time>2018-04-01T12:45:00Z</time>
      </trkpt>
      <trkpt lat="62.635707354401" lon="17.917309785747">
        <ele>49.6</ele>
        <time>2018-04-01T12:45:01Z</time>
      </trkpt>
      <trkpt lat="62.635675754638" lon="17.917266283686">
        <ele>50</ele>
        <time>2018-04-01T12:45:02Z</time>
      </trkpt>
      <trkpt lat="62.635644322513" lon="17.917217836304">
        <ele>50.2</ele>
        <time>2018-04-01T12:45:03Z</time>
      </trkpt>
      <trkpt lat="62.635612555112" lon="17.917171484397">
        <ele>50.6</ele>
        <time>2018-04-01T12:45:04Z</time>
      </trkpt>
      <trkpt lat="62.635582631729" lon="17.917127982336">
        <ele>50.8</ele>
        <time>2018-04-01T12:45:05Z</time>
      </trkpt>
      <trkpt lat="62.635548685034" lon="17.917078948221">
        <ele>51</ele>
        <time>2018-04-01T12:45:06Z</time>
      </trkpt>
      <trkpt lat="62.635520857126" lon="17.917035027065">
        <ele>51.4</ele>
        <time>2018-04-01T12:45:07Z</time>
      </trkpt>
      <trkpt lat="62.6354911852" lon="17.916985238579">
        <ele>52</ele>
        <time>2018-04-01T12:45:08Z</time>
      </trkpt>
      <trkpt lat="62.635472242106" lon="17.916924888899">
        <ele>52.2</ele>
        <time>2018-04-01T12:45:09Z</time>
      </trkpt>
      <trkpt lat="62.63546184855" lon="17.916855319129">
        <ele>52.6</ele>
        <time>2018-04-01T12:45:10Z</time>
      </trkpt>
      <trkpt lat="62.635464279301" lon="17.916789185938">
        <ele>53</ele>
        <time>2018-04-01T12:45:11Z</time>
      </trkpt>
      <trkpt lat="62.635475343409" lon="17.916724561489">
        <ele>53.4</ele>
        <time>2018-04-01T12:45:12Z</time>
      </trkpt>
      <trkpt lat="62.635489173544" lon="17.916663205981">
        <ele>53.6</ele>
        <time>2018-04-01T12:45:13Z</time>
      </trkpt>
      <trkpt lat="62.635505266792" lon="17.916600341731">
        <ele>53.8</ele>
        <time>2018-04-01T12:45:14Z</time>
      </trkpt>
      <trkpt lat="62.635519180746" lon="17.91653923768">
        <ele>54.2</ele>
        <time>2018-04-01T12:45:15Z</time>
      </trkpt>
      <trkpt lat="62.63553393289" lon="17.916476624887">
        <ele>54.4</ele>
        <time>2018-04-01T12:45:16Z</time>
      </trkpt>
      <trkpt lat="62.635546338102" lon="17.91643027298">
        <ele>54.6</ele>
        <time>2018-04-01T12:45:17Z</time>
      </trkpt>
      <trkpt lat="62.635566370843" lon="17.916362798685">
        <ele>54.6</ele>
        <time>2018-04-01T12:45:18Z</time>
      </trkpt>
      <trkpt lat="62.635580284797" lon="17.916311082362">
        <ele>54.8</ele>
        <time>2018-04-01T12:45:19Z</time>
      </trkpt>
      <trkpt lat="62.635589840163" lon="17.916280488427">
        <ele>55</ele>
        <time>2018-04-01T12:45:20Z</time>
      </trkpt>
      <trkpt lat="62.635591181267" lon="17.916268921405">
        <ele>55.2</ele>
        <time>2018-04-01T12:45:21Z</time>
      </trkpt>
      <trkpt lat="62.635591181267" lon="17.916276297477">
        <ele>55.2</ele>
        <time>2018-04-01T12:45:22Z</time>
      </trkpt>
      <trkpt lat="62.635591851819" lon="17.916277051848">
        <ele>55.4</ele>
        <time>2018-04-01T12:45:23Z</time>
      </trkpt>
      <trkpt lat="62.635603418841" lon="17.91623748928">
        <ele>55.6</ele>
        <time>2018-04-01T12:45:25Z</time>
      </trkpt>
      <trkpt lat="62.635604257031" lon="17.916230532303">
        <ele>55.6</ele>
        <time>2018-04-01T12:45:26Z</time>
      </trkpt>
      <trkpt lat="62.635605430497" lon="17.916236148176">
        <ele>55.8</ele>
        <time>2018-04-01T12:45:28Z</time>
      </trkpt>
      <trkpt lat="62.635688578945" lon="17.915930627921">
        <ele>56.6</ele>
        <time>2018-04-01T12:45:43Z</time>
      </trkpt>
      <trkpt lat="62.63569486537" lon="17.915908248248">
        <ele>56.6</ele>
        <time>2018-04-01T12:45:44Z</time>
      </trkpt>
      <trkpt lat="62.635702744356" lon="17.915880923254">
        <ele>56.6</ele>
        <time>2018-04-01T12:45:45Z</time>
      </trkpt>
      <trkpt lat="62.635708863143" lon="17.915857453934">
        <ele>56.8</ele>
        <time>2018-04-01T12:45:46Z</time>
      </trkpt>
      <trkpt lat="62.635714898111" lon="17.915838259383">
        <ele>56.8</ele>
        <time>2018-04-01T12:45:47Z</time>
      </trkpt>
      <trkpt lat="62.635720430165" lon="17.915809677104">
        <ele>57</ele>
        <time>2018-04-01T12:45:48Z</time>
      </trkpt>
      <trkpt lat="62.635728979703" lon="17.915785201956">
        <ele>57</ele>
        <time>2018-04-01T12:45:49Z</time>
      </trkpt>
      <trkpt lat="62.635735014671" lon="17.915763492835">
        <ele>57.2</ele>
        <time>2018-04-01T12:45:50Z</time>
      </trkpt>
      <trkpt lat="62.635742306924" lon="17.91573876623">
        <ele>57.6</ele>
        <time>2018-04-01T12:45:51Z</time>
      </trkpt>
      <trkpt lat="62.635747838978" lon="17.915714793996">
        <ele>57.4</ele>
        <time>2018-04-01T12:45:52Z</time>
      </trkpt>
      <trkpt lat="62.635756220878" lon="17.915694928893">
        <ele>57.6</ele>
        <time>2018-04-01T12:45:53Z</time>
      </trkpt>
      <trkpt lat="62.635765524787" lon="17.915669112641">
        <ele>57.6</ele>
        <time>2018-04-01T12:45:54Z</time>
      </trkpt>
      <trkpt lat="62.635771224479" lon="17.915647738796">
        <ele>57.8</ele>
        <time>2018-04-01T12:45:55Z</time>
      </trkpt>
      <trkpt lat="62.63577868437" lon="17.91562561058">
        <ele>57.6</ele>
        <time>2018-04-01T12:45:56Z</time>
      </trkpt>
      <trkpt lat="62.635786395718" lon="17.915604907287">
        <ele>57.6</ele>
        <time>2018-04-01T12:45:57Z</time>
      </trkpt>
      <trkpt lat="62.635792682143" lon="17.915584036356">
        <ele>57.6</ele>
        <time>2018-04-01T12:45:58Z</time>
      </trkpt>
      <trkpt lat="62.635797040731" lon="17.915564171253">
        <ele>57.6</ele>
        <time>2018-04-01T12:45:59Z</time>
      </trkpt>
      <trkpt lat="62.635799303844" lon="17.915549502928">
        <ele>57.6</ele>
        <time>2018-04-01T12:46:00Z</time>
      </trkpt>
      <trkpt lat="62.63579544817" lon="17.915548580919">
        <ele>57.6</ele>
        <time>2018-04-01T12:46:01Z</time>
      </trkpt>
      <trkpt lat="62.635794777618" lon="17.915522597029">
        <ele>57.6</ele>
        <time>2018-04-01T12:46:02Z</time>
      </trkpt>
      <trkpt lat="62.635791341039" lon="17.915506084686">
        <ele>57.8</ele>
        <time>2018-04-01T12:46:03Z</time>
      </trkpt>
      <trkpt lat="62.635788323555" lon="17.91549150018">
        <ele>57.8</ele>
        <time>2018-04-01T12:46:04Z</time>
      </trkpt>
      <trkpt lat="62.635785976623" lon="17.9154814419">
        <ele>57.8</ele>
        <time>2018-04-01T12:46:05Z</time>
      </trkpt>
      <trkpt lat="62.635783210596" lon="17.915470629249">
        <ele>57.8</ele>
        <time>2018-04-01T12:46:06Z</time>
      </trkpt>
      <trkpt lat="62.635779857836" lon="17.915458726951">
        <ele>57.8</ele>
        <time>2018-04-01T12:46:07Z</time>
      </trkpt>
      <trkpt lat="62.63577281704" lon="17.915444980635">
        <ele>57.8</ele>
        <time>2018-04-01T12:46:08Z</time>
      </trkpt>
      <trkpt lat="62.635764183683" lon="17.915434838536">
        <ele>58</ele>
        <time>2018-04-01T12:46:09Z</time>
      </trkpt>
      <trkpt lat="62.635754460679" lon="17.915429222663">
        <ele>58</ele>
        <time>2018-04-01T12:46:10Z</time>
      </trkpt>
      <trkpt lat="62.635744989132" lon="17.91542612136">
        <ele>58.2</ele>
        <time>2018-04-01T12:46:11Z</time>
      </trkpt>
      <trkpt lat="62.6357342603" lon="17.915419164383">
        <ele>58.4</ele>
        <time>2018-04-01T12:46:12Z</time>
      </trkpt>
      <trkpt lat="62.635723950563" lon="17.915407010628">
        <ele>58.4</ele>
        <time>2018-04-01T12:46:13Z</time>
      </trkpt>
      <trkpt lat="62.63571498193" lon="17.915393599588">
        <ele>58.6</ele>
        <time>2018-04-01T12:46:14Z</time>
      </trkpt>
      <trkpt lat="62.635706935306" lon="17.915378260711">
        <ele>58.8</ele>
        <time>2018-04-01T12:46:15Z</time>
      </trkpt>
      <trkpt lat="62.635700900338" lon="17.915363005653">
        <ele>58.6</ele>
        <time>2018-04-01T12:46:16Z</time>
      </trkpt>
      <trkpt lat="62.635695284465" lon="17.915345990396">
        <ele>58.8</ele>
        <time>2018-04-01T12:46:17Z</time>
      </trkpt>
      <trkpt lat="62.635686902565" lon="17.915328388406">
        <ele>58.8</ele>
        <time>2018-04-01T12:46:18Z</time>
      </trkpt>
      <trkpt lat="62.635679694131" lon="17.915315564099">
        <ele>59</ele>
        <time>2018-04-01T12:46:19Z</time>
      </trkpt>
      <trkpt lat="62.635670809317" lon="17.915297794471">
        <ele>59.2</ele>
        <time>2018-04-01T12:46:20Z</time>
      </trkpt>
      <trkpt lat="62.635662259779" lon="17.91527859992">
        <ele>59.4</ele>
        <time>2018-04-01T12:46:21Z</time>
      </trkpt>
      <trkpt lat="62.635657314458" lon="17.915262925767">
        <ele>59.4</ele>
        <time>2018-04-01T12:46:22Z</time>
      </trkpt>
      <trkpt lat="62.635652033861" lon="17.915247251614">
        <ele>59.4</ele>
        <time>2018-04-01T12:46:23Z</time>
      </trkpt>
      <trkpt lat="62.635651698585" lon="17.915233589117">
        <ele>59.6</ele>
        <time>2018-04-01T12:46:24Z</time>
      </trkpt>
      <trkpt lat="62.63565463225" lon="17.915221183905">
        <ele>59.6</ele>
        <time>2018-04-01T12:46:25Z</time>
      </trkpt>
      <trkpt lat="62.635655051345" lon="17.91521154472">
        <ele>59.8</ele>
        <time>2018-04-01T12:46:26Z</time>
      </trkpt>
      <trkpt lat="62.635654967526" lon="17.915219256068">
        <ele>60</ele>
        <time>2018-04-01T12:46:27Z</time>
      </trkpt>
    </trkseg>
  </trk>
</gpx>